﻿<?xml version="1.0" encoding="utf-8" standalone="yes"?>
<gpx version="1.0" creator="CanWay - http://www.canwaygps.com" xmlns:xsi="http://www.w3.org/2001/XMLSchema-instance" xmlns="http://www.topografix.com/GPX/1/0" xsi:schemaLocation="http://www.topografix.com/GPX/1/0 http://www.topografix.com/GPX/1/0/gpx.xsd">
<time>2023-05-14T21:28:48Z</time>
<bounds minlat="47.345361" minlon="7.768558" maxlat="47.373769" maxlon="7.855391" />
<trk>
<name>Langenbruck_Belchenflue_Ifenthal</name>
<trkseg>
<trkpt lat="47.346156" lon="7.768695">
<ele>405.1</ele>
<time>2003-02-20T06:35:58Z</time>
<speed>0.6</speed>
</trkpt>
<trkpt lat="47.346150" lon="7.768735">
<ele>415.3</ele>
<time>2003-02-20T06:36:03Z</time>
<speed>2.1</speed>
</trkpt>
<trkpt lat="47.346242" lon="7.768697">
<ele>414.0</ele>
<time>2003-02-20T06:36:08Z</time>
<speed>4.5</speed>
</trkpt>
<trkpt lat="47.346419" lon="7.768558">
<ele>395.9</ele>
<time>2003-02-20T06:36:13Z</time>
<speed>5.1</speed>
</trkpt>
<trkpt lat="47.346209" lon="7.768701">
<ele>417.4</ele>
<time>2003-02-20T06:36:18Z</time>
<speed>19.8</speed>
</trkpt>
<trkpt lat="47.345361" lon="7.769103">
<ele>641.5</ele>
<time>2003-02-20T06:36:23Z</time>
<speed>1.8</speed>
</trkpt>
<trkpt lat="47.345433" lon="7.769156">
<ele>661.4</ele>
<time>2003-02-20T06:36:28Z</time>
<speed>0.0</speed>
</trkpt>
<trkpt lat="47.345433" lon="7.769156">
<ele>661.4</ele>
<time>2003-02-20T06:36:33Z</time>
<speed>1.3</speed>
</trkpt>
<trkpt lat="47.345449" lon="7.769239">
<ele>672.0</ele>
<time>2003-02-20T06:36:38Z</time>
<speed>1.5</speed>
</trkpt>
<trkpt lat="47.345473" lon="7.769331">
<ele>676.3</ele>
<time>2003-02-20T06:36:43Z</time>
<speed>0.1</speed>
</trkpt>
<trkpt lat="47.345479" lon="7.769331">
<ele>677.1</ele>
<time>2003-02-20T06:36:48Z</time>
<speed>0.4</speed>
</trkpt>
<trkpt lat="47.345471" lon="7.769355">
<ele>677.9</ele>
<time>2003-02-20T06:36:53Z</time>
<speed>1.1</speed>
</trkpt>
<trkpt lat="47.345522" lon="7.769316">
<ele>683.5</ele>
<time>2003-02-20T06:36:59Z</time>
<speed>1.1</speed>
</trkpt>
<trkpt lat="47.345572" lon="7.769303">
<ele>689.3</ele>
<time>2003-02-20T06:37:04Z</time>
<speed>0.1</speed>
</trkpt>
<trkpt lat="47.345578" lon="7.769303">
<ele>690.1</ele>
<time>2003-02-20T06:37:09Z</time>
<speed>0.1</speed>
</trkpt>
<trkpt lat="47.345584" lon="7.769303">
<ele>690.8</ele>
<time>2003-02-20T06:37:14Z</time>
<speed>0.0</speed>
</trkpt>
<trkpt lat="47.345584" lon="7.769303">
<ele>690.8</ele>
<time>2003-02-20T06:37:19Z</time>
<speed>1.0</speed>
</trkpt>
<trkpt lat="47.345627" lon="7.769303">
<ele>696.0</ele>
<time>2003-02-20T06:37:24Z</time>
<speed>1.2</speed>
</trkpt>
<trkpt lat="47.345675" lon="7.769334">
<ele>697.8</ele>
<time>2003-02-20T06:37:29Z</time>
<speed>0.7</speed>
</trkpt>
<trkpt lat="47.345707" lon="7.769339">
<ele>697.3</ele>
<time>2003-02-20T06:37:34Z</time>
<speed>1.1</speed>
</trkpt>
<trkpt lat="47.345742" lon="7.769386">
<ele>696.3</ele>
<time>2003-02-20T06:37:39Z</time>
<speed>1.0</speed>
</trkpt>
<trkpt lat="47.345765" lon="7.769444">
<ele>695.4</ele>
<time>2003-02-20T06:37:44Z</time>
<speed>0.9</speed>
</trkpt>
<trkpt lat="47.345794" lon="7.769488">
<ele>695.1</ele>
<time>2003-02-20T06:37:49Z</time>
<speed>1.2</speed>
</trkpt>
<trkpt lat="47.345829" lon="7.769548">
<ele>694.3</ele>
<time>2003-02-20T06:37:54Z</time>
<speed>1.2</speed>
</trkpt>
<trkpt lat="47.345870" lon="7.769595">
<ele>694.1</ele>
<time>2003-02-20T06:37:59Z</time>
<speed>1.3</speed>
</trkpt>
<trkpt lat="47.345911" lon="7.769654">
<ele>694.0</ele>
<time>2003-02-20T06:38:04Z</time>
<speed>1.3</speed>
</trkpt>
<trkpt lat="47.345945" lon="7.769727">
<ele>693.2</ele>
<time>2003-02-20T06:38:09Z</time>
<speed>1.0</speed>
</trkpt>
<trkpt lat="47.345967" lon="7.769785">
<ele>692.3</ele>
<time>2003-02-20T06:38:14Z</time>
<speed>1.2</speed>
</trkpt>
<trkpt lat="47.345995" lon="7.769856">
<ele>692.2</ele>
<time>2003-02-20T06:38:19Z</time>
<speed>1.4</speed>
</trkpt>
<trkpt lat="47.346021" lon="7.769940">
<ele>692.2</ele>
<time>2003-02-20T06:38:24Z</time>
<speed>1.6</speed>
</trkpt>
<trkpt lat="47.346047" lon="7.770037">
<ele>692.3</ele>
<time>2003-02-20T06:38:29Z</time>
<speed>1.3</speed>
</trkpt>
<trkpt lat="47.346067" lon="7.770119">
<ele>693.0</ele>
<time>2003-02-20T06:38:34Z</time>
<speed>1.4</speed>
</trkpt>
<trkpt lat="47.346093" lon="7.770203">
<ele>693.0</ele>
<time>2003-02-20T06:38:39Z</time>
<speed>1.3</speed>
</trkpt>
<trkpt lat="47.346121" lon="7.770276">
<ele>691.5</ele>
<time>2003-02-20T06:38:44Z</time>
<speed>1.4</speed>
</trkpt>
<trkpt lat="47.346148" lon="7.770360">
<ele>691.5</ele>
<time>2003-02-20T06:38:49Z</time>
<speed>1.3</speed>
</trkpt>
<trkpt lat="47.346168" lon="7.770444">
<ele>690.8</ele>
<time>2003-02-20T06:38:54Z</time>
<speed>1.2</speed>
</trkpt>
<trkpt lat="47.346216" lon="7.770475">
<ele>692.6</ele>
<time>2003-02-20T06:38:59Z</time>
<speed>1.5</speed>
</trkpt>
<trkpt lat="47.346282" lon="7.770443">
<ele>694.1</ele>
<time>2003-02-20T06:39:04Z</time>
<speed>1.5</speed>
</trkpt>
<trkpt lat="47.346348" lon="7.770413">
<ele>694.1</ele>
<time>2003-02-20T06:39:09Z</time>
<speed>1.5</speed>
</trkpt>
<trkpt lat="47.346408" lon="7.770368">
<ele>694.8</ele>
<time>2003-02-20T06:39:14Z</time>
<speed>1.4</speed>
</trkpt>
<trkpt lat="47.346467" lon="7.770335">
<ele>695.5</ele>
<time>2003-02-20T06:39:19Z</time>
<speed>1.5</speed>
</trkpt>
<trkpt lat="47.346522" lon="7.770277">
<ele>695.3</ele>
<time>2003-02-20T06:39:24Z</time>
<speed>1.6</speed>
</trkpt>
<trkpt lat="47.346589" lon="7.770232">
<ele>696.6</ele>
<time>2003-02-20T06:39:29Z</time>
<speed>1.4</speed>
</trkpt>
<trkpt lat="47.346643" lon="7.770186">
<ele>696.5</ele>
<time>2003-02-20T06:39:34Z</time>
<speed>1.0</speed>
</trkpt>
<trkpt lat="47.346684" lon="7.770152">
<ele>696.4</ele>
<time>2003-02-20T06:39:39Z</time>
<speed>1.5</speed>
</trkpt>
<trkpt lat="47.346739" lon="7.770094">
<ele>696.2</ele>
<time>2003-02-20T06:39:44Z</time>
<speed>1.3</speed>
</trkpt>
<trkpt lat="47.346792" lon="7.770062">
<ele>696.2</ele>
<time>2003-02-20T06:39:49Z</time>
<speed>1.3</speed>
</trkpt>
<trkpt lat="47.346840" lon="7.770015">
<ele>696.8</ele>
<time>2003-02-20T06:39:54Z</time>
<speed>1.4</speed>
</trkpt>
<trkpt lat="47.346894" lon="7.769970">
<ele>696.7</ele>
<time>2003-02-20T06:39:59Z</time>
<speed>1.1</speed>
</trkpt>
<trkpt lat="47.346940" lon="7.769936">
<ele>697.3</ele>
<time>2003-02-20T06:40:04Z</time>
<speed>1.5</speed>
</trkpt>
<trkpt lat="47.347001" lon="7.769890">
<ele>698.0</ele>
<time>2003-02-20T06:40:09Z</time>
<speed>1.3</speed>
</trkpt>
<trkpt lat="47.347048" lon="7.769843">
<ele>698.5</ele>
<time>2003-02-20T06:40:14Z</time>
<speed>1.4</speed>
</trkpt>
<trkpt lat="47.347108" lon="7.769811">
<ele>699.2</ele>
<time>2003-02-20T06:40:19Z</time>
<speed>1.4</speed>
</trkpt>
<trkpt lat="47.347162" lon="7.769766">
<ele>699.1</ele>
<time>2003-02-20T06:40:24Z</time>
<speed>1.4</speed>
</trkpt>
<trkpt lat="47.347216" lon="7.769719">
<ele>700.4</ele>
<time>2003-02-20T06:40:29Z</time>
<speed>1.3</speed>
</trkpt>
<trkpt lat="47.347269" lon="7.769686">
<ele>700.4</ele>
<time>2003-02-20T06:40:34Z</time>
<speed>1.1</speed>
</trkpt>
<trkpt lat="47.347315" lon="7.769667">
<ele>699.7</ele>
<time>2003-02-20T06:40:39Z</time>
<speed>1.3</speed>
</trkpt>
<trkpt lat="47.347374" lon="7.769648">
<ele>700.6</ele>
<time>2003-02-20T06:40:44Z</time>
<speed>1.4</speed>
</trkpt>
<trkpt lat="47.347433" lon="7.769618">
<ele>699.9</ele>
<time>2003-02-20T06:40:49Z</time>
<speed>1.1</speed>
</trkpt>
<trkpt lat="47.347480" lon="7.769599">
<ele>699.2</ele>
<time>2003-02-20T06:40:54Z</time>
<speed>1.3</speed>
</trkpt>
<trkpt lat="47.347533" lon="7.769565">
<ele>700.6</ele>
<time>2003-02-20T06:40:59Z</time>
<speed>1.0</speed>
</trkpt>
<trkpt lat="47.347577" lon="7.769557">
<ele>701.4</ele>
<time>2003-02-20T06:41:04Z</time>
<speed>1.3</speed>
</trkpt>
<trkpt lat="47.347636" lon="7.769538">
<ele>702.2</ele>
<time>2003-02-20T06:41:09Z</time>
<speed>0.6</speed>
</trkpt>
<trkpt lat="47.347662" lon="7.769529">
<ele>702.3</ele>
<time>2003-02-20T06:41:14Z</time>
<speed>1.2</speed>
</trkpt>
<trkpt lat="47.347714" lon="7.769508">
<ele>703.8</ele>
<time>2003-02-20T06:41:19Z</time>
<speed>1.1</speed>
</trkpt>
<trkpt lat="47.347760" lon="7.769487">
<ele>704.5</ele>
<time>2003-02-20T06:41:24Z</time>
<speed>1.6</speed>
</trkpt>
<trkpt lat="47.347827" lon="7.769445">
<ele>703.0</ele>
<time>2003-02-20T06:41:29Z</time>
<speed>1.2</speed>
</trkpt>
<trkpt lat="47.347880" lon="7.769426">
<ele>703.1</ele>
<time>2003-02-20T06:41:34Z</time>
<speed>1.3</speed>
</trkpt>
<trkpt lat="47.347937" lon="7.769420">
<ele>704.0</ele>
<time>2003-02-20T06:41:39Z</time>
<speed>1.1</speed>
</trkpt>
<trkpt lat="47.347983" lon="7.769399">
<ele>704.8</ele>
<time>2003-02-20T06:41:44Z</time>
<speed>1.1</speed>
</trkpt>
<trkpt lat="47.348034" lon="7.769393">
<ele>704.9</ele>
<time>2003-02-20T06:41:49Z</time>
<speed>1.1</speed>
</trkpt>
<trkpt lat="47.348085" lon="7.769399">
<ele>706.6</ele>
<time>2003-02-20T06:41:54Z</time>
<speed>1.6</speed>
</trkpt>
<trkpt lat="47.348153" lon="7.769437">
<ele>705.0</ele>
<time>2003-02-20T06:41:59Z</time>
<speed>1.3</speed>
</trkpt>
<trkpt lat="47.348201" lon="7.769486">
<ele>704.1</ele>
<time>2003-02-20T06:42:04Z</time>
<speed>1.0</speed>
</trkpt>
<trkpt lat="47.348245" lon="7.769491">
<ele>705.1</ele>
<time>2003-02-20T06:42:09Z</time>
<speed>1.3</speed>
</trkpt>
<trkpt lat="47.348302" lon="7.769498">
<ele>706.1</ele>
<time>2003-02-20T06:42:14Z</time>
<speed>1.1</speed>
</trkpt>
<trkpt lat="47.348353" lon="7.769505">
<ele>706.3</ele>
<time>2003-02-20T06:42:19Z</time>
<speed>1.1</speed>
</trkpt>
<trkpt lat="47.348402" lon="7.769526">
<ele>706.7</ele>
<time>2003-02-20T06:42:24Z</time>
<speed>1.6</speed>
</trkpt>
<trkpt lat="47.348463" lon="7.769576">
<ele>705.9</ele>
<time>2003-02-20T06:42:29Z</time>
<speed>2.3</speed>
</trkpt>
<trkpt lat="47.348548" lon="7.769657">
<ele>703.9</ele>
<time>2003-02-20T06:42:34Z</time>
<speed>1.3</speed>
</trkpt>
<trkpt lat="47.348605" lon="7.769679">
<ele>703.6</ele>
<time>2003-02-20T06:42:39Z</time>
<speed>2.0</speed>
</trkpt>
<trkpt lat="47.348692" lon="7.769705">
<ele>704.2</ele>
<time>2003-02-20T06:42:44Z</time>
<speed>1.4</speed>
</trkpt>
<trkpt lat="47.348756" lon="7.769699">
<ele>705.8</ele>
<time>2003-02-20T06:42:49Z</time>
<speed>1.2</speed>
</trkpt>
<trkpt lat="47.348806" lon="7.769721">
<ele>704.7</ele>
<time>2003-02-20T06:42:54Z</time>
<speed>1.2</speed>
</trkpt>
<trkpt lat="47.348841" lon="7.769781">
<ele>703.9</ele>
<time>2003-02-20T06:42:59Z</time>
<speed>1.4</speed>
</trkpt>
<trkpt lat="47.348888" lon="7.769842">
<ele>703.1</ele>
<time>2003-02-20T06:43:04Z</time>
<speed>1.3</speed>
</trkpt>
<trkpt lat="47.348929" lon="7.769902">
<ele>703.0</ele>
<time>2003-02-20T06:43:09Z</time>
<speed>1.5</speed>
</trkpt>
<trkpt lat="47.348975" lon="7.769974">
<ele>703.7</ele>
<time>2003-02-20T06:43:14Z</time>
<speed>1.3</speed>
</trkpt>
<trkpt lat="47.349009" lon="7.770047">
<ele>703.0</ele>
<time>2003-02-20T06:43:19Z</time>
<speed>1.1</speed>
</trkpt>
<trkpt lat="47.349030" lon="7.770116">
<ele>703.5</ele>
<time>2003-02-20T06:43:24Z</time>
<speed>1.4</speed>
</trkpt>
<trkpt lat="47.349030" lon="7.770208">
<ele>704.9</ele>
<time>2003-02-20T06:43:29Z</time>
<speed>1.4</speed>
</trkpt>
<trkpt lat="47.349029" lon="7.770298">
<ele>707.7</ele>
<time>2003-02-20T06:43:34Z</time>
<speed>1.4</speed>
</trkpt>
<trkpt lat="47.349035" lon="7.770390">
<ele>709.8</ele>
<time>2003-02-20T06:43:39Z</time>
<speed>1.2</speed>
</trkpt>
<trkpt lat="47.349036" lon="7.770469">
<ele>711.1</ele>
<time>2003-02-20T06:43:44Z</time>
<speed>1.2</speed>
</trkpt>
<trkpt lat="47.349063" lon="7.770538">
<ele>712.4</ele>
<time>2003-02-20T06:43:49Z</time>
<speed>1.6</speed>
</trkpt>
<trkpt lat="47.349103" lon="7.770625">
<ele>711.1</ele>
<time>2003-02-20T06:43:54Z</time>
<speed>1.3</speed>
</trkpt>
<trkpt lat="47.349144" lon="7.770687">
<ele>709.6</ele>
<time>2003-02-20T06:43:59Z</time>
<speed>1.3</speed>
</trkpt>
<trkpt lat="47.349178" lon="7.770759">
<ele>708.8</ele>
<time>2003-02-20T06:44:04Z</time>
<speed>1.1</speed>
</trkpt>
<trkpt lat="47.349193" lon="7.770830">
<ele>707.3</ele>
<time>2003-02-20T06:44:09Z</time>
<speed>1.3</speed>
</trkpt>
<trkpt lat="47.349213" lon="7.770914">
<ele>706.5</ele>
<time>2003-02-20T06:44:14Z</time>
<speed>1.2</speed>
</trkpt>
<trkpt lat="47.349235" lon="7.770985">
<ele>705.7</ele>
<time>2003-02-20T06:44:19Z</time>
<speed>1.1</speed>
</trkpt>
<trkpt lat="47.349244" lon="7.771056">
<ele>703.4</ele>
<time>2003-02-20T06:44:24Z</time>
<speed>1.2</speed>
</trkpt>
<trkpt lat="47.349271" lon="7.771127">
<ele>703.3</ele>
<time>2003-02-20T06:44:29Z</time>
<speed>1.6</speed>
</trkpt>
<trkpt lat="47.349323" lon="7.771200">
<ele>704.8</ele>
<time>2003-02-20T06:44:34Z</time>
<speed>1.2</speed>
</trkpt>
<trkpt lat="47.349365" lon="7.771246">
<ele>704.6</ele>
<time>2003-02-20T06:44:39Z</time>
<speed>1.3</speed>
</trkpt>
<trkpt lat="47.349414" lon="7.771295">
<ele>703.7</ele>
<time>2003-02-20T06:44:44Z</time>
<speed>1.3</speed>
</trkpt>
<trkpt lat="47.349468" lon="7.771328">
<ele>704.9</ele>
<time>2003-02-20T06:44:49Z</time>
<speed>1.4</speed>
</trkpt>
<trkpt lat="47.349515" lon="7.771388">
<ele>705.5</ele>
<time>2003-02-20T06:44:54Z</time>
<speed>1.3</speed>
</trkpt>
<trkpt lat="47.349563" lon="7.771434">
<ele>706.0</ele>
<time>2003-02-20T06:44:59Z</time>
<speed>0.9</speed>
</trkpt>
<trkpt lat="47.349600" lon="7.771451">
<ele>707.7</ele>
<time>2003-02-20T06:45:04Z</time>
<speed>1.0</speed>
</trkpt>
<trkpt lat="47.349622" lon="7.771507">
<ele>708.2</ele>
<time>2003-02-20T06:45:09Z</time>
<speed>1.4</speed>
</trkpt>
<trkpt lat="47.349629" lon="7.771602">
<ele>707.5</ele>
<time>2003-02-20T06:45:14Z</time>
<speed>1.5</speed>
</trkpt>
<trkpt lat="47.349662" lon="7.771688">
<ele>706.9</ele>
<time>2003-02-20T06:45:19Z</time>
<speed>1.5</speed>
</trkpt>
<trkpt lat="47.349694" lon="7.771772">
<ele>707.6</ele>
<time>2003-02-20T06:45:24Z</time>
<speed>1.2</speed>
</trkpt>
<trkpt lat="47.349729" lon="7.771830">
<ele>708.2</ele>
<time>2003-02-20T06:45:29Z</time>
<speed>1.1</speed>
</trkpt>
<trkpt lat="47.349757" lon="7.771888">
<ele>708.0</ele>
<time>2003-02-20T06:45:34Z</time>
<speed>0.6</speed>
</trkpt>
<trkpt lat="47.349783" lon="7.771893">
<ele>706.7</ele>
<time>2003-02-20T06:45:39Z</time>
<speed>1.1</speed>
</trkpt>
<trkpt lat="47.349811" lon="7.771951">
<ele>706.5</ele>
<time>2003-02-20T06:45:44Z</time>
<speed>1.1</speed>
</trkpt>
<trkpt lat="47.349832" lon="7.772020">
<ele>707.1</ele>
<time>2003-02-20T06:45:49Z</time>
<speed>0.7</speed>
</trkpt>
<trkpt lat="47.349848" lon="7.772063">
<ele>706.8</ele>
<time>2003-02-20T06:45:54Z</time>
<speed>0.9</speed>
</trkpt>
<trkpt lat="47.349877" lon="7.772106">
<ele>707.9</ele>
<time>2003-02-20T06:45:59Z</time>
<speed>0.7</speed>
</trkpt>
<trkpt lat="47.349900" lon="7.772136">
<ele>708.2</ele>
<time>2003-02-20T06:46:04Z</time>
<speed>0.7</speed>
</trkpt>
<trkpt lat="47.349910" lon="7.772177">
<ele>708.6</ele>
<time>2003-02-20T06:46:09Z</time>
<speed>0.5</speed>
</trkpt>
<trkpt lat="47.349921" lon="7.772205">
<ele>708.8</ele>
<time>2003-02-20T06:46:14Z</time>
<speed>0.7</speed>
</trkpt>
<trkpt lat="47.349931" lon="7.772246">
<ele>709.2</ele>
<time>2003-02-20T06:46:19Z</time>
<speed>0.7</speed>
</trkpt>
<trkpt lat="47.349955" lon="7.772276">
<ele>709.5</ele>
<time>2003-02-20T06:46:24Z</time>
<speed>0.3</speed>
</trkpt>
<trkpt lat="47.349960" lon="7.772291">
<ele>708.9</ele>
<time>2003-02-20T06:46:29Z</time>
<speed>0.4</speed>
</trkpt>
<trkpt lat="47.349965" lon="7.772319">
<ele>708.4</ele>
<time>2003-02-20T06:46:34Z</time>
<speed>0.8</speed>
</trkpt>
<trkpt lat="47.349974" lon="7.772373">
<ele>708.8</ele>
<time>2003-02-20T06:46:39Z</time>
<speed>0.6</speed>
</trkpt>
<trkpt lat="47.349978" lon="7.772412">
<ele>709.8</ele>
<time>2003-02-20T06:46:44Z</time>
<speed>0.8</speed>
</trkpt>
<trkpt lat="47.350000" lon="7.772453">
<ele>711.7</ele>
<time>2003-02-20T06:46:49Z</time>
<speed>0.9</speed>
</trkpt>
<trkpt lat="47.350009" lon="7.772508">
<ele>712.1</ele>
<time>2003-02-20T06:46:54Z</time>
<speed>0.8</speed>
</trkpt>
<trkpt lat="47.350031" lon="7.772550">
<ele>712.5</ele>
<time>2003-02-20T06:46:59Z</time>
<speed>0.7</speed>
</trkpt>
<trkpt lat="47.350041" lon="7.772592">
<ele>712.8</ele>
<time>2003-02-20T06:47:04Z</time>
<speed>0.6</speed>
</trkpt>
<trkpt lat="47.350039" lon="7.772631">
<ele>713.1</ele>
<time>2003-02-20T06:47:09Z</time>
<speed>0.8</speed>
</trkpt>
<trkpt lat="47.350048" lon="7.772685">
<ele>713.5</ele>
<time>2003-02-20T06:47:14Z</time>
<speed>0.7</speed>
</trkpt>
<trkpt lat="47.350064" lon="7.772726">
<ele>714.6</ele>
<time>2003-02-20T06:47:19Z</time>
<speed>0.8</speed>
</trkpt>
<trkpt lat="47.350060" lon="7.772779">
<ele>715.0</ele>
<time>2003-02-20T06:47:24Z</time>
<speed>0.8</speed>
</trkpt>
<trkpt lat="47.350083" lon="7.772822">
<ele>715.4</ele>
<time>2003-02-20T06:47:29Z</time>
<speed>0.5</speed>
</trkpt>
<trkpt lat="47.350094" lon="7.772850">
<ele>715.6</ele>
<time>2003-02-20T06:47:34Z</time>
<speed>0.9</speed>
</trkpt>
<trkpt lat="47.350109" lon="7.772904">
<ele>716.8</ele>
<time>2003-02-20T06:47:39Z</time>
<speed>0.7</speed>
</trkpt>
<trkpt lat="47.350125" lon="7.772947">
<ele>716.5</ele>
<time>2003-02-20T06:47:44Z</time>
<speed>0.6</speed>
</trkpt>
<trkpt lat="47.350129" lon="7.772986">
<ele>717.5</ele>
<time>2003-02-20T06:47:49Z</time>
<speed>0.7</speed>
</trkpt>
<trkpt lat="47.350139" lon="7.773027">
<ele>717.8</ele>
<time>2003-02-20T06:47:54Z</time>
<speed>0.6</speed>
</trkpt>
<trkpt lat="47.350148" lon="7.773067">
<ele>719.6</ele>
<time>2003-02-20T06:47:59Z</time>
<speed>0.7</speed>
</trkpt>
<trkpt lat="47.350172" lon="7.773096">
<ele>719.9</ele>
<time>2003-02-20T06:48:04Z</time>
<speed>0.7</speed>
</trkpt>
<trkpt lat="47.350195" lon="7.773126">
<ele>720.2</ele>
<time>2003-02-20T06:48:09Z</time>
<speed>0.2</speed>
</trkpt>
<trkpt lat="47.350200" lon="7.773139">
<ele>721.0</ele>
<time>2003-02-20T06:48:14Z</time>
<speed>0.0</speed>
</trkpt>
<trkpt lat="47.350200" lon="7.773139">
<ele>721.0</ele>
<time>2003-02-20T06:48:19Z</time>
<speed>0.0</speed>
</trkpt>
<trkpt lat="47.350200" lon="7.773139">
<ele>721.0</ele>
<time>2003-02-20T06:48:24Z</time>
<speed>0.0</speed>
</trkpt>
<trkpt lat="47.350200" lon="7.773139">
<ele>721.0</ele>
<time>2003-02-20T06:48:29Z</time>
<speed>0.0</speed>
</trkpt>
<trkpt lat="47.350200" lon="7.773139">
<ele>721.0</ele>
<time>2003-02-20T06:48:34Z</time>
<speed>0.5</speed>
</trkpt>
<trkpt lat="47.350211" lon="7.773167">
<ele>721.2</ele>
<time>2003-02-20T06:48:39Z</time>
<speed>0.7</speed>
</trkpt>
<trkpt lat="47.350235" lon="7.773197">
<ele>721.6</ele>
<time>2003-02-20T06:48:44Z</time>
<speed>0.7</speed>
</trkpt>
<trkpt lat="47.350251" lon="7.773238">
<ele>722.6</ele>
<time>2003-02-20T06:48:49Z</time>
<speed>0.8</speed>
</trkpt>
<trkpt lat="47.350247" lon="7.773291">
<ele>723.0</ele>
<time>2003-02-20T06:48:54Z</time>
<speed>0.8</speed>
</trkpt>
<trkpt lat="47.350244" lon="7.773343">
<ele>723.4</ele>
<time>2003-02-20T06:48:59Z</time>
<speed>0.2</speed>
</trkpt>
<trkpt lat="47.350243" lon="7.773356">
<ele>723.5</ele>
<time>2003-02-20T06:49:04Z</time>
<speed>0.3</speed>
</trkpt>
<trkpt lat="47.350256" lon="7.773343">
<ele>724.8</ele>
<time>2003-02-20T06:49:09Z</time>
<speed>0.9</speed>
</trkpt>
<trkpt lat="47.350271" lon="7.773397">
<ele>726.0</ele>
<time>2003-02-20T06:49:14Z</time>
<speed>1.3</speed>
</trkpt>
<trkpt lat="47.350305" lon="7.773468">
<ele>726.7</ele>
<time>2003-02-20T06:49:19Z</time>
<speed>0.8</speed>
</trkpt>
<trkpt lat="47.350334" lon="7.773498">
<ele>727.7</ele>
<time>2003-02-20T06:49:24Z</time>
<speed>0.3</speed>
</trkpt>
<trkpt lat="47.350346" lon="7.773513">
<ele>727.9</ele>
<time>2003-02-20T06:49:29Z</time>
<speed>1.2</speed>
</trkpt>
<trkpt lat="47.350373" lon="7.773584">
<ele>727.8</ele>
<time>2003-02-20T06:49:34Z</time>
<speed>1.2</speed>
</trkpt>
<trkpt lat="47.350400" lon="7.773653">
<ele>729.1</ele>
<time>2003-02-20T06:49:39Z</time>
<speed>1.1</speed>
</trkpt>
<trkpt lat="47.350414" lon="7.773720">
<ele>730.4</ele>
<time>2003-02-20T06:49:44Z</time>
<speed>1.0</speed>
</trkpt>
<trkpt lat="47.350436" lon="7.773777">
<ele>730.8</ele>
<time>2003-02-20T06:49:49Z</time>
<speed>1.1</speed>
</trkpt>
<trkpt lat="47.350450" lon="7.773844">
<ele>732.1</ele>
<time>2003-02-20T06:49:54Z</time>
<speed>1.0</speed>
</trkpt>
<trkpt lat="47.350472" lon="7.773900">
<ele>732.6</ele>
<time>2003-02-20T06:49:59Z</time>
<speed>0.9</speed>
</trkpt>
<trkpt lat="47.350487" lon="7.773954">
<ele>733.8</ele>
<time>2003-02-20T06:50:04Z</time>
<speed>0.8</speed>
</trkpt>
<trkpt lat="47.350510" lon="7.773997">
<ele>734.2</ele>
<time>2003-02-20T06:50:09Z</time>
<speed>0.9</speed>
</trkpt>
<trkpt lat="47.350531" lon="7.774051">
<ele>736.1</ele>
<time>2003-02-20T06:50:14Z</time>
<speed>1.2</speed>
</trkpt>
<trkpt lat="47.350558" lon="7.774120">
<ele>737.4</ele>
<time>2003-02-20T06:50:19Z</time>
<speed>0.9</speed>
</trkpt>
<trkpt lat="47.350587" lon="7.774163">
<ele>738.5</ele>
<time>2003-02-20T06:50:24Z</time>
<speed>0.9</speed>
</trkpt>
<trkpt lat="47.350615" lon="7.774206">
<ele>739.7</ele>
<time>2003-02-20T06:50:29Z</time>
<speed>1.0</speed>
</trkpt>
<trkpt lat="47.350643" lon="7.774262">
<ele>740.9</ele>
<time>2003-02-20T06:50:34Z</time>
<speed>0.8</speed>
</trkpt>
<trkpt lat="47.350665" lon="7.774303">
<ele>742.7</ele>
<time>2003-02-20T06:50:39Z</time>
<speed>1.3</speed>
</trkpt>
<trkpt lat="47.350706" lon="7.774361">
<ele>744.0</ele>
<time>2003-02-20T06:50:44Z</time>
<speed>1.1</speed>
</trkpt>
<trkpt lat="47.350720" lon="7.774429">
<ele>745.3</ele>
<time>2003-02-20T06:50:49Z</time>
<speed>0.7</speed>
</trkpt>
<trkpt lat="47.350730" lon="7.774470">
<ele>745.6</ele>
<time>2003-02-20T06:50:54Z</time>
<speed>0.3</speed>
</trkpt>
<trkpt lat="47.350717" lon="7.774468">
<ele>745.5</ele>
<time>2003-02-20T06:50:59Z</time>
<speed>0.0</speed>
</trkpt>
<trkpt lat="47.350717" lon="7.774468">
<ele>745.5</ele>
<time>2003-02-20T06:51:04Z</time>
<speed>0.3</speed>
</trkpt>
<trkpt lat="47.350706" lon="7.774455">
<ele>744.0</ele>
<time>2003-02-20T06:51:09Z</time>
<speed>0.0</speed>
</trkpt>
<trkpt lat="47.350706" lon="7.774455">
<ele>744.0</ele>
<time>2003-02-20T06:51:14Z</time>
<speed>0.0</speed>
</trkpt>
<trkpt lat="47.350706" lon="7.774455">
<ele>744.0</ele>
<time>2003-02-20T06:51:19Z</time>
<speed>0.0</speed>
</trkpt>
<trkpt lat="47.350706" lon="7.774455">
<ele>744.0</ele>
<time>2003-02-20T06:51:24Z</time>
<speed>0.0</speed>
</trkpt>
<trkpt lat="47.350706" lon="7.774455">
<ele>744.0</ele>
<time>2003-02-20T06:51:29Z</time>
<speed>0.2</speed>
</trkpt>
<trkpt lat="47.350707" lon="7.774442">
<ele>743.9</ele>
<time>2003-02-20T06:51:34Z</time>
<speed>0.0</speed>
</trkpt>
<trkpt lat="47.350707" lon="7.774442">
<ele>743.9</ele>
<time>2003-02-20T06:51:39Z</time>
<speed>0.0</speed>
</trkpt>
<trkpt lat="47.350707" lon="7.774442">
<ele>743.9</ele>
<time>2003-02-20T06:51:44Z</time>
<speed>0.0</speed>
</trkpt>
<trkpt lat="47.350707" lon="7.774442">
<ele>743.9</ele>
<time>2003-02-20T06:51:49Z</time>
<speed>0.0</speed>
</trkpt>
<trkpt lat="47.350707" lon="7.774442">
<ele>743.9</ele>
<time>2003-02-20T06:51:54Z</time>
<speed>0.0</speed>
</trkpt>
<trkpt lat="47.350707" lon="7.774442">
<ele>743.9</ele>
<time>2003-02-20T06:51:59Z</time>
<speed>0.0</speed>
</trkpt>
<trkpt lat="47.350707" lon="7.774442">
<ele>743.9</ele>
<time>2003-02-20T06:52:04Z</time>
<speed>0.0</speed>
</trkpt>
<trkpt lat="47.350707" lon="7.774442">
<ele>743.9</ele>
<time>2003-02-20T06:52:09Z</time>
<speed>0.0</speed>
</trkpt>
<trkpt lat="47.350707" lon="7.774442">
<ele>743.9</ele>
<time>2003-02-20T06:52:14Z</time>
<speed>0.0</speed>
</trkpt>
<trkpt lat="47.350707" lon="7.774442">
<ele>743.9</ele>
<time>2003-02-20T06:52:19Z</time>
<speed>0.0</speed>
</trkpt>
<trkpt lat="47.350707" lon="7.774442">
<ele>743.9</ele>
<time>2003-02-20T06:52:24Z</time>
<speed>0.0</speed>
</trkpt>
<trkpt lat="47.350707" lon="7.774442">
<ele>743.9</ele>
<time>2003-02-20T06:52:29Z</time>
<speed>0.3</speed>
</trkpt>
<trkpt lat="47.350720" lon="7.774443">
<ele>744.0</ele>
<time>2003-02-20T06:52:34Z</time>
<speed>0.3</speed>
</trkpt>
<trkpt lat="47.350732" lon="7.774445">
<ele>744.0</ele>
<time>2003-02-20T06:52:39Z</time>
<speed>0.1</speed>
</trkpt>
<trkpt lat="47.350726" lon="7.774443">
<ele>744.7</ele>
<time>2003-02-20T06:52:44Z</time>
<speed>0.0</speed>
</trkpt>
<trkpt lat="47.350726" lon="7.774443">
<ele>744.7</ele>
<time>2003-02-20T06:52:49Z</time>
<speed>0.2</speed>
</trkpt>
<trkpt lat="47.350727" lon="7.774430">
<ele>744.6</ele>
<time>2003-02-20T06:52:54Z</time>
<speed>0.0</speed>
</trkpt>
<trkpt lat="47.350727" lon="7.774430">
<ele>744.6</ele>
<time>2003-02-20T06:52:59Z</time>
<speed>0.0</speed>
</trkpt>
<trkpt lat="47.350727" lon="7.774430">
<ele>744.6</ele>
<time>2003-02-20T06:53:04Z</time>
<speed>0.0</speed>
</trkpt>
<trkpt lat="47.350727" lon="7.774430">
<ele>744.6</ele>
<time>2003-02-20T06:53:09Z</time>
<speed>0.0</speed>
</trkpt>
<trkpt lat="47.350727" lon="7.774430">
<ele>744.6</ele>
<time>2003-02-20T06:53:14Z</time>
<speed>0.3</speed>
</trkpt>
<trkpt lat="47.350734" lon="7.774417">
<ele>745.2</ele>
<time>2003-02-20T06:53:19Z</time>
<speed>0.2</speed>
</trkpt>
<trkpt lat="47.350734" lon="7.774402">
<ele>746.6</ele>
<time>2003-02-20T06:53:24Z</time>
<speed>0.2</speed>
</trkpt>
<trkpt lat="47.350733" lon="7.774415">
<ele>746.6</ele>
<time>2003-02-20T06:53:29Z</time>
<speed>0.0</speed>
</trkpt>
<trkpt lat="47.350733" lon="7.774415">
<ele>746.6</ele>
<time>2003-02-20T06:53:34Z</time>
<speed>0.0</speed>
</trkpt>
<trkpt lat="47.350733" lon="7.774415">
<ele>746.6</ele>
<time>2003-02-20T06:53:39Z</time>
<speed>0.0</speed>
</trkpt>
<trkpt lat="47.350733" lon="7.774415">
<ele>746.6</ele>
<time>2003-02-20T06:53:44Z</time>
<speed>0.0</speed>
</trkpt>
<trkpt lat="47.350733" lon="7.774415">
<ele>746.6</ele>
<time>2003-02-20T06:53:49Z</time>
<speed>0.0</speed>
</trkpt>
<trkpt lat="47.350733" lon="7.774415">
<ele>746.6</ele>
<time>2003-02-20T06:53:54Z</time>
<speed>0.0</speed>
</trkpt>
<trkpt lat="47.350733" lon="7.774415">
<ele>746.6</ele>
<time>2003-02-20T06:53:59Z</time>
<speed>0.1</speed>
</trkpt>
<trkpt lat="47.350739" lon="7.774415">
<ele>747.4</ele>
<time>2003-02-20T06:54:04Z</time>
<speed>0.0</speed>
</trkpt>
<trkpt lat="47.350739" lon="7.774415">
<ele>747.4</ele>
<time>2003-02-20T06:54:09Z</time>
<speed>0.0</speed>
</trkpt>
<trkpt lat="47.350739" lon="7.774415">
<ele>747.4</ele>
<time>2003-02-20T06:54:14Z</time>
<speed>0.0</speed>
</trkpt>
<trkpt lat="47.350739" lon="7.774415">
<ele>747.4</ele>
<time>2003-02-20T06:54:19Z</time>
<speed>0.0</speed>
</trkpt>
<trkpt lat="47.350739" lon="7.774415">
<ele>747.4</ele>
<time>2003-02-20T06:54:24Z</time>
<speed>0.0</speed>
</trkpt>
<trkpt lat="47.350739" lon="7.774415">
<ele>747.4</ele>
<time>2003-02-20T06:54:29Z</time>
<speed>0.0</speed>
</trkpt>
<trkpt lat="47.350739" lon="7.774415">
<ele>747.4</ele>
<time>2003-02-20T06:54:34Z</time>
<speed>0.0</speed>
</trkpt>
<trkpt lat="47.350739" lon="7.774415">
<ele>747.4</ele>
<time>2003-02-20T06:54:39Z</time>
<speed>0.0</speed>
</trkpt>
<trkpt lat="47.350739" lon="7.774415">
<ele>747.4</ele>
<time>2003-02-20T06:54:44Z</time>
<speed>0.0</speed>
</trkpt>
<trkpt lat="47.350739" lon="7.774415">
<ele>747.4</ele>
<time>2003-02-20T06:54:49Z</time>
<speed>0.0</speed>
</trkpt>
<trkpt lat="47.350739" lon="7.774415">
<ele>747.4</ele>
<time>2003-02-20T06:54:54Z</time>
<speed>0.3</speed>
</trkpt>
<trkpt lat="47.350726" lon="7.774427">
<ele>747.4</ele>
<time>2003-02-20T06:54:59Z</time>
<speed>0.8</speed>
</trkpt>
<trkpt lat="47.350735" lon="7.774481">
<ele>747.8</ele>
<time>2003-02-20T06:55:04Z</time>
<speed>1.1</speed>
</trkpt>
<trkpt lat="47.350756" lon="7.774550">
<ele>748.4</ele>
<time>2003-02-20T06:55:09Z</time>
<speed>1.3</speed>
</trkpt>
<trkpt lat="47.350769" lon="7.774631">
<ele>749.8</ele>
<time>2003-02-20T06:55:14Z</time>
<speed>1.1</speed>
</trkpt>
<trkpt lat="47.350784" lon="7.774700">
<ele>749.6</ele>
<time>2003-02-20T06:55:19Z</time>
<speed>0.7</speed>
</trkpt>
<trkpt lat="47.350800" lon="7.774741">
<ele>750.7</ele>
<time>2003-02-20T06:55:24Z</time>
<speed>1.0</speed>
</trkpt>
<trkpt lat="47.350808" lon="7.774808">
<ele>751.2</ele>
<time>2003-02-20T06:55:29Z</time>
<speed>1.1</speed>
</trkpt>
<trkpt lat="47.350829" lon="7.774877">
<ele>751.8</ele>
<time>2003-02-20T06:55:34Z</time>
<speed>1.0</speed>
</trkpt>
<trkpt lat="47.350851" lon="7.774933">
<ele>752.3</ele>
<time>2003-02-20T06:55:39Z</time>
<speed>0.8</speed>
</trkpt>
<trkpt lat="47.350859" lon="7.774986">
<ele>754.1</ele>
<time>2003-02-20T06:55:44Z</time>
<speed>0.0</speed>
</trkpt>
<trkpt lat="47.350859" lon="7.774986">
<ele>754.1</ele>
<time>2003-02-20T06:55:49Z</time>
<speed>0.0</speed>
</trkpt>
<trkpt lat="47.350859" lon="7.774986">
<ele>754.1</ele>
<time>2003-02-20T06:55:54Z</time>
<speed>0.7</speed>
</trkpt>
<trkpt lat="47.350875" lon="7.775027">
<ele>755.2</ele>
<time>2003-02-20T06:55:59Z</time>
<speed>0.8</speed>
</trkpt>
<trkpt lat="47.350878" lon="7.775079">
<ele>756.3</ele>
<time>2003-02-20T06:56:04Z</time>
<speed>0.7</speed>
</trkpt>
<trkpt lat="47.350888" lon="7.775121">
<ele>756.7</ele>
<time>2003-02-20T06:56:09Z</time>
<speed>0.9</speed>
</trkpt>
<trkpt lat="47.350903" lon="7.775175">
<ele>757.8</ele>
<time>2003-02-20T06:56:14Z</time>
<speed>0.6</speed>
</trkpt>
<trkpt lat="47.350900" lon="7.775214">
<ele>758.1</ele>
<time>2003-02-20T06:56:19Z</time>
<speed>1.0</speed>
</trkpt>
<trkpt lat="47.350922" lon="7.775270">
<ele>758.6</ele>
<time>2003-02-20T06:56:24Z</time>
<speed>0.8</speed>
</trkpt>
<trkpt lat="47.350930" lon="7.775323">
<ele>760.4</ele>
<time>2003-02-20T06:56:29Z</time>
<speed>0.7</speed>
</trkpt>
<trkpt lat="47.350940" lon="7.775364">
<ele>760.8</ele>
<time>2003-02-20T06:56:34Z</time>
<speed>0.7</speed>
</trkpt>
<trkpt lat="47.350957" lon="7.775405">
<ele>761.8</ele>
<time>2003-02-20T06:56:39Z</time>
<speed>0.7</speed>
</trkpt>
<trkpt lat="47.350973" lon="7.775446">
<ele>762.9</ele>
<time>2003-02-20T06:56:44Z</time>
<speed>0.8</speed>
</trkpt>
<trkpt lat="47.350982" lon="7.775500">
<ele>763.4</ele>
<time>2003-02-20T06:56:49Z</time>
<speed>1.0</speed>
</trkpt>
<trkpt lat="47.350989" lon="7.775566">
<ele>765.3</ele>
<time>2003-02-20T06:56:54Z</time>
<speed>0.9</speed>
</trkpt>
<trkpt lat="47.351005" lon="7.775620">
<ele>766.5</ele>
<time>2003-02-20T06:56:59Z</time>
<speed>0.8</speed>
</trkpt>
<trkpt lat="47.351027" lon="7.775663">
<ele>766.9</ele>
<time>2003-02-20T06:57:04Z</time>
<speed>1.1</speed>
</trkpt>
<trkpt lat="47.351061" lon="7.775719">
<ele>768.8</ele>
<time>2003-02-20T06:57:09Z</time>
<speed>0.8</speed>
</trkpt>
<trkpt lat="47.351084" lon="7.775762">
<ele>769.2</ele>
<time>2003-02-20T06:57:14Z</time>
<speed>0.4</speed>
</trkpt>
<trkpt lat="47.351088" lon="7.775788">
<ele>770.1</ele>
<time>2003-02-20T06:57:19Z</time>
<speed>0.6</speed>
</trkpt>
<trkpt lat="47.351105" lon="7.775818">
<ele>769.7</ele>
<time>2003-02-20T06:57:24Z</time>
<speed>0.1</speed>
</trkpt>
<trkpt lat="47.351111" lon="7.775818">
<ele>770.5</ele>
<time>2003-02-20T06:57:29Z</time>
<speed>0.0</speed>
</trkpt>
<trkpt lat="47.351111" lon="7.775818">
<ele>770.5</ele>
<time>2003-02-20T06:57:34Z</time>
<speed>0.2</speed>
</trkpt>
<trkpt lat="47.351118" lon="7.775818">
<ele>771.2</ele>
<time>2003-02-20T06:57:39Z</time>
<speed>0.8</speed>
</trkpt>
<trkpt lat="47.351127" lon="7.775872">
<ele>771.6</ele>
<time>2003-02-20T06:57:44Z</time>
<speed>0.9</speed>
</trkpt>
<trkpt lat="47.351142" lon="7.775928">
<ele>771.4</ele>
<time>2003-02-20T06:57:49Z</time>
<speed>1.1</speed>
</trkpt>
<trkpt lat="47.351157" lon="7.775997">
<ele>771.2</ele>
<time>2003-02-20T06:57:54Z</time>
<speed>0.5</speed>
</trkpt>
<trkpt lat="47.351175" lon="7.776014">
<ele>770.7</ele>
<time>2003-02-20T06:57:59Z</time>
<speed>0.9</speed>
</trkpt>
<trkpt lat="47.351190" lon="7.776068">
<ele>771.9</ele>
<time>2003-02-20T06:58:04Z</time>
<speed>1.2</speed>
</trkpt>
<trkpt lat="47.351218" lon="7.776139">
<ele>771.8</ele>
<time>2003-02-20T06:58:09Z</time>
<speed>1.1</speed>
</trkpt>
<trkpt lat="47.351232" lon="7.776207">
<ele>773.1</ele>
<time>2003-02-20T06:58:14Z</time>
<speed>1.0</speed>
</trkpt>
<trkpt lat="47.351234" lon="7.776274">
<ele>772.8</ele>
<time>2003-02-20T06:58:19Z</time>
<speed>1.1</speed>
</trkpt>
<trkpt lat="47.351255" lon="7.776343">
<ele>773.4</ele>
<time>2003-02-20T06:58:24Z</time>
<speed>0.9</speed>
</trkpt>
<trkpt lat="47.351271" lon="7.776399">
<ele>773.2</ele>
<time>2003-02-20T06:58:29Z</time>
<speed>1.0</speed>
</trkpt>
<trkpt lat="47.351273" lon="7.776466">
<ele>773.0</ele>
<time>2003-02-20T06:58:34Z</time>
<speed>1.1</speed>
</trkpt>
<trkpt lat="47.351287" lon="7.776534">
<ele>774.2</ele>
<time>2003-02-20T06:58:39Z</time>
<speed>0.8</speed>
</trkpt>
<trkpt lat="47.351296" lon="7.776588">
<ele>774.7</ele>
<time>2003-02-20T06:58:44Z</time>
<speed>0.8</speed>
</trkpt>
<trkpt lat="47.351305" lon="7.776642">
<ele>775.1</ele>
<time>2003-02-20T06:58:49Z</time>
<speed>1.1</speed>
</trkpt>
<trkpt lat="47.351319" lon="7.776710">
<ele>776.4</ele>
<time>2003-02-20T06:58:54Z</time>
<speed>1.1</speed>
</trkpt>
<trkpt lat="47.351334" lon="7.776777">
<ele>777.6</ele>
<time>2003-02-20T06:58:59Z</time>
<speed>0.8</speed>
</trkpt>
<trkpt lat="47.351348" lon="7.776829">
<ele>780.2</ele>
<time>2003-02-20T06:59:04Z</time>
<speed>1.1</speed>
</trkpt>
<trkpt lat="47.351369" lon="7.776897">
<ele>782.2</ele>
<time>2003-02-20T06:59:09Z</time>
<speed>1.0</speed>
</trkpt>
<trkpt lat="47.351364" lon="7.776962">
<ele>782.6</ele>
<time>2003-02-20T06:59:14Z</time>
<speed>1.0</speed>
</trkpt>
<trkpt lat="47.351360" lon="7.777028">
<ele>783.1</ele>
<time>2003-02-20T06:59:19Z</time>
<speed>0.8</speed>
</trkpt>
<trkpt lat="47.351369" lon="7.777082">
<ele>783.5</ele>
<time>2003-02-20T06:59:24Z</time>
<speed>1.2</speed>
</trkpt>
<trkpt lat="47.351382" lon="7.777161">
<ele>786.3</ele>
<time>2003-02-20T06:59:29Z</time>
<speed>1.0</speed>
</trkpt>
<trkpt lat="47.351389" lon="7.777226">
<ele>788.2</ele>
<time>2003-02-20T06:59:34Z</time>
<speed>1.2</speed>
</trkpt>
<trkpt lat="47.351390" lon="7.777305">
<ele>789.5</ele>
<time>2003-02-20T06:59:39Z</time>
<speed>1.0</speed>
</trkpt>
<trkpt lat="47.351398" lon="7.777372">
<ele>790.0</ele>
<time>2003-02-20T06:59:44Z</time>
<speed>0.6</speed>
</trkpt>
<trkpt lat="47.351402" lon="7.777413">
<ele>789.6</ele>
<time>2003-02-20T06:59:49Z</time>
<speed>0.8</speed>
</trkpt>
<trkpt lat="47.351405" lon="7.777468">
<ele>789.3</ele>
<time>2003-02-20T06:59:54Z</time>
<speed>0.6</speed>
</trkpt>
<trkpt lat="47.351403" lon="7.777509">
<ele>788.2</ele>
<time>2003-02-20T06:59:59Z</time>
<speed>0.8</speed>
</trkpt>
<trkpt lat="47.351399" lon="7.777561">
<ele>788.6</ele>
<time>2003-02-20T07:00:04Z</time>
<speed>1.0</speed>
</trkpt>
<trkpt lat="47.351401" lon="7.777627">
<ele>789.8</ele>
<time>2003-02-20T07:00:09Z</time>
<speed>1.2</speed>
</trkpt>
<trkpt lat="47.351396" lon="7.777705">
<ele>790.3</ele>
<time>2003-02-20T07:00:14Z</time>
<speed>1.0</speed>
</trkpt>
<trkpt lat="47.351391" lon="7.777771">
<ele>790.8</ele>
<time>2003-02-20T07:00:19Z</time>
<speed>0.8</speed>
</trkpt>
<trkpt lat="47.351387" lon="7.777824">
<ele>791.1</ele>
<time>2003-02-20T07:00:24Z</time>
<speed>0.8</speed>
</trkpt>
<trkpt lat="47.351384" lon="7.777876">
<ele>791.5</ele>
<time>2003-02-20T07:00:29Z</time>
<speed>0.8</speed>
</trkpt>
<trkpt lat="47.351374" lon="7.777927">
<ele>792.5</ele>
<time>2003-02-20T07:00:34Z</time>
<speed>1.1</speed>
</trkpt>
<trkpt lat="47.351394" lon="7.777994">
<ele>794.5</ele>
<time>2003-02-20T07:00:39Z</time>
<speed>1.0</speed>
</trkpt>
<trkpt lat="47.351402" lon="7.778060">
<ele>796.5</ele>
<time>2003-02-20T07:00:44Z</time>
<speed>1.0</speed>
</trkpt>
<trkpt lat="47.351424" lon="7.778116">
<ele>796.9</ele>
<time>2003-02-20T07:00:49Z</time>
<speed>1.0</speed>
</trkpt>
<trkpt lat="47.351445" lon="7.778172">
<ele>797.4</ele>
<time>2003-02-20T07:00:54Z</time>
<speed>1.1</speed>
</trkpt>
<trkpt lat="47.351460" lon="7.778241">
<ele>797.3</ele>
<time>2003-02-20T07:00:59Z</time>
<speed>1.0</speed>
</trkpt>
<trkpt lat="47.351482" lon="7.778297">
<ele>797.8</ele>
<time>2003-02-20T07:01:04Z</time>
<speed>1.1</speed>
</trkpt>
<trkpt lat="47.351503" lon="7.778366">
<ele>798.4</ele>
<time>2003-02-20T07:01:09Z</time>
<speed>1.0</speed>
</trkpt>
<trkpt lat="47.351525" lon="7.778424">
<ele>797.5</ele>
<time>2003-02-20T07:01:14Z</time>
<speed>1.2</speed>
</trkpt>
<trkpt lat="47.351552" lon="7.778495">
<ele>797.4</ele>
<time>2003-02-20T07:01:19Z</time>
<speed>1.2</speed>
</trkpt>
<trkpt lat="47.351579" lon="7.778564">
<ele>798.7</ele>
<time>2003-02-20T07:01:24Z</time>
<speed>1.1</speed>
</trkpt>
<trkpt lat="47.351594" lon="7.778633">
<ele>798.6</ele>
<time>2003-02-20T07:01:29Z</time>
<speed>1.1</speed>
</trkpt>
<trkpt lat="47.351608" lon="7.778702">
<ele>798.4</ele>
<time>2003-02-20T07:01:34Z</time>
<speed>1.0</speed>
</trkpt>
<trkpt lat="47.351631" lon="7.778760">
<ele>797.5</ele>
<time>2003-02-20T07:01:39Z</time>
<speed>1.2</speed>
</trkpt>
<trkpt lat="47.351638" lon="7.778840">
<ele>798.1</ele>
<time>2003-02-20T07:01:44Z</time>
<speed>1.1</speed>
</trkpt>
<trkpt lat="47.351659" lon="7.778909">
<ele>798.7</ele>
<time>2003-02-20T07:01:49Z</time>
<speed>1.3</speed>
</trkpt>
<trkpt lat="47.351678" lon="7.778990">
<ele>800.8</ele>
<time>2003-02-20T07:01:54Z</time>
<speed>1.4</speed>
</trkpt>
<trkpt lat="47.351704" lon="7.779072">
<ele>802.2</ele>
<time>2003-02-20T07:01:59Z</time>
<speed>1.0</speed>
</trkpt>
<trkpt lat="47.351726" lon="7.779128">
<ele>802.7</ele>
<time>2003-02-20T07:02:04Z</time>
<speed>1.1</speed>
</trkpt>
<trkpt lat="47.351747" lon="7.779197">
<ele>803.3</ele>
<time>2003-02-20T07:02:09Z</time>
<speed>0.9</speed>
</trkpt>
<trkpt lat="47.351756" lon="7.779253">
<ele>802.3</ele>
<time>2003-02-20T07:02:14Z</time>
<speed>1.1</speed>
</trkpt>
<trkpt lat="47.351770" lon="7.779321">
<ele>803.6</ele>
<time>2003-02-20T07:02:19Z</time>
<speed>1.2</speed>
</trkpt>
<trkpt lat="47.351797" lon="7.779388">
<ele>806.3</ele>
<time>2003-02-20T07:02:24Z</time>
<speed>1.3</speed>
</trkpt>
<trkpt lat="47.351817" lon="7.779470">
<ele>807.0</ele>
<time>2003-02-20T07:02:29Z</time>
<speed>1.4</speed>
</trkpt>
<trkpt lat="47.351849" lon="7.779551">
<ele>810.5</ele>
<time>2003-02-20T07:02:34Z</time>
<speed>1.0</speed>
</trkpt>
<trkpt lat="47.351876" lon="7.779607">
<ele>811.8</ele>
<time>2003-02-20T07:02:39Z</time>
<speed>1.0</speed>
</trkpt>
<trkpt lat="47.351904" lon="7.779663">
<ele>813.0</ele>
<time>2003-02-20T07:02:44Z</time>
<speed>1.1</speed>
</trkpt>
<trkpt lat="47.351913" lon="7.779732">
<ele>812.1</ele>
<time>2003-02-20T07:02:49Z</time>
<speed>1.0</speed>
</trkpt>
<trkpt lat="47.351934" lon="7.779788">
<ele>812.6</ele>
<time>2003-02-20T07:02:54Z</time>
<speed>0.9</speed>
</trkpt>
<trkpt lat="47.351950" lon="7.779842">
<ele>813.8</ele>
<time>2003-02-20T07:02:59Z</time>
<speed>0.9</speed>
</trkpt>
<trkpt lat="47.351965" lon="7.779898">
<ele>813.5</ele>
<time>2003-02-20T07:03:04Z</time>
<speed>0.9</speed>
</trkpt>
<trkpt lat="47.351981" lon="7.779954">
<ele>813.3</ele>
<time>2003-02-20T07:03:09Z</time>
<speed>1.1</speed>
</trkpt>
<trkpt lat="47.352009" lon="7.780012">
<ele>813.1</ele>
<time>2003-02-20T07:03:14Z</time>
<speed>1.0</speed>
</trkpt>
<trkpt lat="47.352017" lon="7.780080">
<ele>813.6</ele>
<time>2003-02-20T07:03:19Z</time>
<speed>1.0</speed>
</trkpt>
<trkpt lat="47.352039" lon="7.780137">
<ele>812.7</ele>
<time>2003-02-20T07:03:24Z</time>
<speed>0.9</speed>
</trkpt>
<trkpt lat="47.352049" lon="7.780193">
<ele>811.7</ele>
<time>2003-02-20T07:03:29Z</time>
<speed>0.9</speed>
</trkpt>
<trkpt lat="47.352059" lon="7.780249">
<ele>810.8</ele>
<time>2003-02-20T07:03:34Z</time>
<speed>1.2</speed>
</trkpt>
<trkpt lat="47.352085" lon="7.780319">
<ele>812.1</ele>
<time>2003-02-20T07:03:39Z</time>
<speed>1.1</speed>
</trkpt>
<trkpt lat="47.352100" lon="7.780388">
<ele>811.9</ele>
<time>2003-02-20T07:03:44Z</time>
<speed>1.3</speed>
</trkpt>
<trkpt lat="47.352114" lon="7.780470">
<ele>811.9</ele>
<time>2003-02-20T07:03:49Z</time>
<speed>0.9</speed>
</trkpt>
<trkpt lat="47.352124" lon="7.780526">
<ele>810.9</ele>
<time>2003-02-20T07:03:54Z</time>
<speed>1.1</speed>
</trkpt>
<trkpt lat="47.352138" lon="7.780593">
<ele>812.2</ele>
<time>2003-02-20T07:03:59Z</time>
<speed>0.9</speed>
</trkpt>
<trkpt lat="47.352147" lon="7.780649">
<ele>811.2</ele>
<time>2003-02-20T07:04:04Z</time>
<speed>0.8</speed>
</trkpt>
<trkpt lat="47.352144" lon="7.780702">
<ele>811.6</ele>
<time>2003-02-20T07:04:09Z</time>
<speed>1.0</speed>
</trkpt>
<trkpt lat="47.352139" lon="7.780767">
<ele>812.0</ele>
<time>2003-02-20T07:04:14Z</time>
<speed>1.2</speed>
</trkpt>
<trkpt lat="47.352140" lon="7.780848">
<ele>811.9</ele>
<time>2003-02-20T07:04:19Z</time>
<speed>1.0</speed>
</trkpt>
<trkpt lat="47.352142" lon="7.780915">
<ele>811.7</ele>
<time>2003-02-20T07:04:24Z</time>
<speed>0.8</speed>
</trkpt>
<trkpt lat="47.352145" lon="7.780969">
<ele>811.4</ele>
<time>2003-02-20T07:04:29Z</time>
<speed>0.4</speed>
</trkpt>
<trkpt lat="47.352150" lon="7.780996">
<ele>812.3</ele>
<time>2003-02-20T07:04:34Z</time>
<speed>0.8</speed>
</trkpt>
<trkpt lat="47.352152" lon="7.781048">
<ele>813.4</ele>
<time>2003-02-20T07:04:39Z</time>
<speed>0.8</speed>
</trkpt>
<trkpt lat="47.352161" lon="7.781102">
<ele>813.8</ele>
<time>2003-02-20T07:04:44Z</time>
<speed>0.8</speed>
</trkpt>
<trkpt lat="47.352184" lon="7.781145">
<ele>814.2</ele>
<time>2003-02-20T07:04:49Z</time>
<speed>0.8</speed>
</trkpt>
<trkpt lat="47.352187" lon="7.781199">
<ele>813.9</ele>
<time>2003-02-20T07:04:54Z</time>
<speed>0.7</speed>
</trkpt>
<trkpt lat="47.352203" lon="7.781242">
<ele>813.6</ele>
<time>2003-02-20T07:04:59Z</time>
<speed>1.1</speed>
</trkpt>
<trkpt lat="47.352218" lon="7.781310">
<ele>814.9</ele>
<time>2003-02-20T07:05:04Z</time>
<speed>1.2</speed>
</trkpt>
<trkpt lat="47.352245" lon="7.781379">
<ele>816.2</ele>
<time>2003-02-20T07:05:09Z</time>
<speed>1.0</speed>
</trkpt>
<trkpt lat="47.352266" lon="7.781435">
<ele>816.7</ele>
<time>2003-02-20T07:05:14Z</time>
<speed>0.9</speed>
</trkpt>
<trkpt lat="47.352281" lon="7.781489">
<ele>817.8</ele>
<time>2003-02-20T07:05:19Z</time>
<speed>1.0</speed>
</trkpt>
<trkpt lat="47.352284" lon="7.781557">
<ele>817.6</ele>
<time>2003-02-20T07:05:24Z</time>
<speed>1.4</speed>
</trkpt>
<trkpt lat="47.352290" lon="7.781650">
<ele>818.3</ele>
<time>2003-02-20T07:05:29Z</time>
<speed>1.2</speed>
</trkpt>
<trkpt lat="47.352285" lon="7.781729">
<ele>818.9</ele>
<time>2003-02-20T07:05:34Z</time>
<speed>1.1</speed>
</trkpt>
<trkpt lat="47.352299" lon="7.781796">
<ele>820.1</ele>
<time>2003-02-20T07:05:39Z</time>
<speed>0.8</speed>
</trkpt>
<trkpt lat="47.352308" lon="7.781850">
<ele>820.6</ele>
<time>2003-02-20T07:05:44Z</time>
<speed>1.1</speed>
</trkpt>
<trkpt lat="47.352322" lon="7.781918">
<ele>821.8</ele>
<time>2003-02-20T07:05:49Z</time>
<speed>1.2</speed>
</trkpt>
<trkpt lat="47.352362" lon="7.781974">
<ele>824.5</ele>
<time>2003-02-20T07:05:54Z</time>
<speed>1.1</speed>
</trkpt>
<trkpt lat="47.352377" lon="7.782043">
<ele>824.4</ele>
<time>2003-02-20T07:05:59Z</time>
<speed>1.0</speed>
</trkpt>
<trkpt lat="47.352405" lon="7.782099">
<ele>825.6</ele>
<time>2003-02-20T07:06:04Z</time>
<speed>0.8</speed>
</trkpt>
<trkpt lat="47.352414" lon="7.782153">
<ele>826.1</ele>
<time>2003-02-20T07:06:09Z</time>
<speed>1.0</speed>
</trkpt>
<trkpt lat="47.352410" lon="7.782222">
<ele>823.7</ele>
<time>2003-02-20T07:06:14Z</time>
<speed>0.8</speed>
</trkpt>
<trkpt lat="47.352407" lon="7.782277">
<ele>822.7</ele>
<time>2003-02-20T07:06:19Z</time>
<speed>0.9</speed>
</trkpt>
<trkpt lat="47.352423" lon="7.782333">
<ele>822.4</ele>
<time>2003-02-20T07:06:24Z</time>
<speed>1.1</speed>
</trkpt>
<trkpt lat="47.352443" lon="7.782402">
<ele>823.0</ele>
<time>2003-02-20T07:06:29Z</time>
<speed>0.9</speed>
</trkpt>
<trkpt lat="47.352459" lon="7.782458">
<ele>822.8</ele>
<time>2003-02-20T07:06:34Z</time>
<speed>1.0</speed>
</trkpt>
<trkpt lat="47.352461" lon="7.782525">
<ele>822.6</ele>
<time>2003-02-20T07:06:39Z</time>
<speed>0.8</speed>
</trkpt>
<trkpt lat="47.352470" lon="7.782579">
<ele>823.0</ele>
<time>2003-02-20T07:06:44Z</time>
<speed>0.8</speed>
</trkpt>
<trkpt lat="47.352467" lon="7.782632">
<ele>823.4</ele>
<time>2003-02-20T07:06:49Z</time>
<speed>0.8</speed>
</trkpt>
<trkpt lat="47.352470" lon="7.782686">
<ele>823.0</ele>
<time>2003-02-20T07:06:54Z</time>
<speed>0.9</speed>
</trkpt>
<trkpt lat="47.352485" lon="7.782740">
<ele>824.2</ele>
<time>2003-02-20T07:06:59Z</time>
<speed>1.2</speed>
</trkpt>
<trkpt lat="47.352519" lon="7.782798">
<ele>824.8</ele>
<time>2003-02-20T07:07:04Z</time>
<speed>1.0</speed>
</trkpt>
<trkpt lat="47.352527" lon="7.782865">
<ele>825.3</ele>
<time>2003-02-20T07:07:09Z</time>
<speed>0.9</speed>
</trkpt>
<trkpt lat="47.352543" lon="7.782921">
<ele>825.1</ele>
<time>2003-02-20T07:07:14Z</time>
<speed>0.9</speed>
</trkpt>
<trkpt lat="47.352559" lon="7.782978">
<ele>824.8</ele>
<time>2003-02-20T07:07:19Z</time>
<speed>1.0</speed>
</trkpt>
<trkpt lat="47.352586" lon="7.783034">
<ele>826.1</ele>
<time>2003-02-20T07:07:24Z</time>
<speed>1.1</speed>
</trkpt>
<trkpt lat="47.352615" lon="7.783091">
<ele>825.9</ele>
<time>2003-02-20T07:07:29Z</time>
<speed>0.7</speed>
</trkpt>
<trkpt lat="47.352625" lon="7.783134">
<ele>824.8</ele>
<time>2003-02-20T07:07:34Z</time>
<speed>0.3</speed>
</trkpt>
<trkpt lat="47.352637" lon="7.783149">
<ele>825.0</ele>
<time>2003-02-20T07:07:39Z</time>
<speed>0.2</speed>
</trkpt>
<trkpt lat="47.352636" lon="7.783162">
<ele>825.1</ele>
<time>2003-02-20T07:07:44Z</time>
<speed>0.4</speed>
</trkpt>
<trkpt lat="47.352635" lon="7.783190">
<ele>823.8</ele>
<time>2003-02-20T07:07:49Z</time>
<speed>1.0</speed>
</trkpt>
<trkpt lat="47.352662" lon="7.783246">
<ele>825.1</ele>
<time>2003-02-20T07:07:54Z</time>
<speed>1.1</speed>
</trkpt>
<trkpt lat="47.352691" lon="7.783304">
<ele>824.9</ele>
<time>2003-02-20T07:07:59Z</time>
<speed>1.3</speed>
</trkpt>
<trkpt lat="47.352724" lon="7.783373">
<ele>826.9</ele>
<time>2003-02-20T07:08:04Z</time>
<speed>1.3</speed>
</trkpt>
<trkpt lat="47.352765" lon="7.783433">
<ele>826.8</ele>
<time>2003-02-20T07:08:09Z</time>
<speed>0.9</speed>
</trkpt>
<trkpt lat="47.352780" lon="7.783489">
<ele>826.6</ele>
<time>2003-02-20T07:08:14Z</time>
<speed>1.1</speed>
</trkpt>
<trkpt lat="47.352789" lon="7.783558">
<ele>825.7</ele>
<time>2003-02-20T07:08:19Z</time>
<speed>1.0</speed>
</trkpt>
<trkpt lat="47.352824" lon="7.783603">
<ele>826.2</ele>
<time>2003-02-20T07:08:24Z</time>
<speed>1.0</speed>
</trkpt>
<trkpt lat="47.352852" lon="7.783659">
<ele>827.4</ele>
<time>2003-02-20T07:08:29Z</time>
<speed>0.8</speed>
</trkpt>
<trkpt lat="47.352881" lon="7.783689">
<ele>828.5</ele>
<time>2003-02-20T07:08:34Z</time>
<speed>1.1</speed>
</trkpt>
<trkpt lat="47.352910" lon="7.783746">
<ele>828.3</ele>
<time>2003-02-20T07:08:39Z</time>
<speed>1.1</speed>
</trkpt>
<trkpt lat="47.352938" lon="7.783804">
<ele>828.1</ele>
<time>2003-02-20T07:08:44Z</time>
<speed>0.7</speed>
</trkpt>
<trkpt lat="47.352954" lon="7.783847">
<ele>827.8</ele>
<time>2003-02-20T07:08:49Z</time>
<speed>0.9</speed>
</trkpt>
<trkpt lat="47.352978" lon="7.783892">
<ele>826.8</ele>
<time>2003-02-20T07:08:54Z</time>
<speed>0.6</speed>
</trkpt>
<trkpt lat="47.352981" lon="7.783933">
<ele>826.4</ele>
<time>2003-02-20T07:08:59Z</time>
<speed>0.0</speed>
</trkpt>
<trkpt lat="47.352981" lon="7.783933">
<ele>826.4</ele>
<time>2003-02-20T07:09:04Z</time>
<speed>1.3</speed>
</trkpt>
<trkpt lat="47.353015" lon="7.784004">
<ele>827.0</ele>
<time>2003-02-20T07:09:09Z</time>
<speed>1.0</speed>
</trkpt>
<trkpt lat="47.353023" lon="7.784071">
<ele>827.6</ele>
<time>2003-02-20T07:09:14Z</time>
<speed>1.2</speed>
</trkpt>
<trkpt lat="47.353065" lon="7.784118">
<ele>827.3</ele>
<time>2003-02-20T07:09:19Z</time>
<speed>1.1</speed>
</trkpt>
<trkpt lat="47.353093" lon="7.784176">
<ele>827.2</ele>
<time>2003-02-20T07:09:24Z</time>
<speed>0.8</speed>
</trkpt>
<trkpt lat="47.353116" lon="7.784219">
<ele>827.6</ele>
<time>2003-02-20T07:09:29Z</time>
<speed>0.3</speed>
</trkpt>
<trkpt lat="47.353109" lon="7.784232">
<ele>826.9</ele>
<time>2003-02-20T07:09:34Z</time>
<speed>0.2</speed>
</trkpt>
<trkpt lat="47.353114" lon="7.784245">
<ele>827.8</ele>
<time>2003-02-20T07:09:39Z</time>
<speed>0.5</speed>
</trkpt>
<trkpt lat="47.353125" lon="7.784273">
<ele>828.0</ele>
<time>2003-02-20T07:09:44Z</time>
<speed>0.8</speed>
</trkpt>
<trkpt lat="47.353147" lon="7.784316">
<ele>828.4</ele>
<time>2003-02-20T07:09:49Z</time>
<speed>0.9</speed>
</trkpt>
<trkpt lat="47.353163" lon="7.784372">
<ele>828.2</ele>
<time>2003-02-20T07:09:54Z</time>
<speed>1.0</speed>
</trkpt>
<trkpt lat="47.353185" lon="7.784430">
<ele>827.3</ele>
<time>2003-02-20T07:09:59Z</time>
<speed>1.0</speed>
</trkpt>
<trkpt lat="47.353207" lon="7.784486">
<ele>827.8</ele>
<time>2003-02-20T07:10:04Z</time>
<speed>1.1</speed>
</trkpt>
<trkpt lat="47.353235" lon="7.784543">
<ele>827.6</ele>
<time>2003-02-20T07:10:09Z</time>
<speed>0.9</speed>
</trkpt>
<trkpt lat="47.353245" lon="7.784600">
<ele>826.6</ele>
<time>2003-02-20T07:10:14Z</time>
<speed>1.1</speed>
</trkpt>
<trkpt lat="47.353265" lon="7.784669">
<ele>827.2</ele>
<time>2003-02-20T07:10:19Z</time>
<speed>1.0</speed>
</trkpt>
<trkpt lat="47.353261" lon="7.784736">
<ele>826.2</ele>
<time>2003-02-20T07:10:24Z</time>
<speed>1.0</speed>
</trkpt>
<trkpt lat="47.353251" lon="7.784802">
<ele>826.0</ele>
<time>2003-02-20T07:10:29Z</time>
<speed>1.1</speed>
</trkpt>
<trkpt lat="47.353260" lon="7.784871">
<ele>825.1</ele>
<time>2003-02-20T07:10:34Z</time>
<speed>1.2</speed>
</trkpt>
<trkpt lat="47.353267" lon="7.784951">
<ele>825.7</ele>
<time>2003-02-20T07:10:39Z</time>
<speed>0.8</speed>
</trkpt>
<trkpt lat="47.353276" lon="7.785005">
<ele>826.1</ele>
<time>2003-02-20T07:10:44Z</time>
<speed>1.2</speed>
</trkpt>
<trkpt lat="47.353283" lon="7.785086">
<ele>826.7</ele>
<time>2003-02-20T07:10:49Z</time>
<speed>1.0</speed>
</trkpt>
<trkpt lat="47.353279" lon="7.785151">
<ele>827.2</ele>
<time>2003-02-20T07:10:54Z</time>
<speed>1.0</speed>
</trkpt>
<trkpt lat="47.353275" lon="7.785219">
<ele>826.3</ele>
<time>2003-02-20T07:10:59Z</time>
<speed>1.0</speed>
</trkpt>
<trkpt lat="47.353264" lon="7.785284">
<ele>826.0</ele>
<time>2003-02-20T07:11:04Z</time>
<speed>1.3</speed>
</trkpt>
<trkpt lat="47.353240" lon="7.785361">
<ele>825.7</ele>
<time>2003-02-20T07:11:09Z</time>
<speed>1.0</speed>
</trkpt>
<trkpt lat="47.353248" lon="7.785429">
<ele>826.3</ele>
<time>2003-02-20T07:11:14Z</time>
<speed>1.0</speed>
</trkpt>
<trkpt lat="47.353238" lon="7.785494">
<ele>826.0</ele>
<time>2003-02-20T07:11:19Z</time>
<speed>1.0</speed>
</trkpt>
<trkpt lat="47.353240" lon="7.785562">
<ele>825.8</ele>
<time>2003-02-20T07:11:24Z</time>
<speed>0.6</speed>
</trkpt>
<trkpt lat="47.353243" lon="7.785601">
<ele>826.8</ele>
<time>2003-02-20T07:11:29Z</time>
<speed>0.2</speed>
</trkpt>
<trkpt lat="47.353250" lon="7.785603">
<ele>826.1</ele>
<time>2003-02-20T07:11:34Z</time>
<speed>0.0</speed>
</trkpt>
<trkpt lat="47.353250" lon="7.785603">
<ele>826.1</ele>
<time>2003-02-20T07:11:39Z</time>
<speed>0.0</speed>
</trkpt>
<trkpt lat="47.353250" lon="7.785603">
<ele>826.1</ele>
<time>2003-02-20T07:11:44Z</time>
<speed>0.0</speed>
</trkpt>
<trkpt lat="47.353250" lon="7.785603">
<ele>826.1</ele>
<time>2003-02-20T07:11:49Z</time>
<speed>0.0</speed>
</trkpt>
<trkpt lat="47.353250" lon="7.785603">
<ele>826.1</ele>
<time>2003-02-20T07:11:54Z</time>
<speed>0.2</speed>
</trkpt>
<trkpt lat="47.353243" lon="7.785601">
<ele>826.8</ele>
<time>2003-02-20T07:11:59Z</time>
<speed>0.2</speed>
</trkpt>
<trkpt lat="47.353242" lon="7.785614">
<ele>826.9</ele>
<time>2003-02-20T07:12:04Z</time>
<speed>0.9</speed>
</trkpt>
<trkpt lat="47.353252" lon="7.785670">
<ele>825.9</ele>
<time>2003-02-20T07:12:09Z</time>
<speed>0.7</speed>
</trkpt>
<trkpt lat="47.353262" lon="7.785711">
<ele>826.2</ele>
<time>2003-02-20T07:12:14Z</time>
<speed>0.8</speed>
</trkpt>
<trkpt lat="47.353271" lon="7.785765">
<ele>826.7</ele>
<time>2003-02-20T07:12:19Z</time>
<speed>1.0</speed>
</trkpt>
<trkpt lat="47.353279" lon="7.785833">
<ele>827.2</ele>
<time>2003-02-20T07:12:24Z</time>
<speed>0.9</speed>
</trkpt>
<trkpt lat="47.353294" lon="7.785889">
<ele>826.9</ele>
<time>2003-02-20T07:12:29Z</time>
<speed>1.2</speed>
</trkpt>
<trkpt lat="47.353308" lon="7.785969">
<ele>828.3</ele>
<time>2003-02-20T07:12:34Z</time>
<speed>1.0</speed>
</trkpt>
<trkpt lat="47.353303" lon="7.786035">
<ele>828.8</ele>
<time>2003-02-20T07:12:39Z</time>
<speed>1.0</speed>
</trkpt>
<trkpt lat="47.353325" lon="7.786091">
<ele>829.3</ele>
<time>2003-02-20T07:12:44Z</time>
<speed>0.8</speed>
</trkpt>
<trkpt lat="47.353348" lon="7.786134">
<ele>829.7</ele>
<time>2003-02-20T07:12:49Z</time>
<speed>0.7</speed>
</trkpt>
<trkpt lat="47.353364" lon="7.786175">
<ele>830.7</ele>
<time>2003-02-20T07:12:54Z</time>
<speed>0.0</speed>
</trkpt>
<trkpt lat="47.353364" lon="7.786175">
<ele>830.7</ele>
<time>2003-02-20T07:12:59Z</time>
<speed>0.0</speed>
</trkpt>
<trkpt lat="47.353364" lon="7.786175">
<ele>830.7</ele>
<time>2003-02-20T07:13:04Z</time>
<speed>0.3</speed>
</trkpt>
<trkpt lat="47.353376" lon="7.786177">
<ele>830.8</ele>
<time>2003-02-20T07:13:09Z</time>
<speed>0.1</speed>
</trkpt>
<trkpt lat="47.353382" lon="7.786177">
<ele>831.5</ele>
<time>2003-02-20T07:13:14Z</time>
<speed>1.0</speed>
</trkpt>
<trkpt lat="47.353391" lon="7.786244">
<ele>832.1</ele>
<time>2003-02-20T07:13:19Z</time>
<speed>0.5</speed>
</trkpt>
<trkpt lat="47.353401" lon="7.786272">
<ele>832.3</ele>
<time>2003-02-20T07:13:24Z</time>
<speed>0.0</speed>
</trkpt>
<trkpt lat="47.353401" lon="7.786272">
<ele>832.3</ele>
<time>2003-02-20T07:13:29Z</time>
<speed>1.0</speed>
</trkpt>
<trkpt lat="47.353397" lon="7.786339">
<ele>831.4</ele>
<time>2003-02-20T07:13:34Z</time>
<speed>1.1</speed>
</trkpt>
<trkpt lat="47.353412" lon="7.786409">
<ele>831.2</ele>
<time>2003-02-20T07:13:39Z</time>
<speed>1.0</speed>
</trkpt>
<trkpt lat="47.353434" lon="7.786465">
<ele>831.7</ele>
<time>2003-02-20T07:13:44Z</time>
<speed>1.1</speed>
</trkpt>
<trkpt lat="47.353455" lon="7.786534">
<ele>832.3</ele>
<time>2003-02-20T07:13:49Z</time>
<speed>1.2</speed>
</trkpt>
<trkpt lat="47.353468" lon="7.786614">
<ele>833.6</ele>
<time>2003-02-20T07:13:54Z</time>
<speed>0.8</speed>
</trkpt>
<trkpt lat="47.353485" lon="7.786657">
<ele>833.3</ele>
<time>2003-02-20T07:13:59Z</time>
<speed>1.0</speed>
</trkpt>
<trkpt lat="47.353506" lon="7.786713">
<ele>833.8</ele>
<time>2003-02-20T07:14:04Z</time>
<speed>1.0</speed>
</trkpt>
<trkpt lat="47.353528" lon="7.786769">
<ele>834.3</ele>
<time>2003-02-20T07:14:09Z</time>
<speed>1.0</speed>
</trkpt>
<trkpt lat="47.353550" lon="7.786825">
<ele>834.8</ele>
<time>2003-02-20T07:14:14Z</time>
<speed>1.0</speed>
</trkpt>
<trkpt lat="47.353577" lon="7.786881">
<ele>836.0</ele>
<time>2003-02-20T07:14:19Z</time>
<speed>1.2</speed>
</trkpt>
<trkpt lat="47.353605" lon="7.786952">
<ele>835.9</ele>
<time>2003-02-20T07:14:24Z</time>
<speed>0.9</speed>
</trkpt>
<trkpt lat="47.353620" lon="7.787008">
<ele>835.7</ele>
<time>2003-02-20T07:14:29Z</time>
<speed>0.9</speed>
</trkpt>
<trkpt lat="47.353636" lon="7.787064">
<ele>835.5</ele>
<time>2003-02-20T07:14:34Z</time>
<speed>0.8</speed>
</trkpt>
<trkpt lat="47.353645" lon="7.787118">
<ele>835.9</ele>
<time>2003-02-20T07:14:39Z</time>
<speed>0.9</speed>
</trkpt>
<trkpt lat="47.353661" lon="7.787175">
<ele>835.7</ele>
<time>2003-02-20T07:14:44Z</time>
<speed>1.1</speed>
</trkpt>
<trkpt lat="47.353676" lon="7.787245">
<ele>834.1</ele>
<time>2003-02-20T07:14:49Z</time>
<speed>1.2</speed>
</trkpt>
<trkpt lat="47.353683" lon="7.787326">
<ele>834.7</ele>
<time>2003-02-20T07:14:54Z</time>
<speed>1.2</speed>
</trkpt>
<trkpt lat="47.353718" lon="7.787384">
<ele>835.3</ele>
<time>2003-02-20T07:14:59Z</time>
<speed>1.2</speed>
</trkpt>
<trkpt lat="47.353719" lon="7.787464">
<ele>835.2</ele>
<time>2003-02-20T07:15:04Z</time>
<speed>1.0</speed>
</trkpt>
<trkpt lat="47.353708" lon="7.787530">
<ele>834.9</ele>
<time>2003-02-20T07:15:09Z</time>
<speed>1.0</speed>
</trkpt>
<trkpt lat="47.353730" lon="7.787588">
<ele>834.0</ele>
<time>2003-02-20T07:15:14Z</time>
<speed>0.8</speed>
</trkpt>
<trkpt lat="47.353733" lon="7.787640">
<ele>835.1</ele>
<time>2003-02-20T07:15:19Z</time>
<speed>1.1</speed>
</trkpt>
<trkpt lat="47.353748" lon="7.787709">
<ele>834.9</ele>
<time>2003-02-20T07:15:24Z</time>
<speed>1.0</speed>
</trkpt>
<trkpt lat="47.353770" lon="7.787767">
<ele>834.0</ele>
<time>2003-02-20T07:15:29Z</time>
<speed>1.0</speed>
</trkpt>
<trkpt lat="47.353805" lon="7.787812">
<ele>834.5</ele>
<time>2003-02-20T07:15:34Z</time>
<speed>0.5</speed>
</trkpt>
<trkpt lat="47.353816" lon="7.787840">
<ele>834.7</ele>
<time>2003-02-20T07:15:39Z</time>
<speed>0.0</speed>
</trkpt>
<trkpt lat="47.353816" lon="7.787840">
<ele>834.7</ele>
<time>2003-02-20T07:15:44Z</time>
<speed>0.0</speed>
</trkpt>
<trkpt lat="47.353816" lon="7.787840">
<ele>834.7</ele>
<time>2003-02-20T07:15:49Z</time>
<speed>0.0</speed>
</trkpt>
<trkpt lat="47.353816" lon="7.787840">
<ele>834.7</ele>
<time>2003-02-20T07:15:54Z</time>
<speed>0.0</speed>
</trkpt>
<trkpt lat="47.353816" lon="7.787840">
<ele>834.7</ele>
<time>2003-02-20T07:15:59Z</time>
<speed>0.0</speed>
</trkpt>
<trkpt lat="47.353816" lon="7.787840">
<ele>834.7</ele>
<time>2003-02-20T07:16:04Z</time>
<speed>0.2</speed>
</trkpt>
<trkpt lat="47.353817" lon="7.787827">
<ele>834.6</ele>
<time>2003-02-20T07:16:09Z</time>
<speed>0.0</speed>
</trkpt>
<trkpt lat="47.353817" lon="7.787827">
<ele>834.6</ele>
<time>2003-02-20T07:16:14Z</time>
<speed>0.2</speed>
</trkpt>
<trkpt lat="47.353816" lon="7.787840">
<ele>834.7</ele>
<time>2003-02-20T07:16:19Z</time>
<speed>1.0</speed>
</trkpt>
<trkpt lat="47.353851" lon="7.787884">
<ele>835.2</ele>
<time>2003-02-20T07:16:24Z</time>
<speed>0.1</speed>
</trkpt>
<trkpt lat="47.353845" lon="7.787883">
<ele>835.9</ele>
<time>2003-02-20T07:16:29Z</time>
<speed>0.4</speed>
</trkpt>
<trkpt lat="47.353857" lon="7.787899">
<ele>834.6</ele>
<time>2003-02-20T07:16:34Z</time>
<speed>1.0</speed>
</trkpt>
<trkpt lat="47.353892" lon="7.787944">
<ele>835.1</ele>
<time>2003-02-20T07:16:39Z</time>
<speed>1.0</speed>
</trkpt>
<trkpt lat="47.353929" lon="7.787977">
<ele>834.1</ele>
<time>2003-02-20T07:16:44Z</time>
<speed>1.2</speed>
</trkpt>
<trkpt lat="47.353963" lon="7.788035">
<ele>834.6</ele>
<time>2003-02-20T07:16:49Z</time>
<speed>0.8</speed>
</trkpt>
<trkpt lat="47.353993" lon="7.788067">
<ele>834.3</ele>
<time>2003-02-20T07:16:54Z</time>
<speed>0.0</speed>
</trkpt>
<trkpt lat="47.353993" lon="7.788067">
<ele>834.3</ele>
<time>2003-02-20T07:16:59Z</time>
<speed>0.0</speed>
</trkpt>
<trkpt lat="47.353993" lon="7.788067">
<ele>834.3</ele>
<time>2003-02-20T07:17:04Z</time>
<speed>0.0</speed>
</trkpt>
<trkpt lat="47.353993" lon="7.788067">
<ele>834.3</ele>
<time>2003-02-20T07:17:09Z</time>
<speed>0.0</speed>
</trkpt>
<trkpt lat="47.353993" lon="7.788067">
<ele>834.3</ele>
<time>2003-02-20T07:17:14Z</time>
<speed>0.0</speed>
</trkpt>
<trkpt lat="47.353993" lon="7.788067">
<ele>834.3</ele>
<time>2003-02-20T07:17:19Z</time>
<speed>0.0</speed>
</trkpt>
<trkpt lat="47.353993" lon="7.788067">
<ele>834.3</ele>
<time>2003-02-20T07:17:24Z</time>
<speed>0.0</speed>
</trkpt>
<trkpt lat="47.353993" lon="7.788067">
<ele>834.3</ele>
<time>2003-02-20T07:17:29Z</time>
<speed>0.0</speed>
</trkpt>
<trkpt lat="47.353993" lon="7.788067">
<ele>834.3</ele>
<time>2003-02-20T07:17:34Z</time>
<speed>0.0</speed>
</trkpt>
<trkpt lat="47.353993" lon="7.788067">
<ele>834.3</ele>
<time>2003-02-20T07:17:39Z</time>
<speed>0.0</speed>
</trkpt>
<trkpt lat="47.353993" lon="7.788067">
<ele>834.3</ele>
<time>2003-02-20T07:17:44Z</time>
<speed>0.0</speed>
</trkpt>
<trkpt lat="47.353993" lon="7.788067">
<ele>834.3</ele>
<time>2003-02-20T07:17:49Z</time>
<speed>0.0</speed>
</trkpt>
<trkpt lat="47.353993" lon="7.788067">
<ele>834.3</ele>
<time>2003-02-20T07:17:54Z</time>
<speed>0.0</speed>
</trkpt>
<trkpt lat="47.353993" lon="7.788067">
<ele>834.3</ele>
<time>2003-02-20T07:17:59Z</time>
<speed>0.0</speed>
</trkpt>
<trkpt lat="47.353993" lon="7.788067">
<ele>834.3</ele>
<time>2003-02-20T07:18:04Z</time>
<speed>0.0</speed>
</trkpt>
<trkpt lat="47.353993" lon="7.788067">
<ele>834.3</ele>
<time>2003-02-20T07:18:09Z</time>
<speed>0.0</speed>
</trkpt>
<trkpt lat="47.353993" lon="7.788067">
<ele>834.3</ele>
<time>2003-02-20T07:18:14Z</time>
<speed>0.0</speed>
</trkpt>
<trkpt lat="47.353993" lon="7.788067">
<ele>834.3</ele>
<time>2003-02-20T07:18:19Z</time>
<speed>0.0</speed>
</trkpt>
<trkpt lat="47.353993" lon="7.788067">
<ele>834.3</ele>
<time>2003-02-20T07:18:24Z</time>
<speed>0.0</speed>
</trkpt>
<trkpt lat="47.353993" lon="7.788067">
<ele>834.3</ele>
<time>2003-02-20T07:18:30Z</time>
<speed>0.0</speed>
</trkpt>
<trkpt lat="47.353993" lon="7.788067">
<ele>834.3</ele>
<time>2003-02-20T07:18:35Z</time>
<speed>0.0</speed>
</trkpt>
<trkpt lat="47.353993" lon="7.788067">
<ele>834.3</ele>
<time>2003-02-20T07:18:40Z</time>
<speed>0.0</speed>
</trkpt>
<trkpt lat="47.353993" lon="7.788067">
<ele>834.3</ele>
<time>2003-02-20T07:18:45Z</time>
<speed>0.0</speed>
</trkpt>
<trkpt lat="47.353993" lon="7.788067">
<ele>834.3</ele>
<time>2003-02-20T07:18:50Z</time>
<speed>0.0</speed>
</trkpt>
<trkpt lat="47.353993" lon="7.788067">
<ele>834.3</ele>
<time>2003-02-20T07:18:55Z</time>
<speed>0.0</speed>
</trkpt>
<trkpt lat="47.353993" lon="7.788067">
<ele>834.3</ele>
<time>2003-02-20T07:19:00Z</time>
<speed>0.0</speed>
</trkpt>
<trkpt lat="47.353993" lon="7.788067">
<ele>834.3</ele>
<time>2003-02-20T07:19:05Z</time>
<speed>0.0</speed>
</trkpt>
<trkpt lat="47.353993" lon="7.788067">
<ele>834.3</ele>
<time>2003-02-20T07:19:10Z</time>
<speed>0.0</speed>
</trkpt>
<trkpt lat="47.353993" lon="7.788067">
<ele>834.3</ele>
<time>2003-02-20T07:19:15Z</time>
<speed>0.0</speed>
</trkpt>
<trkpt lat="47.353993" lon="7.788067">
<ele>834.3</ele>
<time>2003-02-20T07:19:20Z</time>
<speed>0.2</speed>
</trkpt>
<trkpt lat="47.353992" lon="7.788080">
<ele>834.3</ele>
<time>2003-02-20T07:19:25Z</time>
<speed>0.1</speed>
</trkpt>
<trkpt lat="47.353986" lon="7.788080">
<ele>833.6</ele>
<time>2003-02-20T07:19:30Z</time>
<speed>0.0</speed>
</trkpt>
<trkpt lat="47.353986" lon="7.788080">
<ele>833.6</ele>
<time>2003-02-20T07:19:35Z</time>
<speed>0.0</speed>
</trkpt>
<trkpt lat="47.353986" lon="7.788080">
<ele>833.6</ele>
<time>2003-02-20T07:19:40Z</time>
<speed>0.0</speed>
</trkpt>
<trkpt lat="47.353986" lon="7.788080">
<ele>833.6</ele>
<time>2003-02-20T07:19:45Z</time>
<speed>0.0</speed>
</trkpt>
<trkpt lat="47.353986" lon="7.788080">
<ele>833.6</ele>
<time>2003-02-20T07:19:50Z</time>
<speed>0.0</speed>
</trkpt>
<trkpt lat="47.353986" lon="7.788080">
<ele>833.6</ele>
<time>2003-02-20T07:19:55Z</time>
<speed>0.0</speed>
</trkpt>
<trkpt lat="47.353986" lon="7.788080">
<ele>833.6</ele>
<time>2003-02-20T07:20:00Z</time>
<speed>0.0</speed>
</trkpt>
<trkpt lat="47.353986" lon="7.788080">
<ele>833.6</ele>
<time>2003-02-20T07:20:05Z</time>
<speed>0.3</speed>
</trkpt>
<trkpt lat="47.353979" lon="7.788095">
<ele>831.6</ele>
<time>2003-02-20T07:20:10Z</time>
<speed>0.0</speed>
</trkpt>
<trkpt lat="47.353979" lon="7.788095">
<ele>831.6</ele>
<time>2003-02-20T07:20:15Z</time>
<speed>0.0</speed>
</trkpt>
<trkpt lat="47.353979" lon="7.788095">
<ele>831.6</ele>
<time>2003-02-20T07:20:20Z</time>
<speed>0.0</speed>
</trkpt>
<trkpt lat="47.353979" lon="7.788095">
<ele>831.6</ele>
<time>2003-02-20T07:20:25Z</time>
<speed>0.0</speed>
</trkpt>
<trkpt lat="47.353979" lon="7.788095">
<ele>831.6</ele>
<time>2003-02-20T07:20:30Z</time>
<speed>0.0</speed>
</trkpt>
<trkpt lat="47.353979" lon="7.788095">
<ele>831.6</ele>
<time>2003-02-20T07:20:35Z</time>
<speed>0.0</speed>
</trkpt>
<trkpt lat="47.353979" lon="7.788095">
<ele>831.6</ele>
<time>2003-02-20T07:20:40Z</time>
<speed>0.6</speed>
</trkpt>
<trkpt lat="47.353996" lon="7.788123">
<ele>832.5</ele>
<time>2003-02-20T07:20:45Z</time>
<speed>0.8</speed>
</trkpt>
<trkpt lat="47.354013" lon="7.788166">
<ele>832.2</ele>
<time>2003-02-20T07:20:50Z</time>
<speed>0.9</speed>
</trkpt>
<trkpt lat="47.354042" lon="7.788211">
<ele>831.9</ele>
<time>2003-02-20T07:20:55Z</time>
<speed>0.8</speed>
</trkpt>
<trkpt lat="47.354065" lon="7.788255">
<ele>830.9</ele>
<time>2003-02-20T07:21:00Z</time>
<speed>0.8</speed>
</trkpt>
<trkpt lat="47.354095" lon="7.788285">
<ele>832.0</ele>
<time>2003-02-20T07:21:05Z</time>
<speed>1.7</speed>
</trkpt>
<trkpt lat="47.354161" lon="7.788348">
<ele>832.0</ele>
<time>2003-02-20T07:21:10Z</time>
<speed>1.4</speed>
</trkpt>
<trkpt lat="47.354201" lon="7.788421">
<ele>832.0</ele>
<time>2003-02-20T07:21:15Z</time>
<speed>1.5</speed>
</trkpt>
<trkpt lat="47.354248" lon="7.788496">
<ele>831.3</ele>
<time>2003-02-20T07:21:20Z</time>
<speed>1.6</speed>
</trkpt>
<trkpt lat="47.354287" lon="7.788583">
<ele>830.0</ele>
<time>2003-02-20T07:21:25Z</time>
<speed>1.5</speed>
</trkpt>
<trkpt lat="47.354334" lon="7.788658">
<ele>829.3</ele>
<time>2003-02-20T07:21:30Z</time>
<speed>1.7</speed>
</trkpt>
<trkpt lat="47.354393" lon="7.788734">
<ele>828.7</ele>
<time>2003-02-20T07:21:35Z</time>
<speed>1.7</speed>
</trkpt>
<trkpt lat="47.354459" lon="7.788797">
<ele>828.7</ele>
<time>2003-02-20T07:21:40Z</time>
<speed>1.5</speed>
</trkpt>
<trkpt lat="47.354492" lon="7.788883">
<ele>828.0</ele>
<time>2003-02-20T07:21:45Z</time>
<speed>1.7</speed>
</trkpt>
<trkpt lat="47.354538" lon="7.788971">
<ele>827.4</ele>
<time>2003-02-20T07:21:50Z</time>
<speed>1.3</speed>
</trkpt>
<trkpt lat="47.354579" lon="7.789030">
<ele>827.3</ele>
<time>2003-02-20T07:21:55Z</time>
<speed>1.7</speed>
</trkpt>
<trkpt lat="47.354611" lon="7.789131">
<ele>825.3</ele>
<time>2003-02-20T07:22:00Z</time>
<speed>1.1</speed>
</trkpt>
<trkpt lat="47.354640" lon="7.789189">
<ele>825.1</ele>
<time>2003-02-20T07:22:05Z</time>
<speed>0.8</speed>
</trkpt>
<trkpt lat="47.354643" lon="7.789245">
<ele>823.4</ele>
<time>2003-02-20T07:22:10Z</time>
<speed>1.8</speed>
</trkpt>
<trkpt lat="47.354725" lon="7.789258">
<ele>823.1</ele>
<time>2003-02-20T07:22:15Z</time>
<speed>1.9</speed>
</trkpt>
<trkpt lat="47.354808" lon="7.789270">
<ele>822.9</ele>
<time>2003-02-20T07:22:20Z</time>
<speed>1.6</speed>
</trkpt>
<trkpt lat="47.354879" lon="7.789253">
<ele>823.7</ele>
<time>2003-02-20T07:22:25Z</time>
<speed>2.0</speed>
</trkpt>
<trkpt lat="47.354965" lon="7.789211">
<ele>824.5</ele>
<time>2003-02-20T07:22:30Z</time>
<speed>1.3</speed>
</trkpt>
<trkpt lat="47.355023" lon="7.789207">
<ele>824.0</ele>
<time>2003-02-20T07:22:35Z</time>
<speed>1.0</speed>
</trkpt>
<trkpt lat="47.355067" lon="7.789229">
<ele>822.2</ele>
<time>2003-02-20T07:22:40Z</time>
<speed>1.1</speed>
</trkpt>
<trkpt lat="47.355103" lon="7.789277">
<ele>819.8</ele>
<time>2003-02-20T07:22:45Z</time>
<speed>0.8</speed>
</trkpt>
<trkpt lat="47.355133" lon="7.789309">
<ele>819.5</ele>
<time>2003-02-20T07:22:50Z</time>
<speed>0.1</speed>
</trkpt>
<trkpt lat="47.355127" lon="7.789309">
<ele>818.8</ele>
<time>2003-02-20T07:22:55Z</time>
<speed>0.2</speed>
</trkpt>
<trkpt lat="47.355128" lon="7.789296">
<ele>818.7</ele>
<time>2003-02-20T07:23:00Z</time>
<speed>0.0</speed>
</trkpt>
<trkpt lat="47.355128" lon="7.789296">
<ele>818.7</ele>
<time>2003-02-20T07:23:05Z</time>
<speed>0.0</speed>
</trkpt>
<trkpt lat="47.355128" lon="7.789296">
<ele>818.7</ele>
<time>2003-02-20T07:23:10Z</time>
<speed>0.0</speed>
</trkpt>
<trkpt lat="47.355128" lon="7.789296">
<ele>818.7</ele>
<time>2003-02-20T07:23:15Z</time>
<speed>0.0</speed>
</trkpt>
<trkpt lat="47.355128" lon="7.789296">
<ele>818.7</ele>
<time>2003-02-20T07:23:20Z</time>
<speed>0.2</speed>
</trkpt>
<trkpt lat="47.355121" lon="7.789294">
<ele>819.3</ele>
<time>2003-02-20T07:23:25Z</time>
<speed>0.0</speed>
</trkpt>
<trkpt lat="47.355121" lon="7.789294">
<ele>819.3</ele>
<time>2003-02-20T07:23:30Z</time>
<speed>0.0</speed>
</trkpt>
<trkpt lat="47.355121" lon="7.789294">
<ele>819.3</ele>
<time>2003-02-20T07:23:35Z</time>
<speed>0.0</speed>
</trkpt>
<trkpt lat="47.355121" lon="7.789294">
<ele>819.3</ele>
<time>2003-02-20T07:23:40Z</time>
<speed>0.2</speed>
</trkpt>
<trkpt lat="47.355128" lon="7.789296">
<ele>818.7</ele>
<time>2003-02-20T07:23:45Z</time>
<speed>0.0</speed>
</trkpt>
<trkpt lat="47.355128" lon="7.789296">
<ele>818.7</ele>
<time>2003-02-20T07:23:50Z</time>
<speed>0.0</speed>
</trkpt>
<trkpt lat="47.355128" lon="7.789296">
<ele>818.7</ele>
<time>2003-02-20T07:23:55Z</time>
<speed>0.0</speed>
</trkpt>
<trkpt lat="47.355128" lon="7.789296">
<ele>818.7</ele>
<time>2003-02-20T07:24:00Z</time>
<speed>0.0</speed>
</trkpt>
<trkpt lat="47.355128" lon="7.789296">
<ele>818.7</ele>
<time>2003-02-20T07:24:05Z</time>
<speed>0.0</speed>
</trkpt>
<trkpt lat="47.355128" lon="7.789296">
<ele>818.7</ele>
<time>2003-02-20T07:24:10Z</time>
<speed>0.2</speed>
</trkpt>
<trkpt lat="47.355129" lon="7.789283">
<ele>818.6</ele>
<time>2003-02-20T07:24:15Z</time>
<speed>0.0</speed>
</trkpt>
<trkpt lat="47.355129" lon="7.789283">
<ele>818.6</ele>
<time>2003-02-20T07:24:20Z</time>
<speed>0.3</speed>
</trkpt>
<trkpt lat="47.355122" lon="7.789296">
<ele>817.9</ele>
<time>2003-02-20T07:24:25Z</time>
<speed>0.0</speed>
</trkpt>
<trkpt lat="47.355122" lon="7.789296">
<ele>817.9</ele>
<time>2003-02-20T07:24:30Z</time>
<speed>0.0</speed>
</trkpt>
<trkpt lat="47.355122" lon="7.789296">
<ele>817.9</ele>
<time>2003-02-20T07:24:35Z</time>
<speed>0.2</speed>
</trkpt>
<trkpt lat="47.355121" lon="7.789309">
<ele>818.0</ele>
<time>2003-02-20T07:24:40Z</time>
<speed>0.3</speed>
</trkpt>
<trkpt lat="47.355132" lon="7.789322">
<ele>819.6</ele>
<time>2003-02-20T07:24:45Z</time>
<speed>0.0</speed>
</trkpt>
<trkpt lat="47.355132" lon="7.789322">
<ele>819.6</ele>
<time>2003-02-20T07:24:50Z</time>
<speed>0.0</speed>
</trkpt>
<trkpt lat="47.355132" lon="7.789322">
<ele>819.6</ele>
<time>2003-02-20T07:24:55Z</time>
<speed>0.0</speed>
</trkpt>
<trkpt lat="47.355132" lon="7.789322">
<ele>819.6</ele>
<time>2003-02-20T07:25:00Z</time>
<speed>0.2</speed>
</trkpt>
<trkpt lat="47.355139" lon="7.789324">
<ele>818.9</ele>
<time>2003-02-20T07:25:05Z</time>
<speed>0.0</speed>
</trkpt>
<trkpt lat="47.355139" lon="7.789324">
<ele>818.9</ele>
<time>2003-02-20T07:25:10Z</time>
<speed>0.1</speed>
</trkpt>
<trkpt lat="47.355145" lon="7.789324">
<ele>819.6</ele>
<time>2003-02-20T07:25:15Z</time>
<speed>0.3</speed>
</trkpt>
<trkpt lat="47.355132" lon="7.789337">
<ele>818.3</ele>
<time>2003-02-20T07:25:20Z</time>
<speed>0.1</speed>
</trkpt>
<trkpt lat="47.355138" lon="7.789339">
<ele>817.6</ele>
<time>2003-02-20T07:25:25Z</time>
<speed>0.2</speed>
</trkpt>
<trkpt lat="47.355133" lon="7.789326">
<ele>816.8</ele>
<time>2003-02-20T07:25:30Z</time>
<speed>0.0</speed>
</trkpt>
<trkpt lat="47.355133" lon="7.789326">
<ele>816.8</ele>
<time>2003-02-20T07:25:35Z</time>
<speed>0.3</speed>
</trkpt>
<trkpt lat="47.355145" lon="7.789341">
<ele>816.9</ele>
<time>2003-02-20T07:25:40Z</time>
<speed>1.2</speed>
</trkpt>
<trkpt lat="47.355179" lon="7.789400">
<ele>816.1</ele>
<time>2003-02-20T07:25:45Z</time>
<speed>1.5</speed>
</trkpt>
<trkpt lat="47.355240" lon="7.789449">
<ele>816.7</ele>
<time>2003-02-20T07:25:50Z</time>
<speed>1.4</speed>
</trkpt>
<trkpt lat="47.355294" lon="7.789497">
<ele>816.5</ele>
<time>2003-02-20T07:25:55Z</time>
<speed>1.6</speed>
</trkpt>
<trkpt lat="47.355347" lon="7.789571">
<ele>816.6</ele>
<time>2003-02-20T07:26:00Z</time>
<speed>1.5</speed>
</trkpt>
<trkpt lat="47.355401" lon="7.789633">
<ele>816.5</ele>
<time>2003-02-20T07:26:05Z</time>
<speed>1.9</speed>
</trkpt>
<trkpt lat="47.355480" lon="7.789685">
<ele>816.5</ele>
<time>2003-02-20T07:26:10Z</time>
<speed>1.8</speed>
</trkpt>
<trkpt lat="47.355547" lon="7.789748">
<ele>816.5</ele>
<time>2003-02-20T07:26:15Z</time>
<speed>1.7</speed>
</trkpt>
<trkpt lat="47.355613" lon="7.789811">
<ele>816.6</ele>
<time>2003-02-20T07:26:20Z</time>
<speed>1.6</speed>
</trkpt>
<trkpt lat="47.355673" lon="7.789874">
<ele>815.8</ele>
<time>2003-02-20T07:26:25Z</time>
<speed>1.7</speed>
</trkpt>
<trkpt lat="47.355740" lon="7.789924">
<ele>815.8</ele>
<time>2003-02-20T07:26:30Z</time>
<speed>1.2</speed>
</trkpt>
<trkpt lat="47.355782" lon="7.789971">
<ele>815.6</ele>
<time>2003-02-20T07:26:35Z</time>
<speed>0.3</speed>
</trkpt>
<trkpt lat="47.355787" lon="7.789986">
<ele>815.0</ele>
<time>2003-02-20T07:26:40Z</time>
<speed>0.8</speed>
</trkpt>
<trkpt lat="47.355754" lon="7.790009">
<ele>814.3</ele>
<time>2003-02-20T07:26:45Z</time>
<speed>0.5</speed>
</trkpt>
<trkpt lat="47.355773" lon="7.790025">
<ele>813.8</ele>
<time>2003-02-20T07:26:50Z</time>
<speed>0.2</speed>
</trkpt>
<trkpt lat="47.355774" lon="7.790012">
<ele>813.7</ele>
<time>2003-02-20T07:26:55Z</time>
<speed>0.1</speed>
</trkpt>
<trkpt lat="47.355780" lon="7.790014">
<ele>813.0</ele>
<time>2003-02-20T07:27:00Z</time>
<speed>0.8</speed>
</trkpt>
<trkpt lat="47.355789" lon="7.790068">
<ele>813.5</ele>
<time>2003-02-20T07:27:05Z</time>
<speed>1.1</speed>
</trkpt>
<trkpt lat="47.355817" lon="7.790126">
<ele>813.3</ele>
<time>2003-02-20T07:27:10Z</time>
<speed>1.4</speed>
</trkpt>
<trkpt lat="47.355857" lon="7.790199">
<ele>813.3</ele>
<time>2003-02-20T07:27:15Z</time>
<speed>1.4</speed>
</trkpt>
<trkpt lat="47.355905" lon="7.790260">
<ele>812.5</ele>
<time>2003-02-20T07:27:20Z</time>
<speed>1.1</speed>
</trkpt>
<trkpt lat="47.355933" lon="7.790318">
<ele>812.3</ele>
<time>2003-02-20T07:27:25Z</time>
<speed>0.3</speed>
</trkpt>
<trkpt lat="47.355946" lon="7.790320">
<ele>812.4</ele>
<time>2003-02-20T07:27:30Z</time>
<speed>0.0</speed>
</trkpt>
<trkpt lat="47.355946" lon="7.790320">
<ele>812.4</ele>
<time>2003-02-20T07:27:35Z</time>
<speed>0.4</speed>
</trkpt>
<trkpt lat="47.355951" lon="7.790348">
<ele>811.9</ele>
<time>2003-02-20T07:27:40Z</time>
<speed>1.2</speed>
</trkpt>
<trkpt lat="47.355978" lon="7.790419">
<ele>811.8</ele>
<time>2003-02-20T07:27:45Z</time>
<speed>1.3</speed>
</trkpt>
<trkpt lat="47.356011" lon="7.790490">
<ele>812.5</ele>
<time>2003-02-20T07:27:50Z</time>
<speed>1.4</speed>
</trkpt>
<trkpt lat="47.356038" lon="7.790574">
<ele>812.5</ele>
<time>2003-02-20T07:27:55Z</time>
<speed>1.3</speed>
</trkpt>
<trkpt lat="47.356058" lon="7.790658">
<ele>811.7</ele>
<time>2003-02-20T07:28:00Z</time>
<speed>1.5</speed>
</trkpt>
<trkpt lat="47.356071" lon="7.790753">
<ele>811.8</ele>
<time>2003-02-20T07:28:05Z</time>
<speed>1.6</speed>
</trkpt>
<trkpt lat="47.356097" lon="7.790850">
<ele>811.9</ele>
<time>2003-02-20T07:28:10Z</time>
<speed>1.4</speed>
</trkpt>
<trkpt lat="47.356144" lon="7.790910">
<ele>812.5</ele>
<time>2003-02-20T07:28:15Z</time>
<speed>1.0</speed>
</trkpt>
<trkpt lat="47.356189" lon="7.790904">
<ele>811.9</ele>
<time>2003-02-20T07:28:20Z</time>
<speed>1.1</speed>
</trkpt>
<trkpt lat="47.356240" lon="7.790911">
<ele>812.2</ele>
<time>2003-02-20T07:28:25Z</time>
<speed>0.9</speed>
</trkpt>
<trkpt lat="47.356255" lon="7.790967">
<ele>811.9</ele>
<time>2003-02-20T07:28:30Z</time>
<speed>1.0</speed>
</trkpt>
<trkpt lat="47.356245" lon="7.791033">
<ele>811.7</ele>
<time>2003-02-20T07:28:35Z</time>
<speed>0.8</speed>
</trkpt>
<trkpt lat="47.356248" lon="7.791087">
<ele>811.4</ele>
<time>2003-02-20T07:28:40Z</time>
<speed>1.2</speed>
</trkpt>
<trkpt lat="47.356255" lon="7.791168">
<ele>812.0</ele>
<time>2003-02-20T07:28:45Z</time>
<speed>1.3</speed>
</trkpt>
<trkpt lat="47.356275" lon="7.791252">
<ele>811.3</ele>
<time>2003-02-20T07:28:50Z</time>
<speed>1.2</speed>
</trkpt>
<trkpt lat="47.356283" lon="7.791332">
<ele>811.9</ele>
<time>2003-02-20T07:28:55Z</time>
<speed>1.4</speed>
</trkpt>
<trkpt lat="47.356309" lon="7.791416">
<ele>811.9</ele>
<time>2003-02-20T07:29:00Z</time>
<speed>1.3</speed>
</trkpt>
<trkpt lat="47.356342" lon="7.791487">
<ele>812.5</ele>
<time>2003-02-20T07:29:05Z</time>
<speed>1.3</speed>
</trkpt>
<trkpt lat="47.356362" lon="7.791584">
<ele>811.9</ele>
<time>2003-02-20T07:29:11Z</time>
<speed>1.0</speed>
</trkpt>
<trkpt lat="47.356384" lon="7.791640">
<ele>812.4</ele>
<time>2003-02-20T07:29:16Z</time>
<speed>1.3</speed>
</trkpt>
<trkpt lat="47.356425" lon="7.791700">
<ele>812.3</ele>
<time>2003-02-20T07:29:21Z</time>
<speed>1.3</speed>
</trkpt>
<trkpt lat="47.356458" lon="7.791771">
<ele>812.9</ele>
<time>2003-02-20T07:29:26Z</time>
<speed>1.2</speed>
</trkpt>
<trkpt lat="47.356459" lon="7.791851">
<ele>812.8</ele>
<time>2003-02-20T07:29:31Z</time>
<speed>1.4</speed>
</trkpt>
<trkpt lat="47.356486" lon="7.791935">
<ele>812.8</ele>
<time>2003-02-20T07:29:36Z</time>
<speed>1.3</speed>
</trkpt>
<trkpt lat="47.356500" lon="7.792018">
<ele>812.8</ele>
<time>2003-02-20T07:29:41Z</time>
<speed>1.1</speed>
</trkpt>
<trkpt lat="47.356514" lon="7.792087">
<ele>812.6</ele>
<time>2003-02-20T07:29:46Z</time>
<speed>0.3</speed>
</trkpt>
<trkpt lat="47.356526" lon="7.792102">
<ele>812.8</ele>
<time>2003-02-20T07:29:51Z</time>
<speed>0.7</speed>
</trkpt>
<trkpt lat="47.356536" lon="7.792143">
<ele>813.1</ele>
<time>2003-02-20T07:29:56Z</time>
<speed>1.1</speed>
</trkpt>
<trkpt lat="47.356551" lon="7.792212">
<ele>813.0</ele>
<time>2003-02-20T07:30:01Z</time>
<speed>1.4</speed>
</trkpt>
<trkpt lat="47.356551" lon="7.792306">
<ele>812.9</ele>
<time>2003-02-20T07:30:06Z</time>
<speed>1.2</speed>
</trkpt>
<trkpt lat="47.356552" lon="7.792386">
<ele>812.8</ele>
<time>2003-02-20T07:30:11Z</time>
<speed>1.1</speed>
</trkpt>
<trkpt lat="47.356573" lon="7.792455">
<ele>813.4</ele>
<time>2003-02-20T07:30:16Z</time>
<speed>1.0</speed>
</trkpt>
<trkpt lat="47.356575" lon="7.792523">
<ele>813.2</ele>
<time>2003-02-20T07:30:21Z</time>
<speed>1.1</speed>
</trkpt>
<trkpt lat="47.356596" lon="7.792592">
<ele>813.8</ele>
<time>2003-02-20T07:30:26Z</time>
<speed>1.0</speed>
</trkpt>
<trkpt lat="47.356604" lon="7.792659">
<ele>814.3</ele>
<time>2003-02-20T07:30:31Z</time>
<speed>0.9</speed>
</trkpt>
<trkpt lat="47.356620" lon="7.792715">
<ele>814.1</ele>
<time>2003-02-20T07:30:36Z</time>
<speed>1.4</speed>
</trkpt>
<trkpt lat="47.356620" lon="7.792809">
<ele>814.0</ele>
<time>2003-02-20T07:30:41Z</time>
<speed>1.0</speed>
</trkpt>
<trkpt lat="47.356642" lon="7.792865">
<ele>814.5</ele>
<time>2003-02-20T07:30:46Z</time>
<speed>0.9</speed>
</trkpt>
<trkpt lat="47.356651" lon="7.792921">
<ele>813.6</ele>
<time>2003-02-20T07:30:51Z</time>
<speed>1.0</speed>
</trkpt>
<trkpt lat="47.356659" lon="7.792988">
<ele>814.1</ele>
<time>2003-02-20T07:30:56Z</time>
<speed>1.2</speed>
</trkpt>
<trkpt lat="47.356667" lon="7.793070">
<ele>813.3</ele>
<time>2003-02-20T07:31:01Z</time>
<speed>0.7</speed>
</trkpt>
<trkpt lat="47.356677" lon="7.793111">
<ele>813.6</ele>
<time>2003-02-20T07:31:06Z</time>
<speed>0.9</speed>
</trkpt>
<trkpt lat="47.356693" lon="7.793168">
<ele>813.4</ele>
<time>2003-02-20T07:31:11Z</time>
<speed>0.6</speed>
</trkpt>
<trkpt lat="47.356696" lon="7.793209">
<ele>813.0</ele>
<time>2003-02-20T07:31:16Z</time>
<speed>0.8</speed>
</trkpt>
<trkpt lat="47.356705" lon="7.793263">
<ele>813.4</ele>
<time>2003-02-20T07:31:21Z</time>
<speed>0.8</speed>
</trkpt>
<trkpt lat="47.356696" lon="7.793315">
<ele>813.1</ele>
<time>2003-02-20T07:31:26Z</time>
<speed>0.8</speed>
</trkpt>
<trkpt lat="47.356699" lon="7.793370">
<ele>812.8</ele>
<time>2003-02-20T07:31:31Z</time>
<speed>1.0</speed>
</trkpt>
<trkpt lat="47.356701" lon="7.793437">
<ele>812.5</ele>
<time>2003-02-20T07:31:36Z</time>
<speed>0.9</speed>
</trkpt>
<trkpt lat="47.356716" lon="7.793491">
<ele>813.7</ele>
<time>2003-02-20T07:31:41Z</time>
<speed>0.9</speed>
</trkpt>
<trkpt lat="47.356732" lon="7.793547">
<ele>813.5</ele>
<time>2003-02-20T07:31:46Z</time>
<speed>0.9</speed>
</trkpt>
<trkpt lat="47.356761" lon="7.793592">
<ele>813.2</ele>
<time>2003-02-20T07:31:51Z</time>
<speed>1.1</speed>
</trkpt>
<trkpt lat="47.356789" lon="7.793650">
<ele>813.0</ele>
<time>2003-02-20T07:31:56Z</time>
<speed>0.8</speed>
</trkpt>
<trkpt lat="47.356812" lon="7.793693">
<ele>813.4</ele>
<time>2003-02-20T07:32:01Z</time>
<speed>1.0</speed>
</trkpt>
<trkpt lat="47.356820" lon="7.793760">
<ele>814.0</ele>
<time>2003-02-20T07:32:06Z</time>
<speed>0.9</speed>
</trkpt>
<trkpt lat="47.356835" lon="7.793816">
<ele>813.7</ele>
<time>2003-02-20T07:32:11Z</time>
<speed>0.8</speed>
</trkpt>
<trkpt lat="47.356838" lon="7.793870">
<ele>813.4</ele>
<time>2003-02-20T07:32:16Z</time>
<speed>0.9</speed>
</trkpt>
<trkpt lat="47.356867" lon="7.793915">
<ele>813.2</ele>
<time>2003-02-20T07:32:21Z</time>
<speed>0.8</speed>
</trkpt>
<trkpt lat="47.356890" lon="7.793958">
<ele>813.6</ele>
<time>2003-02-20T07:32:26Z</time>
<speed>1.0</speed>
</trkpt>
<trkpt lat="47.356925" lon="7.794003">
<ele>814.0</ele>
<time>2003-02-20T07:32:31Z</time>
<speed>0.8</speed>
</trkpt>
<trkpt lat="47.356955" lon="7.794034">
<ele>813.7</ele>
<time>2003-02-20T07:32:36Z</time>
<speed>1.0</speed>
</trkpt>
<trkpt lat="47.356991" lon="7.794079">
<ele>814.1</ele>
<time>2003-02-20T07:32:41Z</time>
<speed>1.0</speed>
</trkpt>
<trkpt lat="47.357012" lon="7.794135">
<ele>814.6</ele>
<time>2003-02-20T07:32:46Z</time>
<speed>1.2</speed>
</trkpt>
<trkpt lat="47.357013" lon="7.794216">
<ele>814.5</ele>
<time>2003-02-20T07:32:51Z</time>
<speed>1.0</speed>
</trkpt>
<trkpt lat="47.357035" lon="7.794272">
<ele>815.0</ele>
<time>2003-02-20T07:32:56Z</time>
<speed>0.8</speed>
</trkpt>
<trkpt lat="47.357058" lon="7.794315">
<ele>815.4</ele>
<time>2003-02-20T07:33:01Z</time>
<speed>0.9</speed>
</trkpt>
<trkpt lat="47.357087" lon="7.794359">
<ele>815.1</ele>
<time>2003-02-20T07:33:06Z</time>
<speed>0.9</speed>
</trkpt>
<trkpt lat="47.357103" lon="7.794415">
<ele>814.9</ele>
<time>2003-02-20T07:33:11Z</time>
<speed>0.9</speed>
</trkpt>
<trkpt lat="47.357118" lon="7.794470">
<ele>816.1</ele>
<time>2003-02-20T07:33:16Z</time>
<speed>0.1</speed>
</trkpt>
<trkpt lat="47.357112" lon="7.794470">
<ele>815.3</ele>
<time>2003-02-20T07:33:21Z</time>
<speed>0.3</speed>
</trkpt>
<trkpt lat="47.357124" lon="7.794471">
<ele>815.4</ele>
<time>2003-02-20T07:33:26Z</time>
<speed>0.2</speed>
</trkpt>
<trkpt lat="47.357125" lon="7.794458">
<ele>815.3</ele>
<time>2003-02-20T07:33:31Z</time>
<speed>0.0</speed>
</trkpt>
<trkpt lat="47.357125" lon="7.794458">
<ele>815.3</ele>
<time>2003-02-20T07:33:36Z</time>
<speed>0.7</speed>
</trkpt>
<trkpt lat="47.357156" lon="7.794475">
<ele>816.3</ele>
<time>2003-02-20T07:33:41Z</time>
<speed>1.1</speed>
</trkpt>
<trkpt lat="47.357184" lon="7.794533">
<ele>816.1</ele>
<time>2003-02-20T07:33:46Z</time>
<speed>1.0</speed>
</trkpt>
<trkpt lat="47.357212" lon="7.794589">
<ele>817.3</ele>
<time>2003-02-20T07:33:51Z</time>
<speed>0.8</speed>
</trkpt>
<trkpt lat="47.357234" lon="7.794632">
<ele>817.7</ele>
<time>2003-02-20T07:33:56Z</time>
<speed>0.8</speed>
</trkpt>
<trkpt lat="47.357257" lon="7.794675">
<ele>818.1</ele>
<time>2003-02-20T07:34:01Z</time>
<speed>0.9</speed>
</trkpt>
<trkpt lat="47.357286" lon="7.794718">
<ele>819.3</ele>
<time>2003-02-20T07:34:06Z</time>
<speed>0.8</speed>
</trkpt>
<trkpt lat="47.357309" lon="7.794762">
<ele>818.3</ele>
<time>2003-02-20T07:34:11Z</time>
<speed>1.1</speed>
</trkpt>
<trkpt lat="47.357329" lon="7.794831">
<ele>818.9</ele>
<time>2003-02-20T07:34:16Z</time>
<speed>0.9</speed>
</trkpt>
<trkpt lat="47.357339" lon="7.794886">
<ele>819.3</ele>
<time>2003-02-20T07:34:21Z</time>
<speed>0.9</speed>
</trkpt>
<trkpt lat="47.357354" lon="7.794940">
<ele>820.5</ele>
<time>2003-02-20T07:34:26Z</time>
<speed>0.9</speed>
</trkpt>
<trkpt lat="47.357369" lon="7.794996">
<ele>820.2</ele>
<time>2003-02-20T07:34:31Z</time>
<speed>1.4</speed>
</trkpt>
<trkpt lat="47.357369" lon="7.795088">
<ele>821.6</ele>
<time>2003-02-20T07:34:36Z</time>
<speed>0.8</speed>
</trkpt>
<trkpt lat="47.357378" lon="7.795142">
<ele>822.0</ele>
<time>2003-02-20T07:34:41Z</time>
<speed>1.1</speed>
</trkpt>
<trkpt lat="47.357393" lon="7.795211">
<ele>821.9</ele>
<time>2003-02-20T07:34:46Z</time>
<speed>1.0</speed>
</trkpt>
<trkpt lat="47.357421" lon="7.795267">
<ele>823.1</ele>
<time>2003-02-20T07:34:51Z</time>
<speed>1.2</speed>
</trkpt>
<trkpt lat="47.357422" lon="7.795348">
<ele>823.0</ele>
<time>2003-02-20T07:34:56Z</time>
<speed>0.8</speed>
</trkpt>
<trkpt lat="47.357425" lon="7.795402">
<ele>822.7</ele>
<time>2003-02-20T07:35:01Z</time>
<speed>1.0</speed>
</trkpt>
<trkpt lat="47.357460" lon="7.795447">
<ele>823.2</ele>
<time>2003-02-20T07:35:06Z</time>
<speed>0.9</speed>
</trkpt>
<trkpt lat="47.357489" lon="7.795490">
<ele>824.3</ele>
<time>2003-02-20T07:35:11Z</time>
<speed>1.1</speed>
</trkpt>
<trkpt lat="47.357523" lon="7.795547">
<ele>824.9</ele>
<time>2003-02-20T07:35:16Z</time>
<speed>1.1</speed>
</trkpt>
<trkpt lat="47.357565" lon="7.795579">
<ele>826.0</ele>
<time>2003-02-20T07:35:21Z</time>
<speed>1.0</speed>
</trkpt>
<trkpt lat="47.357602" lon="7.795611">
<ele>826.4</ele>
<time>2003-02-20T07:35:26Z</time>
<speed>1.2</speed>
</trkpt>
<trkpt lat="47.357650" lon="7.795644">
<ele>826.8</ele>
<time>2003-02-20T07:35:31Z</time>
<speed>0.7</speed>
</trkpt>
<trkpt lat="47.357674" lon="7.795674">
<ele>827.1</ele>
<time>2003-02-20T07:35:36Z</time>
<speed>1.1</speed>
</trkpt>
<trkpt lat="47.357716" lon="7.795707">
<ele>826.8</ele>
<time>2003-02-20T07:35:41Z</time>
<speed>1.4</speed>
</trkpt>
<trkpt lat="47.357772" lon="7.795743">
<ele>826.6</ele>
<time>2003-02-20T07:35:46Z</time>
<speed>0.9</speed>
</trkpt>
<trkpt lat="47.357801" lon="7.795787">
<ele>826.3</ele>
<time>2003-02-20T07:35:51Z</time>
<speed>0.9</speed>
</trkpt>
<trkpt lat="47.357837" lon="7.795819">
<ele>826.7</ele>
<time>2003-02-20T07:35:56Z</time>
<speed>1.0</speed>
</trkpt>
<trkpt lat="47.357865" lon="7.795875">
<ele>827.9</ele>
<time>2003-02-20T07:36:01Z</time>
<speed>0.8</speed>
</trkpt>
<trkpt lat="47.357862" lon="7.795929">
<ele>826.9</ele>
<time>2003-02-20T07:36:06Z</time>
<speed>0.2</speed>
</trkpt>
<trkpt lat="47.357863" lon="7.795918">
<ele>825.4</ele>
<time>2003-02-20T07:36:11Z</time>
<speed>0.2</speed>
</trkpt>
<trkpt lat="47.357856" lon="7.795929">
<ele>826.1</ele>
<time>2003-02-20T07:36:16Z</time>
<speed>1.0</speed>
</trkpt>
<trkpt lat="47.357858" lon="7.795996">
<ele>825.9</ele>
<time>2003-02-20T07:36:21Z</time>
<speed>1.1</speed>
</trkpt>
<trkpt lat="47.357886" lon="7.796053">
<ele>827.2</ele>
<time>2003-02-20T07:36:26Z</time>
<speed>1.1</speed>
</trkpt>
<trkpt lat="47.357900" lon="7.796120">
<ele>828.4</ele>
<time>2003-02-20T07:36:31Z</time>
<speed>0.9</speed>
</trkpt>
<trkpt lat="47.357915" lon="7.796174">
<ele>829.6</ele>
<time>2003-02-20T07:36:36Z</time>
<speed>0.8</speed>
</trkpt>
<trkpt lat="47.357938" lon="7.796217">
<ele>830.0</ele>
<time>2003-02-20T07:36:41Z</time>
<speed>0.6</speed>
</trkpt>
<trkpt lat="47.357962" lon="7.796232">
<ele>831.6</ele>
<time>2003-02-20T07:36:46Z</time>
<speed>0.2</speed>
</trkpt>
<trkpt lat="47.357969" lon="7.796221">
<ele>830.9</ele>
<time>2003-02-20T07:36:51Z</time>
<speed>0.0</speed>
</trkpt>
<trkpt lat="47.357969" lon="7.796221">
<ele>830.9</ele>
<time>2003-02-20T07:36:56Z</time>
<speed>0.1</speed>
</trkpt>
<trkpt lat="47.357963" lon="7.796221">
<ele>830.1</ele>
<time>2003-02-20T07:37:01Z</time>
<speed>0.1</speed>
</trkpt>
<trkpt lat="47.357957" lon="7.796221">
<ele>829.4</ele>
<time>2003-02-20T07:37:06Z</time>
<speed>0.1</speed>
</trkpt>
<trkpt lat="47.357963" lon="7.796222">
<ele>828.7</ele>
<time>2003-02-20T07:37:11Z</time>
<speed>0.1</speed>
</trkpt>
<trkpt lat="47.357957" lon="7.796222">
<ele>828.0</ele>
<time>2003-02-20T07:37:16Z</time>
<speed>0.1</speed>
</trkpt>
<trkpt lat="47.357963" lon="7.796221">
<ele>830.1</ele>
<time>2003-02-20T07:37:21Z</time>
<speed>1.3</speed>
</trkpt>
<trkpt lat="47.358016" lon="7.796187">
<ele>831.5</ele>
<time>2003-02-20T07:37:26Z</time>
<speed>1.0</speed>
</trkpt>
<trkpt lat="47.358027" lon="7.796123">
<ele>830.4</ele>
<time>2003-02-20T07:37:31Z</time>
<speed>0.7</speed>
</trkpt>
<trkpt lat="47.358042" lon="7.796085">
<ele>830.2</ele>
<time>2003-02-20T07:37:36Z</time>
<speed>0.6</speed>
</trkpt>
<trkpt lat="47.358039" lon="7.796125">
<ele>830.5</ele>
<time>2003-02-20T07:37:41Z</time>
<speed>0.6</speed>
</trkpt>
<trkpt lat="47.358031" lon="7.796164">
<ele>830.0</ele>
<time>2003-02-20T07:37:46Z</time>
<speed>0.4</speed>
</trkpt>
<trkpt lat="47.358023" lon="7.796190">
<ele>829.4</ele>
<time>2003-02-20T07:37:51Z</time>
<speed>3.8</speed>
</trkpt>
<trkpt lat="47.358196" lon="7.796199">
<ele>843.0</ele>
<time>2003-02-20T07:37:56Z</time>
<speed>1.4</speed>
</trkpt>
<trkpt lat="47.358255" lon="7.796227">
<ele>849.1</ele>
<time>2003-02-20T07:38:01Z</time>
<speed>0.9</speed>
</trkpt>
<trkpt lat="47.358290" lon="7.796254">
<ele>853.7</ele>
<time>2003-02-20T07:38:06Z</time>
<speed>0.5</speed>
</trkpt>
<trkpt lat="47.358306" lon="7.796280">
<ele>856.1</ele>
<time>2003-02-20T07:38:11Z</time>
<speed>0.9</speed>
</trkpt>
<trkpt lat="47.358342" lon="7.796308">
<ele>859.3</ele>
<time>2003-02-20T07:38:16Z</time>
<speed>0.9</speed>
</trkpt>
<trkpt lat="47.358370" lon="7.796349">
<ele>861.9</ele>
<time>2003-02-20T07:38:21Z</time>
<speed>0.7</speed>
</trkpt>
<trkpt lat="47.358393" lon="7.796379">
<ele>862.2</ele>
<time>2003-02-20T07:38:26Z</time>
<speed>0.4</speed>
</trkpt>
<trkpt lat="47.358411" lon="7.796392">
<ele>864.5</ele>
<time>2003-02-20T07:38:31Z</time>
<speed>0.4</speed>
</trkpt>
<trkpt lat="47.358430" lon="7.796394">
<ele>865.3</ele>
<time>2003-02-20T07:38:36Z</time>
<speed>1.0</speed>
</trkpt>
<trkpt lat="47.358473" lon="7.796412">
<ele>866.3</ele>
<time>2003-02-20T07:38:41Z</time>
<speed>1.0</speed>
</trkpt>
<trkpt lat="47.358518" lon="7.796391">
<ele>867.0</ele>
<time>2003-02-20T07:38:46Z</time>
<speed>1.2</speed>
</trkpt>
<trkpt lat="47.358571" lon="7.796372">
<ele>867.1</ele>
<time>2003-02-20T07:38:51Z</time>
<speed>0.8</speed>
</trkpt>
<trkpt lat="47.358609" lon="7.796378">
<ele>867.3</ele>
<time>2003-02-20T07:38:56Z</time>
<speed>1.1</speed>
</trkpt>
<trkpt lat="47.358639" lon="7.796319">
<ele>864.2</ele>
<time>2003-02-20T07:39:01Z</time>
<speed>1.4</speed>
</trkpt>
<trkpt lat="47.358688" lon="7.796261">
<ele>863.2</ele>
<time>2003-02-20T07:39:06Z</time>
<speed>0.2</speed>
</trkpt>
<trkpt lat="47.358689" lon="7.796248">
<ele>863.1</ele>
<time>2003-02-20T07:39:11Z</time>
<speed>0.5</speed>
</trkpt>
<trkpt lat="47.358709" lon="7.796236">
<ele>863.8</ele>
<time>2003-02-20T07:39:16Z</time>
<speed>0.7</speed>
</trkpt>
<trkpt lat="47.358740" lon="7.796238">
<ele>866.1</ele>
<time>2003-02-20T07:39:21Z</time>
<speed>0.7</speed>
</trkpt>
<trkpt lat="47.358771" lon="7.796240">
<ele>868.4</ele>
<time>2003-02-20T07:39:26Z</time>
<speed>0.8</speed>
</trkpt>
<trkpt lat="47.358793" lon="7.796281">
<ele>870.2</ele>
<time>2003-02-20T07:39:31Z</time>
<speed>0.8</speed>
</trkpt>
<trkpt lat="47.358789" lon="7.796332">
<ele>872.0</ele>
<time>2003-02-20T07:39:36Z</time>
<speed>0.6</speed>
</trkpt>
<trkpt lat="47.358773" lon="7.796368">
<ele>873.6</ele>
<time>2003-02-20T07:39:41Z</time>
<speed>0.8</speed>
</trkpt>
<trkpt lat="47.358763" lon="7.796418">
<ele>874.6</ele>
<time>2003-02-20T07:39:46Z</time>
<speed>0.7</speed>
</trkpt>
<trkpt lat="47.358779" lon="7.796459">
<ele>875.7</ele>
<time>2003-02-20T07:39:51Z</time>
<speed>1.1</speed>
</trkpt>
<trkpt lat="47.358793" lon="7.796527">
<ele>877.0</ele>
<time>2003-02-20T07:39:56Z</time>
<speed>1.2</speed>
</trkpt>
<trkpt lat="47.358820" lon="7.796596">
<ele>878.3</ele>
<time>2003-02-20T07:40:01Z</time>
<speed>1.0</speed>
</trkpt>
<trkpt lat="47.358842" lon="7.796652">
<ele>878.8</ele>
<time>2003-02-20T07:40:06Z</time>
<speed>0.4</speed>
</trkpt>
<trkpt lat="47.358841" lon="7.796680">
<ele>877.6</ele>
<time>2003-02-20T07:40:11Z</time>
<speed>0.6</speed>
</trkpt>
<trkpt lat="47.358831" lon="7.796717">
<ele>878.5</ele>
<time>2003-02-20T07:40:16Z</time>
<speed>0.6</speed>
</trkpt>
<trkpt lat="47.358848" lon="7.796746">
<ele>879.5</ele>
<time>2003-02-20T07:40:21Z</time>
<speed>0.8</speed>
</trkpt>
<trkpt lat="47.358877" lon="7.796774">
<ele>881.9</ele>
<time>2003-02-20T07:40:26Z</time>
<speed>0.6</speed>
</trkpt>
<trkpt lat="47.358894" lon="7.796802">
<ele>882.9</ele>
<time>2003-02-20T07:40:31Z</time>
<speed>0.4</speed>
</trkpt>
<trkpt lat="47.358886" lon="7.796826">
<ele>883.8</ele>
<time>2003-02-20T07:40:36Z</time>
<speed>0.5</speed>
</trkpt>
<trkpt lat="47.358904" lon="7.796843">
<ele>883.3</ele>
<time>2003-02-20T07:40:41Z</time>
<speed>1.1</speed>
</trkpt>
<trkpt lat="47.358947" lon="7.796874">
<ele>884.4</ele>
<time>2003-02-20T07:40:46Z</time>
<speed>0.2</speed>
</trkpt>
<trkpt lat="47.358946" lon="7.796887">
<ele>884.5</ele>
<time>2003-02-20T07:40:51Z</time>
<speed>0.5</speed>
</trkpt>
<trkpt lat="47.358956" lon="7.796915">
<ele>884.7</ele>
<time>2003-02-20T07:40:56Z</time>
<speed>0.5</speed>
</trkpt>
<trkpt lat="47.358967" lon="7.796943">
<ele>885.0</ele>
<time>2003-02-20T07:41:01Z</time>
<speed>0.7</speed>
</trkpt>
<trkpt lat="47.358990" lon="7.796971">
<ele>886.7</ele>
<time>2003-02-20T07:41:06Z</time>
<speed>1.0</speed>
</trkpt>
<trkpt lat="47.359025" lon="7.797014">
<ele>888.6</ele>
<time>2003-02-20T07:41:11Z</time>
<speed>0.8</speed>
</trkpt>
<trkpt lat="47.359047" lon="7.797056">
<ele>890.4</ele>
<time>2003-02-20T07:41:16Z</time>
<speed>0.2</speed>
</trkpt>
<trkpt lat="47.359052" lon="7.797069">
<ele>891.2</ele>
<time>2003-02-20T07:41:21Z</time>
<speed>0.2</speed>
</trkpt>
<trkpt lat="47.359051" lon="7.797080">
<ele>892.7</ele>
<time>2003-02-20T07:41:26Z</time>
<speed>0.9</speed>
</trkpt>
<trkpt lat="47.359072" lon="7.797134">
<ele>894.6</ele>
<time>2003-02-20T07:41:31Z</time>
<speed>0.7</speed>
</trkpt>
<trkpt lat="47.359088" lon="7.797175">
<ele>895.7</ele>
<time>2003-02-20T07:41:36Z</time>
<speed>0.7</speed>
</trkpt>
<trkpt lat="47.359104" lon="7.797216">
<ele>896.8</ele>
<time>2003-02-20T07:41:41Z</time>
<speed>0.9</speed>
</trkpt>
<trkpt lat="47.359133" lon="7.797259">
<ele>897.9</ele>
<time>2003-02-20T07:41:46Z</time>
<speed>0.9</speed>
</trkpt>
<trkpt lat="47.359162" lon="7.797302">
<ele>899.0</ele>
<time>2003-02-20T07:41:51Z</time>
<speed>0.6</speed>
</trkpt>
<trkpt lat="47.359179" lon="7.797330">
<ele>900.0</ele>
<time>2003-02-20T07:41:56Z</time>
<speed>0.4</speed>
</trkpt>
<trkpt lat="47.359177" lon="7.797357">
<ele>900.2</ele>
<time>2003-02-20T07:42:01Z</time>
<speed>0.6</speed>
</trkpt>
<trkpt lat="47.359181" lon="7.797398">
<ele>899.8</ele>
<time>2003-02-20T07:42:06Z</time>
<speed>0.4</speed>
</trkpt>
<trkpt lat="47.359185" lon="7.797424">
<ele>900.7</ele>
<time>2003-02-20T07:42:11Z</time>
<speed>0.2</speed>
</trkpt>
<trkpt lat="47.359190" lon="7.797437">
<ele>901.6</ele>
<time>2003-02-20T07:42:16Z</time>
<speed>0.7</speed>
</trkpt>
<trkpt lat="47.359206" lon="7.797478">
<ele>902.6</ele>
<time>2003-02-20T07:42:21Z</time>
<speed>0.3</speed>
</trkpt>
<trkpt lat="47.359192" lon="7.797488">
<ele>904.1</ele>
<time>2003-02-20T07:42:26Z</time>
<speed>0.4</speed>
</trkpt>
<trkpt lat="47.359197" lon="7.797514">
<ele>905.0</ele>
<time>2003-02-20T07:42:31Z</time>
<speed>0.6</speed>
</trkpt>
<trkpt lat="47.359200" lon="7.797551">
<ele>907.4</ele>
<time>2003-02-20T07:42:36Z</time>
<speed>0.7</speed>
</trkpt>
<trkpt lat="47.359184" lon="7.797589">
<ele>907.6</ele>
<time>2003-02-20T07:42:41Z</time>
<speed>0.9</speed>
</trkpt>
<trkpt lat="47.359199" lon="7.797643">
<ele>908.8</ele>
<time>2003-02-20T07:42:46Z</time>
<speed>0.7</speed>
</trkpt>
<trkpt lat="47.359209" lon="7.797684">
<ele>909.1</ele>
<time>2003-02-20T07:42:51Z</time>
<speed>0.6</speed>
</trkpt>
<trkpt lat="47.359200" lon="7.797722">
<ele>910.1</ele>
<time>2003-02-20T07:42:56Z</time>
<speed>0.5</speed>
</trkpt>
<trkpt lat="47.359186" lon="7.797746">
<ele>910.2</ele>
<time>2003-02-20T07:43:01Z</time>
<speed>0.6</speed>
</trkpt>
<trkpt lat="47.359190" lon="7.797788">
<ele>909.8</ele>
<time>2003-02-20T07:43:06Z</time>
<speed>2.1</speed>
</trkpt>
<trkpt lat="47.359261" lon="7.797881">
<ele>907.9</ele>
<time>2003-02-20T07:43:11Z</time>
<speed>1.0</speed>
</trkpt>
<trkpt lat="47.359288" lon="7.797935">
<ele>910.6</ele>
<time>2003-02-20T07:43:16Z</time>
<speed>0.6</speed>
</trkpt>
<trkpt lat="47.359298" lon="7.797974">
<ele>912.3</ele>
<time>2003-02-20T07:43:21Z</time>
<speed>0.5</speed>
</trkpt>
<trkpt lat="47.359283" lon="7.797997">
<ele>913.8</ele>
<time>2003-02-20T07:43:26Z</time>
<speed>0.8</speed>
</trkpt>
<trkpt lat="47.359313" lon="7.798028">
<ele>913.5</ele>
<time>2003-02-20T07:43:31Z</time>
<speed>0.5</speed>
</trkpt>
<trkpt lat="47.359324" lon="7.798058">
<ele>912.3</ele>
<time>2003-02-20T07:43:36Z</time>
<speed>0.9</speed>
</trkpt>
<trkpt lat="47.359334" lon="7.798114">
<ele>911.3</ele>
<time>2003-02-20T07:43:41Z</time>
<speed>0.7</speed>
</trkpt>
<trkpt lat="47.359357" lon="7.798142">
<ele>913.1</ele>
<time>2003-02-20T07:43:46Z</time>
<speed>0.6</speed>
</trkpt>
<trkpt lat="47.359348" lon="7.798180">
<ele>914.0</ele>
<time>2003-02-20T07:43:51Z</time>
<speed>0.8</speed>
</trkpt>
<trkpt lat="47.359370" lon="7.798223">
<ele>914.4</ele>
<time>2003-02-20T07:43:56Z</time>
<speed>1.1</speed>
</trkpt>
<trkpt lat="47.359398" lon="7.798281">
<ele>914.2</ele>
<time>2003-02-20T07:44:01Z</time>
<speed>1.6</speed>
</trkpt>
<trkpt lat="47.359451" lon="7.798355">
<ele>914.3</ele>
<time>2003-02-20T07:44:06Z</time>
<speed>0.9</speed>
</trkpt>
<trkpt lat="47.359480" lon="7.798400">
<ele>914.0</ele>
<time>2003-02-20T07:44:11Z</time>
<speed>0.3</speed>
</trkpt>
<trkpt lat="47.359486" lon="7.798415">
<ele>913.4</ele>
<time>2003-02-20T07:44:16Z</time>
<speed>0.0</speed>
</trkpt>
<trkpt lat="47.359486" lon="7.798415">
<ele>913.4</ele>
<time>2003-02-20T07:44:21Z</time>
<speed>0.1</speed>
</trkpt>
<trkpt lat="47.359492" lon="7.798417">
<ele>912.8</ele>
<time>2003-02-20T07:44:26Z</time>
<speed>0.3</speed>
</trkpt>
<trkpt lat="47.359504" lon="7.798431">
<ele>912.9</ele>
<time>2003-02-20T07:44:31Z</time>
<speed>1.0</speed>
</trkpt>
<trkpt lat="47.359545" lon="7.798459">
<ele>916.9</ele>
<time>2003-02-20T07:44:36Z</time>
<speed>0.8</speed>
</trkpt>
<trkpt lat="47.359548" lon="7.798512">
<ele>918.0</ele>
<time>2003-02-20T07:44:41Z</time>
<speed>0.6</speed>
</trkpt>
<trkpt lat="47.359539" lon="7.798549">
<ele>918.9</ele>
<time>2003-02-20T07:44:46Z</time>
<speed>0.5</speed>
</trkpt>
<trkpt lat="47.359519" lon="7.798559">
<ele>919.6</ele>
<time>2003-02-20T07:44:51Z</time>
<speed>0.2</speed>
</trkpt>
<trkpt lat="47.359523" lon="7.798570">
<ele>921.8</ele>
<time>2003-02-20T07:44:56Z</time>
<speed>0.3</speed>
</trkpt>
<trkpt lat="47.359534" lon="7.798582">
<ele>924.8</ele>
<time>2003-02-20T07:45:01Z</time>
<speed>0.4</speed>
</trkpt>
<trkpt lat="47.359539" lon="7.798608">
<ele>925.7</ele>
<time>2003-02-20T07:45:06Z</time>
<speed>0.7</speed>
</trkpt>
<trkpt lat="47.359523" lon="7.798645">
<ele>925.9</ele>
<time>2003-02-20T07:45:11Z</time>
<speed>0.2</speed>
</trkpt>
<trkpt lat="47.359524" lon="7.798632">
<ele>925.8</ele>
<time>2003-02-20T07:45:16Z</time>
<speed>0.2</speed>
</trkpt>
<trkpt lat="47.359529" lon="7.798645">
<ele>926.7</ele>
<time>2003-02-20T07:45:21Z</time>
<speed>0.2</speed>
</trkpt>
<trkpt lat="47.359522" lon="7.798657">
<ele>927.4</ele>
<time>2003-02-20T07:45:26Z</time>
<speed>0.5</speed>
</trkpt>
<trkpt lat="47.359540" lon="7.798673">
<ele>926.9</ele>
<time>2003-02-20T07:45:31Z</time>
<speed>0.8</speed>
</trkpt>
<trkpt lat="47.359557" lon="7.798716">
<ele>926.6</ele>
<time>2003-02-20T07:45:36Z</time>
<speed>0.6</speed>
</trkpt>
<trkpt lat="47.359574" lon="7.798744">
<ele>927.6</ele>
<time>2003-02-20T07:45:41Z</time>
<speed>0.2</speed>
</trkpt>
<trkpt lat="47.359579" lon="7.798758">
<ele>928.4</ele>
<time>2003-02-20T07:45:46Z</time>
<speed>0.8</speed>
</trkpt>
<trkpt lat="47.359601" lon="7.798800">
<ele>928.8</ele>
<time>2003-02-20T07:45:51Z</time>
<speed>0.5</speed>
</trkpt>
<trkpt lat="47.359619" lon="7.798815">
<ele>929.7</ele>
<time>2003-02-20T07:45:56Z</time>
<speed>0.6</speed>
</trkpt>
<trkpt lat="47.359629" lon="7.798855">
<ele>931.4</ele>
<time>2003-02-20T07:46:01Z</time>
<speed>0.5</speed>
</trkpt>
<trkpt lat="47.359640" lon="7.798883">
<ele>931.7</ele>
<time>2003-02-20T07:46:06Z</time>
<speed>1.2</speed>
</trkpt>
<trkpt lat="47.359680" lon="7.798941">
<ele>933.0</ele>
<time>2003-02-20T07:46:11Z</time>
<speed>0.8</speed>
</trkpt>
<trkpt lat="47.359703" lon="7.798983">
<ele>933.4</ele>
<time>2003-02-20T07:46:16Z</time>
<speed>1.0</speed>
</trkpt>
<trkpt lat="47.359730" lon="7.799040">
<ele>934.6</ele>
<time>2003-02-20T07:46:21Z</time>
<speed>0.9</speed>
</trkpt>
<trkpt lat="47.359760" lon="7.799084">
<ele>934.4</ele>
<time>2003-02-20T07:46:26Z</time>
<speed>0.3</speed>
</trkpt>
<trkpt lat="47.359771" lon="7.799099">
<ele>934.5</ele>
<time>2003-02-20T07:46:31Z</time>
<speed>0.2</speed>
</trkpt>
<trkpt lat="47.359776" lon="7.799112">
<ele>935.3</ele>
<time>2003-02-20T07:46:36Z</time>
<speed>0.6</speed>
</trkpt>
<trkpt lat="47.359799" lon="7.799138">
<ele>938.5</ele>
<time>2003-02-20T07:46:41Z</time>
<speed>0.8</speed>
</trkpt>
<trkpt lat="47.359821" lon="7.799180">
<ele>940.3</ele>
<time>2003-02-20T07:46:46Z</time>
<speed>0.8</speed>
</trkpt>
<trkpt lat="47.359850" lon="7.799208">
<ele>942.7</ele>
<time>2003-02-20T07:46:51Z</time>
<speed>0.8</speed>
</trkpt>
<trkpt lat="47.359880" lon="7.799239">
<ele>942.4</ele>
<time>2003-02-20T07:46:56Z</time>
<speed>0.1</speed>
</trkpt>
<trkpt lat="47.359886" lon="7.799239">
<ele>943.1</ele>
<time>2003-02-20T07:47:01Z</time>
<speed>0.3</speed>
</trkpt>
<trkpt lat="47.359898" lon="7.799254">
<ele>943.3</ele>
<time>2003-02-20T07:47:06Z</time>
<speed>0.6</speed>
</trkpt>
<trkpt lat="47.359922" lon="7.799269">
<ele>944.9</ele>
<time>2003-02-20T07:47:11Z</time>
<speed>1.0</speed>
</trkpt>
<trkpt lat="47.359944" lon="7.799325">
<ele>945.4</ele>
<time>2003-02-20T07:47:16Z</time>
<speed>0.8</speed>
</trkpt>
<trkpt lat="47.359966" lon="7.799366">
<ele>947.2</ele>
<time>2003-02-20T07:47:21Z</time>
<speed>0.5</speed>
</trkpt>
<trkpt lat="47.359976" lon="7.799392">
<ele>948.9</ele>
<time>2003-02-20T07:47:26Z</time>
<speed>1.2</speed>
</trkpt>
<trkpt lat="47.360018" lon="7.799437">
<ele>950.1</ele>
<time>2003-02-20T07:47:31Z</time>
<speed>0.9</speed>
</trkpt>
<trkpt lat="47.360053" lon="7.799467">
<ele>951.8</ele>
<time>2003-02-20T07:47:36Z</time>
<speed>0.9</speed>
</trkpt>
<trkpt lat="47.360075" lon="7.799521">
<ele>953.8</ele>
<time>2003-02-20T07:47:41Z</time>
<speed>0.9</speed>
</trkpt>
<trkpt lat="47.360084" lon="7.799577">
<ele>952.8</ele>
<time>2003-02-20T07:47:46Z</time>
<speed>0.8</speed>
</trkpt>
<trkpt lat="47.360107" lon="7.799622">
<ele>951.8</ele>
<time>2003-02-20T07:47:51Z</time>
<speed>0.6</speed>
</trkpt>
<trkpt lat="47.360111" lon="7.799663">
<ele>951.4</ele>
<time>2003-02-20T07:47:56Z</time>
<speed>1.0</speed>
</trkpt>
<trkpt lat="47.360148" lon="7.799698">
<ele>948.9</ele>
<time>2003-02-20T07:48:01Z</time>
<speed>0.2</speed>
</trkpt>
<trkpt lat="47.360149" lon="7.799685">
<ele>948.9</ele>
<time>2003-02-20T07:48:06Z</time>
<speed>0.0</speed>
</trkpt>
<trkpt lat="47.360149" lon="7.799685">
<ele>948.9</ele>
<time>2003-02-20T07:48:11Z</time>
<speed>0.0</speed>
</trkpt>
<trkpt lat="47.360149" lon="7.799685">
<ele>948.9</ele>
<time>2003-02-20T07:48:16Z</time>
<speed>0.0</speed>
</trkpt>
<trkpt lat="47.360149" lon="7.799685">
<ele>948.9</ele>
<time>2003-02-20T07:48:21Z</time>
<speed>0.0</speed>
</trkpt>
<trkpt lat="47.360149" lon="7.799685">
<ele>948.9</ele>
<time>2003-02-20T07:48:26Z</time>
<speed>0.0</speed>
</trkpt>
<trkpt lat="47.360149" lon="7.799685">
<ele>948.9</ele>
<time>2003-02-20T07:48:31Z</time>
<speed>0.0</speed>
</trkpt>
<trkpt lat="47.360149" lon="7.799685">
<ele>948.9</ele>
<time>2003-02-20T07:48:36Z</time>
<speed>0.0</speed>
</trkpt>
<trkpt lat="47.360149" lon="7.799685">
<ele>948.9</ele>
<time>2003-02-20T07:48:41Z</time>
<speed>0.0</speed>
</trkpt>
<trkpt lat="47.360149" lon="7.799685">
<ele>948.9</ele>
<time>2003-02-20T07:48:46Z</time>
<speed>0.3</speed>
</trkpt>
<trkpt lat="47.360162" lon="7.799687">
<ele>948.9</ele>
<time>2003-02-20T07:48:51Z</time>
<speed>0.0</speed>
</trkpt>
<trkpt lat="47.360162" lon="7.799687">
<ele>948.9</ele>
<time>2003-02-20T07:48:56Z</time>
<speed>0.0</speed>
</trkpt>
<trkpt lat="47.360162" lon="7.799687">
<ele>948.9</ele>
<time>2003-02-20T07:49:01Z</time>
<speed>0.0</speed>
</trkpt>
<trkpt lat="47.360162" lon="7.799687">
<ele>948.9</ele>
<time>2003-02-20T07:49:06Z</time>
<speed>0.0</speed>
</trkpt>
<trkpt lat="47.360162" lon="7.799687">
<ele>948.9</ele>
<time>2003-02-20T07:49:11Z</time>
<speed>0.0</speed>
</trkpt>
<trkpt lat="47.360162" lon="7.799687">
<ele>948.9</ele>
<time>2003-02-20T07:49:16Z</time>
<speed>0.0</speed>
</trkpt>
<trkpt lat="47.360162" lon="7.799687">
<ele>948.9</ele>
<time>2003-02-20T07:49:21Z</time>
<speed>0.3</speed>
</trkpt>
<trkpt lat="47.360174" lon="7.799687">
<ele>950.4</ele>
<time>2003-02-20T07:49:26Z</time>
<speed>0.0</speed>
</trkpt>
<trkpt lat="47.360174" lon="7.799687">
<ele>950.4</ele>
<time>2003-02-20T07:49:31Z</time>
<speed>0.0</speed>
</trkpt>
<trkpt lat="47.360174" lon="7.799687">
<ele>950.4</ele>
<time>2003-02-20T07:49:36Z</time>
<speed>0.0</speed>
</trkpt>
<trkpt lat="47.360174" lon="7.799687">
<ele>950.4</ele>
<time>2003-02-20T07:49:41Z</time>
<speed>0.0</speed>
</trkpt>
<trkpt lat="47.360174" lon="7.799687">
<ele>950.4</ele>
<time>2003-02-20T07:49:46Z</time>
<speed>0.0</speed>
</trkpt>
<trkpt lat="47.360174" lon="7.799687">
<ele>950.4</ele>
<time>2003-02-20T07:49:51Z</time>
<speed>0.0</speed>
</trkpt>
<trkpt lat="47.360174" lon="7.799687">
<ele>950.4</ele>
<time>2003-02-20T07:49:56Z</time>
<speed>0.3</speed>
</trkpt>
<trkpt lat="47.360168" lon="7.799672">
<ele>951.0</ele>
<time>2003-02-20T07:50:01Z</time>
<speed>0.2</speed>
</trkpt>
<trkpt lat="47.360173" lon="7.799685">
<ele>951.8</ele>
<time>2003-02-20T07:50:06Z</time>
<speed>0.0</speed>
</trkpt>
<trkpt lat="47.360173" lon="7.799685">
<ele>951.8</ele>
<time>2003-02-20T07:50:11Z</time>
<speed>0.0</speed>
</trkpt>
<trkpt lat="47.360173" lon="7.799685">
<ele>951.8</ele>
<time>2003-02-20T07:50:16Z</time>
<speed>0.4</speed>
</trkpt>
<trkpt lat="47.360165" lon="7.799710">
<ele>952.6</ele>
<time>2003-02-20T07:50:21Z</time>
<speed>0.7</speed>
</trkpt>
<trkpt lat="47.360189" lon="7.799740">
<ele>953.0</ele>
<time>2003-02-20T07:50:26Z</time>
<speed>1.0</speed>
</trkpt>
<trkpt lat="47.360223" lon="7.799782">
<ele>954.8</ele>
<time>2003-02-20T07:50:31Z</time>
<speed>0.8</speed>
</trkpt>
<trkpt lat="47.360246" lon="7.799825">
<ele>955.2</ele>
<time>2003-02-20T07:50:36Z</time>
<speed>1.1</speed>
</trkpt>
<trkpt lat="47.360287" lon="7.799870">
<ele>956.4</ele>
<time>2003-02-20T07:50:41Z</time>
<speed>0.8</speed>
</trkpt>
<trkpt lat="47.360310" lon="7.799913">
<ele>956.9</ele>
<time>2003-02-20T07:50:46Z</time>
<speed>0.8</speed>
</trkpt>
<trkpt lat="47.360319" lon="7.799967">
<ele>957.3</ele>
<time>2003-02-20T07:50:51Z</time>
<speed>0.0</speed>
</trkpt>
<trkpt lat="47.360319" lon="7.799967">
<ele>957.3</ele>
<time>2003-02-20T07:50:56Z</time>
<speed>0.7</speed>
</trkpt>
<trkpt lat="47.360335" lon="7.800008">
<ele>958.4</ele>
<time>2003-02-20T07:51:01Z</time>
<speed>0.4</speed>
</trkpt>
<trkpt lat="47.360339" lon="7.800035">
<ele>959.3</ele>
<time>2003-02-20T07:51:06Z</time>
<speed>0.4</speed>
</trkpt>
<trkpt lat="47.360331" lon="7.800059">
<ele>960.1</ele>
<time>2003-02-20T07:51:11Z</time>
<speed>0.3</speed>
</trkpt>
<trkpt lat="47.360337" lon="7.800074">
<ele>959.6</ele>
<time>2003-02-20T07:51:16Z</time>
<speed>0.3</speed>
</trkpt>
<trkpt lat="47.360348" lon="7.800089">
<ele>959.7</ele>
<time>2003-02-20T07:51:21Z</time>
<speed>0.6</speed>
</trkpt>
<trkpt lat="47.360373" lon="7.800091">
<ele>961.2</ele>
<time>2003-02-20T07:51:26Z</time>
<speed>0.2</speed>
</trkpt>
<trkpt lat="47.360378" lon="7.800104">
<ele>962.1</ele>
<time>2003-02-20T07:51:31Z</time>
<speed>0.7</speed>
</trkpt>
<trkpt lat="47.360401" lon="7.800132">
<ele>963.8</ele>
<time>2003-02-20T07:51:36Z</time>
<speed>0.4</speed>
</trkpt>
<trkpt lat="47.360405" lon="7.800156">
<ele>966.1</ele>
<time>2003-02-20T07:51:41Z</time>
<speed>0.5</speed>
</trkpt>
<trkpt lat="47.360423" lon="7.800171">
<ele>967.0</ele>
<time>2003-02-20T07:51:46Z</time>
<speed>0.7</speed>
</trkpt>
<trkpt lat="47.360447" lon="7.800201">
<ele>967.3</ele>
<time>2003-02-20T07:51:51Z</time>
<speed>1.0</speed>
</trkpt>
<trkpt lat="47.360491" lon="7.800193">
<ele>968.2</ele>
<time>2003-02-20T07:51:56Z</time>
<speed>0.4</speed>
</trkpt>
<trkpt lat="47.360496" lon="7.800219">
<ele>969.1</ele>
<time>2003-02-20T07:52:01Z</time>
<speed>0.5</speed>
</trkpt>
<trkpt lat="47.360514" lon="7.800236">
<ele>968.6</ele>
<time>2003-02-20T07:52:06Z</time>
<speed>0.5</speed>
</trkpt>
<trkpt lat="47.360532" lon="7.800251">
<ele>969.5</ele>
<time>2003-02-20T07:52:11Z</time>
<speed>0.4</speed>
</trkpt>
<trkpt lat="47.360536" lon="7.800277">
<ele>970.4</ele>
<time>2003-02-20T07:52:16Z</time>
<speed>0.3</speed>
</trkpt>
<trkpt lat="47.360522" lon="7.800287">
<ele>971.8</ele>
<time>2003-02-20T07:52:21Z</time>
<speed>0.7</speed>
</trkpt>
<trkpt lat="47.360495" lon="7.800308">
<ele>973.3</ele>
<time>2003-02-20T07:52:26Z</time>
<speed>0.4</speed>
</trkpt>
<trkpt lat="47.360498" lon="7.800332">
<ele>975.6</ele>
<time>2003-02-20T07:52:31Z</time>
<speed>1.4</speed>
</trkpt>
<trkpt lat="47.360546" lon="7.800394">
<ele>974.8</ele>
<time>2003-02-20T07:52:36Z</time>
<speed>1.9</speed>
</trkpt>
<trkpt lat="47.360604" lon="7.800483">
<ele>974.3</ele>
<time>2003-02-20T07:52:41Z</time>
<speed>1.2</speed>
</trkpt>
<trkpt lat="47.360631" lon="7.800552">
<ele>975.6</ele>
<time>2003-02-20T07:52:46Z</time>
<speed>1.0</speed>
</trkpt>
<trkpt lat="47.360666" lon="7.800597">
<ele>976.1</ele>
<time>2003-02-20T07:52:51Z</time>
<speed>0.8</speed>
</trkpt>
<trkpt lat="47.360689" lon="7.800640">
<ele>976.5</ele>
<time>2003-02-20T07:52:56Z</time>
<speed>1.3</speed>
</trkpt>
<trkpt lat="47.360737" lon="7.800688">
<ele>975.6</ele>
<time>2003-02-20T07:53:01Z</time>
<speed>0.7</speed>
</trkpt>
<trkpt lat="47.360768" lon="7.800705">
<ele>976.6</ele>
<time>2003-02-20T07:53:06Z</time>
<speed>0.4</speed>
</trkpt>
<trkpt lat="47.360787" lon="7.800707">
<ele>977.4</ele>
<time>2003-02-20T07:53:11Z</time>
<speed>0.5</speed>
</trkpt>
<trkpt lat="47.360803" lon="7.800733">
<ele>979.8</ele>
<time>2003-02-20T07:53:16Z</time>
<speed>0.0</speed>
</trkpt>
<trkpt lat="47.360803" lon="7.800733">
<ele>979.8</ele>
<time>2003-02-20T07:53:21Z</time>
<speed>0.0</speed>
</trkpt>
<trkpt lat="47.360803" lon="7.800733">
<ele>979.8</ele>
<time>2003-02-20T07:53:26Z</time>
<speed>0.3</speed>
</trkpt>
<trkpt lat="47.360810" lon="7.800720">
<ele>980.4</ele>
<time>2003-02-20T07:53:31Z</time>
<speed>0.4</speed>
</trkpt>
<trkpt lat="47.360828" lon="7.800720">
<ele>982.6</ele>
<time>2003-02-20T07:53:36Z</time>
<speed>0.2</speed>
</trkpt>
<trkpt lat="47.360827" lon="7.800733">
<ele>982.7</ele>
<time>2003-02-20T07:53:41Z</time>
<speed>0.2</speed>
</trkpt>
<trkpt lat="47.360833" lon="7.800746">
<ele>983.5</ele>
<time>2003-02-20T07:53:46Z</time>
<speed>0.7</speed>
</trkpt>
<trkpt lat="47.360856" lon="7.800776">
<ele>983.8</ele>
<time>2003-02-20T07:53:51Z</time>
<speed>0.6</speed>
</trkpt>
<trkpt lat="47.360882" lon="7.800765">
<ele>985.3</ele>
<time>2003-02-20T07:53:56Z</time>
<speed>0.4</speed>
</trkpt>
<trkpt lat="47.360901" lon="7.800766">
<ele>986.1</ele>
<time>2003-02-20T07:54:01Z</time>
<speed>0.6</speed>
</trkpt>
<trkpt lat="47.360916" lon="7.800731">
<ele>984.5</ele>
<time>2003-02-20T07:54:06Z</time>
<speed>1.0</speed>
</trkpt>
<trkpt lat="47.360961" lon="7.800738">
<ele>984.0</ele>
<time>2003-02-20T07:54:11Z</time>
<speed>0.7</speed>
</trkpt>
<trkpt lat="47.360993" lon="7.800726">
<ele>986.2</ele>
<time>2003-02-20T07:54:16Z</time>
<speed>0.7</speed>
</trkpt>
<trkpt lat="47.361024" lon="7.800728">
<ele>988.4</ele>
<time>2003-02-20T07:54:21Z</time>
<speed>0.5</speed>
</trkpt>
<trkpt lat="47.361042" lon="7.800745">
<ele>987.9</ele>
<time>2003-02-20T07:54:26Z</time>
<speed>0.4</speed>
</trkpt>
<trkpt lat="47.361061" lon="7.800749">
<ele>987.3</ele>
<time>2003-02-20T07:54:31Z</time>
<speed>0.6</speed>
</trkpt>
<trkpt lat="47.361085" lon="7.800763">
<ele>989.0</ele>
<time>2003-02-20T07:54:36Z</time>
<speed>0.9</speed>
</trkpt>
<trkpt lat="47.361113" lon="7.800805">
<ele>991.5</ele>
<time>2003-02-20T07:54:41Z</time>
<speed>0.5</speed>
</trkpt>
<trkpt lat="47.361131" lon="7.800819">
<ele>992.4</ele>
<time>2003-02-20T07:54:46Z</time>
<speed>0.4</speed>
</trkpt>
<trkpt lat="47.361129" lon="7.800846">
<ele>992.6</ele>
<time>2003-02-20T07:54:51Z</time>
<speed>0.4</speed>
</trkpt>
<trkpt lat="47.361133" lon="7.800870">
<ele>994.9</ele>
<time>2003-02-20T07:54:56Z</time>
<speed>0.5</speed>
</trkpt>
<trkpt lat="47.361130" lon="7.800906">
<ele>998.0</ele>
<time>2003-02-20T07:55:01Z</time>
<speed>0.5</speed>
</trkpt>
<trkpt lat="47.361114" lon="7.800927">
<ele>1000.9</ele>
<time>2003-02-20T07:55:06Z</time>
<speed>0.8</speed>
</trkpt>
<trkpt lat="47.361097" lon="7.800976">
<ele>1002.6</ele>
<time>2003-02-20T07:55:11Z</time>
<speed>0.2</speed>
</trkpt>
<trkpt lat="47.361097" lon="7.800990">
<ele>1001.3</ele>
<time>2003-02-20T07:55:16Z</time>
<speed>0.6</speed>
</trkpt>
<trkpt lat="47.361107" lon="7.801030">
<ele>1003.1</ele>
<time>2003-02-20T07:55:21Z</time>
<speed>0.3</speed>
</trkpt>
<trkpt lat="47.361118" lon="7.801045">
<ele>1003.2</ele>
<time>2003-02-20T07:55:26Z</time>
<speed>0.5</speed>
</trkpt>
<trkpt lat="47.361129" lon="7.801073">
<ele>1003.5</ele>
<time>2003-02-20T07:55:31Z</time>
<speed>0.6</speed>
</trkpt>
<trkpt lat="47.361146" lon="7.801101">
<ele>1004.5</ele>
<time>2003-02-20T07:55:36Z</time>
<speed>0.0</speed>
</trkpt>
<trkpt lat="47.361146" lon="7.801101">
<ele>1004.5</ele>
<time>2003-02-20T07:55:41Z</time>
<speed>0.0</speed>
</trkpt>
<trkpt lat="47.361146" lon="7.801101">
<ele>1004.5</ele>
<time>2003-02-20T07:55:46Z</time>
<speed>0.0</speed>
</trkpt>
<trkpt lat="47.361146" lon="7.801099">
<ele>1005.9</ele>
<time>2003-02-20T07:55:51Z</time>
<speed>0.6</speed>
</trkpt>
<trkpt lat="47.361155" lon="7.801138">
<ele>1007.6</ele>
<time>2003-02-20T07:55:56Z</time>
<speed>0.4</speed>
</trkpt>
<trkpt lat="47.361159" lon="7.801165">
<ele>1008.5</ele>
<time>2003-02-20T07:56:01Z</time>
<speed>0.6</speed>
</trkpt>
<trkpt lat="47.361144" lon="7.801202">
<ele>1008.7</ele>
<time>2003-02-20T07:56:06Z</time>
<speed>0.7</speed>
</trkpt>
<trkpt lat="47.361122" lon="7.801238">
<ele>1009.6</ele>
<time>2003-02-20T07:56:11Z</time>
<speed>0.8</speed>
</trkpt>
<trkpt lat="47.361105" lon="7.801287">
<ele>1011.3</ele>
<time>2003-02-20T07:56:16Z</time>
<speed>1.0</speed>
</trkpt>
<trkpt lat="47.361094" lon="7.801350">
<ele>1012.5</ele>
<time>2003-02-20T07:56:21Z</time>
<speed>0.8</speed>
</trkpt>
<trkpt lat="47.361066" lon="7.801386">
<ele>1012.6</ele>
<time>2003-02-20T07:56:26Z</time>
<speed>1.0</speed>
</trkpt>
<trkpt lat="47.361055" lon="7.801450">
<ele>1013.7</ele>
<time>2003-02-20T07:56:31Z</time>
<speed>1.1</speed>
</trkpt>
<trkpt lat="47.361070" lon="7.801517">
<ele>1015.0</ele>
<time>2003-02-20T07:56:36Z</time>
<speed>0.6</speed>
</trkpt>
<trkpt lat="47.361060" lon="7.801555">
<ele>1015.9</ele>
<time>2003-02-20T07:56:41Z</time>
<speed>0.8</speed>
</trkpt>
<trkpt lat="47.361051" lon="7.801607">
<ele>1015.6</ele>
<time>2003-02-20T07:56:46Z</time>
<speed>0.9</speed>
</trkpt>
<trkpt lat="47.361034" lon="7.801658">
<ele>1015.9</ele>
<time>2003-02-20T07:56:51Z</time>
<speed>0.7</speed>
</trkpt>
<trkpt lat="47.361013" lon="7.801696">
<ele>1015.4</ele>
<time>2003-02-20T07:56:56Z</time>
<speed>0.8</speed>
</trkpt>
<trkpt lat="47.361009" lon="7.801746">
<ele>1017.1</ele>
<time>2003-02-20T07:57:01Z</time>
<speed>0.5</speed>
</trkpt>
<trkpt lat="47.361027" lon="7.801761">
<ele>1018.0</ele>
<time>2003-02-20T07:57:06Z</time>
<speed>0.8</speed>
</trkpt>
<trkpt lat="47.361017" lon="7.801814">
<ele>1017.7</ele>
<time>2003-02-20T07:57:11Z</time>
<speed>0.6</speed>
</trkpt>
<trkpt lat="47.361014" lon="7.801853">
<ele>1017.9</ele>
<time>2003-02-20T07:57:16Z</time>
<speed>0.6</speed>
</trkpt>
<trkpt lat="47.361012" lon="7.801892">
<ele>1018.2</ele>
<time>2003-02-20T07:57:21Z</time>
<speed>0.6</speed>
</trkpt>
<trkpt lat="47.361021" lon="7.801932">
<ele>1020.0</ele>
<time>2003-02-20T07:57:26Z</time>
<speed>1.0</speed>
</trkpt>
<trkpt lat="47.361049" lon="7.801988">
<ele>1021.2</ele>
<time>2003-02-20T07:57:31Z</time>
<speed>0.5</speed>
</trkpt>
<trkpt lat="47.361067" lon="7.802003">
<ele>1022.1</ele>
<time>2003-02-20T07:57:36Z</time>
<speed>1.0</speed>
</trkpt>
<trkpt lat="47.361068" lon="7.802068">
<ele>1023.3</ele>
<time>2003-02-20T07:57:41Z</time>
<speed>1.4</speed>
</trkpt>
<trkpt lat="47.361069" lon="7.802162">
<ele>1023.2</ele>
<time>2003-02-20T07:57:46Z</time>
<speed>1.0</speed>
</trkpt>
<trkpt lat="47.361077" lon="7.802229">
<ele>1023.8</ele>
<time>2003-02-20T07:57:51Z</time>
<speed>1.1</speed>
</trkpt>
<trkpt lat="47.361054" lon="7.802293">
<ele>1023.4</ele>
<time>2003-02-20T07:57:56Z</time>
<speed>1.1</speed>
</trkpt>
<trkpt lat="47.361024" lon="7.802355">
<ele>1023.8</ele>
<time>2003-02-20T07:58:01Z</time>
<speed>0.8</speed>
</trkpt>
<trkpt lat="47.360996" lon="7.802391">
<ele>1023.9</ele>
<time>2003-02-20T07:58:06Z</time>
<speed>0.8</speed>
</trkpt>
<trkpt lat="47.360993" lon="7.802445">
<ele>1022.9</ele>
<time>2003-02-20T07:58:11Z</time>
<speed>0.0</speed>
</trkpt>
<trkpt lat="47.360993" lon="7.802445">
<ele>1022.9</ele>
<time>2003-02-20T07:58:16Z</time>
<speed>0.0</speed>
</trkpt>
<trkpt lat="47.360993" lon="7.802445">
<ele>1022.9</ele>
<time>2003-02-20T07:58:21Z</time>
<speed>0.0</speed>
</trkpt>
<trkpt lat="47.360993" lon="7.802445">
<ele>1022.9</ele>
<time>2003-02-20T07:58:26Z</time>
<speed>0.2</speed>
</trkpt>
<trkpt lat="47.360992" lon="7.802458">
<ele>1023.0</ele>
<time>2003-02-20T07:58:31Z</time>
<speed>1.3</speed>
</trkpt>
<trkpt lat="47.361050" lon="7.802470">
<ele>1019.7</ele>
<time>2003-02-20T07:58:36Z</time>
<speed>0.1</speed>
</trkpt>
<trkpt lat="47.361044" lon="7.802472">
<ele>1017.6</ele>
<time>2003-02-20T07:58:41Z</time>
<speed>1.2</speed>
</trkpt>
<trkpt lat="47.361097" lon="7.802472">
<ele>1013.5</ele>
<time>2003-02-20T07:58:46Z</time>
<speed>2.5</speed>
</trkpt>
<trkpt lat="47.361208" lon="7.802482">
<ele>1007.7</ele>
<time>2003-02-20T07:58:51Z</time>
<speed>1.4</speed>
</trkpt>
<trkpt lat="47.361262" lon="7.802438">
<ele>1006.2</ele>
<time>2003-02-20T07:58:56Z</time>
<speed>1.1</speed>
</trkpt>
<trkpt lat="47.361292" lon="7.802377">
<ele>1005.8</ele>
<time>2003-02-20T07:59:01Z</time>
<speed>1.4</speed>
</trkpt>
<trkpt lat="47.361329" lon="7.802301">
<ele>1006.1</ele>
<time>2003-02-20T07:59:06Z</time>
<speed>1.2</speed>
</trkpt>
<trkpt lat="47.361340" lon="7.802223">
<ele>1006.3</ele>
<time>2003-02-20T07:59:11Z</time>
<speed>1.2</speed>
</trkpt>
<trkpt lat="47.361352" lon="7.802144">
<ele>1006.5</ele>
<time>2003-02-20T07:59:16Z</time>
<speed>0.8</speed>
</trkpt>
<trkpt lat="47.361380" lon="7.802110">
<ele>1004.9</ele>
<time>2003-02-20T07:59:21Z</time>
<speed>1.2</speed>
</trkpt>
<trkpt lat="47.361417" lon="7.802050">
<ele>1003.9</ele>
<time>2003-02-20T07:59:26Z</time>
<speed>1.4</speed>
</trkpt>
<trkpt lat="47.361429" lon="7.801958">
<ele>1004.0</ele>
<time>2003-02-20T07:59:31Z</time>
<speed>1.2</speed>
</trkpt>
<trkpt lat="47.361453" lon="7.801866">
<ele>1005.6</ele>
<time>2003-02-20T07:59:37Z</time>
<speed>1.2</speed>
</trkpt>
<trkpt lat="47.361489" lon="7.801804">
<ele>1006.0</ele>
<time>2003-02-20T07:59:42Z</time>
<speed>1.0</speed>
</trkpt>
<trkpt lat="47.361500" lon="7.801739">
<ele>1006.3</ele>
<time>2003-02-20T07:59:47Z</time>
<speed>0.8</speed>
</trkpt>
<trkpt lat="47.361510" lon="7.801686">
<ele>1006.6</ele>
<time>2003-02-20T07:59:52Z</time>
<speed>1.0</speed>
</trkpt>
<trkpt lat="47.361520" lon="7.801621">
<ele>1006.9</ele>
<time>2003-02-20T07:59:57Z</time>
<speed>0.8</speed>
</trkpt>
<trkpt lat="47.361536" lon="7.801570">
<ele>1006.6</ele>
<time>2003-02-20T08:00:02Z</time>
<speed>1.0</speed>
</trkpt>
<trkpt lat="47.361565" lon="7.801521">
<ele>1006.4</ele>
<time>2003-02-20T08:00:07Z</time>
<speed>1.0</speed>
</trkpt>
<trkpt lat="47.361582" lon="7.801458">
<ele>1006.0</ele>
<time>2003-02-20T08:00:12Z</time>
<speed>0.8</speed>
</trkpt>
<trkpt lat="47.361604" lon="7.801420">
<ele>1006.5</ele>
<time>2003-02-20T08:00:17Z</time>
<speed>1.1</speed>
</trkpt>
<trkpt lat="47.361627" lon="7.801356">
<ele>1006.9</ele>
<time>2003-02-20T08:00:22Z</time>
<speed>0.9</speed>
</trkpt>
<trkpt lat="47.361643" lon="7.801304">
<ele>1008.0</ele>
<time>2003-02-20T08:00:27Z</time>
<speed>0.9</speed>
</trkpt>
<trkpt lat="47.361677" lon="7.801270">
<ele>1007.1</ele>
<time>2003-02-20T08:00:32Z</time>
<speed>0.9</speed>
</trkpt>
<trkpt lat="47.361712" lon="7.801234">
<ele>1007.7</ele>
<time>2003-02-20T08:00:37Z</time>
<speed>1.1</speed>
</trkpt>
<trkpt lat="47.361735" lon="7.801170">
<ele>1008.1</ele>
<time>2003-02-20T08:00:42Z</time>
<speed>1.0</speed>
</trkpt>
<trkpt lat="47.361752" lon="7.801107">
<ele>1007.7</ele>
<time>2003-02-20T08:00:47Z</time>
<speed>1.0</speed>
</trkpt>
<trkpt lat="47.361788" lon="7.801045">
<ele>1008.1</ele>
<time>2003-02-20T08:00:53Z</time>
<speed>0.9</speed>
</trkpt>
<trkpt lat="47.361810" lon="7.800994">
<ele>1008.5</ele>
<time>2003-02-20T08:00:58Z</time>
<speed>1.0</speed>
</trkpt>
<trkpt lat="47.361814" lon="7.800927">
<ele>1009.5</ele>
<time>2003-02-20T08:01:03Z</time>
<speed>1.2</speed>
</trkpt>
<trkpt lat="47.361850" lon="7.800865">
<ele>1009.9</ele>
<time>2003-02-20T08:01:08Z</time>
<speed>0.7</speed>
</trkpt>
<trkpt lat="47.361877" lon="7.800842">
<ele>1009.8</ele>
<time>2003-02-20T08:01:13Z</time>
<speed>0.7</speed>
</trkpt>
<trkpt lat="47.361904" lon="7.800819">
<ele>1009.8</ele>
<time>2003-02-20T08:01:18Z</time>
<speed>0.7</speed>
</trkpt>
<trkpt lat="47.361937" lon="7.800812">
<ele>1009.1</ele>
<time>2003-02-20T08:01:23Z</time>
<speed>1.3</speed>
</trkpt>
<trkpt lat="47.361994" lon="7.800821">
<ele>1008.7</ele>
<time>2003-02-20T08:01:28Z</time>
<speed>1.3</speed>
</trkpt>
<trkpt lat="47.362050" lon="7.800843">
<ele>1008.4</ele>
<time>2003-02-20T08:01:33Z</time>
<speed>1.5</speed>
</trkpt>
<trkpt lat="47.362112" lon="7.800878">
<ele>1008.9</ele>
<time>2003-02-20T08:01:38Z</time>
<speed>1.3</speed>
</trkpt>
<trkpt lat="47.362168" lon="7.800900">
<ele>1008.6</ele>
<time>2003-02-20T08:01:43Z</time>
<speed>1.0</speed>
</trkpt>
<trkpt lat="47.362212" lon="7.800907">
<ele>1008.1</ele>
<time>2003-02-20T08:01:48Z</time>
<speed>0.9</speed>
</trkpt>
<trkpt lat="47.362250" lon="7.800926">
<ele>1008.4</ele>
<time>2003-02-20T08:01:53Z</time>
<speed>1.3</speed>
</trkpt>
<trkpt lat="47.362306" lon="7.800948">
<ele>1008.1</ele>
<time>2003-02-20T08:01:58Z</time>
<speed>1.4</speed>
</trkpt>
<trkpt lat="47.362360" lon="7.800996">
<ele>1007.9</ele>
<time>2003-02-20T08:02:03Z</time>
<speed>0.5</speed>
</trkpt>
<trkpt lat="47.362379" lon="7.801013">
<ele>1007.4</ele>
<time>2003-02-20T08:02:08Z</time>
<speed>1.0</speed>
</trkpt>
<trkpt lat="47.362414" lon="7.801058">
<ele>1007.9</ele>
<time>2003-02-20T08:02:13Z</time>
<speed>0.8</speed>
</trkpt>
<trkpt lat="47.362444" lon="7.801089">
<ele>1007.5</ele>
<time>2003-02-20T08:02:18Z</time>
<speed>1.2</speed>
</trkpt>
<trkpt lat="47.362486" lon="7.801136">
<ele>1007.3</ele>
<time>2003-02-20T08:02:23Z</time>
<speed>1.2</speed>
</trkpt>
<trkpt lat="47.362526" lon="7.801193">
<ele>1008.6</ele>
<time>2003-02-20T08:02:28Z</time>
<speed>1.1</speed>
</trkpt>
<trkpt lat="47.362569" lon="7.801227">
<ele>1008.3</ele>
<time>2003-02-20T08:02:33Z</time>
<speed>1.1</speed>
</trkpt>
<trkpt lat="47.362611" lon="7.801260">
<ele>1008.0</ele>
<time>2003-02-20T08:02:38Z</time>
<speed>1.2</speed>
</trkpt>
<trkpt lat="47.362653" lon="7.801307">
<ele>1007.8</ele>
<time>2003-02-20T08:02:43Z</time>
<speed>1.2</speed>
</trkpt>
<trkpt lat="47.362688" lon="7.801366">
<ele>1007.0</ele>
<time>2003-02-20T08:02:48Z</time>
<speed>1.0</speed>
</trkpt>
<trkpt lat="47.362725" lon="7.801400">
<ele>1006.0</ele>
<time>2003-02-20T08:02:53Z</time>
<speed>1.0</speed>
</trkpt>
<trkpt lat="47.362760" lon="7.801446">
<ele>1005.0</ele>
<time>2003-02-20T08:02:58Z</time>
<speed>1.2</speed>
</trkpt>
<trkpt lat="47.362802" lon="7.801493">
<ele>1004.8</ele>
<time>2003-02-20T08:03:03Z</time>
<speed>1.2</speed>
</trkpt>
<trkpt lat="47.362844" lon="7.801539">
<ele>1004.6</ele>
<time>2003-02-20T08:03:08Z</time>
<speed>1.3</speed>
</trkpt>
<trkpt lat="47.362885" lon="7.801599">
<ele>1004.5</ele>
<time>2003-02-20T08:03:13Z</time>
<speed>1.2</speed>
</trkpt>
<trkpt lat="47.362927" lon="7.801646">
<ele>1004.3</ele>
<time>2003-02-20T08:03:18Z</time>
<speed>1.1</speed>
</trkpt>
<trkpt lat="47.362968" lon="7.801692">
<ele>1004.1</ele>
<time>2003-02-20T08:03:23Z</time>
<speed>1.2</speed>
</trkpt>
<trkpt lat="47.363003" lon="7.801750">
<ele>1004.7</ele>
<time>2003-02-20T08:03:28Z</time>
<speed>0.6</speed>
</trkpt>
<trkpt lat="47.363020" lon="7.801780">
<ele>1004.2</ele>
<time>2003-02-20T08:03:33Z</time>
<speed>1.6</speed>
</trkpt>
<trkpt lat="47.363059" lon="7.801866">
<ele>1004.3</ele>
<time>2003-02-20T08:03:38Z</time>
<speed>1.2</speed>
</trkpt>
<trkpt lat="47.363094" lon="7.801925">
<ele>1003.5</ele>
<time>2003-02-20T08:03:43Z</time>
<speed>1.3</speed>
</trkpt>
<trkpt lat="47.363135" lon="7.801985">
<ele>1003.4</ele>
<time>2003-02-20T08:03:48Z</time>
<speed>1.0</speed>
</trkpt>
<trkpt lat="47.363170" lon="7.802030">
<ele>1003.8</ele>
<time>2003-02-20T08:03:53Z</time>
<speed>1.4</speed>
</trkpt>
<trkpt lat="47.363210" lon="7.802102">
<ele>1003.8</ele>
<time>2003-02-20T08:03:58Z</time>
<speed>1.4</speed>
</trkpt>
<trkpt lat="47.363250" lon="7.802173">
<ele>1005.2</ele>
<time>2003-02-20T08:04:03Z</time>
<speed>0.3</speed>
</trkpt>
<trkpt lat="47.363255" lon="7.802188">
<ele>1004.6</ele>
<time>2003-02-20T08:04:08Z</time>
<speed>0.6</speed>
</trkpt>
<trkpt lat="47.363272" lon="7.802216">
<ele>1005.6</ele>
<time>2003-02-20T08:04:13Z</time>
<speed>1.7</speed>
</trkpt>
<trkpt lat="47.363318" lon="7.802304">
<ele>1005.0</ele>
<time>2003-02-20T08:04:18Z</time>
<speed>1.6</speed>
</trkpt>
<trkpt lat="47.363371" lon="7.802379">
<ele>1005.1</ele>
<time>2003-02-20T08:04:23Z</time>
<speed>1.5</speed>
</trkpt>
<trkpt lat="47.363417" lon="7.802451">
<ele>1005.8</ele>
<time>2003-02-20T08:04:28Z</time>
<speed>1.4</speed>
</trkpt>
<trkpt lat="47.363464" lon="7.802511">
<ele>1006.4</ele>
<time>2003-02-20T08:04:33Z</time>
<speed>1.1</speed>
</trkpt>
<trkpt lat="47.363492" lon="7.802569">
<ele>1006.2</ele>
<time>2003-02-20T08:04:38Z</time>
<speed>1.2</speed>
</trkpt>
<trkpt lat="47.363526" lon="7.802627">
<ele>1006.8</ele>
<time>2003-02-20T08:04:43Z</time>
<speed>1.3</speed>
</trkpt>
<trkpt lat="47.363567" lon="7.802685">
<ele>1008.1</ele>
<time>2003-02-20T08:04:48Z</time>
<speed>0.3</speed>
</trkpt>
<trkpt lat="47.363579" lon="7.802699">
<ele>1008.2</ele>
<time>2003-02-20T08:04:53Z</time>
<speed>1.0</speed>
</trkpt>
<trkpt lat="47.363614" lon="7.802744">
<ele>1008.7</ele>
<time>2003-02-20T08:04:58Z</time>
<speed>1.1</speed>
</trkpt>
<trkpt lat="47.363642" lon="7.802802">
<ele>1008.5</ele>
<time>2003-02-20T08:05:03Z</time>
<speed>1.1</speed>
</trkpt>
<trkpt lat="47.363683" lon="7.802847">
<ele>1009.7</ele>
<time>2003-02-20T08:05:08Z</time>
<speed>1.2</speed>
</trkpt>
<trkpt lat="47.363718" lon="7.802905">
<ele>1010.3</ele>
<time>2003-02-20T08:05:13Z</time>
<speed>1.0</speed>
</trkpt>
<trkpt lat="47.363753" lon="7.802949">
<ele>1010.8</ele>
<time>2003-02-20T08:05:18Z</time>
<speed>1.1</speed>
</trkpt>
<trkpt lat="47.363796" lon="7.802983">
<ele>1010.5</ele>
<time>2003-02-20T08:05:23Z</time>
<speed>1.1</speed>
</trkpt>
<trkpt lat="47.363837" lon="7.803027">
<ele>1011.7</ele>
<time>2003-02-20T08:05:28Z</time>
<speed>1.1</speed>
</trkpt>
<trkpt lat="47.363865" lon="7.803085">
<ele>1011.5</ele>
<time>2003-02-20T08:05:33Z</time>
<speed>1.0</speed>
</trkpt>
<trkpt lat="47.363895" lon="7.803132">
<ele>1009.8</ele>
<time>2003-02-20T08:05:38Z</time>
<speed>0.9</speed>
</trkpt>
<trkpt lat="47.363924" lon="7.803177">
<ele>1009.6</ele>
<time>2003-02-20T08:05:43Z</time>
<speed>1.3</speed>
</trkpt>
<trkpt lat="47.363958" lon="7.803248">
<ele>1010.2</ele>
<time>2003-02-20T08:05:48Z</time>
<speed>1.3</speed>
</trkpt>
<trkpt lat="47.363998" lon="7.803307">
<ele>1010.1</ele>
<time>2003-02-20T08:05:53Z</time>
<speed>1.0</speed>
</trkpt>
<trkpt lat="47.364034" lon="7.803352">
<ele>1010.6</ele>
<time>2003-02-20T08:05:58Z</time>
<speed>1.2</speed>
</trkpt>
<trkpt lat="47.364061" lon="7.803421">
<ele>1011.9</ele>
<time>2003-02-20T08:06:03Z</time>
<speed>1.3</speed>
</trkpt>
<trkpt lat="47.364101" lon="7.803481">
<ele>1011.8</ele>
<time>2003-02-20T08:06:08Z</time>
<speed>1.0</speed>
</trkpt>
<trkpt lat="47.364137" lon="7.803525">
<ele>1012.3</ele>
<time>2003-02-20T08:06:13Z</time>
<speed>1.2</speed>
</trkpt>
<trkpt lat="47.364171" lon="7.803583">
<ele>1012.8</ele>
<time>2003-02-20T08:06:18Z</time>
<speed>1.1</speed>
</trkpt>
<trkpt lat="47.364207" lon="7.803630">
<ele>1011.9</ele>
<time>2003-02-20T08:06:23Z</time>
<speed>0.8</speed>
</trkpt>
<trkpt lat="47.364237" lon="7.803661">
<ele>1011.5</ele>
<time>2003-02-20T08:06:28Z</time>
<speed>0.3</speed>
</trkpt>
<trkpt lat="47.364249" lon="7.803676">
<ele>1011.7</ele>
<time>2003-02-20T08:06:33Z</time>
<speed>0.0</speed>
</trkpt>
<trkpt lat="47.364249" lon="7.803676">
<ele>1011.7</ele>
<time>2003-02-20T08:06:39Z</time>
<speed>0.8</speed>
</trkpt>
<trkpt lat="47.364279" lon="7.803708">
<ele>1011.3</ele>
<time>2003-02-20T08:06:44Z</time>
<speed>1.0</speed>
</trkpt>
<trkpt lat="47.364314" lon="7.803753">
<ele>1011.8</ele>
<time>2003-02-20T08:06:49Z</time>
<speed>0.9</speed>
</trkpt>
<trkpt lat="47.364343" lon="7.803797">
<ele>1011.5</ele>
<time>2003-02-20T08:06:54Z</time>
<speed>0.7</speed>
</trkpt>
<trkpt lat="47.364366" lon="7.803827">
<ele>1011.9</ele>
<time>2003-02-20T08:06:59Z</time>
<speed>0.0</speed>
</trkpt>
<trkpt lat="47.364366" lon="7.803827">
<ele>1011.9</ele>
<time>2003-02-20T08:07:04Z</time>
<speed>0.0</speed>
</trkpt>
<trkpt lat="47.364366" lon="7.803827">
<ele>1011.9</ele>
<time>2003-02-20T08:07:09Z</time>
<speed>0.7</speed>
</trkpt>
<trkpt lat="47.364399" lon="7.803818">
<ele>1012.6</ele>
<time>2003-02-20T08:07:14Z</time>
<speed>0.8</speed>
</trkpt>
<trkpt lat="47.364432" lon="7.803797">
<ele>1011.9</ele>
<time>2003-02-20T08:07:19Z</time>
<speed>1.0</speed>
</trkpt>
<trkpt lat="47.364473" lon="7.803763">
<ele>1011.8</ele>
<time>2003-02-20T08:07:24Z</time>
<speed>0.8</speed>
</trkpt>
<trkpt lat="47.364511" lon="7.803768">
<ele>1012.0</ele>
<time>2003-02-20T08:07:29Z</time>
<speed>0.2</speed>
</trkpt>
<trkpt lat="47.364512" lon="7.803755">
<ele>1011.9</ele>
<time>2003-02-20T08:07:34Z</time>
<speed>0.0</speed>
</trkpt>
<trkpt lat="47.364512" lon="7.803755">
<ele>1011.9</ele>
<time>2003-02-20T08:07:39Z</time>
<speed>0.0</speed>
</trkpt>
<trkpt lat="47.364512" lon="7.803755">
<ele>1011.9</ele>
<time>2003-02-20T08:07:44Z</time>
<speed>0.0</speed>
</trkpt>
<trkpt lat="47.364512" lon="7.803755">
<ele>1011.9</ele>
<time>2003-02-20T08:07:49Z</time>
<speed>0.3</speed>
</trkpt>
<trkpt lat="47.364519" lon="7.803742">
<ele>1012.6</ele>
<time>2003-02-20T08:07:54Z</time>
<speed>0.0</speed>
</trkpt>
<trkpt lat="47.364519" lon="7.803742">
<ele>1012.6</ele>
<time>2003-02-20T08:07:59Z</time>
<speed>0.0</speed>
</trkpt>
<trkpt lat="47.364519" lon="7.803742">
<ele>1012.6</ele>
<time>2003-02-20T08:08:04Z</time>
<speed>0.0</speed>
</trkpt>
<trkpt lat="47.364519" lon="7.803742">
<ele>1012.6</ele>
<time>2003-02-20T08:08:09Z</time>
<speed>0.0</speed>
</trkpt>
<trkpt lat="47.364519" lon="7.803742">
<ele>1012.6</ele>
<time>2003-02-20T08:08:14Z</time>
<speed>0.0</speed>
</trkpt>
<trkpt lat="47.364519" lon="7.803742">
<ele>1012.6</ele>
<time>2003-02-20T08:08:19Z</time>
<speed>0.1</speed>
</trkpt>
<trkpt lat="47.364513" lon="7.803742">
<ele>1011.8</ele>
<time>2003-02-20T08:08:24Z</time>
<speed>0.3</speed>
</trkpt>
<trkpt lat="47.364507" lon="7.803727">
<ele>1012.4</ele>
<time>2003-02-20T08:08:29Z</time>
<speed>0.0</speed>
</trkpt>
<trkpt lat="47.364507" lon="7.803727">
<ele>1012.4</ele>
<time>2003-02-20T08:08:34Z</time>
<speed>0.0</speed>
</trkpt>
<trkpt lat="47.364507" lon="7.803727">
<ele>1012.4</ele>
<time>2003-02-20T08:08:39Z</time>
<speed>0.0</speed>
</trkpt>
<trkpt lat="47.364507" lon="7.803727">
<ele>1012.4</ele>
<time>2003-02-20T08:08:44Z</time>
<speed>0.0</speed>
</trkpt>
<trkpt lat="47.364507" lon="7.803727">
<ele>1012.4</ele>
<time>2003-02-20T08:08:49Z</time>
<speed>0.0</speed>
</trkpt>
<trkpt lat="47.364507" lon="7.803727">
<ele>1012.4</ele>
<time>2003-02-20T08:08:54Z</time>
<speed>0.0</speed>
</trkpt>
<trkpt lat="47.364507" lon="7.803727">
<ele>1012.4</ele>
<time>2003-02-20T08:08:59Z</time>
<speed>0.0</speed>
</trkpt>
<trkpt lat="47.364507" lon="7.803727">
<ele>1012.4</ele>
<time>2003-02-20T08:09:04Z</time>
<speed>0.0</speed>
</trkpt>
<trkpt lat="47.364507" lon="7.803727">
<ele>1012.4</ele>
<time>2003-02-20T08:09:09Z</time>
<speed>0.0</speed>
</trkpt>
<trkpt lat="47.364507" lon="7.803727">
<ele>1012.4</ele>
<time>2003-02-20T08:09:14Z</time>
<speed>0.0</speed>
</trkpt>
<trkpt lat="47.364507" lon="7.803727">
<ele>1012.4</ele>
<time>2003-02-20T08:09:19Z</time>
<speed>0.0</speed>
</trkpt>
<trkpt lat="47.364507" lon="7.803727">
<ele>1012.4</ele>
<time>2003-02-20T08:09:24Z</time>
<speed>0.2</speed>
</trkpt>
<trkpt lat="47.364508" lon="7.803714">
<ele>1012.3</ele>
<time>2003-02-20T08:09:29Z</time>
<speed>0.0</speed>
</trkpt>
<trkpt lat="47.364508" lon="7.803714">
<ele>1012.3</ele>
<time>2003-02-20T08:09:34Z</time>
<speed>0.0</speed>
</trkpt>
<trkpt lat="47.364508" lon="7.803714">
<ele>1012.3</ele>
<time>2003-02-20T08:09:39Z</time>
<speed>0.0</speed>
</trkpt>
<trkpt lat="47.364508" lon="7.803714">
<ele>1012.3</ele>
<time>2003-02-20T08:09:44Z</time>
<speed>0.0</speed>
</trkpt>
<trkpt lat="47.364508" lon="7.803714">
<ele>1012.3</ele>
<time>2003-02-20T08:09:49Z</time>
<speed>0.0</speed>
</trkpt>
<trkpt lat="47.364508" lon="7.803714">
<ele>1012.3</ele>
<time>2003-02-20T08:09:54Z</time>
<speed>0.0</speed>
</trkpt>
<trkpt lat="47.364508" lon="7.803714">
<ele>1012.3</ele>
<time>2003-02-20T08:09:59Z</time>
<speed>0.0</speed>
</trkpt>
<trkpt lat="47.364508" lon="7.803714">
<ele>1012.3</ele>
<time>2003-02-20T08:10:04Z</time>
<speed>0.0</speed>
</trkpt>
<trkpt lat="47.364508" lon="7.803714">
<ele>1012.3</ele>
<time>2003-02-20T08:10:09Z</time>
<speed>0.0</speed>
</trkpt>
<trkpt lat="47.364508" lon="7.803714">
<ele>1012.3</ele>
<time>2003-02-20T08:10:14Z</time>
<speed>0.0</speed>
</trkpt>
<trkpt lat="47.364508" lon="7.803714">
<ele>1012.3</ele>
<time>2003-02-20T08:10:19Z</time>
<speed>0.2</speed>
</trkpt>
<trkpt lat="47.364507" lon="7.803727">
<ele>1012.4</ele>
<time>2003-02-20T08:10:24Z</time>
<speed>0.2</speed>
</trkpt>
<trkpt lat="47.364512" lon="7.803740">
<ele>1013.2</ele>
<time>2003-02-20T08:10:29Z</time>
<speed>0.0</speed>
</trkpt>
<trkpt lat="47.364512" lon="7.803740">
<ele>1013.2</ele>
<time>2003-02-20T08:10:34Z</time>
<speed>0.0</speed>
</trkpt>
<trkpt lat="47.364512" lon="7.803740">
<ele>1013.2</ele>
<time>2003-02-20T08:10:39Z</time>
<speed>0.0</speed>
</trkpt>
<trkpt lat="47.364512" lon="7.803740">
<ele>1013.2</ele>
<time>2003-02-20T08:10:44Z</time>
<speed>0.0</speed>
</trkpt>
<trkpt lat="47.364512" lon="7.803740">
<ele>1013.2</ele>
<time>2003-02-20T08:10:49Z</time>
<speed>0.0</speed>
</trkpt>
<trkpt lat="47.364512" lon="7.803740">
<ele>1013.2</ele>
<time>2003-02-20T08:10:54Z</time>
<speed>0.0</speed>
</trkpt>
<trkpt lat="47.364512" lon="7.803740">
<ele>1013.2</ele>
<time>2003-02-20T08:10:59Z</time>
<speed>0.2</speed>
</trkpt>
<trkpt lat="47.364513" lon="7.803727">
<ele>1013.1</ele>
<time>2003-02-20T08:11:04Z</time>
<speed>0.4</speed>
</trkpt>
<trkpt lat="47.364508" lon="7.803699">
<ele>1013.6</ele>
<time>2003-02-20T08:11:09Z</time>
<speed>0.0</speed>
</trkpt>
<trkpt lat="47.364508" lon="7.803699">
<ele>1013.6</ele>
<time>2003-02-20T08:11:14Z</time>
<speed>0.0</speed>
</trkpt>
<trkpt lat="47.364508" lon="7.803699">
<ele>1013.6</ele>
<time>2003-02-20T08:11:19Z</time>
<speed>0.0</speed>
</trkpt>
<trkpt lat="47.364508" lon="7.803699">
<ele>1013.6</ele>
<time>2003-02-20T08:11:24Z</time>
<speed>0.0</speed>
</trkpt>
<trkpt lat="47.364508" lon="7.803699">
<ele>1013.6</ele>
<time>2003-02-20T08:11:29Z</time>
<speed>0.0</speed>
</trkpt>
<trkpt lat="47.364508" lon="7.803699">
<ele>1013.6</ele>
<time>2003-02-20T08:11:34Z</time>
<speed>0.0</speed>
</trkpt>
<trkpt lat="47.364508" lon="7.803699">
<ele>1013.6</ele>
<time>2003-02-20T08:11:39Z</time>
<speed>0.0</speed>
</trkpt>
<trkpt lat="47.364508" lon="7.803699">
<ele>1013.6</ele>
<time>2003-02-20T08:11:44Z</time>
<speed>0.0</speed>
</trkpt>
<trkpt lat="47.364508" lon="7.803699">
<ele>1013.6</ele>
<time>2003-02-20T08:11:49Z</time>
<speed>0.0</speed>
</trkpt>
<trkpt lat="47.364508" lon="7.803699">
<ele>1013.6</ele>
<time>2003-02-20T08:11:54Z</time>
<speed>0.0</speed>
</trkpt>
<trkpt lat="47.364508" lon="7.803699">
<ele>1013.6</ele>
<time>2003-02-20T08:11:59Z</time>
<speed>0.0</speed>
</trkpt>
<trkpt lat="47.364508" lon="7.803699">
<ele>1013.6</ele>
<time>2003-02-20T08:12:04Z</time>
<speed>0.0</speed>
</trkpt>
<trkpt lat="47.364508" lon="7.803699">
<ele>1013.6</ele>
<time>2003-02-20T08:12:09Z</time>
<speed>0.0</speed>
</trkpt>
<trkpt lat="47.364508" lon="7.803699">
<ele>1013.6</ele>
<time>2003-02-20T08:12:14Z</time>
<speed>0.0</speed>
</trkpt>
<trkpt lat="47.364508" lon="7.803699">
<ele>1013.6</ele>
<time>2003-02-20T08:12:19Z</time>
<speed>0.0</speed>
</trkpt>
<trkpt lat="47.364508" lon="7.803699">
<ele>1013.6</ele>
<time>2003-02-20T08:12:24Z</time>
<speed>0.0</speed>
</trkpt>
<trkpt lat="47.364508" lon="7.803699">
<ele>1013.6</ele>
<time>2003-02-20T08:12:29Z</time>
<speed>0.0</speed>
</trkpt>
<trkpt lat="47.364508" lon="7.803699">
<ele>1013.6</ele>
<time>2003-02-20T08:12:34Z</time>
<speed>0.0</speed>
</trkpt>
<trkpt lat="47.364508" lon="7.803699">
<ele>1013.6</ele>
<time>2003-02-20T08:12:39Z</time>
<speed>0.0</speed>
</trkpt>
<trkpt lat="47.364508" lon="7.803699">
<ele>1013.6</ele>
<time>2003-02-20T08:12:44Z</time>
<speed>0.2</speed>
</trkpt>
<trkpt lat="47.364515" lon="7.803699">
<ele>1014.4</ele>
<time>2003-02-20T08:12:49Z</time>
<speed>0.0</speed>
</trkpt>
<trkpt lat="47.364515" lon="7.803699">
<ele>1014.4</ele>
<time>2003-02-20T08:12:54Z</time>
<speed>0.0</speed>
</trkpt>
<trkpt lat="47.364515" lon="7.803699">
<ele>1014.4</ele>
<time>2003-02-20T08:12:59Z</time>
<speed>0.0</speed>
</trkpt>
<trkpt lat="47.364515" lon="7.803699">
<ele>1014.4</ele>
<time>2003-02-20T08:13:04Z</time>
<speed>0.0</speed>
</trkpt>
<trkpt lat="47.364515" lon="7.803699">
<ele>1014.4</ele>
<time>2003-02-20T08:13:09Z</time>
<speed>0.0</speed>
</trkpt>
<trkpt lat="47.364515" lon="7.803699">
<ele>1014.4</ele>
<time>2003-02-20T08:13:14Z</time>
<speed>0.0</speed>
</trkpt>
<trkpt lat="47.364515" lon="7.803699">
<ele>1014.4</ele>
<time>2003-02-20T08:13:19Z</time>
<speed>0.0</speed>
</trkpt>
<trkpt lat="47.364515" lon="7.803699">
<ele>1014.4</ele>
<time>2003-02-20T08:13:24Z</time>
<speed>0.0</speed>
</trkpt>
<trkpt lat="47.364515" lon="7.803699">
<ele>1014.4</ele>
<time>2003-02-20T08:13:29Z</time>
<speed>0.0</speed>
</trkpt>
<trkpt lat="47.364515" lon="7.803699">
<ele>1014.4</ele>
<time>2003-02-20T08:13:34Z</time>
<speed>0.0</speed>
</trkpt>
<trkpt lat="47.364515" lon="7.803699">
<ele>1014.4</ele>
<time>2003-02-20T08:13:39Z</time>
<speed>0.2</speed>
</trkpt>
<trkpt lat="47.364508" lon="7.803699">
<ele>1013.6</ele>
<time>2003-02-20T08:13:44Z</time>
<speed>0.0</speed>
</trkpt>
<trkpt lat="47.364508" lon="7.803699">
<ele>1013.6</ele>
<time>2003-02-20T08:13:49Z</time>
<speed>0.2</speed>
</trkpt>
<trkpt lat="47.364515" lon="7.803699">
<ele>1014.4</ele>
<time>2003-02-20T08:13:54Z</time>
<speed>0.0</speed>
</trkpt>
<trkpt lat="47.364515" lon="7.803699">
<ele>1014.4</ele>
<time>2003-02-20T08:13:59Z</time>
<speed>0.0</speed>
</trkpt>
<trkpt lat="47.364515" lon="7.803699">
<ele>1014.4</ele>
<time>2003-02-20T08:14:04Z</time>
<speed>0.0</speed>
</trkpt>
<trkpt lat="47.364515" lon="7.803699">
<ele>1014.4</ele>
<time>2003-02-20T08:14:09Z</time>
<speed>0.0</speed>
</trkpt>
<trkpt lat="47.364515" lon="7.803699">
<ele>1014.4</ele>
<time>2003-02-20T08:14:14Z</time>
<speed>0.0</speed>
</trkpt>
<trkpt lat="47.364515" lon="7.803699">
<ele>1014.4</ele>
<time>2003-02-20T08:14:19Z</time>
<speed>0.0</speed>
</trkpt>
<trkpt lat="47.364515" lon="7.803699">
<ele>1014.4</ele>
<time>2003-02-20T08:14:24Z</time>
<speed>0.0</speed>
</trkpt>
<trkpt lat="47.364515" lon="7.803699">
<ele>1014.4</ele>
<time>2003-02-20T08:14:29Z</time>
<speed>0.0</speed>
</trkpt>
<trkpt lat="47.364515" lon="7.803699">
<ele>1014.4</ele>
<time>2003-02-20T08:14:34Z</time>
<speed>0.0</speed>
</trkpt>
<trkpt lat="47.364515" lon="7.803699">
<ele>1014.4</ele>
<time>2003-02-20T08:14:39Z</time>
<speed>0.0</speed>
</trkpt>
<trkpt lat="47.364515" lon="7.803699">
<ele>1014.4</ele>
<time>2003-02-20T08:14:44Z</time>
<speed>0.0</speed>
</trkpt>
<trkpt lat="47.364515" lon="7.803699">
<ele>1014.4</ele>
<time>2003-02-20T08:14:49Z</time>
<speed>0.0</speed>
</trkpt>
<trkpt lat="47.364515" lon="7.803699">
<ele>1014.4</ele>
<time>2003-02-20T08:14:54Z</time>
<speed>0.0</speed>
</trkpt>
<trkpt lat="47.364515" lon="7.803699">
<ele>1014.4</ele>
<time>2003-02-20T08:14:59Z</time>
<speed>0.0</speed>
</trkpt>
<trkpt lat="47.364515" lon="7.803699">
<ele>1014.4</ele>
<time>2003-02-20T08:15:04Z</time>
<speed>0.0</speed>
</trkpt>
<trkpt lat="47.364515" lon="7.803699">
<ele>1014.4</ele>
<time>2003-02-20T08:15:09Z</time>
<speed>0.0</speed>
</trkpt>
<trkpt lat="47.364515" lon="7.803699">
<ele>1014.4</ele>
<time>2003-02-20T08:15:14Z</time>
<speed>0.0</speed>
</trkpt>
<trkpt lat="47.364515" lon="7.803699">
<ele>1014.4</ele>
<time>2003-02-20T08:15:19Z</time>
<speed>0.0</speed>
</trkpt>
<trkpt lat="47.364515" lon="7.803699">
<ele>1014.4</ele>
<time>2003-02-20T08:15:24Z</time>
<speed>0.0</speed>
</trkpt>
<trkpt lat="47.364515" lon="7.803699">
<ele>1014.4</ele>
<time>2003-02-20T08:15:29Z</time>
<speed>0.0</speed>
</trkpt>
<trkpt lat="47.364515" lon="7.803699">
<ele>1014.4</ele>
<time>2003-02-20T08:15:34Z</time>
<speed>0.1</speed>
</trkpt>
<trkpt lat="47.364521" lon="7.803701">
<ele>1013.7</ele>
<time>2003-02-20T08:15:39Z</time>
<speed>0.0</speed>
</trkpt>
<trkpt lat="47.364521" lon="7.803701">
<ele>1013.7</ele>
<time>2003-02-20T08:15:44Z</time>
<speed>0.3</speed>
</trkpt>
<trkpt lat="47.364532" lon="7.803714">
<ele>1015.3</ele>
<time>2003-02-20T08:15:49Z</time>
<speed>0.2</speed>
</trkpt>
<trkpt lat="47.364539" lon="7.803716">
<ele>1014.6</ele>
<time>2003-02-20T08:15:54Z</time>
<speed>0.3</speed>
</trkpt>
<trkpt lat="47.364526" lon="7.803714">
<ele>1014.5</ele>
<time>2003-02-20T08:15:59Z</time>
<speed>0.3</speed>
</trkpt>
<trkpt lat="47.364519" lon="7.803727">
<ele>1013.9</ele>
<time>2003-02-20T08:16:04Z</time>
<speed>0.2</speed>
</trkpt>
<trkpt lat="47.364512" lon="7.803739">
<ele>1014.6</ele>
<time>2003-02-20T08:16:09Z</time>
<speed>0.3</speed>
</trkpt>
<trkpt lat="47.364500" lon="7.803724">
<ele>1014.5</ele>
<time>2003-02-20T08:16:14Z</time>
<speed>1.8</speed>
</trkpt>
<trkpt lat="47.364434" lon="7.803660">
<ele>1014.5</ele>
<time>2003-02-20T08:16:19Z</time>
<speed>1.1</speed>
</trkpt>
<trkpt lat="47.364388" lon="7.803679">
<ele>1015.1</ele>
<time>2003-02-20T08:16:24Z</time>
<speed>0.6</speed>
</trkpt>
<trkpt lat="47.364367" lon="7.803704">
<ele>1014.5</ele>
<time>2003-02-20T08:16:29Z</time>
<speed>0.8</speed>
</trkpt>
<trkpt lat="47.364357" lon="7.803755">
<ele>1015.5</ele>
<time>2003-02-20T08:16:34Z</time>
<speed>1.7</speed>
</trkpt>
<trkpt lat="47.364411" lon="7.803833">
<ele>1012.8</ele>
<time>2003-02-20T08:16:39Z</time>
<speed>1.2</speed>
</trkpt>
<trkpt lat="47.364438" lon="7.803905">
<ele>1011.3</ele>
<time>2003-02-20T08:16:44Z</time>
<speed>1.0</speed>
</trkpt>
<trkpt lat="47.364460" lon="7.803961">
<ele>1011.8</ele>
<time>2003-02-20T08:16:49Z</time>
<speed>1.2</speed>
</trkpt>
<trkpt lat="47.364487" lon="7.804031">
<ele>1013.1</ele>
<time>2003-02-20T08:16:54Z</time>
<speed>1.0</speed>
</trkpt>
<trkpt lat="47.364489" lon="7.804098">
<ele>1012.9</ele>
<time>2003-02-20T08:16:59Z</time>
<speed>1.2</speed>
</trkpt>
<trkpt lat="47.364490" lon="7.804178">
<ele>1012.8</ele>
<time>2003-02-20T08:17:04Z</time>
<speed>1.3</speed>
</trkpt>
<trkpt lat="47.364504" lon="7.804263">
<ele>1011.3</ele>
<time>2003-02-20T08:17:09Z</time>
<speed>1.0</speed>
</trkpt>
<trkpt lat="47.364494" lon="7.804330">
<ele>1009.6</ele>
<time>2003-02-20T08:17:14Z</time>
<speed>1.5</speed>
</trkpt>
<trkpt lat="47.364445" lon="7.804403">
<ele>1009.3</ele>
<time>2003-02-20T08:17:19Z</time>
<speed>1.5</speed>
</trkpt>
<trkpt lat="47.364389" lon="7.804460">
<ele>1010.9</ele>
<time>2003-02-20T08:17:24Z</time>
<speed>1.1</speed>
</trkpt>
<trkpt lat="47.364343" lon="7.804479">
<ele>1011.5</ele>
<time>2003-02-20T08:17:29Z</time>
<speed>1.0</speed>
</trkpt>
<trkpt lat="47.364302" lon="7.804513">
<ele>1011.6</ele>
<time>2003-02-20T08:17:34Z</time>
<speed>1.2</speed>
</trkpt>
<trkpt lat="47.364255" lon="7.804545">
<ele>1012.4</ele>
<time>2003-02-20T08:17:39Z</time>
<speed>1.2</speed>
</trkpt>
<trkpt lat="47.364214" lon="7.804592">
<ele>1012.5</ele>
<time>2003-02-20T08:17:44Z</time>
<speed>0.9</speed>
</trkpt>
<trkpt lat="47.364174" lon="7.804613">
<ele>1012.5</ele>
<time>2003-02-20T08:17:49Z</time>
<speed>0.8</speed>
</trkpt>
<trkpt lat="47.364146" lon="7.804647">
<ele>1014.1</ele>
<time>2003-02-20T08:17:54Z</time>
<speed>0.9</speed>
</trkpt>
<trkpt lat="47.364111" lon="7.804679">
<ele>1016.3</ele>
<time>2003-02-20T08:17:59Z</time>
<speed>0.7</speed>
</trkpt>
<trkpt lat="47.364089" lon="7.804715">
<ele>1017.2</ele>
<time>2003-02-20T08:18:04Z</time>
<speed>1.0</speed>
</trkpt>
<trkpt lat="47.364071" lon="7.804777">
<ele>1019.0</ele>
<time>2003-02-20T08:18:09Z</time>
<speed>0.9</speed>
</trkpt>
<trkpt lat="47.364048" lon="7.804826">
<ele>1020.0</ele>
<time>2003-02-20T08:18:14Z</time>
<speed>0.6</speed>
</trkpt>
<trkpt lat="47.364039" lon="7.804863">
<ele>1020.9</ele>
<time>2003-02-20T08:18:19Z</time>
<speed>0.8</speed>
</trkpt>
<trkpt lat="47.364022" lon="7.804912">
<ele>1022.6</ele>
<time>2003-02-20T08:18:24Z</time>
<speed>1.5</speed>
</trkpt>
<trkpt lat="47.364042" lon="7.805009">
<ele>1022.0</ele>
<time>2003-02-20T08:18:29Z</time>
<speed>1.2</speed>
</trkpt>
<trkpt lat="47.364001" lon="7.805058">
<ele>1020.8</ele>
<time>2003-02-20T08:18:34Z</time>
<speed>1.1</speed>
</trkpt>
<trkpt lat="47.363977" lon="7.805122">
<ele>1020.4</ele>
<time>2003-02-20T08:18:39Z</time>
<speed>1.0</speed>
</trkpt>
<trkpt lat="47.363967" lon="7.805189">
<ele>1018.7</ele>
<time>2003-02-20T08:18:44Z</time>
<speed>1.2</speed>
</trkpt>
<trkpt lat="47.363956" lon="7.805268">
<ele>1018.6</ele>
<time>2003-02-20T08:18:49Z</time>
<speed>1.4</speed>
</trkpt>
<trkpt lat="47.363918" lon="7.805339">
<ele>1021.1</ele>
<time>2003-02-20T08:18:54Z</time>
<speed>1.0</speed>
</trkpt>
<trkpt lat="47.363901" lon="7.805401">
<ele>1022.9</ele>
<time>2003-02-20T08:18:59Z</time>
<speed>1.1</speed>
</trkpt>
<trkpt lat="47.363877" lon="7.805465">
<ele>1022.5</ele>
<time>2003-02-20T08:19:04Z</time>
<speed>1.2</speed>
</trkpt>
<trkpt lat="47.363865" lon="7.805542">
<ele>1023.7</ele>
<time>2003-02-20T08:19:09Z</time>
<speed>0.6</speed>
</trkpt>
<trkpt lat="47.363850" lon="7.805578">
<ele>1025.4</ele>
<time>2003-02-20T08:19:14Z</time>
<speed>1.2</speed>
</trkpt>
<trkpt lat="47.363850" lon="7.805656">
<ele>1026.6</ele>
<time>2003-02-20T08:19:19Z</time>
<speed>1.1</speed>
</trkpt>
<trkpt lat="47.363820" lon="7.805718">
<ele>1027.0</ele>
<time>2003-02-20T08:19:24Z</time>
<speed>1.1</speed>
</trkpt>
<trkpt lat="47.363790" lon="7.805778">
<ele>1028.7</ele>
<time>2003-02-20T08:19:29Z</time>
<speed>1.2</speed>
</trkpt>
<trkpt lat="47.363772" lon="7.805855">
<ele>1029.2</ele>
<time>2003-02-20T08:19:34Z</time>
<speed>1.2</speed>
</trkpt>
<trkpt lat="47.363761" lon="7.805934">
<ele>1029.0</ele>
<time>2003-02-20T08:19:39Z</time>
<speed>1.1</speed>
</trkpt>
<trkpt lat="47.363725" lon="7.805981">
<ele>1029.9</ele>
<time>2003-02-20T08:19:44Z</time>
<speed>1.1</speed>
</trkpt>
<trkpt lat="47.363695" lon="7.806043">
<ele>1030.3</ele>
<time>2003-02-20T08:19:49Z</time>
<speed>0.9</speed>
</trkpt>
<trkpt lat="47.363673" lon="7.806094">
<ele>1029.8</ele>
<time>2003-02-20T08:19:54Z</time>
<speed>1.0</speed>
</trkpt>
<trkpt lat="47.363644" lon="7.806143">
<ele>1030.1</ele>
<time>2003-02-20T08:19:59Z</time>
<speed>0.7</speed>
</trkpt>
<trkpt lat="47.363623" lon="7.806180">
<ele>1029.5</ele>
<time>2003-02-20T08:20:04Z</time>
<speed>0.8</speed>
</trkpt>
<trkpt lat="47.363595" lon="7.806216">
<ele>1029.7</ele>
<time>2003-02-20T08:20:09Z</time>
<speed>0.7</speed>
</trkpt>
<trkpt lat="47.363573" lon="7.806252">
<ele>1030.6</ele>
<time>2003-02-20T08:20:14Z</time>
<speed>1.0</speed>
</trkpt>
<trkpt lat="47.363544" lon="7.806300">
<ele>1030.8</ele>
<time>2003-02-20T08:20:19Z</time>
<speed>0.9</speed>
</trkpt>
<trkpt lat="47.363509" lon="7.806334">
<ele>1031.6</ele>
<time>2003-02-20T08:20:24Z</time>
<speed>0.9</speed>
</trkpt>
<trkpt lat="47.363475" lon="7.806368">
<ele>1032.4</ele>
<time>2003-02-20T08:20:29Z</time>
<speed>1.0</speed>
</trkpt>
<trkpt lat="47.363434" lon="7.806402">
<ele>1032.5</ele>
<time>2003-02-20T08:20:34Z</time>
<speed>1.0</speed>
</trkpt>
<trkpt lat="47.363405" lon="7.806449">
<ele>1034.2</ele>
<time>2003-02-20T08:20:39Z</time>
<speed>0.5</speed>
</trkpt>
<trkpt lat="47.363391" lon="7.806474">
<ele>1034.3</ele>
<time>2003-02-20T08:20:44Z</time>
<speed>0.0</speed>
</trkpt>
<trkpt lat="47.363391" lon="7.806474">
<ele>1034.3</ele>
<time>2003-02-20T08:20:49Z</time>
<speed>0.2</speed>
</trkpt>
<trkpt lat="47.363383" lon="7.806485">
<ele>1035.1</ele>
<time>2003-02-20T08:20:54Z</time>
<speed>0.8</speed>
</trkpt>
<trkpt lat="47.363355" lon="7.806521">
<ele>1035.2</ele>
<time>2003-02-20T08:20:59Z</time>
<speed>1.2</speed>
</trkpt>
<trkpt lat="47.363362" lon="7.806601">
<ele>1035.8</ele>
<time>2003-02-20T08:21:04Z</time>
<speed>1.2</speed>
</trkpt>
<trkpt lat="47.363315" lon="7.806633">
<ele>1036.6</ele>
<time>2003-02-20T08:21:09Z</time>
<speed>1.3</speed>
</trkpt>
<trkpt lat="47.363266" lon="7.806675">
<ele>1040.2</ele>
<time>2003-02-20T08:21:14Z</time>
<speed>1.1</speed>
</trkpt>
<trkpt lat="47.363242" lon="7.806737">
<ele>1041.3</ele>
<time>2003-02-20T08:21:19Z</time>
<speed>1.0</speed>
</trkpt>
<trkpt lat="47.363238" lon="7.806803">
<ele>1041.8</ele>
<time>2003-02-20T08:21:24Z</time>
<speed>0.8</speed>
</trkpt>
<trkpt lat="47.363228" lon="7.806853">
<ele>1042.8</ele>
<time>2003-02-20T08:21:29Z</time>
<speed>1.0</speed>
</trkpt>
<trkpt lat="47.363211" lon="7.806917">
<ele>1043.2</ele>
<time>2003-02-20T08:21:34Z</time>
<speed>1.3</speed>
</trkpt>
<trkpt lat="47.363187" lon="7.806994">
<ele>1042.9</ele>
<time>2003-02-20T08:21:39Z</time>
<speed>1.5</speed>
</trkpt>
<trkpt lat="47.363143" lon="7.807067">
<ele>1043.3</ele>
<time>2003-02-20T08:21:44Z</time>
<speed>1.1</speed>
</trkpt>
<trkpt lat="47.363120" lon="7.807129">
<ele>1044.4</ele>
<time>2003-02-20T08:21:49Z</time>
<speed>1.1</speed>
</trkpt>
<trkpt lat="47.363090" lon="7.807191">
<ele>1044.7</ele>
<time>2003-02-20T08:21:54Z</time>
<speed>1.0</speed>
</trkpt>
<trkpt lat="47.363080" lon="7.807259">
<ele>1043.0</ele>
<time>2003-02-20T08:21:59Z</time>
<speed>1.2</speed>
</trkpt>
<trkpt lat="47.363050" lon="7.807322">
<ele>1041.9</ele>
<time>2003-02-20T08:22:04Z</time>
<speed>1.0</speed>
</trkpt>
<trkpt lat="47.363033" lon="7.807386">
<ele>1042.3</ele>
<time>2003-02-20T08:22:09Z</time>
<speed>0.7</speed>
</trkpt>
<trkpt lat="47.363012" lon="7.807424">
<ele>1041.8</ele>
<time>2003-02-20T08:22:14Z</time>
<speed>0.1</speed>
</trkpt>
<trkpt lat="47.363006" lon="7.807424">
<ele>1041.1</ele>
<time>2003-02-20T08:22:19Z</time>
<speed>0.3</speed>
</trkpt>
<trkpt lat="47.362992" lon="7.807433">
<ele>1042.5</ele>
<time>2003-02-20T08:22:24Z</time>
<speed>0.7</speed>
</trkpt>
<trkpt lat="47.362964" lon="7.807454">
<ele>1044.0</ele>
<time>2003-02-20T08:22:29Z</time>
<speed>0.6</speed>
</trkpt>
<trkpt lat="47.362943" lon="7.807477">
<ele>1044.8</ele>
<time>2003-02-20T08:22:34Z</time>
<speed>0.0</speed>
</trkpt>
<trkpt lat="47.362943" lon="7.807477">
<ele>1044.8</ele>
<time>2003-02-20T08:22:39Z</time>
<speed>0.0</speed>
</trkpt>
<trkpt lat="47.362943" lon="7.807477">
<ele>1044.8</ele>
<time>2003-02-20T08:22:44Z</time>
<speed>0.2</speed>
</trkpt>
<trkpt lat="47.362942" lon="7.807490">
<ele>1044.9</ele>
<time>2003-02-20T08:22:49Z</time>
<speed>0.1</speed>
</trkpt>
<trkpt lat="47.362948" lon="7.807490">
<ele>1045.6</ele>
<time>2003-02-20T08:22:54Z</time>
<speed>0.0</speed>
</trkpt>
<trkpt lat="47.362948" lon="7.807490">
<ele>1045.6</ele>
<time>2003-02-20T08:22:59Z</time>
<speed>0.0</speed>
</trkpt>
<trkpt lat="47.362948" lon="7.807490">
<ele>1045.6</ele>
<time>2003-02-20T08:23:04Z</time>
<speed>0.0</speed>
</trkpt>
<trkpt lat="47.362948" lon="7.807490">
<ele>1045.6</ele>
<time>2003-02-20T08:23:09Z</time>
<speed>0.1</speed>
</trkpt>
<trkpt lat="47.362942" lon="7.807488">
<ele>1046.3</ele>
<time>2003-02-20T08:23:14Z</time>
<speed>0.0</speed>
</trkpt>
<trkpt lat="47.362942" lon="7.807488">
<ele>1046.3</ele>
<time>2003-02-20T08:23:19Z</time>
<speed>0.0</speed>
</trkpt>
<trkpt lat="47.362942" lon="7.807488">
<ele>1046.3</ele>
<time>2003-02-20T08:23:24Z</time>
<speed>0.0</speed>
</trkpt>
<trkpt lat="47.362942" lon="7.807488">
<ele>1046.3</ele>
<time>2003-02-20T08:23:29Z</time>
<speed>0.8</speed>
</trkpt>
<trkpt lat="47.362909" lon="7.807511">
<ele>1045.6</ele>
<time>2003-02-20T08:23:34Z</time>
<speed>0.6</speed>
</trkpt>
<trkpt lat="47.362888" lon="7.807533">
<ele>1046.4</ele>
<time>2003-02-20T08:23:39Z</time>
<speed>0.4</speed>
</trkpt>
<trkpt lat="47.362900" lon="7.807550">
<ele>1045.1</ele>
<time>2003-02-20T08:23:44Z</time>
<speed>0.2</speed>
</trkpt>
<trkpt lat="47.362899" lon="7.807563">
<ele>1045.2</ele>
<time>2003-02-20T08:23:49Z</time>
<speed>0.5</speed>
</trkpt>
<trkpt lat="47.362879" lon="7.807574">
<ele>1044.5</ele>
<time>2003-02-20T08:23:54Z</time>
<speed>0.4</speed>
</trkpt>
<trkpt lat="47.362884" lon="7.807602">
<ele>1044.0</ele>
<time>2003-02-20T08:23:59Z</time>
<speed>0.0</speed>
</trkpt>
<trkpt lat="47.362884" lon="7.807602">
<ele>1044.0</ele>
<time>2003-02-20T08:24:04Z</time>
<speed>0.0</speed>
</trkpt>
<trkpt lat="47.362884" lon="7.807602">
<ele>1044.0</ele>
<time>2003-02-20T08:24:09Z</time>
<speed>1.4</speed>
</trkpt>
<trkpt lat="47.362938" lon="7.807651">
<ele>1043.9</ele>
<time>2003-02-20T08:24:14Z</time>
<speed>0.4</speed>
</trkpt>
<trkpt lat="47.362930" lon="7.807675">
<ele>1044.7</ele>
<time>2003-02-20T08:24:19Z</time>
<speed>1.2</speed>
</trkpt>
<trkpt lat="47.362888" lon="7.807722">
<ele>1044.9</ele>
<time>2003-02-20T08:24:24Z</time>
<speed>1.0</speed>
</trkpt>
<trkpt lat="47.362848" lon="7.807756">
<ele>1045.0</ele>
<time>2003-02-20T08:24:29Z</time>
<speed>1.2</speed>
</trkpt>
<trkpt lat="47.362801" lon="7.807790">
<ele>1044.3</ele>
<time>2003-02-20T08:24:34Z</time>
<speed>0.9</speed>
</trkpt>
<trkpt lat="47.362779" lon="7.807841">
<ele>1043.9</ele>
<time>2003-02-20T08:24:39Z</time>
<speed>0.9</speed>
</trkpt>
<trkpt lat="47.362756" lon="7.807891">
<ele>1043.5</ele>
<time>2003-02-20T08:24:44Z</time>
<speed>0.9</speed>
</trkpt>
<trkpt lat="47.362722" lon="7.807925">
<ele>1044.3</ele>
<time>2003-02-20T08:24:49Z</time>
<speed>1.1</speed>
</trkpt>
<trkpt lat="47.362687" lon="7.807974">
<ele>1043.8</ele>
<time>2003-02-20T08:24:54Z</time>
<speed>0.8</speed>
</trkpt>
<trkpt lat="47.362677" lon="7.808025">
<ele>1044.8</ele>
<time>2003-02-20T08:24:59Z</time>
<speed>0.9</speed>
</trkpt>
<trkpt lat="47.362654" lon="7.808076">
<ele>1044.4</ele>
<time>2003-02-20T08:25:04Z</time>
<speed>1.0</speed>
</trkpt>
<trkpt lat="47.362626" lon="7.808124">
<ele>1044.6</ele>
<time>2003-02-20T08:25:09Z</time>
<speed>0.9</speed>
</trkpt>
<trkpt lat="47.362603" lon="7.808173">
<ele>1045.6</ele>
<time>2003-02-20T08:25:14Z</time>
<speed>0.7</speed>
</trkpt>
<trkpt lat="47.362581" lon="7.808209">
<ele>1046.5</ele>
<time>2003-02-20T08:25:19Z</time>
<speed>0.7</speed>
</trkpt>
<trkpt lat="47.362566" lon="7.808247">
<ele>1046.7</ele>
<time>2003-02-20T08:25:24Z</time>
<speed>1.2</speed>
</trkpt>
<trkpt lat="47.362554" lon="7.808325">
<ele>1046.5</ele>
<time>2003-02-20T08:25:29Z</time>
<speed>1.1</speed>
</trkpt>
<trkpt lat="47.362568" lon="7.808393">
<ele>1047.8</ele>
<time>2003-02-20T08:25:34Z</time>
<speed>0.8</speed>
</trkpt>
<trkpt lat="47.362577" lon="7.808445">
<ele>1049.6</ele>
<time>2003-02-20T08:25:39Z</time>
<speed>1.3</speed>
</trkpt>
<trkpt lat="47.362597" lon="7.808527">
<ele>1050.3</ele>
<time>2003-02-20T08:25:44Z</time>
<speed>1.0</speed>
</trkpt>
<trkpt lat="47.362598" lon="7.808593">
<ele>1051.5</ele>
<time>2003-02-20T08:25:49Z</time>
<speed>1.2</speed>
</trkpt>
<trkpt lat="47.362625" lon="7.808662">
<ele>1052.8</ele>
<time>2003-02-20T08:25:54Z</time>
<speed>0.8</speed>
</trkpt>
<trkpt lat="47.362628" lon="7.808714">
<ele>1053.9</ele>
<time>2003-02-20T08:25:59Z</time>
<speed>1.1</speed>
</trkpt>
<trkpt lat="47.362604" lon="7.808776">
<ele>1055.0</ele>
<time>2003-02-20T08:26:04Z</time>
<speed>1.2</speed>
</trkpt>
<trkpt lat="47.362593" lon="7.808855">
<ele>1054.8</ele>
<time>2003-02-20T08:26:09Z</time>
<speed>1.2</speed>
</trkpt>
<trkpt lat="47.362556" lon="7.808915">
<ele>1055.8</ele>
<time>2003-02-20T08:26:14Z</time>
<speed>1.4</speed>
</trkpt>
<trkpt lat="47.362519" lon="7.808990">
<ele>1055.5</ele>
<time>2003-02-20T08:26:19Z</time>
<speed>1.2</speed>
</trkpt>
<trkpt lat="47.362490" lon="7.809054">
<ele>1054.4</ele>
<time>2003-02-20T08:26:24Z</time>
<speed>1.0</speed>
</trkpt>
<trkpt lat="47.362461" lon="7.809101">
<ele>1056.1</ele>
<time>2003-02-20T08:26:29Z</time>
<speed>1.2</speed>
</trkpt>
<trkpt lat="47.362419" lon="7.809146">
<ele>1057.7</ele>
<time>2003-02-20T08:26:34Z</time>
<speed>0.8</speed>
</trkpt>
<trkpt lat="47.362402" lon="7.809195">
<ele>1059.4</ele>
<time>2003-02-20T08:26:39Z</time>
<speed>0.8</speed>
</trkpt>
<trkpt lat="47.362399" lon="7.809248">
<ele>1059.7</ele>
<time>2003-02-20T08:26:44Z</time>
<speed>0.8</speed>
</trkpt>
<trkpt lat="47.362382" lon="7.809298">
<ele>1060.0</ele>
<time>2003-02-20T08:26:49Z</time>
<speed>0.6</speed>
</trkpt>
<trkpt lat="47.362361" lon="7.809321">
<ele>1060.8</ele>
<time>2003-02-20T08:26:54Z</time>
<speed>0.8</speed>
</trkpt>
<trkpt lat="47.362379" lon="7.809368">
<ele>1057.7</ele>
<time>2003-02-20T08:26:59Z</time>
<speed>0.7</speed>
</trkpt>
<trkpt lat="47.362364" lon="7.809407">
<ele>1056.5</ele>
<time>2003-02-20T08:27:04Z</time>
<speed>0.5</speed>
</trkpt>
<trkpt lat="47.362344" lon="7.809418">
<ele>1055.8</ele>
<time>2003-02-20T08:27:09Z</time>
<speed>0.9</speed>
</trkpt>
<trkpt lat="47.362305" lon="7.809424">
<ele>1057.1</ele>
<time>2003-02-20T08:27:14Z</time>
<speed>0.2</speed>
</trkpt>
<trkpt lat="47.362298" lon="7.809422">
<ele>1057.8</ele>
<time>2003-02-20T08:27:19Z</time>
<speed>0.0</speed>
</trkpt>
<trkpt lat="47.362298" lon="7.809422">
<ele>1057.8</ele>
<time>2003-02-20T08:27:24Z</time>
<speed>0.0</speed>
</trkpt>
<trkpt lat="47.362298" lon="7.809422">
<ele>1057.8</ele>
<time>2003-02-20T08:27:29Z</time>
<speed>0.2</speed>
</trkpt>
<trkpt lat="47.362297" lon="7.809435">
<ele>1057.8</ele>
<time>2003-02-20T08:27:34Z</time>
<speed>0.6</speed>
</trkpt>
<trkpt lat="47.362314" lon="7.809463">
<ele>1058.8</ele>
<time>2003-02-20T08:27:39Z</time>
<speed>0.4</speed>
</trkpt>
<trkpt lat="47.362319" lon="7.809490">
<ele>1059.8</ele>
<time>2003-02-20T08:27:44Z</time>
<speed>0.4</speed>
</trkpt>
<trkpt lat="47.362336" lon="7.809505">
<ele>1060.6</ele>
<time>2003-02-20T08:27:49Z</time>
<speed>1.0</speed>
</trkpt>
<trkpt lat="47.362359" lon="7.809562">
<ele>1059.7</ele>
<time>2003-02-20T08:27:54Z</time>
<speed>0.9</speed>
</trkpt>
<trkpt lat="47.362387" lon="7.809605">
<ele>1060.9</ele>
<time>2003-02-20T08:27:59Z</time>
<speed>0.7</speed>
</trkpt>
<trkpt lat="47.362411" lon="7.809635">
<ele>1061.2</ele>
<time>2003-02-20T08:28:04Z</time>
<speed>0.4</speed>
</trkpt>
<trkpt lat="47.362415" lon="7.809661">
<ele>1062.1</ele>
<time>2003-02-20T08:28:09Z</time>
<speed>0.6</speed>
</trkpt>
<trkpt lat="47.362418" lon="7.809699">
<ele>1064.5</ele>
<time>2003-02-20T08:28:14Z</time>
<speed>0.8</speed>
</trkpt>
<trkpt lat="47.362440" lon="7.809740">
<ele>1066.3</ele>
<time>2003-02-20T08:28:19Z</time>
<speed>0.6</speed>
</trkpt>
<trkpt lat="47.362450" lon="7.809779">
<ele>1068.1</ele>
<time>2003-02-20T08:28:24Z</time>
<speed>0.7</speed>
</trkpt>
<trkpt lat="47.362473" lon="7.809807">
<ele>1069.8</ele>
<time>2003-02-20T08:28:29Z</time>
<speed>0.6</speed>
</trkpt>
<trkpt lat="47.362488" lon="7.809770">
<ele>1069.6</ele>
<time>2003-02-20T08:28:34Z</time>
<speed>1.1</speed>
</trkpt>
<trkpt lat="47.362479" lon="7.809701">
<ele>1070.5</ele>
<time>2003-02-20T08:28:39Z</time>
<speed>0.3</speed>
</trkpt>
<trkpt lat="47.362491" lon="7.809716">
<ele>1070.6</ele>
<time>2003-02-20T08:28:44Z</time>
<speed>0.4</speed>
</trkpt>
<trkpt lat="47.362489" lon="7.809742">
<ele>1070.8</ele>
<time>2003-02-20T08:28:49Z</time>
<speed>0.6</speed>
</trkpt>
<trkpt lat="47.362492" lon="7.809779">
<ele>1073.2</ele>
<time>2003-02-20T08:28:54Z</time>
<speed>1.2</speed>
</trkpt>
<trkpt lat="47.362519" lon="7.809849">
<ele>1074.6</ele>
<time>2003-02-20T08:28:59Z</time>
<speed>0.6</speed>
</trkpt>
<trkpt lat="47.362516" lon="7.809886">
<ele>1076.2</ele>
<time>2003-02-20T08:29:04Z</time>
<speed>0.7</speed>
</trkpt>
<trkpt lat="47.362543" lon="7.809862">
<ele>1077.6</ele>
<time>2003-02-20T08:29:09Z</time>
<speed>0.8</speed>
</trkpt>
<trkpt lat="47.362576" lon="7.809841">
<ele>1076.9</ele>
<time>2003-02-20T08:29:14Z</time>
<speed>0.6</speed>
</trkpt>
<trkpt lat="47.362597" lon="7.809816">
<ele>1077.5</ele>
<time>2003-02-20T08:29:19Z</time>
<speed>0.7</speed>
</trkpt>
<trkpt lat="47.362629" lon="7.809807">
<ele>1078.3</ele>
<time>2003-02-20T08:29:24Z</time>
<speed>0.6</speed>
</trkpt>
<trkpt lat="47.362654" lon="7.809811">
<ele>1078.4</ele>
<time>2003-02-20T08:29:29Z</time>
<speed>0.7</speed>
</trkpt>
<trkpt lat="47.362685" lon="7.809827">
<ele>1079.3</ele>
<time>2003-02-20T08:29:34Z</time>
<speed>0.5</speed>
</trkpt>
<trkpt lat="47.362696" lon="7.809855">
<ele>1079.6</ele>
<time>2003-02-20T08:29:39Z</time>
<speed>0.4</speed>
</trkpt>
<trkpt lat="47.362700" lon="7.809882">
<ele>1080.5</ele>
<time>2003-02-20T08:29:44Z</time>
<speed>0.3</speed>
</trkpt>
<trkpt lat="47.362712" lon="7.809896">
<ele>1080.7</ele>
<time>2003-02-20T08:29:49Z</time>
<speed>0.7</speed>
</trkpt>
<trkpt lat="47.362735" lon="7.809926">
<ele>1081.0</ele>
<time>2003-02-20T08:29:54Z</time>
<speed>0.0</speed>
</trkpt>
<trkpt lat="47.362735" lon="7.809926">
<ele>1081.0</ele>
<time>2003-02-20T08:29:59Z</time>
<speed>0.0</speed>
</trkpt>
<trkpt lat="47.362735" lon="7.809926">
<ele>1081.0</ele>
<time>2003-02-20T08:30:04Z</time>
<speed>0.2</speed>
</trkpt>
<trkpt lat="47.362740" lon="7.809939">
<ele>1081.8</ele>
<time>2003-02-20T08:30:09Z</time>
<speed>0.5</speed>
</trkpt>
<trkpt lat="47.362758" lon="7.809954">
<ele>1082.7</ele>
<time>2003-02-20T08:30:14Z</time>
<speed>0.7</speed>
</trkpt>
<trkpt lat="47.362768" lon="7.809995">
<ele>1083.0</ele>
<time>2003-02-20T08:30:19Z</time>
<speed>0.4</speed>
</trkpt>
<trkpt lat="47.362773" lon="7.810022">
<ele>1084.0</ele>
<time>2003-02-20T08:30:24Z</time>
<speed>0.6</speed>
</trkpt>
<trkpt lat="47.362769" lon="7.810059">
<ele>1085.6</ele>
<time>2003-02-20T08:30:29Z</time>
<speed>0.8</speed>
</trkpt>
<trkpt lat="47.362760" lon="7.810112">
<ele>1085.3</ele>
<time>2003-02-20T08:30:34Z</time>
<speed>0.6</speed>
</trkpt>
<trkpt lat="47.362769" lon="7.810151">
<ele>1087.0</ele>
<time>2003-02-20T08:30:39Z</time>
<speed>0.0</speed>
</trkpt>
<trkpt lat="47.362769" lon="7.810151">
<ele>1087.0</ele>
<time>2003-02-20T08:30:44Z</time>
<speed>0.0</speed>
</trkpt>
<trkpt lat="47.362769" lon="7.810151">
<ele>1087.0</ele>
<time>2003-02-20T08:30:49Z</time>
<speed>0.5</speed>
</trkpt>
<trkpt lat="47.362787" lon="7.810166">
<ele>1087.9</ele>
<time>2003-02-20T08:30:54Z</time>
<speed>0.0</speed>
</trkpt>
<trkpt lat="47.362787" lon="7.810166">
<ele>1087.9</ele>
<time>2003-02-20T08:30:59Z</time>
<speed>0.0</speed>
</trkpt>
<trkpt lat="47.362787" lon="7.810166">
<ele>1087.9</ele>
<time>2003-02-20T08:31:04Z</time>
<speed>0.0</speed>
</trkpt>
<trkpt lat="47.362787" lon="7.810166">
<ele>1087.9</ele>
<time>2003-02-20T08:31:09Z</time>
<speed>0.0</speed>
</trkpt>
<trkpt lat="47.362787" lon="7.810166">
<ele>1087.9</ele>
<time>2003-02-20T08:31:14Z</time>
<speed>0.0</speed>
</trkpt>
<trkpt lat="47.362787" lon="7.810166">
<ele>1087.9</ele>
<time>2003-02-20T08:31:19Z</time>
<speed>0.0</speed>
</trkpt>
<trkpt lat="47.362787" lon="7.810166">
<ele>1087.9</ele>
<time>2003-02-20T08:31:24Z</time>
<speed>0.0</speed>
</trkpt>
<trkpt lat="47.362787" lon="7.810166">
<ele>1087.9</ele>
<time>2003-02-20T08:31:29Z</time>
<speed>0.0</speed>
</trkpt>
<trkpt lat="47.362787" lon="7.810166">
<ele>1087.9</ele>
<time>2003-02-20T08:31:34Z</time>
<speed>0.0</speed>
</trkpt>
<trkpt lat="47.362787" lon="7.810166">
<ele>1087.9</ele>
<time>2003-02-20T08:31:39Z</time>
<speed>0.0</speed>
</trkpt>
<trkpt lat="47.362787" lon="7.810166">
<ele>1087.9</ele>
<time>2003-02-20T08:31:44Z</time>
<speed>0.0</speed>
</trkpt>
<trkpt lat="47.362787" lon="7.810166">
<ele>1087.9</ele>
<time>2003-02-20T08:31:49Z</time>
<speed>0.0</speed>
</trkpt>
<trkpt lat="47.362787" lon="7.810166">
<ele>1087.9</ele>
<time>2003-02-20T08:31:54Z</time>
<speed>0.0</speed>
</trkpt>
<trkpt lat="47.362787" lon="7.810166">
<ele>1087.9</ele>
<time>2003-02-20T08:31:59Z</time>
<speed>0.0</speed>
</trkpt>
<trkpt lat="47.362787" lon="7.810166">
<ele>1087.9</ele>
<time>2003-02-20T08:32:04Z</time>
<speed>0.0</speed>
</trkpt>
<trkpt lat="47.362787" lon="7.810166">
<ele>1087.9</ele>
<time>2003-02-20T08:32:09Z</time>
<speed>0.0</speed>
</trkpt>
<trkpt lat="47.362787" lon="7.810166">
<ele>1087.9</ele>
<time>2003-02-20T08:32:14Z</time>
<speed>0.0</speed>
</trkpt>
<trkpt lat="47.362787" lon="7.810166">
<ele>1087.9</ele>
<time>2003-02-20T08:32:19Z</time>
<speed>0.0</speed>
</trkpt>
<trkpt lat="47.362787" lon="7.810166">
<ele>1087.9</ele>
<time>2003-02-20T08:32:24Z</time>
<speed>0.0</speed>
</trkpt>
<trkpt lat="47.362787" lon="7.810166">
<ele>1087.9</ele>
<time>2003-02-20T08:32:29Z</time>
<speed>0.0</speed>
</trkpt>
<trkpt lat="47.362787" lon="7.810166">
<ele>1087.9</ele>
<time>2003-02-20T08:32:34Z</time>
<speed>0.0</speed>
</trkpt>
<trkpt lat="47.362787" lon="7.810166">
<ele>1087.9</ele>
<time>2003-02-20T08:32:39Z</time>
<speed>0.0</speed>
</trkpt>
<trkpt lat="47.362787" lon="7.810166">
<ele>1087.9</ele>
<time>2003-02-20T08:32:44Z</time>
<speed>0.0</speed>
</trkpt>
<trkpt lat="47.362787" lon="7.810166">
<ele>1087.9</ele>
<time>2003-02-20T08:32:49Z</time>
<speed>0.0</speed>
</trkpt>
<trkpt lat="47.362787" lon="7.810166">
<ele>1087.9</ele>
<time>2003-02-20T08:32:54Z</time>
<speed>0.0</speed>
</trkpt>
<trkpt lat="47.362787" lon="7.810166">
<ele>1087.9</ele>
<time>2003-02-20T08:32:59Z</time>
<speed>0.0</speed>
</trkpt>
<trkpt lat="47.362787" lon="7.810166">
<ele>1087.9</ele>
<time>2003-02-20T08:33:04Z</time>
<speed>0.0</speed>
</trkpt>
<trkpt lat="47.362787" lon="7.810166">
<ele>1087.9</ele>
<time>2003-02-20T08:33:09Z</time>
<speed>0.0</speed>
</trkpt>
<trkpt lat="47.362787" lon="7.810166">
<ele>1087.9</ele>
<time>2003-02-20T08:33:14Z</time>
<speed>0.1</speed>
</trkpt>
<trkpt lat="47.362793" lon="7.810166">
<ele>1088.7</ele>
<time>2003-02-20T08:33:19Z</time>
<speed>0.0</speed>
</trkpt>
<trkpt lat="47.362793" lon="7.810166">
<ele>1088.7</ele>
<time>2003-02-20T08:33:24Z</time>
<speed>0.0</speed>
</trkpt>
<trkpt lat="47.362793" lon="7.810166">
<ele>1088.7</ele>
<time>2003-02-20T08:33:29Z</time>
<speed>0.0</speed>
</trkpt>
<trkpt lat="47.362793" lon="7.810166">
<ele>1088.7</ele>
<time>2003-02-20T08:33:34Z</time>
<speed>0.0</speed>
</trkpt>
<trkpt lat="47.362793" lon="7.810166">
<ele>1088.7</ele>
<time>2003-02-20T08:33:39Z</time>
<speed>0.0</speed>
</trkpt>
<trkpt lat="47.362793" lon="7.810166">
<ele>1088.7</ele>
<time>2003-02-20T08:33:44Z</time>
<speed>0.0</speed>
</trkpt>
<trkpt lat="47.362793" lon="7.810166">
<ele>1088.7</ele>
<time>2003-02-20T08:33:49Z</time>
<speed>0.0</speed>
</trkpt>
<trkpt lat="47.362793" lon="7.810166">
<ele>1088.7</ele>
<time>2003-02-20T08:33:54Z</time>
<speed>0.0</speed>
</trkpt>
<trkpt lat="47.362793" lon="7.810166">
<ele>1088.7</ele>
<time>2003-02-20T08:33:59Z</time>
<speed>0.0</speed>
</trkpt>
<trkpt lat="47.362793" lon="7.810166">
<ele>1088.7</ele>
<time>2003-02-20T08:34:04Z</time>
<speed>0.0</speed>
</trkpt>
<trkpt lat="47.362793" lon="7.810166">
<ele>1088.7</ele>
<time>2003-02-20T08:34:09Z</time>
<speed>0.0</speed>
</trkpt>
<trkpt lat="47.362793" lon="7.810166">
<ele>1088.7</ele>
<time>2003-02-20T08:34:14Z</time>
<speed>0.0</speed>
</trkpt>
<trkpt lat="47.362793" lon="7.810166">
<ele>1088.7</ele>
<time>2003-02-20T08:34:19Z</time>
<speed>0.2</speed>
</trkpt>
<trkpt lat="47.362792" lon="7.810179">
<ele>1088.7</ele>
<time>2003-02-20T08:34:24Z</time>
<speed>0.0</speed>
</trkpt>
<trkpt lat="47.362792" lon="7.810179">
<ele>1088.7</ele>
<time>2003-02-20T08:34:29Z</time>
<speed>0.0</speed>
</trkpt>
<trkpt lat="47.362792" lon="7.810179">
<ele>1088.7</ele>
<time>2003-02-20T08:34:34Z</time>
<speed>0.0</speed>
</trkpt>
<trkpt lat="47.362792" lon="7.810179">
<ele>1088.7</ele>
<time>2003-02-20T08:34:39Z</time>
<speed>0.3</speed>
</trkpt>
<trkpt lat="47.362787" lon="7.810164">
<ele>1089.3</ele>
<time>2003-02-20T08:34:44Z</time>
<speed>0.0</speed>
</trkpt>
<trkpt lat="47.362787" lon="7.810164">
<ele>1089.3</ele>
<time>2003-02-20T08:34:49Z</time>
<speed>0.0</speed>
</trkpt>
<trkpt lat="47.362787" lon="7.810164">
<ele>1089.3</ele>
<time>2003-02-20T08:34:54Z</time>
<speed>0.0</speed>
</trkpt>
<trkpt lat="47.362787" lon="7.810164">
<ele>1089.3</ele>
<time>2003-02-20T08:34:59Z</time>
<speed>0.0</speed>
</trkpt>
<trkpt lat="47.362787" lon="7.810164">
<ele>1089.3</ele>
<time>2003-02-20T08:35:04Z</time>
<speed>0.0</speed>
</trkpt>
<trkpt lat="47.362787" lon="7.810164">
<ele>1089.3</ele>
<time>2003-02-20T08:35:09Z</time>
<speed>0.2</speed>
</trkpt>
<trkpt lat="47.362786" lon="7.810177">
<ele>1089.4</ele>
<time>2003-02-20T08:35:14Z</time>
<speed>0.0</speed>
</trkpt>
<trkpt lat="47.362786" lon="7.810177">
<ele>1089.4</ele>
<time>2003-02-20T08:35:19Z</time>
<speed>0.0</speed>
</trkpt>
<trkpt lat="47.362786" lon="7.810177">
<ele>1089.4</ele>
<time>2003-02-20T08:35:24Z</time>
<speed>0.0</speed>
</trkpt>
<trkpt lat="47.362786" lon="7.810177">
<ele>1089.4</ele>
<time>2003-02-20T08:35:29Z</time>
<speed>0.3</speed>
</trkpt>
<trkpt lat="47.362797" lon="7.810192">
<ele>1089.6</ele>
<time>2003-02-20T08:35:34Z</time>
<speed>0.9</speed>
</trkpt>
<trkpt lat="47.362826" lon="7.810235">
<ele>1090.7</ele>
<time>2003-02-20T08:35:39Z</time>
<speed>0.5</speed>
</trkpt>
<trkpt lat="47.362837" lon="7.810263">
<ele>1091.0</ele>
<time>2003-02-20T08:35:44Z</time>
<speed>0.2</speed>
</trkpt>
<trkpt lat="47.362836" lon="7.810276">
<ele>1091.1</ele>
<time>2003-02-20T08:35:49Z</time>
<speed>0.6</speed>
</trkpt>
<trkpt lat="47.362839" lon="7.810316">
<ele>1092.1</ele>
<time>2003-02-20T08:35:54Z</time>
<speed>0.7</speed>
</trkpt>
<trkpt lat="47.362856" lon="7.810357">
<ele>1093.1</ele>
<time>2003-02-20T08:35:59Z</time>
<speed>0.4</speed>
</trkpt>
<trkpt lat="47.362860" lon="7.810383">
<ele>1094.1</ele>
<time>2003-02-20T08:36:04Z</time>
<speed>0.7</speed>
</trkpt>
<trkpt lat="47.362870" lon="7.810424">
<ele>1094.4</ele>
<time>2003-02-20T08:36:09Z</time>
<speed>0.2</speed>
</trkpt>
<trkpt lat="47.362869" lon="7.810437">
<ele>1094.5</ele>
<time>2003-02-20T08:36:14Z</time>
<speed>0.2</speed>
</trkpt>
<trkpt lat="47.362868" lon="7.810450">
<ele>1094.6</ele>
<time>2003-02-20T08:36:19Z</time>
<speed>0.5</speed>
</trkpt>
<trkpt lat="47.362878" lon="7.810476">
<ele>1096.2</ele>
<time>2003-02-20T08:36:24Z</time>
<speed>0.2</speed>
</trkpt>
<trkpt lat="47.362877" lon="7.810490">
<ele>1096.3</ele>
<time>2003-02-20T08:36:29Z</time>
<speed>0.1</speed>
</trkpt>
<trkpt lat="47.362871" lon="7.810488">
<ele>1097.0</ele>
<time>2003-02-20T08:36:34Z</time>
<speed>0.0</speed>
</trkpt>
<trkpt lat="47.362871" lon="7.810488">
<ele>1097.0</ele>
<time>2003-02-20T08:36:39Z</time>
<speed>0.0</speed>
</trkpt>
<trkpt lat="47.362871" lon="7.810488">
<ele>1097.0</ele>
<time>2003-02-20T08:36:44Z</time>
<speed>0.3</speed>
</trkpt>
<trkpt lat="47.362883" lon="7.810503">
<ele>1097.2</ele>
<time>2003-02-20T08:36:49Z</time>
<speed>0.2</speed>
</trkpt>
<trkpt lat="47.362882" lon="7.810516">
<ele>1097.3</ele>
<time>2003-02-20T08:36:54Z</time>
<speed>0.4</speed>
</trkpt>
<trkpt lat="47.362886" lon="7.810542">
<ele>1098.2</ele>
<time>2003-02-20T08:36:59Z</time>
<speed>0.3</speed>
</trkpt>
<trkpt lat="47.362899" lon="7.810544">
<ele>1098.2</ele>
<time>2003-02-20T08:37:04Z</time>
<speed>0.3</speed>
</trkpt>
<trkpt lat="47.362886" lon="7.810542">
<ele>1098.2</ele>
<time>2003-02-20T08:37:09Z</time>
<speed>0.0</speed>
</trkpt>
<trkpt lat="47.362886" lon="7.810542">
<ele>1098.2</ele>
<time>2003-02-20T08:37:14Z</time>
<speed>0.0</speed>
</trkpt>
<trkpt lat="47.362886" lon="7.810542">
<ele>1098.2</ele>
<time>2003-02-20T08:37:19Z</time>
<speed>0.0</speed>
</trkpt>
<trkpt lat="47.362886" lon="7.810542">
<ele>1098.2</ele>
<time>2003-02-20T08:37:24Z</time>
<speed>0.0</speed>
</trkpt>
<trkpt lat="47.362886" lon="7.810542">
<ele>1098.2</ele>
<time>2003-02-20T08:37:29Z</time>
<speed>0.0</speed>
</trkpt>
<trkpt lat="47.362886" lon="7.810542">
<ele>1098.2</ele>
<time>2003-02-20T08:37:34Z</time>
<speed>0.0</speed>
</trkpt>
<trkpt lat="47.362886" lon="7.810542">
<ele>1098.2</ele>
<time>2003-02-20T08:37:39Z</time>
<speed>0.2</speed>
</trkpt>
<trkpt lat="47.362879" lon="7.810540">
<ele>1098.8</ele>
<time>2003-02-20T08:37:44Z</time>
<speed>0.2</speed>
</trkpt>
<trkpt lat="47.362880" lon="7.810527">
<ele>1098.8</ele>
<time>2003-02-20T08:37:49Z</time>
<speed>0.0</speed>
</trkpt>
<trkpt lat="47.362880" lon="7.810527">
<ele>1098.8</ele>
<time>2003-02-20T08:37:54Z</time>
<speed>0.0</speed>
</trkpt>
<trkpt lat="47.362880" lon="7.810527">
<ele>1098.8</ele>
<time>2003-02-20T08:37:59Z</time>
<speed>0.0</speed>
</trkpt>
<trkpt lat="47.362880" lon="7.810527">
<ele>1098.8</ele>
<time>2003-02-20T08:38:04Z</time>
<speed>0.2</speed>
</trkpt>
<trkpt lat="47.362887" lon="7.810529">
<ele>1098.1</ele>
<time>2003-02-20T08:38:09Z</time>
<speed>0.0</speed>
</trkpt>
<trkpt lat="47.362887" lon="7.810529">
<ele>1098.1</ele>
<time>2003-02-20T08:38:14Z</time>
<speed>0.2</speed>
</trkpt>
<trkpt lat="47.362880" lon="7.810527">
<ele>1098.8</ele>
<time>2003-02-20T08:38:19Z</time>
<speed>0.0</speed>
</trkpt>
<trkpt lat="47.362880" lon="7.810527">
<ele>1098.8</ele>
<time>2003-02-20T08:38:24Z</time>
<speed>0.0</speed>
</trkpt>
<trkpt lat="47.362880" lon="7.810527">
<ele>1098.8</ele>
<time>2003-02-20T08:38:29Z</time>
<speed>0.0</speed>
</trkpt>
<trkpt lat="47.362880" lon="7.810527">
<ele>1098.8</ele>
<time>2003-02-20T08:38:34Z</time>
<speed>0.0</speed>
</trkpt>
<trkpt lat="47.362880" lon="7.810527">
<ele>1098.8</ele>
<time>2003-02-20T08:38:39Z</time>
<speed>0.0</speed>
</trkpt>
<trkpt lat="47.362880" lon="7.810527">
<ele>1098.8</ele>
<time>2003-02-20T08:38:44Z</time>
<speed>0.0</speed>
</trkpt>
<trkpt lat="47.362880" lon="7.810527">
<ele>1098.8</ele>
<time>2003-02-20T08:38:49Z</time>
<speed>0.0</speed>
</trkpt>
<trkpt lat="47.362880" lon="7.810527">
<ele>1098.8</ele>
<time>2003-02-20T08:38:54Z</time>
<speed>0.0</speed>
</trkpt>
<trkpt lat="47.362880" lon="7.810527">
<ele>1098.8</ele>
<time>2003-02-20T08:38:59Z</time>
<speed>0.0</speed>
</trkpt>
<trkpt lat="47.362880" lon="7.810527">
<ele>1098.8</ele>
<time>2003-02-20T08:39:04Z</time>
<speed>0.0</speed>
</trkpt>
<trkpt lat="47.362880" lon="7.810527">
<ele>1098.8</ele>
<time>2003-02-20T08:39:09Z</time>
<speed>0.0</speed>
</trkpt>
<trkpt lat="47.362880" lon="7.810527">
<ele>1098.8</ele>
<time>2003-02-20T08:39:14Z</time>
<speed>0.0</speed>
</trkpt>
<trkpt lat="47.362880" lon="7.810527">
<ele>1098.8</ele>
<time>2003-02-20T08:39:19Z</time>
<speed>0.0</speed>
</trkpt>
<trkpt lat="47.362880" lon="7.810527">
<ele>1098.8</ele>
<time>2003-02-20T08:39:24Z</time>
<speed>0.0</speed>
</trkpt>
<trkpt lat="47.362880" lon="7.810527">
<ele>1098.8</ele>
<time>2003-02-20T08:39:29Z</time>
<speed>0.0</speed>
</trkpt>
<trkpt lat="47.362880" lon="7.810527">
<ele>1098.8</ele>
<time>2003-02-20T08:39:34Z</time>
<speed>0.0</speed>
</trkpt>
<trkpt lat="47.362880" lon="7.810527">
<ele>1098.8</ele>
<time>2003-02-20T08:39:39Z</time>
<speed>0.0</speed>
</trkpt>
<trkpt lat="47.362880" lon="7.810527">
<ele>1098.8</ele>
<time>2003-02-20T08:39:44Z</time>
<speed>0.0</speed>
</trkpt>
<trkpt lat="47.362880" lon="7.810527">
<ele>1098.8</ele>
<time>2003-02-20T08:39:49Z</time>
<speed>0.2</speed>
</trkpt>
<trkpt lat="47.362887" lon="7.810529">
<ele>1098.1</ele>
<time>2003-02-20T08:39:54Z</time>
<speed>0.1</speed>
</trkpt>
<trkpt lat="47.362893" lon="7.810529">
<ele>1098.8</ele>
<time>2003-02-20T08:39:59Z</time>
<speed>0.0</speed>
</trkpt>
<trkpt lat="47.362893" lon="7.810529">
<ele>1098.8</ele>
<time>2003-02-20T08:40:04Z</time>
<speed>0.0</speed>
</trkpt>
<trkpt lat="47.362893" lon="7.810529">
<ele>1098.8</ele>
<time>2003-02-20T08:40:09Z</time>
<speed>0.0</speed>
</trkpt>
<trkpt lat="47.362893" lon="7.810529">
<ele>1098.8</ele>
<time>2003-02-20T08:40:14Z</time>
<speed>0.0</speed>
</trkpt>
<trkpt lat="47.362893" lon="7.810529">
<ele>1098.8</ele>
<time>2003-02-20T08:40:19Z</time>
<speed>0.0</speed>
</trkpt>
<trkpt lat="47.362893" lon="7.810529">
<ele>1098.8</ele>
<time>2003-02-20T08:40:24Z</time>
<speed>0.0</speed>
</trkpt>
<trkpt lat="47.362893" lon="7.810529">
<ele>1098.8</ele>
<time>2003-02-20T08:40:29Z</time>
<speed>0.0</speed>
</trkpt>
<trkpt lat="47.362893" lon="7.810529">
<ele>1098.8</ele>
<time>2003-02-20T08:40:34Z</time>
<speed>0.0</speed>
</trkpt>
<trkpt lat="47.362893" lon="7.810529">
<ele>1098.8</ele>
<time>2003-02-20T08:40:39Z</time>
<speed>0.0</speed>
</trkpt>
<trkpt lat="47.362893" lon="7.810529">
<ele>1098.8</ele>
<time>2003-02-20T08:40:44Z</time>
<speed>0.0</speed>
</trkpt>
<trkpt lat="47.362893" lon="7.810529">
<ele>1098.8</ele>
<time>2003-02-20T08:40:49Z</time>
<speed>0.0</speed>
</trkpt>
<trkpt lat="47.362893" lon="7.810529">
<ele>1098.8</ele>
<time>2003-02-20T08:40:54Z</time>
<speed>0.0</speed>
</trkpt>
<trkpt lat="47.362893" lon="7.810529">
<ele>1098.8</ele>
<time>2003-02-20T08:40:59Z</time>
<speed>0.0</speed>
</trkpt>
<trkpt lat="47.362893" lon="7.810529">
<ele>1098.8</ele>
<time>2003-02-20T08:41:04Z</time>
<speed>0.0</speed>
</trkpt>
<trkpt lat="47.362893" lon="7.810529">
<ele>1098.8</ele>
<time>2003-02-20T08:41:09Z</time>
<speed>0.4</speed>
</trkpt>
<trkpt lat="47.362879" lon="7.810540">
<ele>1098.8</ele>
<time>2003-02-20T08:41:14Z</time>
<speed>0.0</speed>
</trkpt>
<trkpt lat="47.362879" lon="7.810540">
<ele>1098.8</ele>
<time>2003-02-20T08:41:19Z</time>
<speed>0.0</speed>
</trkpt>
<trkpt lat="47.362879" lon="7.810540">
<ele>1098.8</ele>
<time>2003-02-20T08:41:24Z</time>
<speed>0.0</speed>
</trkpt>
<trkpt lat="47.362879" lon="7.810540">
<ele>1098.8</ele>
<time>2003-02-20T08:41:29Z</time>
<speed>0.0</speed>
</trkpt>
<trkpt lat="47.362879" lon="7.810540">
<ele>1098.8</ele>
<time>2003-02-20T08:41:34Z</time>
<speed>0.0</speed>
</trkpt>
<trkpt lat="47.362879" lon="7.810540">
<ele>1098.8</ele>
<time>2003-02-20T08:41:39Z</time>
<speed>0.3</speed>
</trkpt>
<trkpt lat="47.362892" lon="7.810542">
<ele>1098.9</ele>
<time>2003-02-20T08:41:44Z</time>
<speed>0.0</speed>
</trkpt>
<trkpt lat="47.362892" lon="7.810542">
<ele>1098.9</ele>
<time>2003-02-20T08:41:49Z</time>
<speed>0.0</speed>
</trkpt>
<trkpt lat="47.362892" lon="7.810542">
<ele>1098.9</ele>
<time>2003-02-20T08:41:54Z</time>
<speed>0.0</speed>
</trkpt>
<trkpt lat="47.362892" lon="7.810542">
<ele>1098.9</ele>
<time>2003-02-20T08:41:59Z</time>
<speed>0.1</speed>
</trkpt>
<trkpt lat="47.362886" lon="7.810540">
<ele>1099.6</ele>
<time>2003-02-20T08:42:04Z</time>
<speed>0.2</speed>
</trkpt>
<trkpt lat="47.362885" lon="7.810553">
<ele>1099.7</ele>
<time>2003-02-20T08:42:09Z</time>
<speed>0.0</speed>
</trkpt>
<trkpt lat="47.362885" lon="7.810553">
<ele>1099.7</ele>
<time>2003-02-20T08:42:14Z</time>
<speed>0.0</speed>
</trkpt>
<trkpt lat="47.362885" lon="7.810553">
<ele>1099.7</ele>
<time>2003-02-20T08:42:19Z</time>
<speed>0.0</speed>
</trkpt>
<trkpt lat="47.362885" lon="7.810553">
<ele>1099.7</ele>
<time>2003-02-20T08:42:24Z</time>
<speed>0.0</speed>
</trkpt>
<trkpt lat="47.362885" lon="7.810553">
<ele>1099.7</ele>
<time>2003-02-20T08:42:29Z</time>
<speed>0.0</speed>
</trkpt>
<trkpt lat="47.362885" lon="7.810553">
<ele>1099.7</ele>
<time>2003-02-20T08:42:34Z</time>
<speed>0.0</speed>
</trkpt>
<trkpt lat="47.362885" lon="7.810553">
<ele>1099.7</ele>
<time>2003-02-20T08:42:39Z</time>
<speed>0.0</speed>
</trkpt>
<trkpt lat="47.362885" lon="7.810553">
<ele>1099.7</ele>
<time>2003-02-20T08:42:44Z</time>
<speed>0.0</speed>
</trkpt>
<trkpt lat="47.362885" lon="7.810553">
<ele>1099.7</ele>
<time>2003-02-20T08:42:49Z</time>
<speed>0.0</speed>
</trkpt>
<trkpt lat="47.362885" lon="7.810553">
<ele>1099.7</ele>
<time>2003-02-20T08:42:54Z</time>
<speed>0.0</speed>
</trkpt>
<trkpt lat="47.362885" lon="7.810553">
<ele>1099.7</ele>
<time>2003-02-20T08:42:59Z</time>
<speed>0.0</speed>
</trkpt>
<trkpt lat="47.362885" lon="7.810553">
<ele>1099.7</ele>
<time>2003-02-20T08:43:04Z</time>
<speed>0.0</speed>
</trkpt>
<trkpt lat="47.362885" lon="7.810553">
<ele>1099.7</ele>
<time>2003-02-20T08:43:09Z</time>
<speed>0.0</speed>
</trkpt>
<trkpt lat="47.362885" lon="7.810553">
<ele>1099.7</ele>
<time>2003-02-20T08:43:14Z</time>
<speed>0.0</speed>
</trkpt>
<trkpt lat="47.362885" lon="7.810553">
<ele>1099.7</ele>
<time>2003-02-20T08:43:19Z</time>
<speed>0.0</speed>
</trkpt>
<trkpt lat="47.362885" lon="7.810553">
<ele>1099.7</ele>
<time>2003-02-20T08:43:24Z</time>
<speed>0.0</speed>
</trkpt>
<trkpt lat="47.362885" lon="7.810553">
<ele>1099.7</ele>
<time>2003-02-20T08:43:29Z</time>
<speed>0.0</speed>
</trkpt>
<trkpt lat="47.362885" lon="7.810553">
<ele>1099.7</ele>
<time>2003-02-20T08:43:34Z</time>
<speed>0.1</speed>
</trkpt>
<trkpt lat="47.362891" lon="7.810553">
<ele>1100.4</ele>
<time>2003-02-20T08:43:39Z</time>
<speed>0.0</speed>
</trkpt>
<trkpt lat="47.362891" lon="7.810553">
<ele>1100.4</ele>
<time>2003-02-20T08:43:44Z</time>
<speed>0.0</speed>
</trkpt>
<trkpt lat="47.362891" lon="7.810553">
<ele>1100.4</ele>
<time>2003-02-20T08:43:49Z</time>
<speed>0.0</speed>
</trkpt>
<trkpt lat="47.362891" lon="7.810553">
<ele>1100.4</ele>
<time>2003-02-20T08:43:54Z</time>
<speed>0.0</speed>
</trkpt>
<trkpt lat="47.362891" lon="7.810553">
<ele>1100.4</ele>
<time>2003-02-20T08:43:59Z</time>
<speed>0.0</speed>
</trkpt>
<trkpt lat="47.362891" lon="7.810553">
<ele>1100.4</ele>
<time>2003-02-20T08:44:04Z</time>
<speed>0.0</speed>
</trkpt>
<trkpt lat="47.362891" lon="7.810553">
<ele>1100.4</ele>
<time>2003-02-20T08:44:09Z</time>
<speed>0.0</speed>
</trkpt>
<trkpt lat="47.362891" lon="7.810553">
<ele>1100.4</ele>
<time>2003-02-20T08:44:14Z</time>
<speed>0.0</speed>
</trkpt>
<trkpt lat="47.362891" lon="7.810553">
<ele>1100.4</ele>
<time>2003-02-20T08:44:19Z</time>
<speed>0.2</speed>
</trkpt>
<trkpt lat="47.362892" lon="7.810540">
<ele>1100.3</ele>
<time>2003-02-20T08:44:24Z</time>
<speed>0.0</speed>
</trkpt>
<trkpt lat="47.362892" lon="7.810540">
<ele>1100.3</ele>
<time>2003-02-20T08:44:29Z</time>
<speed>0.0</speed>
</trkpt>
<trkpt lat="47.362892" lon="7.810540">
<ele>1100.3</ele>
<time>2003-02-20T08:44:34Z</time>
<speed>0.0</speed>
</trkpt>
<trkpt lat="47.362892" lon="7.810540">
<ele>1100.3</ele>
<time>2003-02-20T08:44:39Z</time>
<speed>0.0</speed>
</trkpt>
<trkpt lat="47.362892" lon="7.810540">
<ele>1100.3</ele>
<time>2003-02-20T08:44:44Z</time>
<speed>0.0</speed>
</trkpt>
<trkpt lat="47.362892" lon="7.810540">
<ele>1100.3</ele>
<time>2003-02-20T08:44:49Z</time>
<speed>0.0</speed>
</trkpt>
<trkpt lat="47.362892" lon="7.810540">
<ele>1100.3</ele>
<time>2003-02-20T08:44:54Z</time>
<speed>0.0</speed>
</trkpt>
<trkpt lat="47.362892" lon="7.810540">
<ele>1100.3</ele>
<time>2003-02-20T08:44:59Z</time>
<speed>0.0</speed>
</trkpt>
<trkpt lat="47.362892" lon="7.810540">
<ele>1100.3</ele>
<time>2003-02-20T08:45:04Z</time>
<speed>0.0</speed>
</trkpt>
<trkpt lat="47.362892" lon="7.810540">
<ele>1100.3</ele>
<time>2003-02-20T08:45:09Z</time>
<speed>0.0</speed>
</trkpt>
<trkpt lat="47.362892" lon="7.810540">
<ele>1100.3</ele>
<time>2003-02-20T08:45:14Z</time>
<speed>0.0</speed>
</trkpt>
<trkpt lat="47.362892" lon="7.810540">
<ele>1100.3</ele>
<time>2003-02-20T08:45:19Z</time>
<speed>0.0</speed>
</trkpt>
<trkpt lat="47.362892" lon="7.810540">
<ele>1100.3</ele>
<time>2003-02-20T08:45:24Z</time>
<speed>0.0</speed>
</trkpt>
<trkpt lat="47.362892" lon="7.810540">
<ele>1100.3</ele>
<time>2003-02-20T08:45:29Z</time>
<speed>0.0</speed>
</trkpt>
<trkpt lat="47.362892" lon="7.810540">
<ele>1100.3</ele>
<time>2003-02-20T08:45:34Z</time>
<speed>0.0</speed>
</trkpt>
<trkpt lat="47.362892" lon="7.810540">
<ele>1100.3</ele>
<time>2003-02-20T08:45:39Z</time>
<speed>0.0</speed>
</trkpt>
<trkpt lat="47.362892" lon="7.810540">
<ele>1100.3</ele>
<time>2003-02-20T08:45:44Z</time>
<speed>0.0</speed>
</trkpt>
<trkpt lat="47.362892" lon="7.810540">
<ele>1100.3</ele>
<time>2003-02-20T08:45:49Z</time>
<speed>0.0</speed>
</trkpt>
<trkpt lat="47.362892" lon="7.810540">
<ele>1100.3</ele>
<time>2003-02-20T08:45:54Z</time>
<speed>0.0</speed>
</trkpt>
<trkpt lat="47.362892" lon="7.810540">
<ele>1100.3</ele>
<time>2003-02-20T08:45:59Z</time>
<speed>0.0</speed>
</trkpt>
<trkpt lat="47.362892" lon="7.810540">
<ele>1100.3</ele>
<time>2003-02-20T08:46:04Z</time>
<speed>0.0</speed>
</trkpt>
<trkpt lat="47.362892" lon="7.810540">
<ele>1100.3</ele>
<time>2003-02-20T08:46:09Z</time>
<speed>0.0</speed>
</trkpt>
<trkpt lat="47.362892" lon="7.810540">
<ele>1100.3</ele>
<time>2003-02-20T08:46:14Z</time>
<speed>0.0</speed>
</trkpt>
<trkpt lat="47.362892" lon="7.810540">
<ele>1100.3</ele>
<time>2003-02-20T08:46:19Z</time>
<speed>0.0</speed>
</trkpt>
<trkpt lat="47.362892" lon="7.810540">
<ele>1100.3</ele>
<time>2003-02-20T08:46:24Z</time>
<speed>0.0</speed>
</trkpt>
<trkpt lat="47.362892" lon="7.810540">
<ele>1100.3</ele>
<time>2003-02-20T08:46:29Z</time>
<speed>0.0</speed>
</trkpt>
<trkpt lat="47.362892" lon="7.810540">
<ele>1100.3</ele>
<time>2003-02-20T08:46:34Z</time>
<speed>0.0</speed>
</trkpt>
<trkpt lat="47.362892" lon="7.810540">
<ele>1100.3</ele>
<time>2003-02-20T08:46:39Z</time>
<speed>0.0</speed>
</trkpt>
<trkpt lat="47.362892" lon="7.810540">
<ele>1100.3</ele>
<time>2003-02-20T08:46:44Z</time>
<speed>0.0</speed>
</trkpt>
<trkpt lat="47.362892" lon="7.810540">
<ele>1100.3</ele>
<time>2003-02-20T08:46:49Z</time>
<speed>0.0</speed>
</trkpt>
<trkpt lat="47.362892" lon="7.810540">
<ele>1100.3</ele>
<time>2003-02-20T08:46:54Z</time>
<speed>0.0</speed>
</trkpt>
<trkpt lat="47.362892" lon="7.810540">
<ele>1100.3</ele>
<time>2003-02-20T08:46:59Z</time>
<speed>0.0</speed>
</trkpt>
<trkpt lat="47.362892" lon="7.810540">
<ele>1100.3</ele>
<time>2003-02-20T08:47:04Z</time>
<speed>0.0</speed>
</trkpt>
<trkpt lat="47.362892" lon="7.810540">
<ele>1100.3</ele>
<time>2003-02-20T08:47:09Z</time>
<speed>0.0</speed>
</trkpt>
<trkpt lat="47.362892" lon="7.810540">
<ele>1100.3</ele>
<time>2003-02-20T08:47:14Z</time>
<speed>0.0</speed>
</trkpt>
<trkpt lat="47.362892" lon="7.810540">
<ele>1100.3</ele>
<time>2003-02-20T08:47:19Z</time>
<speed>0.0</speed>
</trkpt>
<trkpt lat="47.362892" lon="7.810540">
<ele>1100.3</ele>
<time>2003-02-20T08:47:24Z</time>
<speed>0.0</speed>
</trkpt>
<trkpt lat="47.362892" lon="7.810540">
<ele>1100.3</ele>
<time>2003-02-20T08:47:29Z</time>
<speed>0.0</speed>
</trkpt>
<trkpt lat="47.362892" lon="7.810540">
<ele>1100.3</ele>
<time>2003-02-20T08:47:34Z</time>
<speed>0.0</speed>
</trkpt>
<trkpt lat="47.362892" lon="7.810540">
<ele>1100.3</ele>
<time>2003-02-20T08:47:39Z</time>
<speed>0.0</speed>
</trkpt>
<trkpt lat="47.362892" lon="7.810540">
<ele>1100.3</ele>
<time>2003-02-20T08:47:44Z</time>
<speed>0.0</speed>
</trkpt>
<trkpt lat="47.362892" lon="7.810540">
<ele>1100.3</ele>
<time>2003-02-20T08:47:49Z</time>
<speed>0.0</speed>
</trkpt>
<trkpt lat="47.362892" lon="7.810540">
<ele>1100.3</ele>
<time>2003-02-20T08:47:54Z</time>
<speed>0.0</speed>
</trkpt>
<trkpt lat="47.362892" lon="7.810540">
<ele>1100.3</ele>
<time>2003-02-20T08:47:59Z</time>
<speed>0.0</speed>
</trkpt>
<trkpt lat="47.362892" lon="7.810540">
<ele>1100.3</ele>
<time>2003-02-20T08:48:04Z</time>
<speed>0.0</speed>
</trkpt>
<trkpt lat="47.362892" lon="7.810540">
<ele>1100.3</ele>
<time>2003-02-20T08:48:09Z</time>
<speed>0.0</speed>
</trkpt>
<trkpt lat="47.362892" lon="7.810540">
<ele>1100.3</ele>
<time>2003-02-20T08:48:14Z</time>
<speed>0.0</speed>
</trkpt>
<trkpt lat="47.362892" lon="7.810540">
<ele>1100.3</ele>
<time>2003-02-20T08:48:19Z</time>
<speed>0.0</speed>
</trkpt>
<trkpt lat="47.362892" lon="7.810540">
<ele>1100.3</ele>
<time>2003-02-20T08:48:24Z</time>
<speed>0.0</speed>
</trkpt>
<trkpt lat="47.362892" lon="7.810540">
<ele>1100.3</ele>
<time>2003-02-20T08:48:29Z</time>
<speed>0.0</speed>
</trkpt>
<trkpt lat="47.362892" lon="7.810540">
<ele>1100.3</ele>
<time>2003-02-20T08:48:34Z</time>
<speed>0.0</speed>
</trkpt>
<trkpt lat="47.362892" lon="7.810540">
<ele>1100.3</ele>
<time>2003-02-20T08:48:39Z</time>
<speed>0.0</speed>
</trkpt>
<trkpt lat="47.362892" lon="7.810540">
<ele>1100.3</ele>
<time>2003-02-20T08:48:44Z</time>
<speed>0.0</speed>
</trkpt>
<trkpt lat="47.362892" lon="7.810540">
<ele>1100.3</ele>
<time>2003-02-20T08:48:49Z</time>
<speed>0.0</speed>
</trkpt>
<trkpt lat="47.362892" lon="7.810540">
<ele>1100.3</ele>
<time>2003-02-20T08:48:54Z</time>
<speed>0.0</speed>
</trkpt>
<trkpt lat="47.362892" lon="7.810540">
<ele>1100.3</ele>
<time>2003-02-20T08:48:59Z</time>
<speed>0.0</speed>
</trkpt>
<trkpt lat="47.362892" lon="7.810540">
<ele>1100.3</ele>
<time>2003-02-20T08:49:04Z</time>
<speed>0.0</speed>
</trkpt>
<trkpt lat="47.362892" lon="7.810540">
<ele>1100.3</ele>
<time>2003-02-20T08:49:09Z</time>
<speed>0.0</speed>
</trkpt>
<trkpt lat="47.362892" lon="7.810540">
<ele>1100.3</ele>
<time>2003-02-20T08:49:14Z</time>
<speed>0.0</speed>
</trkpt>
<trkpt lat="47.362892" lon="7.810540">
<ele>1100.3</ele>
<time>2003-02-20T08:49:19Z</time>
<speed>0.0</speed>
</trkpt>
<trkpt lat="47.362892" lon="7.810540">
<ele>1100.3</ele>
<time>2003-02-20T08:49:24Z</time>
<speed>0.0</speed>
</trkpt>
<trkpt lat="47.362892" lon="7.810540">
<ele>1100.3</ele>
<time>2003-02-20T08:49:29Z</time>
<speed>0.0</speed>
</trkpt>
<trkpt lat="47.362892" lon="7.810540">
<ele>1100.3</ele>
<time>2003-02-20T08:49:34Z</time>
<speed>0.0</speed>
</trkpt>
<trkpt lat="47.362892" lon="7.810540">
<ele>1100.3</ele>
<time>2003-02-20T08:49:39Z</time>
<speed>0.0</speed>
</trkpt>
<trkpt lat="47.362892" lon="7.810540">
<ele>1100.3</ele>
<time>2003-02-20T08:49:44Z</time>
<speed>0.0</speed>
</trkpt>
<trkpt lat="47.362892" lon="7.810540">
<ele>1100.3</ele>
<time>2003-02-20T08:49:49Z</time>
<speed>0.0</speed>
</trkpt>
<trkpt lat="47.362892" lon="7.810540">
<ele>1100.3</ele>
<time>2003-02-20T08:49:54Z</time>
<speed>0.0</speed>
</trkpt>
<trkpt lat="47.362892" lon="7.810540">
<ele>1100.3</ele>
<time>2003-02-20T08:49:59Z</time>
<speed>0.0</speed>
</trkpt>
<trkpt lat="47.362892" lon="7.810540">
<ele>1100.3</ele>
<time>2003-02-20T08:50:04Z</time>
<speed>0.2</speed>
</trkpt>
<trkpt lat="47.362891" lon="7.810553">
<ele>1100.4</ele>
<time>2003-02-20T08:50:09Z</time>
<speed>0.1</speed>
</trkpt>
<trkpt lat="47.362897" lon="7.810555">
<ele>1099.7</ele>
<time>2003-02-20T08:50:14Z</time>
<speed>0.1</speed>
</trkpt>
<trkpt lat="47.362903" lon="7.810555">
<ele>1100.5</ele>
<time>2003-02-20T08:50:19Z</time>
<speed>0.0</speed>
</trkpt>
<trkpt lat="47.362903" lon="7.810555">
<ele>1100.5</ele>
<time>2003-02-20T08:50:24Z</time>
<speed>0.0</speed>
</trkpt>
<trkpt lat="47.362903" lon="7.810555">
<ele>1100.5</ele>
<time>2003-02-20T08:50:29Z</time>
<speed>0.0</speed>
</trkpt>
<trkpt lat="47.362903" lon="7.810555">
<ele>1100.5</ele>
<time>2003-02-20T08:50:34Z</time>
<speed>0.0</speed>
</trkpt>
<trkpt lat="47.362903" lon="7.810555">
<ele>1100.5</ele>
<time>2003-02-20T08:50:39Z</time>
<speed>0.0</speed>
</trkpt>
<trkpt lat="47.362903" lon="7.810555">
<ele>1100.5</ele>
<time>2003-02-20T08:50:44Z</time>
<speed>0.0</speed>
</trkpt>
<trkpt lat="47.362903" lon="7.810555">
<ele>1100.5</ele>
<time>2003-02-20T08:50:49Z</time>
<speed>0.2</speed>
</trkpt>
<trkpt lat="47.362910" lon="7.810557">
<ele>1099.8</ele>
<time>2003-02-20T08:50:54Z</time>
<speed>0.0</speed>
</trkpt>
<trkpt lat="47.362910" lon="7.810557">
<ele>1099.8</ele>
<time>2003-02-20T08:50:59Z</time>
<speed>0.0</speed>
</trkpt>
<trkpt lat="47.362910" lon="7.810557">
<ele>1099.8</ele>
<time>2003-02-20T08:51:04Z</time>
<speed>0.0</speed>
</trkpt>
<trkpt lat="47.362910" lon="7.810557">
<ele>1099.8</ele>
<time>2003-02-20T08:51:09Z</time>
<speed>0.0</speed>
</trkpt>
<trkpt lat="47.362910" lon="7.810557">
<ele>1099.8</ele>
<time>2003-02-20T08:51:14Z</time>
<speed>0.0</speed>
</trkpt>
<trkpt lat="47.362910" lon="7.810557">
<ele>1099.8</ele>
<time>2003-02-20T08:51:19Z</time>
<speed>0.0</speed>
</trkpt>
<trkpt lat="47.362910" lon="7.810557">
<ele>1099.8</ele>
<time>2003-02-20T08:51:24Z</time>
<speed>0.0</speed>
</trkpt>
<trkpt lat="47.362910" lon="7.810557">
<ele>1099.8</ele>
<time>2003-02-20T08:51:29Z</time>
<speed>0.2</speed>
</trkpt>
<trkpt lat="47.362903" lon="7.810555">
<ele>1100.5</ele>
<time>2003-02-20T08:51:34Z</time>
<speed>0.1</speed>
</trkpt>
<trkpt lat="47.362897" lon="7.810555">
<ele>1099.7</ele>
<time>2003-02-20T08:51:39Z</time>
<speed>0.4</speed>
</trkpt>
<trkpt lat="47.362899" lon="7.810529">
<ele>1099.6</ele>
<time>2003-02-20T08:51:44Z</time>
<speed>0.6</speed>
</trkpt>
<trkpt lat="47.362902" lon="7.810490">
<ele>1099.3</ele>
<time>2003-02-20T08:51:49Z</time>
<speed>0.3</speed>
</trkpt>
<trkpt lat="47.362896" lon="7.810475">
<ele>1099.9</ele>
<time>2003-02-20T08:51:54Z</time>
<speed>0.0</speed>
</trkpt>
<trkpt lat="47.362896" lon="7.810475">
<ele>1099.9</ele>
<time>2003-02-20T08:51:59Z</time>
<speed>0.0</speed>
</trkpt>
<trkpt lat="47.362896" lon="7.810475">
<ele>1099.9</ele>
<time>2003-02-20T08:52:04Z</time>
<speed>0.0</speed>
</trkpt>
<trkpt lat="47.362896" lon="7.810475">
<ele>1099.9</ele>
<time>2003-02-20T08:52:09Z</time>
<speed>0.1</speed>
</trkpt>
<trkpt lat="47.362902" lon="7.810475">
<ele>1100.6</ele>
<time>2003-02-20T08:52:14Z</time>
<speed>0.0</speed>
</trkpt>
<trkpt lat="47.362902" lon="7.810475">
<ele>1100.6</ele>
<time>2003-02-20T08:52:19Z</time>
<speed>0.0</speed>
</trkpt>
<trkpt lat="47.362902" lon="7.810475">
<ele>1100.6</ele>
<time>2003-02-20T08:52:24Z</time>
<speed>0.0</speed>
</trkpt>
<trkpt lat="47.362902" lon="7.810475">
<ele>1100.6</ele>
<time>2003-02-20T08:52:29Z</time>
<speed>0.0</speed>
</trkpt>
<trkpt lat="47.362902" lon="7.810475">
<ele>1100.6</ele>
<time>2003-02-20T08:52:34Z</time>
<speed>0.0</speed>
</trkpt>
<trkpt lat="47.362902" lon="7.810475">
<ele>1100.6</ele>
<time>2003-02-20T08:52:39Z</time>
<speed>0.0</speed>
</trkpt>
<trkpt lat="47.362902" lon="7.810475">
<ele>1100.6</ele>
<time>2003-02-20T08:52:44Z</time>
<speed>0.0</speed>
</trkpt>
<trkpt lat="47.362902" lon="7.810475">
<ele>1100.6</ele>
<time>2003-02-20T08:52:49Z</time>
<speed>0.2</speed>
</trkpt>
<trkpt lat="47.362909" lon="7.810476">
<ele>1099.9</ele>
<time>2003-02-20T08:52:54Z</time>
<speed>0.0</speed>
</trkpt>
<trkpt lat="47.362909" lon="7.810476">
<ele>1099.9</ele>
<time>2003-02-20T08:52:59Z</time>
<speed>0.0</speed>
</trkpt>
<trkpt lat="47.362909" lon="7.810476">
<ele>1099.9</ele>
<time>2003-02-20T08:53:04Z</time>
<speed>0.0</speed>
</trkpt>
<trkpt lat="47.362909" lon="7.810476">
<ele>1099.9</ele>
<time>2003-02-20T08:53:09Z</time>
<speed>0.0</speed>
</trkpt>
<trkpt lat="47.362909" lon="7.810476">
<ele>1099.9</ele>
<time>2003-02-20T08:53:14Z</time>
<speed>0.0</speed>
</trkpt>
<trkpt lat="47.362909" lon="7.810476">
<ele>1099.9</ele>
<time>2003-02-20T08:53:19Z</time>
<speed>0.0</speed>
</trkpt>
<trkpt lat="47.362909" lon="7.810476">
<ele>1099.9</ele>
<time>2003-02-20T08:53:24Z</time>
<speed>0.0</speed>
</trkpt>
<trkpt lat="47.362909" lon="7.810476">
<ele>1099.9</ele>
<time>2003-02-20T08:53:29Z</time>
<speed>0.2</speed>
</trkpt>
<trkpt lat="47.362910" lon="7.810463">
<ele>1099.8</ele>
<time>2003-02-20T08:53:34Z</time>
<speed>0.0</speed>
</trkpt>
<trkpt lat="47.362910" lon="7.810463">
<ele>1099.8</ele>
<time>2003-02-20T08:53:39Z</time>
<speed>0.0</speed>
</trkpt>
<trkpt lat="47.362910" lon="7.810463">
<ele>1099.8</ele>
<time>2003-02-20T08:53:44Z</time>
<speed>0.0</speed>
</trkpt>
<trkpt lat="47.362910" lon="7.810463">
<ele>1099.8</ele>
<time>2003-02-20T08:53:49Z</time>
<speed>0.0</speed>
</trkpt>
<trkpt lat="47.362910" lon="7.810463">
<ele>1099.8</ele>
<time>2003-02-20T08:53:54Z</time>
<speed>0.0</speed>
</trkpt>
<trkpt lat="47.362910" lon="7.810463">
<ele>1099.8</ele>
<time>2003-02-20T08:53:59Z</time>
<speed>0.0</speed>
</trkpt>
<trkpt lat="47.362910" lon="7.810463">
<ele>1099.8</ele>
<time>2003-02-20T08:54:04Z</time>
<speed>0.0</speed>
</trkpt>
<trkpt lat="47.362910" lon="7.810463">
<ele>1099.8</ele>
<time>2003-02-20T08:54:09Z</time>
<speed>0.0</speed>
</trkpt>
<trkpt lat="47.362910" lon="7.810465">
<ele>1098.4</ele>
<time>2003-02-20T08:54:14Z</time>
<speed>0.2</speed>
</trkpt>
<trkpt lat="47.362911" lon="7.810452">
<ele>1098.3</ele>
<time>2003-02-20T08:54:19Z</time>
<speed>0.0</speed>
</trkpt>
<trkpt lat="47.362911" lon="7.810452">
<ele>1098.3</ele>
<time>2003-02-20T08:54:24Z</time>
<speed>0.0</speed>
</trkpt>
<trkpt lat="47.362911" lon="7.810452">
<ele>1098.3</ele>
<time>2003-02-20T08:54:29Z</time>
<speed>0.0</speed>
</trkpt>
<trkpt lat="47.362911" lon="7.810452">
<ele>1098.3</ele>
<time>2003-02-20T08:54:34Z</time>
<speed>0.0</speed>
</trkpt>
<trkpt lat="47.362911" lon="7.810452">
<ele>1098.3</ele>
<time>2003-02-20T08:54:39Z</time>
<speed>0.1</speed>
</trkpt>
<trkpt lat="47.362905" lon="7.810452">
<ele>1097.6</ele>
<time>2003-02-20T08:54:44Z</time>
<speed>0.0</speed>
</trkpt>
<trkpt lat="47.362905" lon="7.810452">
<ele>1097.6</ele>
<time>2003-02-20T08:54:49Z</time>
<speed>0.2</speed>
</trkpt>
<trkpt lat="47.362904" lon="7.810465">
<ele>1097.7</ele>
<time>2003-02-20T08:54:54Z</time>
<speed>0.0</speed>
</trkpt>
<trkpt lat="47.362904" lon="7.810465">
<ele>1097.7</ele>
<time>2003-02-20T08:54:59Z</time>
<speed>0.2</speed>
</trkpt>
<trkpt lat="47.362903" lon="7.810478">
<ele>1097.8</ele>
<time>2003-02-20T08:55:04Z</time>
<speed>0.5</speed>
</trkpt>
<trkpt lat="47.362889" lon="7.810503">
<ele>1097.9</ele>
<time>2003-02-20T08:55:09Z</time>
<speed>0.2</speed>
</trkpt>
<trkpt lat="47.362890" lon="7.810490">
<ele>1097.8</ele>
<time>2003-02-20T08:55:14Z</time>
<speed>0.4</speed>
</trkpt>
<trkpt lat="47.362891" lon="7.810463">
<ele>1097.6</ele>
<time>2003-02-20T08:55:19Z</time>
<speed>0.5</speed>
</trkpt>
<trkpt lat="47.362881" lon="7.810435">
<ele>1097.4</ele>
<time>2003-02-20T08:55:24Z</time>
<speed>0.4</speed>
</trkpt>
<trkpt lat="47.362876" lon="7.810409">
<ele>1096.5</ele>
<time>2003-02-20T08:55:29Z</time>
<speed>0.4</speed>
</trkpt>
<trkpt lat="47.362872" lon="7.810381">
<ele>1096.9</ele>
<time>2003-02-20T08:55:34Z</time>
<speed>0.5</speed>
</trkpt>
<trkpt lat="47.362861" lon="7.810353">
<ele>1096.7</ele>
<time>2003-02-20T08:55:39Z</time>
<speed>0.3</speed>
</trkpt>
<trkpt lat="47.362849" lon="7.810338">
<ele>1096.5</ele>
<time>2003-02-20T08:55:44Z</time>
<speed>0.4</speed>
</trkpt>
<trkpt lat="47.362844" lon="7.810310">
<ele>1097.0</ele>
<time>2003-02-20T08:55:49Z</time>
<speed>0.2</speed>
</trkpt>
<trkpt lat="47.362845" lon="7.810297">
<ele>1096.9</ele>
<time>2003-02-20T08:55:54Z</time>
<speed>0.5</speed>
</trkpt>
<trkpt lat="47.362834" lon="7.810269">
<ele>1096.7</ele>
<time>2003-02-20T08:55:59Z</time>
<speed>0.5</speed>
</trkpt>
<trkpt lat="47.362823" lon="7.810241">
<ele>1096.4</ele>
<time>2003-02-20T08:56:04Z</time>
<speed>0.7</speed>
</trkpt>
<trkpt lat="47.362807" lon="7.810198">
<ele>1096.8</ele>
<time>2003-02-20T08:56:09Z</time>
<speed>0.8</speed>
</trkpt>
<trkpt lat="47.362784" lon="7.810155">
<ele>1096.4</ele>
<time>2003-02-20T08:56:14Z</time>
<speed>0.6</speed>
</trkpt>
<trkpt lat="47.362787" lon="7.810118">
<ele>1094.7</ele>
<time>2003-02-20T08:56:19Z</time>
<speed>0.7</speed>
</trkpt>
<trkpt lat="47.362777" lon="7.810076">
<ele>1094.3</ele>
<time>2003-02-20T08:56:24Z</time>
<speed>0.4</speed>
</trkpt>
<trkpt lat="47.362773" lon="7.810050">
<ele>1093.4</ele>
<time>2003-02-20T08:56:29Z</time>
<speed>0.7</speed>
</trkpt>
<trkpt lat="47.362763" lon="7.810009">
<ele>1093.1</ele>
<time>2003-02-20T08:56:34Z</time>
<speed>0.8</speed>
</trkpt>
<trkpt lat="47.362734" lon="7.809979">
<ele>1092.0</ele>
<time>2003-02-20T08:56:39Z</time>
<speed>0.5</speed>
</trkpt>
<trkpt lat="47.362723" lon="7.809951">
<ele>1091.8</ele>
<time>2003-02-20T08:56:44Z</time>
<speed>0.3</speed>
</trkpt>
<trkpt lat="47.362711" lon="7.809936">
<ele>1091.6</ele>
<time>2003-02-20T08:56:49Z</time>
<speed>0.7</speed>
</trkpt>
<trkpt lat="47.362695" lon="7.809893">
<ele>1092.0</ele>
<time>2003-02-20T08:56:54Z</time>
<speed>0.8</speed>
</trkpt>
<trkpt lat="47.362672" lon="7.809850">
<ele>1091.5</ele>
<time>2003-02-20T08:56:59Z</time>
<speed>0.8</speed>
</trkpt>
<trkpt lat="47.362649" lon="7.809806">
<ele>1092.5</ele>
<time>2003-02-20T08:57:04Z</time>
<speed>0.6</speed>
</trkpt>
<trkpt lat="47.362625" lon="7.809789">
<ele>1092.3</ele>
<time>2003-02-20T08:57:09Z</time>
<speed>0.7</speed>
</trkpt>
<trkpt lat="47.362593" lon="7.809800">
<ele>1090.1</ele>
<time>2003-02-20T08:57:14Z</time>
<speed>0.7</speed>
</trkpt>
<trkpt lat="47.362561" lon="7.809812">
<ele>1088.0</ele>
<time>2003-02-20T08:57:19Z</time>
<speed>0.6</speed>
</trkpt>
<trkpt lat="47.362536" lon="7.809825">
<ele>1085.1</ele>
<time>2003-02-20T08:57:24Z</time>
<speed>0.8</speed>
</trkpt>
<trkpt lat="47.362515" lon="7.809864">
<ele>1083.2</ele>
<time>2003-02-20T08:57:29Z</time>
<speed>0.3</speed>
</trkpt>
<trkpt lat="47.362503" lon="7.809849">
<ele>1083.0</ele>
<time>2003-02-20T08:57:34Z</time>
<speed>0.4</speed>
</trkpt>
<trkpt lat="47.362505" lon="7.809823">
<ele>1082.8</ele>
<time>2003-02-20T08:57:39Z</time>
<speed>0.8</speed>
</trkpt>
<trkpt lat="47.362502" lon="7.809770">
<ele>1081.7</ele>
<time>2003-02-20T08:57:44Z</time>
<speed>0.8</speed>
</trkpt>
<trkpt lat="47.362493" lon="7.809716">
<ele>1081.3</ele>
<time>2003-02-20T08:57:49Z</time>
<speed>0.3</speed>
</trkpt>
<trkpt lat="47.362487" lon="7.809701">
<ele>1081.9</ele>
<time>2003-02-20T08:57:54Z</time>
<speed>0.2</speed>
</trkpt>
<trkpt lat="47.362482" lon="7.809688">
<ele>1081.1</ele>
<time>2003-02-20T08:57:59Z</time>
<speed>0.1</speed>
</trkpt>
<trkpt lat="47.362476" lon="7.809686">
<ele>1081.7</ele>
<time>2003-02-20T08:58:04Z</time>
<speed>0.2</speed>
</trkpt>
<trkpt lat="47.362471" lon="7.809673">
<ele>1080.9</ele>
<time>2003-02-20T08:58:09Z</time>
<speed>0.7</speed>
</trkpt>
<trkpt lat="47.362456" lon="7.809713">
<ele>1079.7</ele>
<time>2003-02-20T08:58:14Z</time>
<speed>0.9</speed>
</trkpt>
<trkpt lat="47.362440" lon="7.809765">
<ele>1078.6</ele>
<time>2003-02-20T08:58:19Z</time>
<speed>0.3</speed>
</trkpt>
<trkpt lat="47.362428" lon="7.809750">
<ele>1078.4</ele>
<time>2003-02-20T08:58:24Z</time>
<speed>0.8</speed>
</trkpt>
<trkpt lat="47.362405" lon="7.809705">
<ele>1079.4</ele>
<time>2003-02-20T08:58:29Z</time>
<speed>0.8</speed>
</trkpt>
<trkpt lat="47.362396" lon="7.809651">
<ele>1079.0</ele>
<time>2003-02-20T08:58:34Z</time>
<speed>0.4</speed>
</trkpt>
<trkpt lat="47.362398" lon="7.809625">
<ele>1078.8</ele>
<time>2003-02-20T08:58:39Z</time>
<speed>0.5</speed>
</trkpt>
<trkpt lat="47.362387" lon="7.809597">
<ele>1078.6</ele>
<time>2003-02-20T08:58:44Z</time>
<speed>0.5</speed>
</trkpt>
<trkpt lat="47.362376" lon="7.809569">
<ele>1078.3</ele>
<time>2003-02-20T08:58:49Z</time>
<speed>0.8</speed>
</trkpt>
<trkpt lat="47.362347" lon="7.809539">
<ele>1077.3</ele>
<time>2003-02-20T08:58:54Z</time>
<speed>0.2</speed>
</trkpt>
<trkpt lat="47.362341" lon="7.809526">
<ele>1076.5</ele>
<time>2003-02-20T08:58:59Z</time>
<speed>0.6</speed>
</trkpt>
<trkpt lat="47.362324" lon="7.809498">
<ele>1075.5</ele>
<time>2003-02-20T08:59:04Z</time>
<speed>0.6</speed>
</trkpt>
<trkpt lat="47.362327" lon="7.809459">
<ele>1075.2</ele>
<time>2003-02-20T08:59:09Z</time>
<speed>0.8</speed>
</trkpt>
<trkpt lat="47.362297" lon="7.809427">
<ele>1075.6</ele>
<time>2003-02-20T08:59:14Z</time>
<speed>0.4</speed>
</trkpt>
<trkpt lat="47.362299" lon="7.809401">
<ele>1075.4</ele>
<time>2003-02-20T08:59:19Z</time>
<speed>0.2</speed>
</trkpt>
<trkpt lat="47.362299" lon="7.809386">
<ele>1076.7</ele>
<time>2003-02-20T08:59:24Z</time>
<speed>0.2</speed>
</trkpt>
<trkpt lat="47.362298" lon="7.809399">
<ele>1076.8</ele>
<time>2003-02-20T08:59:29Z</time>
<speed>0.0</speed>
</trkpt>
<trkpt lat="47.362298" lon="7.809399">
<ele>1076.8</ele>
<time>2003-02-20T08:59:34Z</time>
<speed>0.0</speed>
</trkpt>
<trkpt lat="47.362298" lon="7.809399">
<ele>1076.8</ele>
<time>2003-02-20T08:59:39Z</time>
<speed>0.0</speed>
</trkpt>
<trkpt lat="47.362298" lon="7.809399">
<ele>1076.8</ele>
<time>2003-02-20T08:59:44Z</time>
<speed>0.2</speed>
</trkpt>
<trkpt lat="47.362298" lon="7.809412">
<ele>1076.9</ele>
<time>2003-02-20T08:59:49Z</time>
<speed>0.3</speed>
</trkpt>
<trkpt lat="47.362285" lon="7.809410">
<ele>1076.8</ele>
<time>2003-02-20T08:59:54Z</time>
<speed>0.1</speed>
</trkpt>
<trkpt lat="47.362279" lon="7.809410">
<ele>1076.1</ele>
<time>2003-02-20T08:59:59Z</time>
<speed>0.2</speed>
</trkpt>
<trkpt lat="47.362278" lon="7.809423">
<ele>1076.2</ele>
<time>2003-02-20T09:00:04Z</time>
<speed>0.2</speed>
</trkpt>
<trkpt lat="47.362285" lon="7.809412">
<ele>1075.4</ele>
<time>2003-02-20T09:00:09Z</time>
<speed>0.3</speed>
</trkpt>
<trkpt lat="47.362299" lon="7.809403">
<ele>1074.0</ele>
<time>2003-02-20T09:00:14Z</time>
<speed>0.7</speed>
</trkpt>
<trkpt lat="47.362331" lon="7.809406">
<ele>1074.8</ele>
<time>2003-02-20T09:00:19Z</time>
<speed>0.7</speed>
</trkpt>
<trkpt lat="47.362358" lon="7.809384">
<ele>1074.8</ele>
<time>2003-02-20T09:00:24Z</time>
<speed>0.6</speed>
</trkpt>
<trkpt lat="47.362379" lon="7.809361">
<ele>1074.0</ele>
<time>2003-02-20T09:00:29Z</time>
<speed>0.6</speed>
</trkpt>
<trkpt lat="47.362388" lon="7.809323">
<ele>1073.0</ele>
<time>2003-02-20T09:00:34Z</time>
<speed>0.6</speed>
</trkpt>
<trkpt lat="47.362397" lon="7.809286">
<ele>1072.1</ele>
<time>2003-02-20T09:00:39Z</time>
<speed>1.2</speed>
</trkpt>
<trkpt lat="47.362362" lon="7.809226">
<ele>1072.9</ele>
<time>2003-02-20T09:00:44Z</time>
<speed>1.3</speed>
</trkpt>
<trkpt lat="47.362307" lon="7.809206">
<ele>1071.8</ele>
<time>2003-02-20T09:00:49Z</time>
<speed>1.6</speed>
</trkpt>
<trkpt lat="47.362239" lon="7.809169">
<ele>1072.0</ele>
<time>2003-02-20T09:00:54Z</time>
<speed>1.0</speed>
</trkpt>
<trkpt lat="47.362209" lon="7.809122">
<ele>1073.7</ele>
<time>2003-02-20T09:00:59Z</time>
<speed>0.4</speed>
</trkpt>
<trkpt lat="47.362214" lon="7.809150">
<ele>1073.2</ele>
<time>2003-02-20T09:01:04Z</time>
<speed>0.1</speed>
</trkpt>
<trkpt lat="47.362220" lon="7.809150">
<ele>1073.9</ele>
<time>2003-02-20T09:01:09Z</time>
<speed>0.6</speed>
</trkpt>
<trkpt lat="47.362195" lon="7.809147">
<ele>1073.8</ele>
<time>2003-02-20T09:01:14Z</time>
<speed>1.5</speed>
</trkpt>
<trkpt lat="47.362148" lon="7.809072">
<ele>1074.5</ele>
<time>2003-02-20T09:01:19Z</time>
<speed>2.1</speed>
</trkpt>
<trkpt lat="47.362084" lon="7.808968">
<ele>1075.6</ele>
<time>2003-02-20T09:01:24Z</time>
<speed>2.0</speed>
</trkpt>
<trkpt lat="47.362019" lon="7.808877">
<ele>1076.8</ele>
<time>2003-02-20T09:01:29Z</time>
<speed>1.6</speed>
</trkpt>
<trkpt lat="47.361959" lon="7.808813">
<ele>1077.5</ele>
<time>2003-02-20T09:01:34Z</time>
<speed>1.0</speed>
</trkpt>
<trkpt lat="47.361917" lon="7.808782">
<ele>1076.4</ele>
<time>2003-02-20T09:01:39Z</time>
<speed>0.8</speed>
</trkpt>
<trkpt lat="47.361887" lon="7.808750">
<ele>1076.8</ele>
<time>2003-02-20T09:01:44Z</time>
<speed>1.6</speed>
</trkpt>
<trkpt lat="47.361826" lon="7.808700">
<ele>1077.6</ele>
<time>2003-02-20T09:01:49Z</time>
<speed>1.5</speed>
</trkpt>
<trkpt lat="47.361758" lon="7.808678">
<ele>1076.4</ele>
<time>2003-02-20T09:01:54Z</time>
<speed>1.2</speed>
</trkpt>
<trkpt lat="47.361716" lon="7.808631">
<ele>1076.6</ele>
<time>2003-02-20T09:01:59Z</time>
<speed>1.6</speed>
</trkpt>
<trkpt lat="47.361677" lon="7.808545">
<ele>1076.6</ele>
<time>2003-02-20T09:02:04Z</time>
<speed>1.3</speed>
</trkpt>
<trkpt lat="47.361643" lon="7.808473">
<ele>1077.3</ele>
<time>2003-02-20T09:02:09Z</time>
<speed>1.2</speed>
</trkpt>
<trkpt lat="47.361615" lon="7.808402">
<ele>1077.4</ele>
<time>2003-02-20T09:02:14Z</time>
<speed>1.4</speed>
</trkpt>
<trkpt lat="47.361589" lon="7.808318">
<ele>1077.4</ele>
<time>2003-02-20T09:02:19Z</time>
<speed>0.7</speed>
</trkpt>
<trkpt lat="47.361565" lon="7.808288">
<ele>1077.1</ele>
<time>2003-02-20T09:02:24Z</time>
<speed>0.5</speed>
</trkpt>
<trkpt lat="47.361555" lon="7.808262">
<ele>1075.4</ele>
<time>2003-02-20T09:02:29Z</time>
<speed>0.0</speed>
</trkpt>
<trkpt lat="47.361555" lon="7.808262">
<ele>1075.4</ele>
<time>2003-02-20T09:02:34Z</time>
<speed>0.3</speed>
</trkpt>
<trkpt lat="47.361548" lon="7.808275">
<ele>1074.8</ele>
<time>2003-02-20T09:02:39Z</time>
<speed>0.6</speed>
</trkpt>
<trkpt lat="47.361522" lon="7.808286">
<ele>1073.3</ele>
<time>2003-02-20T09:02:44Z</time>
<speed>2.2</speed>
</trkpt>
<trkpt lat="47.361466" lon="7.808408">
<ele>1065.4</ele>
<time>2003-02-20T09:02:49Z</time>
<speed>1.3</speed>
</trkpt>
<trkpt lat="47.361475" lon="7.808493">
<ele>1061.8</ele>
<time>2003-02-20T09:02:54Z</time>
<speed>1.3</speed>
</trkpt>
<trkpt lat="47.361488" lon="7.808574">
<ele>1063.2</ele>
<time>2003-02-20T09:02:59Z</time>
<speed>1.2</speed>
</trkpt>
<trkpt lat="47.361490" lon="7.808654">
<ele>1063.1</ele>
<time>2003-02-20T09:03:04Z</time>
<speed>1.4</speed>
</trkpt>
<trkpt lat="47.361519" lon="7.808734">
<ele>1056.0</ele>
<time>2003-02-20T09:03:09Z</time>
<speed>1.6</speed>
</trkpt>
<trkpt lat="47.361567" lon="7.808814">
<ele>1051.1</ele>
<time>2003-02-20T09:03:14Z</time>
<speed>1.1</speed>
</trkpt>
<trkpt lat="47.361596" lon="7.808874">
<ele>1049.5</ele>
<time>2003-02-20T09:03:19Z</time>
<speed>1.7</speed>
</trkpt>
<trkpt lat="47.361655" lon="7.808950">
<ele>1048.9</ele>
<time>2003-02-20T09:03:24Z</time>
<speed>1.8</speed>
</trkpt>
<trkpt lat="47.361707" lon="7.809038">
<ele>1049.0</ele>
<time>2003-02-20T09:03:29Z</time>
<speed>1.3</speed>
</trkpt>
<trkpt lat="47.361748" lon="7.809098">
<ele>1048.9</ele>
<time>2003-02-20T09:03:34Z</time>
<speed>1.0</speed>
</trkpt>
<trkpt lat="47.361783" lon="7.809142">
<ele>1049.4</ele>
<time>2003-02-20T09:03:39Z</time>
<speed>1.5</speed>
</trkpt>
<trkpt lat="47.361837" lon="7.809204">
<ele>1049.3</ele>
<time>2003-02-20T09:03:44Z</time>
<speed>1.6</speed>
</trkpt>
<trkpt lat="47.361889" lon="7.809277">
<ele>1050.8</ele>
<time>2003-02-20T09:03:49Z</time>
<speed>1.5</speed>
</trkpt>
<trkpt lat="47.361935" lon="7.809351">
<ele>1050.1</ele>
<time>2003-02-20T09:03:54Z</time>
<speed>1.2</speed>
</trkpt>
<trkpt lat="47.361970" lon="7.809411">
<ele>1049.2</ele>
<time>2003-02-20T09:03:59Z</time>
<speed>1.1</speed>
</trkpt>
<trkpt lat="47.361998" lon="7.809469">
<ele>1049.1</ele>
<time>2003-02-20T09:04:04Z</time>
<speed>1.2</speed>
</trkpt>
<trkpt lat="47.362020" lon="7.809541">
<ele>1046.8</ele>
<time>2003-02-20T09:04:09Z</time>
<speed>1.2</speed>
</trkpt>
<trkpt lat="47.362041" lon="7.809612">
<ele>1046.0</ele>
<time>2003-02-20T09:04:14Z</time>
<speed>1.0</speed>
</trkpt>
<trkpt lat="47.362049" lon="7.809680">
<ele>1046.5</ele>
<time>2003-02-20T09:04:19Z</time>
<speed>1.3</speed>
</trkpt>
<trkpt lat="47.362039" lon="7.809762">
<ele>1043.5</ele>
<time>2003-02-20T09:04:24Z</time>
<speed>1.2</speed>
</trkpt>
<trkpt lat="47.362040" lon="7.809844">
<ele>1042.0</ele>
<time>2003-02-20T09:04:29Z</time>
<speed>1.5</speed>
</trkpt>
<trkpt lat="47.362053" lon="7.809940">
<ele>1042.1</ele>
<time>2003-02-20T09:04:34Z</time>
<speed>1.4</speed>
</trkpt>
<trkpt lat="47.362041" lon="7.810031">
<ele>1042.0</ele>
<time>2003-02-20T09:04:39Z</time>
<speed>1.5</speed>
</trkpt>
<trkpt lat="47.362048" lon="7.810127">
<ele>1041.3</ele>
<time>2003-02-20T09:04:44Z</time>
<speed>1.2</speed>
</trkpt>
<trkpt lat="47.362055" lon="7.810207">
<ele>1041.9</ele>
<time>2003-02-20T09:04:49Z</time>
<speed>1.3</speed>
</trkpt>
<trkpt lat="47.362068" lon="7.810288">
<ele>1043.2</ele>
<time>2003-02-20T09:04:54Z</time>
<speed>1.1</speed>
</trkpt>
<trkpt lat="47.362083" lon="7.810357">
<ele>1043.1</ele>
<time>2003-02-20T09:04:59Z</time>
<speed>1.2</speed>
</trkpt>
<trkpt lat="47.362084" lon="7.810437">
<ele>1043.0</ele>
<time>2003-02-20T09:05:04Z</time>
<speed>1.1</speed>
</trkpt>
<trkpt lat="47.362093" lon="7.810507">
<ele>1042.1</ele>
<time>2003-02-20T09:05:09Z</time>
<speed>1.4</speed>
</trkpt>
<trkpt lat="47.362100" lon="7.810602">
<ele>1041.4</ele>
<time>2003-02-20T09:05:14Z</time>
<speed>0.8</speed>
</trkpt>
<trkpt lat="47.362109" lon="7.810656">
<ele>1041.8</ele>
<time>2003-02-20T09:05:19Z</time>
<speed>1.7</speed>
</trkpt>
<trkpt lat="47.362097" lon="7.810767">
<ele>1037.6</ele>
<time>2003-02-20T09:05:24Z</time>
<speed>1.5</speed>
</trkpt>
<trkpt lat="47.362116" lon="7.810864">
<ele>1037.0</ele>
<time>2003-02-20T09:05:29Z</time>
<speed>1.1</speed>
</trkpt>
<trkpt lat="47.362131" lon="7.810933">
<ele>1036.8</ele>
<time>2003-02-20T09:05:34Z</time>
<speed>1.2</speed>
</trkpt>
<trkpt lat="47.362132" lon="7.811013">
<ele>1036.7</ele>
<time>2003-02-20T09:05:39Z</time>
<speed>1.6</speed>
</trkpt>
<trkpt lat="47.362138" lon="7.811122">
<ele>1036.1</ele>
<time>2003-02-20T09:05:44Z</time>
<speed>1.0</speed>
</trkpt>
<trkpt lat="47.362141" lon="7.811191">
<ele>1034.5</ele>
<time>2003-02-20T09:05:49Z</time>
<speed>1.5</speed>
</trkpt>
<trkpt lat="47.362154" lon="7.811286">
<ele>1034.5</ele>
<time>2003-02-20T09:05:54Z</time>
<speed>1.3</speed>
</trkpt>
<trkpt lat="47.362162" lon="7.811370">
<ele>1032.3</ele>
<time>2003-02-20T09:05:59Z</time>
<speed>1.2</speed>
</trkpt>
<trkpt lat="47.362163" lon="7.811451">
<ele>1032.2</ele>
<time>2003-02-20T09:06:04Z</time>
<speed>1.2</speed>
</trkpt>
<trkpt lat="47.362171" lon="7.811533">
<ele>1031.4</ele>
<time>2003-02-20T09:06:09Z</time>
<speed>1.4</speed>
</trkpt>
<trkpt lat="47.362171" lon="7.811627">
<ele>1031.4</ele>
<time>2003-02-20T09:06:14Z</time>
<speed>1.7</speed>
</trkpt>
<trkpt lat="47.362196" lon="7.811737">
<ele>1031.6</ele>
<time>2003-02-20T09:06:19Z</time>
<speed>1.2</speed>
</trkpt>
<trkpt lat="47.362197" lon="7.811819">
<ele>1030.1</ele>
<time>2003-02-20T09:06:24Z</time>
<speed>0.8</speed>
</trkpt>
<trkpt lat="47.362214" lon="7.811864">
<ele>1028.3</ele>
<time>2003-02-20T09:06:29Z</time>
<speed>1.3</speed>
</trkpt>
<trkpt lat="47.362228" lon="7.811948">
<ele>1026.9</ele>
<time>2003-02-20T09:06:34Z</time>
<speed>1.5</speed>
</trkpt>
<trkpt lat="47.362235" lon="7.812044">
<ele>1026.2</ele>
<time>2003-02-20T09:06:39Z</time>
<speed>1.1</speed>
</trkpt>
<trkpt lat="47.362250" lon="7.812113">
<ele>1026.0</ele>
<time>2003-02-20T09:06:44Z</time>
<speed>1.0</speed>
</trkpt>
<trkpt lat="47.362258" lon="7.812180">
<ele>1026.5</ele>
<time>2003-02-20T09:06:49Z</time>
<speed>1.0</speed>
</trkpt>
<trkpt lat="47.362261" lon="7.812249">
<ele>1024.9</ele>
<time>2003-02-20T09:06:54Z</time>
<speed>0.2</speed>
</trkpt>
<trkpt lat="47.362260" lon="7.812264">
<ele>1023.6</ele>
<time>2003-02-20T09:06:59Z</time>
<speed>0.8</speed>
</trkpt>
<trkpt lat="47.362264" lon="7.812320">
<ele>1021.9</ele>
<time>2003-02-20T09:07:04Z</time>
<speed>1.5</speed>
</trkpt>
<trkpt lat="47.362277" lon="7.812417">
<ele>1020.5</ele>
<time>2003-02-20T09:07:09Z</time>
<speed>0.6</speed>
</trkpt>
<trkpt lat="47.362281" lon="7.812459">
<ele>1020.1</ele>
<time>2003-02-20T09:07:14Z</time>
<speed>0.6</speed>
</trkpt>
<trkpt lat="47.362298" lon="7.812488">
<ele>1019.7</ele>
<time>2003-02-20T09:07:19Z</time>
<speed>1.0</speed>
</trkpt>
<trkpt lat="47.362300" lon="7.812556">
<ele>1019.5</ele>
<time>2003-02-20T09:07:24Z</time>
<speed>1.4</speed>
</trkpt>
<trkpt lat="47.362301" lon="7.812651">
<ele>1018.1</ele>
<time>2003-02-20T09:07:29Z</time>
<speed>0.7</speed>
</trkpt>
<trkpt lat="47.362305" lon="7.812694">
<ele>1016.3</ele>
<time>2003-02-20T09:07:34Z</time>
<speed>1.4</speed>
</trkpt>
<trkpt lat="47.362306" lon="7.812789">
<ele>1014.8</ele>
<time>2003-02-20T09:07:39Z</time>
<speed>1.3</speed>
</trkpt>
<trkpt lat="47.362314" lon="7.812872">
<ele>1014.0</ele>
<time>2003-02-20T09:07:44Z</time>
<speed>1.1</speed>
</trkpt>
<trkpt lat="47.362329" lon="7.812943">
<ele>1012.5</ele>
<time>2003-02-20T09:07:49Z</time>
<speed>1.7</speed>
</trkpt>
<trkpt lat="47.362341" lon="7.813053">
<ele>1011.2</ele>
<time>2003-02-20T09:07:54Z</time>
<speed>1.2</speed>
</trkpt>
<trkpt lat="47.362349" lon="7.813135">
<ele>1010.4</ele>
<time>2003-02-20T09:07:59Z</time>
<speed>1.4</speed>
</trkpt>
<trkpt lat="47.362362" lon="7.813246">
<ele>1009.1</ele>
<time>2003-02-20T09:08:05Z</time>
<speed>1.3</speed>
</trkpt>
<trkpt lat="47.362375" lon="7.813328">
<ele>1009.1</ele>
<time>2003-02-20T09:08:10Z</time>
<speed>1.1</speed>
</trkpt>
<trkpt lat="47.362384" lon="7.813397">
<ele>1008.2</ele>
<time>2003-02-20T09:08:15Z</time>
<speed>0.8</speed>
</trkpt>
<trkpt lat="47.362387" lon="7.813451">
<ele>1007.9</ele>
<time>2003-02-20T09:08:20Z</time>
<speed>1.3</speed>
</trkpt>
<trkpt lat="47.362395" lon="7.813534">
<ele>1007.1</ele>
<time>2003-02-20T09:08:25Z</time>
<speed>1.1</speed>
</trkpt>
<trkpt lat="47.362403" lon="7.813603">
<ele>1006.2</ele>
<time>2003-02-20T09:08:30Z</time>
<speed>0.8</speed>
</trkpt>
<trkpt lat="47.362412" lon="7.813657">
<ele>1006.7</ele>
<time>2003-02-20T09:08:35Z</time>
<speed>1.2</speed>
</trkpt>
<trkpt lat="47.362414" lon="7.813739">
<ele>1005.1</ele>
<time>2003-02-20T09:08:40Z</time>
<speed>1.3</speed>
</trkpt>
<trkpt lat="47.362428" lon="7.813823">
<ele>1003.7</ele>
<time>2003-02-20T09:08:45Z</time>
<speed>1.1</speed>
</trkpt>
<trkpt lat="47.362443" lon="7.813893">
<ele>1003.5</ele>
<time>2003-02-20T09:08:50Z</time>
<speed>1.6</speed>
</trkpt>
<trkpt lat="47.362455" lon="7.814001">
<ele>1003.7</ele>
<time>2003-02-20T09:08:55Z</time>
<speed>1.0</speed>
</trkpt>
<trkpt lat="47.362457" lon="7.814068">
<ele>1003.5</ele>
<time>2003-02-20T09:09:00Z</time>
<speed>0.8</speed>
</trkpt>
<trkpt lat="47.362460" lon="7.814124">
<ele>1001.7</ele>
<time>2003-02-20T09:09:05Z</time>
<speed>0.7</speed>
</trkpt>
<trkpt lat="47.362470" lon="7.814166">
<ele>1002.1</ele>
<time>2003-02-20T09:09:10Z</time>
<speed>1.3</speed>
</trkpt>
<trkpt lat="47.362485" lon="7.814251">
<ele>999.2</ele>
<time>2003-02-20T09:09:15Z</time>
<speed>1.1</speed>
</trkpt>
<trkpt lat="47.362488" lon="7.814321">
<ele>997.6</ele>
<time>2003-02-20T09:09:20Z</time>
<speed>1.3</speed>
</trkpt>
<trkpt lat="47.362502" lon="7.814405">
<ele>996.1</ele>
<time>2003-02-20T09:09:25Z</time>
<speed>1.2</speed>
</trkpt>
<trkpt lat="47.362510" lon="7.814487">
<ele>995.4</ele>
<time>2003-02-20T09:09:30Z</time>
<speed>1.1</speed>
</trkpt>
<trkpt lat="47.362518" lon="7.814556">
<ele>994.5</ele>
<time>2003-02-20T09:09:35Z</time>
<speed>1.2</speed>
</trkpt>
<trkpt lat="47.362519" lon="7.814637">
<ele>994.4</ele>
<time>2003-02-20T09:09:40Z</time>
<speed>1.2</speed>
</trkpt>
<trkpt lat="47.362520" lon="7.814717">
<ele>994.2</ele>
<time>2003-02-20T09:09:45Z</time>
<speed>1.2</speed>
</trkpt>
<trkpt lat="47.362509" lon="7.814796">
<ele>994.1</ele>
<time>2003-02-20T09:09:50Z</time>
<speed>1.6</speed>
</trkpt>
<trkpt lat="47.362521" lon="7.814904">
<ele>994.2</ele>
<time>2003-02-20T09:09:55Z</time>
<speed>1.2</speed>
</trkpt>
<trkpt lat="47.362522" lon="7.814985">
<ele>994.1</ele>
<time>2003-02-20T09:10:00Z</time>
<speed>1.0</speed>
</trkpt>
<trkpt lat="47.362518" lon="7.815052">
<ele>993.1</ele>
<time>2003-02-20T09:10:05Z</time>
<speed>1.0</speed>
</trkpt>
<trkpt lat="47.362520" lon="7.815119">
<ele>992.9</ele>
<time>2003-02-20T09:10:10Z</time>
<speed>1.0</speed>
</trkpt>
<trkpt lat="47.362528" lon="7.815187">
<ele>993.4</ele>
<time>2003-02-20T09:10:15Z</time>
<speed>1.2</speed>
</trkpt>
<trkpt lat="47.362523" lon="7.815267">
<ele>992.6</ele>
<time>2003-02-20T09:10:20Z</time>
<speed>1.1</speed>
</trkpt>
<trkpt lat="47.362538" lon="7.815336">
<ele>992.4</ele>
<time>2003-02-20T09:10:25Z</time>
<speed>1.4</speed>
</trkpt>
<trkpt lat="47.362532" lon="7.815428">
<ele>993.1</ele>
<time>2003-02-20T09:10:30Z</time>
<speed>1.0</speed>
</trkpt>
<trkpt lat="47.362534" lon="7.815496">
<ele>992.9</ele>
<time>2003-02-20T09:10:35Z</time>
<speed>1.4</speed>
</trkpt>
<trkpt lat="47.362534" lon="7.815589">
<ele>992.8</ele>
<time>2003-02-20T09:10:40Z</time>
<speed>1.0</speed>
</trkpt>
<trkpt lat="47.362536" lon="7.815657">
<ele>992.6</ele>
<time>2003-02-20T09:10:45Z</time>
<speed>1.2</speed>
</trkpt>
<trkpt lat="47.362538" lon="7.815739">
<ele>991.1</ele>
<time>2003-02-20T09:10:50Z</time>
<speed>1.0</speed>
</trkpt>
<trkpt lat="47.362533" lon="7.815804">
<ele>991.6</ele>
<time>2003-02-20T09:10:55Z</time>
<speed>1.3</speed>
</trkpt>
<trkpt lat="47.362547" lon="7.815889">
<ele>990.1</ele>
<time>2003-02-20T09:11:00Z</time>
<speed>0.9</speed>
</trkpt>
<trkpt lat="47.362557" lon="7.815945">
<ele>989.1</ele>
<time>2003-02-20T09:11:05Z</time>
<speed>0.6</speed>
</trkpt>
<trkpt lat="47.362561" lon="7.815986">
<ele>988.7</ele>
<time>2003-02-20T09:11:10Z</time>
<speed>1.1</speed>
</trkpt>
<trkpt lat="47.362582" lon="7.816055">
<ele>989.3</ele>
<time>2003-02-20T09:11:15Z</time>
<speed>1.4</speed>
</trkpt>
<trkpt lat="47.362588" lon="7.816150">
<ele>988.6</ele>
<time>2003-02-20T09:11:20Z</time>
<speed>1.3</speed>
</trkpt>
<trkpt lat="47.362609" lon="7.816234">
<ele>987.9</ele>
<time>2003-02-20T09:11:25Z</time>
<speed>1.2</speed>
</trkpt>
<trkpt lat="47.362630" lon="7.816304">
<ele>988.5</ele>
<time>2003-02-20T09:11:30Z</time>
<speed>0.9</speed>
</trkpt>
<trkpt lat="47.362645" lon="7.816360">
<ele>988.3</ele>
<time>2003-02-20T09:11:35Z</time>
<speed>1.0</speed>
</trkpt>
<trkpt lat="47.362653" lon="7.816427">
<ele>988.8</ele>
<time>2003-02-20T09:11:40Z</time>
<speed>1.0</speed>
</trkpt>
<trkpt lat="47.362655" lon="7.816494">
<ele>988.6</ele>
<time>2003-02-20T09:11:45Z</time>
<speed>0.6</speed>
</trkpt>
<trkpt lat="47.362673" lon="7.816524">
<ele>988.1</ele>
<time>2003-02-20T09:11:50Z</time>
<speed>1.3</speed>
</trkpt>
<trkpt lat="47.362681" lon="7.816608">
<ele>986.0</ele>
<time>2003-02-20T09:11:55Z</time>
<speed>1.2</speed>
</trkpt>
<trkpt lat="47.362682" lon="7.816689">
<ele>985.8</ele>
<time>2003-02-20T09:12:00Z</time>
<speed>1.1</speed>
</trkpt>
<trkpt lat="47.362697" lon="7.816760">
<ele>984.3</ele>
<time>2003-02-20T09:12:05Z</time>
<speed>1.2</speed>
</trkpt>
<trkpt lat="47.362698" lon="7.816840">
<ele>984.2</ele>
<time>2003-02-20T09:12:10Z</time>
<speed>1.2</speed>
</trkpt>
<trkpt lat="47.362720" lon="7.816913">
<ele>981.9</ele>
<time>2003-02-20T09:12:15Z</time>
<speed>1.2</speed>
</trkpt>
<trkpt lat="47.362722" lon="7.816995">
<ele>980.4</ele>
<time>2003-02-20T09:12:20Z</time>
<speed>1.4</speed>
</trkpt>
<trkpt lat="47.362743" lon="7.817083">
<ele>976.9</ele>
<time>2003-02-20T09:12:25Z</time>
<speed>1.3</speed>
</trkpt>
<trkpt lat="47.362757" lon="7.817167">
<ele>975.4</ele>
<time>2003-02-20T09:12:30Z</time>
<speed>1.2</speed>
</trkpt>
<trkpt lat="47.362765" lon="7.817249">
<ele>974.6</ele>
<time>2003-02-20T09:12:35Z</time>
<speed>1.4</speed>
</trkpt>
<trkpt lat="47.362753" lon="7.817341">
<ele>974.5</ele>
<time>2003-02-20T09:12:40Z</time>
<speed>1.2</speed>
</trkpt>
<trkpt lat="47.362748" lon="7.817421">
<ele>973.7</ele>
<time>2003-02-20T09:12:45Z</time>
<speed>1.4</speed>
</trkpt>
<trkpt lat="47.362768" lon="7.817506">
<ele>973.0</ele>
<time>2003-02-20T09:12:50Z</time>
<speed>1.8</speed>
</trkpt>
<trkpt lat="47.362767" lon="7.817627">
<ele>971.7</ele>
<time>2003-02-20T09:12:55Z</time>
<speed>1.2</speed>
</trkpt>
<trkpt lat="47.362775" lon="7.817709">
<ele>970.9</ele>
<time>2003-02-20T09:13:00Z</time>
<speed>1.2</speed>
</trkpt>
<trkpt lat="47.362776" lon="7.817790">
<ele>970.8</ele>
<time>2003-02-20T09:13:05Z</time>
<speed>1.2</speed>
</trkpt>
<trkpt lat="47.362783" lon="7.817870">
<ele>971.4</ele>
<time>2003-02-20T09:13:10Z</time>
<speed>1.5</speed>
</trkpt>
<trkpt lat="47.362790" lon="7.817966">
<ele>970.7</ele>
<time>2003-02-20T09:13:15Z</time>
<speed>1.3</speed>
</trkpt>
<trkpt lat="47.362804" lon="7.818048">
<ele>970.7</ele>
<time>2003-02-20T09:13:20Z</time>
<speed>1.3</speed>
</trkpt>
<trkpt lat="47.362824" lon="7.818132">
<ele>969.9</ele>
<time>2003-02-20T09:13:25Z</time>
<speed>1.3</speed>
</trkpt>
<trkpt lat="47.362844" lon="7.818216">
<ele>969.2</ele>
<time>2003-02-20T09:13:30Z</time>
<speed>1.5</speed>
</trkpt>
<trkpt lat="47.362878" lon="7.818304">
<ele>967.2</ele>
<time>2003-02-20T09:13:35Z</time>
<speed>1.5</speed>
</trkpt>
<trkpt lat="47.362911" lon="7.818390">
<ele>966.5</ele>
<time>2003-02-20T09:13:40Z</time>
<speed>1.3</speed>
</trkpt>
<trkpt lat="47.362952" lon="7.818449">
<ele>966.4</ele>
<time>2003-02-20T09:13:45Z</time>
<speed>0.9</speed>
</trkpt>
<trkpt lat="47.362967" lon="7.818504">
<ele>967.6</ele>
<time>2003-02-20T09:13:50Z</time>
<speed>1.0</speed>
</trkpt>
<trkpt lat="47.362989" lon="7.818560">
<ele>968.0</ele>
<time>2003-02-20T09:13:55Z</time>
<speed>0.8</speed>
</trkpt>
<trkpt lat="47.363011" lon="7.818603">
<ele>968.5</ele>
<time>2003-02-20T09:14:00Z</time>
<speed>0.3</speed>
</trkpt>
<trkpt lat="47.363004" lon="7.818616">
<ele>967.8</ele>
<time>2003-02-20T09:14:05Z</time>
<speed>0.2</speed>
</trkpt>
<trkpt lat="47.362997" lon="7.818627">
<ele>968.6</ele>
<time>2003-02-20T09:14:10Z</time>
<speed>0.7</speed>
</trkpt>
<trkpt lat="47.363007" lon="7.818668">
<ele>968.9</ele>
<time>2003-02-20T09:14:15Z</time>
<speed>0.9</speed>
</trkpt>
<trkpt lat="47.363022" lon="7.818724">
<ele>968.7</ele>
<time>2003-02-20T09:14:20Z</time>
<speed>1.3</speed>
</trkpt>
<trkpt lat="47.363042" lon="7.818807">
<ele>969.4</ele>
<time>2003-02-20T09:14:25Z</time>
<speed>1.1</speed>
</trkpt>
<trkpt lat="47.363070" lon="7.818864">
<ele>969.2</ele>
<time>2003-02-20T09:14:30Z</time>
<speed>1.0</speed>
</trkpt>
<trkpt lat="47.363092" lon="7.818921">
<ele>969.7</ele>
<time>2003-02-20T09:14:35Z</time>
<speed>1.2</speed>
</trkpt>
<trkpt lat="47.363113" lon="7.818991">
<ele>968.9</ele>
<time>2003-02-20T09:14:40Z</time>
<speed>1.4</speed>
</trkpt>
<trkpt lat="47.363107" lon="7.819083">
<ele>969.5</ele>
<time>2003-02-20T09:14:45Z</time>
<speed>1.6</speed>
</trkpt>
<trkpt lat="47.363087" lon="7.819186">
<ele>970.2</ele>
<time>2003-02-20T09:14:50Z</time>
<speed>1.4</speed>
</trkpt>
<trkpt lat="47.363088" lon="7.819280">
<ele>970.2</ele>
<time>2003-02-20T09:14:55Z</time>
<speed>1.1</speed>
</trkpt>
<trkpt lat="47.363102" lon="7.819349">
<ele>970.0</ele>
<time>2003-02-20T09:15:00Z</time>
<speed>0.4</speed>
</trkpt>
<trkpt lat="47.363107" lon="7.819377">
<ele>969.5</ele>
<time>2003-02-20T09:15:05Z</time>
<speed>1.0</speed>
</trkpt>
<trkpt lat="47.363109" lon="7.819443">
<ele>970.7</ele>
<time>2003-02-20T09:15:10Z</time>
<speed>1.3</speed>
</trkpt>
<trkpt lat="47.363122" lon="7.819525">
<ele>970.7</ele>
<time>2003-02-20T09:15:15Z</time>
<speed>0.9</speed>
</trkpt>
<trkpt lat="47.363132" lon="7.819581">
<ele>969.7</ele>
<time>2003-02-20T09:15:20Z</time>
<speed>1.2</speed>
</trkpt>
<trkpt lat="47.363139" lon="7.819662">
<ele>970.3</ele>
<time>2003-02-20T09:15:25Z</time>
<speed>1.4</speed>
</trkpt>
<trkpt lat="47.363166" lon="7.819746">
<ele>970.3</ele>
<time>2003-02-20T09:15:30Z</time>
<speed>1.1</speed>
</trkpt>
<trkpt lat="47.363200" lon="7.819803">
<ele>970.9</ele>
<time>2003-02-20T09:15:35Z</time>
<speed>1.5</speed>
</trkpt>
<trkpt lat="47.363232" lon="7.819888">
<ele>971.6</ele>
<time>2003-02-20T09:15:40Z</time>
<speed>1.5</speed>
</trkpt>
<trkpt lat="47.363245" lon="7.819983">
<ele>971.7</ele>
<time>2003-02-20T09:15:45Z</time>
<speed>1.5</speed>
</trkpt>
<trkpt lat="47.363258" lon="7.820078">
<ele>971.7</ele>
<time>2003-02-20T09:15:50Z</time>
<speed>0.9</speed>
</trkpt>
<trkpt lat="47.363274" lon="7.820134">
<ele>971.5</ele>
<time>2003-02-20T09:15:55Z</time>
<speed>1.1</speed>
</trkpt>
<trkpt lat="47.363289" lon="7.820204">
<ele>971.3</ele>
<time>2003-02-20T09:16:00Z</time>
<speed>1.5</speed>
</trkpt>
<trkpt lat="47.363301" lon="7.820299">
<ele>971.4</ele>
<time>2003-02-20T09:16:05Z</time>
<speed>1.6</speed>
</trkpt>
<trkpt lat="47.363307" lon="7.820406">
<ele>972.2</ele>
<time>2003-02-20T09:16:10Z</time>
<speed>1.2</speed>
</trkpt>
<trkpt lat="47.363295" lon="7.820484">
<ele>972.0</ele>
<time>2003-02-20T09:16:15Z</time>
<speed>1.0</speed>
</trkpt>
<trkpt lat="47.363291" lon="7.820550">
<ele>972.4</ele>
<time>2003-02-20T09:16:20Z</time>
<speed>1.1</speed>
</trkpt>
<trkpt lat="47.363306" lon="7.820619">
<ele>972.3</ele>
<time>2003-02-20T09:16:25Z</time>
<speed>1.4</speed>
</trkpt>
<trkpt lat="47.363312" lon="7.820713">
<ele>973.0</ele>
<time>2003-02-20T09:16:30Z</time>
<speed>1.5</speed>
</trkpt>
<trkpt lat="47.363325" lon="7.820808">
<ele>973.0</ele>
<time>2003-02-20T09:16:35Z</time>
<speed>1.8</speed>
</trkpt>
<trkpt lat="47.363324" lon="7.820930">
<ele>971.8</ele>
<time>2003-02-20T09:16:40Z</time>
<speed>1.6</speed>
</trkpt>
<trkpt lat="47.363324" lon="7.821038">
<ele>970.5</ele>
<time>2003-02-20T09:16:45Z</time>
<speed>1.2</speed>
</trkpt>
<trkpt lat="47.363331" lon="7.821120">
<ele>969.7</ele>
<time>2003-02-20T09:16:50Z</time>
<speed>1.3</speed>
</trkpt>
<trkpt lat="47.363346" lon="7.821205">
<ele>968.2</ele>
<time>2003-02-20T09:16:55Z</time>
<speed>1.0</speed>
</trkpt>
<trkpt lat="47.363347" lon="7.821270">
<ele>969.4</ele>
<time>2003-02-20T09:17:00Z</time>
<speed>1.2</speed>
</trkpt>
<trkpt lat="47.363348" lon="7.821351">
<ele>969.3</ele>
<time>2003-02-20T09:17:05Z</time>
<speed>1.4</speed>
</trkpt>
<trkpt lat="47.363355" lon="7.821446">
<ele>968.6</ele>
<time>2003-02-20T09:17:10Z</time>
<speed>1.3</speed>
</trkpt>
<trkpt lat="47.363375" lon="7.821528">
<ele>969.3</ele>
<time>2003-02-20T09:17:15Z</time>
<speed>1.2</speed>
</trkpt>
<trkpt lat="47.363410" lon="7.821588">
<ele>968.4</ele>
<time>2003-02-20T09:17:20Z</time>
<speed>1.2</speed>
</trkpt>
<trkpt lat="47.363445" lon="7.821648">
<ele>967.6</ele>
<time>2003-02-20T09:17:25Z</time>
<speed>1.1</speed>
</trkpt>
<trkpt lat="47.363487" lon="7.821681">
<ele>967.3</ele>
<time>2003-02-20T09:17:30Z</time>
<speed>0.8</speed>
</trkpt>
<trkpt lat="47.363517" lon="7.821711">
<ele>968.3</ele>
<time>2003-02-20T09:17:35Z</time>
<speed>1.2</speed>
</trkpt>
<trkpt lat="47.363559" lon="7.821757">
<ele>968.1</ele>
<time>2003-02-20T09:17:40Z</time>
<speed>1.0</speed>
</trkpt>
<trkpt lat="47.363581" lon="7.821815">
<ele>967.2</ele>
<time>2003-02-20T09:17:45Z</time>
<speed>1.2</speed>
</trkpt>
<trkpt lat="47.363608" lon="7.821886">
<ele>967.2</ele>
<time>2003-02-20T09:17:50Z</time>
<speed>1.2</speed>
</trkpt>
<trkpt lat="47.363629" lon="7.821957">
<ele>966.3</ele>
<time>2003-02-20T09:17:55Z</time>
<speed>1.2</speed>
</trkpt>
<trkpt lat="47.363636" lon="7.822036">
<ele>968.4</ele>
<time>2003-02-20T09:18:00Z</time>
<speed>1.2</speed>
</trkpt>
<trkpt lat="47.363637" lon="7.822116">
<ele>968.2</ele>
<time>2003-02-20T09:18:05Z</time>
<speed>1.3</speed>
</trkpt>
<trkpt lat="47.363645" lon="7.822199">
<ele>967.5</ele>
<time>2003-02-20T09:18:10Z</time>
<speed>1.2</speed>
</trkpt>
<trkpt lat="47.363627" lon="7.822277">
<ele>966.5</ele>
<time>2003-02-20T09:18:15Z</time>
<speed>1.4</speed>
</trkpt>
<trkpt lat="47.363637" lon="7.822369">
<ele>958.7</ele>
<time>2003-02-20T09:18:20Z</time>
<speed>1.7</speed>
</trkpt>
<trkpt lat="47.363648" lon="7.822478">
<ele>946.8</ele>
<time>2003-02-20T09:18:25Z</time>
<speed>1.4</speed>
</trkpt>
<trkpt lat="47.363652" lon="7.822570">
<ele>938.2</ele>
<time>2003-02-20T09:18:30Z</time>
<speed>0.5</speed>
</trkpt>
<trkpt lat="47.363651" lon="7.822600">
<ele>935.6</ele>
<time>2003-02-20T09:18:35Z</time>
<speed>1.1</speed>
</trkpt>
<trkpt lat="47.363660" lon="7.822670">
<ele>933.3</ele>
<time>2003-02-20T09:18:40Z</time>
<speed>1.9</speed>
</trkpt>
<trkpt lat="47.363678" lon="7.822794">
<ele>932.8</ele>
<time>2003-02-20T09:18:45Z</time>
<speed>1.5</speed>
</trkpt>
<trkpt lat="47.363697" lon="7.822891">
<ele>932.2</ele>
<time>2003-02-20T09:18:50Z</time>
<speed>1.6</speed>
</trkpt>
<trkpt lat="47.363724" lon="7.822992">
<ele>929.5</ele>
<time>2003-02-20T09:18:55Z</time>
<speed>1.4</speed>
</trkpt>
<trkpt lat="47.363745" lon="7.823080">
<ele>926.0</ele>
<time>2003-02-20T09:19:00Z</time>
<speed>1.3</speed>
</trkpt>
<trkpt lat="47.363759" lon="7.823164">
<ele>924.5</ele>
<time>2003-02-20T09:19:05Z</time>
<speed>1.5</speed>
</trkpt>
<trkpt lat="47.363772" lon="7.823259">
<ele>924.5</ele>
<time>2003-02-20T09:19:10Z</time>
<speed>1.4</speed>
</trkpt>
<trkpt lat="47.363772" lon="7.823351">
<ele>925.9</ele>
<time>2003-02-20T09:19:15Z</time>
<speed>1.3</speed>
</trkpt>
<trkpt lat="47.363786" lon="7.823433">
<ele>925.9</ele>
<time>2003-02-20T09:19:20Z</time>
<speed>1.3</speed>
</trkpt>
<trkpt lat="47.363799" lon="7.823515">
<ele>925.8</ele>
<time>2003-02-20T09:19:25Z</time>
<speed>1.4</speed>
</trkpt>
<trkpt lat="47.363806" lon="7.823609">
<ele>926.5</ele>
<time>2003-02-20T09:19:30Z</time>
<speed>1.2</speed>
</trkpt>
<trkpt lat="47.363800" lon="7.823688">
<ele>927.1</ele>
<time>2003-02-20T09:19:35Z</time>
<speed>1.4</speed>
</trkpt>
<trkpt lat="47.363794" lon="7.823780">
<ele>927.7</ele>
<time>2003-02-20T09:19:40Z</time>
<speed>1.0</speed>
</trkpt>
<trkpt lat="47.363784" lon="7.823845">
<ele>927.4</ele>
<time>2003-02-20T09:19:45Z</time>
<speed>1.2</speed>
</trkpt>
<trkpt lat="47.363785" lon="7.823926">
<ele>927.3</ele>
<time>2003-02-20T09:19:50Z</time>
<speed>1.6</speed>
</trkpt>
<trkpt lat="47.363778" lon="7.824032">
<ele>926.7</ele>
<time>2003-02-20T09:19:55Z</time>
<speed>1.4</speed>
</trkpt>
<trkpt lat="47.363752" lon="7.824120">
<ele>927.9</ele>
<time>2003-02-20T09:20:00Z</time>
<speed>1.6</speed>
</trkpt>
<trkpt lat="47.363752" lon="7.824227">
<ele>928.0</ele>
<time>2003-02-20T09:20:05Z</time>
<speed>1.7</speed>
</trkpt>
<trkpt lat="47.363770" lon="7.824337">
<ele>927.4</ele>
<time>2003-02-20T09:20:10Z</time>
<speed>0.8</speed>
</trkpt>
<trkpt lat="47.363767" lon="7.824390">
<ele>927.8</ele>
<time>2003-02-20T09:20:15Z</time>
<speed>0.6</speed>
</trkpt>
<trkpt lat="47.363771" lon="7.824431">
<ele>927.4</ele>
<time>2003-02-20T09:20:20Z</time>
<speed>1.8</speed>
</trkpt>
<trkpt lat="47.363769" lon="7.824551">
<ele>927.6</ele>
<time>2003-02-20T09:20:25Z</time>
<speed>1.6</speed>
</trkpt>
<trkpt lat="47.363762" lon="7.824656">
<ele>928.3</ele>
<time>2003-02-20T09:20:30Z</time>
<speed>1.4</speed>
</trkpt>
<trkpt lat="47.363743" lon="7.824746">
<ele>928.9</ele>
<time>2003-02-20T09:20:35Z</time>
<speed>0.6</speed>
</trkpt>
<trkpt lat="47.363747" lon="7.824787">
<ele>928.5</ele>
<time>2003-02-20T09:20:40Z</time>
<speed>0.6</speed>
</trkpt>
<trkpt lat="47.363737" lon="7.824824">
<ele>929.4</ele>
<time>2003-02-20T09:20:45Z</time>
<speed>0.0</speed>
</trkpt>
<trkpt lat="47.363737" lon="7.824824">
<ele>929.4</ele>
<time>2003-02-20T09:20:50Z</time>
<speed>0.8</speed>
</trkpt>
<trkpt lat="47.363734" lon="7.824877">
<ele>929.8</ele>
<time>2003-02-20T09:20:55Z</time>
<speed>1.3</speed>
</trkpt>
<trkpt lat="47.363748" lon="7.824959">
<ele>929.8</ele>
<time>2003-02-20T09:21:00Z</time>
<speed>1.5</speed>
</trkpt>
<trkpt lat="47.363767" lon="7.825056">
<ele>929.1</ele>
<time>2003-02-20T09:21:05Z</time>
<speed>1.6</speed>
</trkpt>
<trkpt lat="47.363754" lon="7.825161">
<ele>929.1</ele>
<time>2003-02-20T09:21:10Z</time>
<speed>1.5</speed>
</trkpt>
<trkpt lat="47.363767" lon="7.825257">
<ele>929.2</ele>
<time>2003-02-20T09:21:15Z</time>
<speed>1.2</speed>
</trkpt>
<trkpt lat="47.363761" lon="7.825334">
<ele>931.1</ele>
<time>2003-02-20T09:21:20Z</time>
<speed>0.4</speed>
</trkpt>
<trkpt lat="47.363765" lon="7.825360">
<ele>932.1</ele>
<time>2003-02-20T09:21:25Z</time>
<speed>1.1</speed>
</trkpt>
<trkpt lat="47.363780" lon="7.825429">
<ele>931.9</ele>
<time>2003-02-20T09:21:30Z</time>
<speed>1.2</speed>
</trkpt>
<trkpt lat="47.363787" lon="7.825509">
<ele>932.5</ele>
<time>2003-02-20T09:21:35Z</time>
<speed>1.6</speed>
</trkpt>
<trkpt lat="47.363793" lon="7.825618">
<ele>931.9</ele>
<time>2003-02-20T09:21:40Z</time>
<speed>1.1</speed>
</trkpt>
<trkpt lat="47.363808" lon="7.825687">
<ele>931.8</ele>
<time>2003-02-20T09:21:45Z</time>
<speed>1.3</speed>
</trkpt>
<trkpt lat="47.363821" lon="7.825769">
<ele>931.7</ele>
<time>2003-02-20T09:21:50Z</time>
<speed>1.5</speed>
</trkpt>
<trkpt lat="47.363828" lon="7.825865">
<ele>931.0</ele>
<time>2003-02-20T09:21:55Z</time>
<speed>1.1</speed>
</trkpt>
<trkpt lat="47.363843" lon="7.825936">
<ele>929.5</ele>
<time>2003-02-20T09:22:00Z</time>
<speed>1.4</speed>
</trkpt>
<trkpt lat="47.363837" lon="7.826028">
<ele>930.1</ele>
<time>2003-02-20T09:22:05Z</time>
<speed>1.7</speed>
</trkpt>
<trkpt lat="47.363850" lon="7.826138">
<ele>928.8</ele>
<time>2003-02-20T09:22:10Z</time>
<speed>1.4</speed>
</trkpt>
<trkpt lat="47.363843" lon="7.826230">
<ele>929.5</ele>
<time>2003-02-20T09:22:15Z</time>
<speed>1.4</speed>
</trkpt>
<trkpt lat="47.363837" lon="7.826323">
<ele>928.7</ele>
<time>2003-02-20T09:22:20Z</time>
<speed>1.7</speed>
</trkpt>
<trkpt lat="47.363849" lon="7.826432">
<ele>928.9</ele>
<time>2003-02-20T09:22:25Z</time>
<speed>1.2</speed>
</trkpt>
<trkpt lat="47.363857" lon="7.826514">
<ele>928.1</ele>
<time>2003-02-20T09:22:30Z</time>
<speed>1.6</speed>
</trkpt>
<trkpt lat="47.363869" lon="7.826621">
<ele>929.6</ele>
<time>2003-02-20T09:22:35Z</time>
<speed>1.5</speed>
</trkpt>
<trkpt lat="47.363901" lon="7.826705">
<ele>930.4</ele>
<time>2003-02-20T09:22:40Z</time>
<speed>1.1</speed>
</trkpt>
<trkpt lat="47.363922" lon="7.826774">
<ele>930.9</ele>
<time>2003-02-20T09:22:45Z</time>
<speed>1.4</speed>
</trkpt>
<trkpt lat="47.363948" lon="7.826856">
<ele>932.4</ele>
<time>2003-02-20T09:22:50Z</time>
<speed>1.0</speed>
</trkpt>
<trkpt lat="47.363976" lon="7.826912">
<ele>933.6</ele>
<time>2003-02-20T09:22:55Z</time>
<speed>1.3</speed>
</trkpt>
<trkpt lat="47.364009" lon="7.826983">
<ele>934.3</ele>
<time>2003-02-20T09:23:00Z</time>
<speed>1.3</speed>
</trkpt>
<trkpt lat="47.364029" lon="7.827066">
<ele>934.9</ele>
<time>2003-02-20T09:23:05Z</time>
<speed>1.3</speed>
</trkpt>
<trkpt lat="47.364049" lon="7.827150">
<ele>934.2</ele>
<time>2003-02-20T09:23:10Z</time>
<speed>1.6</speed>
</trkpt>
<trkpt lat="47.364055" lon="7.827258">
<ele>933.6</ele>
<time>2003-02-20T09:23:15Z</time>
<speed>1.1</speed>
</trkpt>
<trkpt lat="47.364039" lon="7.827324">
<ele>932.6</ele>
<time>2003-02-20T09:23:20Z</time>
<speed>1.2</speed>
</trkpt>
<trkpt lat="47.364028" lon="7.827404">
<ele>931.0</ele>
<time>2003-02-20T09:23:25Z</time>
<speed>1.4</speed>
</trkpt>
<trkpt lat="47.364015" lon="7.827496">
<ele>930.9</ele>
<time>2003-02-20T09:23:30Z</time>
<speed>1.4</speed>
</trkpt>
<trkpt lat="47.364003" lon="7.827588">
<ele>930.8</ele>
<time>2003-02-20T09:23:35Z</time>
<speed>1.4</speed>
</trkpt>
<trkpt lat="47.363997" lon="7.827681">
<ele>930.1</ele>
<time>2003-02-20T09:23:40Z</time>
<speed>1.4</speed>
</trkpt>
<trkpt lat="47.363991" lon="7.827773">
<ele>930.7</ele>
<time>2003-02-20T09:23:45Z</time>
<speed>1.4</speed>
</trkpt>
<trkpt lat="47.363985" lon="7.827867">
<ele>930.0</ele>
<time>2003-02-20T09:23:50Z</time>
<speed>1.8</speed>
</trkpt>
<trkpt lat="47.364010" lon="7.827979">
<ele>928.7</ele>
<time>2003-02-20T09:23:55Z</time>
<speed>1.5</speed>
</trkpt>
<trkpt lat="47.364023" lon="7.828074">
<ele>928.8</ele>
<time>2003-02-20T09:24:00Z</time>
<speed>1.5</speed>
</trkpt>
<trkpt lat="47.364036" lon="7.828170">
<ele>928.8</ele>
<time>2003-02-20T09:24:05Z</time>
<speed>1.5</speed>
</trkpt>
<trkpt lat="47.364055" lon="7.828267">
<ele>928.2</ele>
<time>2003-02-20T09:24:10Z</time>
<speed>1.4</speed>
</trkpt>
<trkpt lat="47.364043" lon="7.828359">
<ele>928.1</ele>
<time>2003-02-20T09:24:15Z</time>
<speed>1.6</speed>
</trkpt>
<trkpt lat="47.364035" lon="7.828464">
<ele>928.8</ele>
<time>2003-02-20T09:24:20Z</time>
<speed>1.4</speed>
</trkpt>
<trkpt lat="47.364030" lon="7.828557">
<ele>928.1</ele>
<time>2003-02-20T09:24:25Z</time>
<speed>1.3</speed>
</trkpt>
<trkpt lat="47.364012" lon="7.828636">
<ele>927.2</ele>
<time>2003-02-20T09:24:30Z</time>
<speed>1.4</speed>
</trkpt>
<trkpt lat="47.363982" lon="7.828715">
<ele>924.8</ele>
<time>2003-02-20T09:24:35Z</time>
<speed>1.3</speed>
</trkpt>
<trkpt lat="47.363940" lon="7.828777">
<ele>923.6</ele>
<time>2003-02-20T09:24:40Z</time>
<speed>1.3</speed>
</trkpt>
<trkpt lat="47.363898" lon="7.828837">
<ele>923.9</ele>
<time>2003-02-20T09:24:45Z</time>
<speed>1.3</speed>
</trkpt>
<trkpt lat="47.363850" lon="7.828884">
<ele>923.3</ele>
<time>2003-02-20T09:24:50Z</time>
<speed>1.3</speed>
</trkpt>
<trkpt lat="47.363803" lon="7.828931">
<ele>922.8</ele>
<time>2003-02-20T09:24:55Z</time>
<speed>1.4</speed>
</trkpt>
<trkpt lat="47.363743" lon="7.828963">
<ele>922.1</ele>
<time>2003-02-20T09:25:00Z</time>
<speed>1.4</speed>
</trkpt>
<trkpt lat="47.363695" lon="7.829023">
<ele>921.6</ele>
<time>2003-02-20T09:25:05Z</time>
<speed>0.6</speed>
</trkpt>
<trkpt lat="47.363674" lon="7.829046">
<ele>922.4</ele>
<time>2003-02-20T09:25:10Z</time>
<speed>1.1</speed>
</trkpt>
<trkpt lat="47.363639" lon="7.829095">
<ele>921.9</ele>
<time>2003-02-20T09:25:15Z</time>
<speed>1.3</speed>
</trkpt>
<trkpt lat="47.363608" lon="7.829170">
<ele>922.3</ele>
<time>2003-02-20T09:25:20Z</time>
<speed>1.5</speed>
</trkpt>
<trkpt lat="47.363565" lon="7.829243">
<ele>922.7</ele>
<time>2003-02-20T09:25:25Z</time>
<speed>1.5</speed>
</trkpt>
<trkpt lat="47.363540" lon="7.829333">
<ele>922.5</ele>
<time>2003-02-20T09:25:30Z</time>
<speed>1.4</speed>
</trkpt>
<trkpt lat="47.363534" lon="7.829426">
<ele>921.8</ele>
<time>2003-02-20T09:25:35Z</time>
<speed>1.4</speed>
</trkpt>
<trkpt lat="47.363515" lon="7.829516">
<ele>922.3</ele>
<time>2003-02-20T09:25:40Z</time>
<speed>1.4</speed>
</trkpt>
<trkpt lat="47.363515" lon="7.829610">
<ele>922.3</ele>
<time>2003-02-20T09:25:45Z</time>
<speed>1.4</speed>
</trkpt>
<trkpt lat="47.363521" lon="7.829704">
<ele>923.0</ele>
<time>2003-02-20T09:25:50Z</time>
<speed>1.5</speed>
</trkpt>
<trkpt lat="47.363534" lon="7.829799">
<ele>923.1</ele>
<time>2003-02-20T09:25:55Z</time>
<speed>1.5</speed>
</trkpt>
<trkpt lat="47.363547" lon="7.829894">
<ele>923.1</ele>
<time>2003-02-20T09:26:00Z</time>
<speed>1.4</speed>
</trkpt>
<trkpt lat="47.363553" lon="7.829988">
<ele>923.8</ele>
<time>2003-02-20T09:26:05Z</time>
<speed>1.3</speed>
</trkpt>
<trkpt lat="47.363573" lon="7.830070">
<ele>924.5</ele>
<time>2003-02-20T09:26:10Z</time>
<speed>1.5</speed>
</trkpt>
<trkpt lat="47.363606" lon="7.830154">
<ele>925.2</ele>
<time>2003-02-20T09:26:15Z</time>
<speed>1.5</speed>
</trkpt>
<trkpt lat="47.363639" lon="7.830240">
<ele>924.6</ele>
<time>2003-02-20T09:26:20Z</time>
<speed>1.4</speed>
</trkpt>
<trkpt lat="47.363686" lon="7.830302">
<ele>923.8</ele>
<time>2003-02-20T09:26:25Z</time>
<speed>1.4</speed>
</trkpt>
<trkpt lat="47.363733" lon="7.830361">
<ele>924.4</ele>
<time>2003-02-20T09:26:30Z</time>
<speed>1.4</speed>
</trkpt>
<trkpt lat="47.363773" lon="7.830434">
<ele>924.4</ele>
<time>2003-02-20T09:26:35Z</time>
<speed>1.4</speed>
</trkpt>
<trkpt lat="47.363813" lon="7.830507">
<ele>924.4</ele>
<time>2003-02-20T09:26:40Z</time>
<speed>1.4</speed>
</trkpt>
<trkpt lat="47.363861" lon="7.830568">
<ele>923.6</ele>
<time>2003-02-20T09:26:45Z</time>
<speed>1.4</speed>
</trkpt>
<trkpt lat="47.363901" lon="7.830641">
<ele>923.6</ele>
<time>2003-02-20T09:26:50Z</time>
<speed>1.4</speed>
</trkpt>
<trkpt lat="47.363948" lon="7.830701">
<ele>924.2</ele>
<time>2003-02-20T09:26:55Z</time>
<speed>1.4</speed>
</trkpt>
<trkpt lat="47.363995" lon="7.830762">
<ele>923.5</ele>
<time>2003-02-20T09:27:00Z</time>
<speed>1.4</speed>
</trkpt>
<trkpt lat="47.364042" lon="7.830822">
<ele>924.1</ele>
<time>2003-02-20T09:27:05Z</time>
<speed>1.4</speed>
</trkpt>
<trkpt lat="47.364082" lon="7.830895">
<ele>924.1</ele>
<time>2003-02-20T09:27:10Z</time>
<speed>1.3</speed>
</trkpt>
<trkpt lat="47.364116" lon="7.830968">
<ele>923.3</ele>
<time>2003-02-20T09:27:15Z</time>
<speed>1.4</speed>
</trkpt>
<trkpt lat="47.364156" lon="7.831040">
<ele>923.3</ele>
<time>2003-02-20T09:27:20Z</time>
<speed>1.3</speed>
</trkpt>
<trkpt lat="47.364176" lon="7.831124">
<ele>922.6</ele>
<time>2003-02-20T09:27:25Z</time>
<speed>1.6</speed>
</trkpt>
<trkpt lat="47.364202" lon="7.831222">
<ele>922.7</ele>
<time>2003-02-20T09:27:30Z</time>
<speed>1.3</speed>
</trkpt>
<trkpt lat="47.364222" lon="7.831304">
<ele>923.4</ele>
<time>2003-02-20T09:27:35Z</time>
<speed>1.3</speed>
</trkpt>
<trkpt lat="47.364236" lon="7.831386">
<ele>923.3</ele>
<time>2003-02-20T09:27:40Z</time>
<speed>1.3</speed>
</trkpt>
<trkpt lat="47.364255" lon="7.831469">
<ele>924.0</ele>
<time>2003-02-20T09:27:45Z</time>
<speed>1.5</speed>
</trkpt>
<trkpt lat="47.364275" lon="7.831566">
<ele>923.4</ele>
<time>2003-02-20T09:27:50Z</time>
<speed>1.3</speed>
</trkpt>
<trkpt lat="47.364289" lon="7.831648">
<ele>923.3</ele>
<time>2003-02-20T09:27:55Z</time>
<speed>1.3</speed>
</trkpt>
<trkpt lat="47.364302" lon="7.831730">
<ele>923.3</ele>
<time>2003-02-20T09:28:00Z</time>
<speed>1.3</speed>
</trkpt>
<trkpt lat="47.364323" lon="7.831814">
<ele>922.5</ele>
<time>2003-02-20T09:28:05Z</time>
<speed>1.5</speed>
</trkpt>
<trkpt lat="47.364336" lon="7.831910">
<ele>922.6</ele>
<time>2003-02-20T09:28:10Z</time>
<speed>1.3</speed>
</trkpt>
<trkpt lat="47.364349" lon="7.831992">
<ele>922.5</ele>
<time>2003-02-20T09:28:15Z</time>
<speed>1.2</speed>
</trkpt>
<trkpt lat="47.364351" lon="7.832073">
<ele>922.4</ele>
<time>2003-02-20T09:28:20Z</time>
<speed>1.4</speed>
</trkpt>
<trkpt lat="47.364351" lon="7.832166">
<ele>922.4</ele>
<time>2003-02-20T09:28:25Z</time>
<speed>1.2</speed>
</trkpt>
<trkpt lat="47.364352" lon="7.832247">
<ele>922.3</ele>
<time>2003-02-20T09:28:30Z</time>
<speed>1.4</speed>
</trkpt>
<trkpt lat="47.364346" lon="7.832340">
<ele>921.5</ele>
<time>2003-02-20T09:28:35Z</time>
<speed>1.4</speed>
</trkpt>
<trkpt lat="47.364347" lon="7.832436">
<ele>920.1</ele>
<time>2003-02-20T09:28:40Z</time>
<speed>1.4</speed>
</trkpt>
<trkpt lat="47.364334" lon="7.832527">
<ele>920.0</ele>
<time>2003-02-20T09:28:45Z</time>
<speed>1.4</speed>
</trkpt>
<trkpt lat="47.364322" lon="7.832619">
<ele>919.9</ele>
<time>2003-02-20T09:28:50Z</time>
<speed>1.4</speed>
</trkpt>
<trkpt lat="47.364316" lon="7.832713">
<ele>919.1</ele>
<time>2003-02-20T09:28:55Z</time>
<speed>1.2</speed>
</trkpt>
<trkpt lat="47.364317" lon="7.832793">
<ele>919.0</ele>
<time>2003-02-20T09:29:00Z</time>
<speed>1.4</speed>
</trkpt>
<trkpt lat="47.364305" lon="7.832885">
<ele>918.9</ele>
<time>2003-02-20T09:29:05Z</time>
<speed>1.4</speed>
</trkpt>
<trkpt lat="47.364299" lon="7.832977">
<ele>919.6</ele>
<time>2003-02-20T09:29:10Z</time>
<speed>1.6</speed>
</trkpt>
<trkpt lat="47.364279" lon="7.833082">
<ele>918.8</ele>
<time>2003-02-20T09:29:15Z</time>
<speed>1.7</speed>
</trkpt>
<trkpt lat="47.364253" lon="7.833185">
<ele>918.8</ele>
<time>2003-02-20T09:29:20Z</time>
<speed>1.2</speed>
</trkpt>
<trkpt lat="47.364236" lon="7.833264">
<ele>917.9</ele>
<time>2003-02-20T09:29:25Z</time>
<speed>1.4</speed>
</trkpt>
<trkpt lat="47.364236" lon="7.833357">
<ele>917.8</ele>
<time>2003-02-20T09:29:30Z</time>
<speed>1.2</speed>
</trkpt>
<trkpt lat="47.364224" lon="7.833436">
<ele>917.7</ele>
<time>2003-02-20T09:29:35Z</time>
<speed>1.4</speed>
</trkpt>
<trkpt lat="47.364219" lon="7.833529">
<ele>916.9</ele>
<time>2003-02-20T09:29:40Z</time>
<speed>1.3</speed>
</trkpt>
<trkpt lat="47.364232" lon="7.833612">
<ele>916.8</ele>
<time>2003-02-20T09:29:45Z</time>
<speed>1.5</speed>
</trkpt>
<trkpt lat="47.364251" lon="7.833707">
<ele>917.6</ele>
<time>2003-02-20T09:29:50Z</time>
<speed>1.6</speed>
</trkpt>
<trkpt lat="47.364245" lon="7.833816">
<ele>915.5</ele>
<time>2003-02-20T09:29:55Z</time>
<speed>1.5</speed>
</trkpt>
<trkpt lat="47.364278" lon="7.833903">
<ele>913.5</ele>
<time>2003-02-20T09:30:00Z</time>
<speed>1.2</speed>
</trkpt>
<trkpt lat="47.364306" lon="7.833974">
<ele>913.4</ele>
<time>2003-02-20T09:30:05Z</time>
<speed>1.6</speed>
</trkpt>
<trkpt lat="47.364305" lon="7.834079">
<ele>914.9</ele>
<time>2003-02-20T09:30:10Z</time>
<speed>1.1</speed>
</trkpt>
<trkpt lat="47.364319" lon="7.834148">
<ele>914.7</ele>
<time>2003-02-20T09:30:15Z</time>
<speed>1.3</speed>
</trkpt>
<trkpt lat="47.364340" lon="7.834232">
<ele>914.0</ele>
<time>2003-02-20T09:30:20Z</time>
<speed>1.6</speed>
</trkpt>
<trkpt lat="47.364379" lon="7.834318">
<ele>914.1</ele>
<time>2003-02-20T09:30:25Z</time>
<speed>1.5</speed>
</trkpt>
<trkpt lat="47.364412" lon="7.834404">
<ele>913.4</ele>
<time>2003-02-20T09:30:30Z</time>
<speed>1.6</speed>
</trkpt>
<trkpt lat="47.364443" lon="7.834501">
<ele>914.3</ele>
<time>2003-02-20T09:30:35Z</time>
<speed>1.2</speed>
</trkpt>
<trkpt lat="47.364470" lon="7.834571">
<ele>915.6</ele>
<time>2003-02-20T09:30:40Z</time>
<speed>1.5</speed>
</trkpt>
<trkpt lat="47.364524" lon="7.834632">
<ele>915.5</ele>
<time>2003-02-20T09:30:45Z</time>
<speed>1.2</speed>
</trkpt>
<trkpt lat="47.364545" lon="7.834703">
<ele>914.7</ele>
<time>2003-02-20T09:30:50Z</time>
<speed>1.1</speed>
</trkpt>
<trkpt lat="47.364554" lon="7.834772">
<ele>913.8</ele>
<time>2003-02-20T09:30:55Z</time>
<speed>1.8</speed>
</trkpt>
<trkpt lat="47.364613" lon="7.834849">
<ele>913.2</ele>
<time>2003-02-20T09:31:00Z</time>
<speed>1.6</speed>
</trkpt>
<trkpt lat="47.364673" lon="7.834912">
<ele>912.5</ele>
<time>2003-02-20T09:31:05Z</time>
<speed>1.6</speed>
</trkpt>
<trkpt lat="47.364726" lon="7.834987">
<ele>912.6</ele>
<time>2003-02-20T09:31:10Z</time>
<speed>1.2</speed>
</trkpt>
<trkpt lat="47.364760" lon="7.835046">
<ele>911.7</ele>
<time>2003-02-20T09:31:15Z</time>
<speed>0.8</speed>
</trkpt>
<trkpt lat="47.364798" lon="7.835052">
<ele>911.9</ele>
<time>2003-02-20T09:31:20Z</time>
<speed>1.3</speed>
</trkpt>
<trkpt lat="47.364855" lon="7.835074">
<ele>911.6</ele>
<time>2003-02-20T09:31:25Z</time>
<speed>1.4</speed>
</trkpt>
<trkpt lat="47.364915" lon="7.835045">
<ele>909.5</ele>
<time>2003-02-20T09:31:30Z</time>
<speed>1.8</speed>
</trkpt>
<trkpt lat="47.364984" lon="7.834979">
<ele>906.5</ele>
<time>2003-02-20T09:31:35Z</time>
<speed>1.5</speed>
</trkpt>
<trkpt lat="47.365040" lon="7.834923">
<ele>904.8</ele>
<time>2003-02-20T09:31:40Z</time>
<speed>1.1</speed>
</trkpt>
<trkpt lat="47.365075" lon="7.834876">
<ele>903.9</ele>
<time>2003-02-20T09:31:45Z</time>
<speed>0.8</speed>
</trkpt>
<trkpt lat="47.365103" lon="7.834838">
<ele>905.2</ele>
<time>2003-02-20T09:31:50Z</time>
<speed>1.2</speed>
</trkpt>
<trkpt lat="47.365150" lon="7.834806">
<ele>904.4</ele>
<time>2003-02-20T09:31:55Z</time>
<speed>2.2</speed>
</trkpt>
<trkpt lat="47.365238" lon="7.834742">
<ele>902.2</ele>
<time>2003-02-20T09:32:00Z</time>
<speed>1.0</speed>
</trkpt>
<trkpt lat="47.365279" lon="7.834708">
<ele>902.1</ele>
<time>2003-02-20T09:32:05Z</time>
<speed>1.7</speed>
</trkpt>
<trkpt lat="47.365342" lon="7.834640">
<ele>899.7</ele>
<time>2003-02-20T09:32:10Z</time>
<speed>1.5</speed>
</trkpt>
<trkpt lat="47.365398" lon="7.834585">
<ele>896.7</ele>
<time>2003-02-20T09:32:15Z</time>
<speed>1.7</speed>
</trkpt>
<trkpt lat="47.365461" lon="7.834516">
<ele>895.8</ele>
<time>2003-02-20T09:32:20Z</time>
<speed>1.4</speed>
</trkpt>
<trkpt lat="47.365515" lon="7.834472">
<ele>894.2</ele>
<time>2003-02-20T09:32:25Z</time>
<speed>1.9</speed>
</trkpt>
<trkpt lat="47.365579" lon="7.834391">
<ele>891.8</ele>
<time>2003-02-20T09:32:30Z</time>
<speed>1.5</speed>
</trkpt>
<trkpt lat="47.365640" lon="7.834348">
<ele>891.0</ele>
<time>2003-02-20T09:32:35Z</time>
<speed>1.4</speed>
</trkpt>
<trkpt lat="47.365700" lon="7.834317">
<ele>890.3</ele>
<time>2003-02-20T09:32:40Z</time>
<speed>0.5</speed>
</trkpt>
<trkpt lat="47.365718" lon="7.834334">
<ele>889.8</ele>
<time>2003-02-20T09:32:45Z</time>
<speed>0.0</speed>
</trkpt>
<trkpt lat="47.365719" lon="7.834336">
<ele>888.4</ele>
<time>2003-02-20T09:32:50Z</time>
<speed>0.2</speed>
</trkpt>
<trkpt lat="47.365718" lon="7.834351">
<ele>887.1</ele>
<time>2003-02-20T09:32:55Z</time>
<speed>0.0</speed>
</trkpt>
<trkpt lat="47.365718" lon="7.834351">
<ele>887.1</ele>
<time>2003-02-20T09:33:00Z</time>
<speed>0.0</speed>
</trkpt>
<trkpt lat="47.365718" lon="7.834351">
<ele>887.1</ele>
<time>2003-02-20T09:33:05Z</time>
<speed>0.2</speed>
</trkpt>
<trkpt lat="47.365725" lon="7.834353">
<ele>886.4</ele>
<time>2003-02-20T09:33:10Z</time>
<speed>0.9</speed>
</trkpt>
<trkpt lat="47.365764" lon="7.834347">
<ele>885.1</ele>
<time>2003-02-20T09:33:15Z</time>
<speed>1.5</speed>
</trkpt>
<trkpt lat="47.365830" lon="7.834331">
<ele>883.8</ele>
<time>2003-02-20T09:33:20Z</time>
<speed>0.9</speed>
</trkpt>
<trkpt lat="47.365869" lon="7.834325">
<ele>882.5</ele>
<time>2003-02-20T09:33:25Z</time>
<speed>0.6</speed>
</trkpt>
<trkpt lat="47.365895" lon="7.834316">
<ele>882.6</ele>
<time>2003-02-20T09:33:30Z</time>
<speed>1.6</speed>
</trkpt>
<trkpt lat="47.365966" lon="7.834315">
<ele>880.7</ele>
<time>2003-02-20T09:33:35Z</time>
<speed>1.8</speed>
</trkpt>
<trkpt lat="47.366044" lon="7.834285">
<ele>882.2</ele>
<time>2003-02-20T09:33:40Z</time>
<speed>0.9</speed>
</trkpt>
<trkpt lat="47.366083" lon="7.834277">
<ele>882.3</ele>
<time>2003-02-20T09:33:45Z</time>
<speed>1.5</speed>
</trkpt>
<trkpt lat="47.366149" lon="7.834262">
<ele>881.1</ele>
<time>2003-02-20T09:33:50Z</time>
<speed>1.3</speed>
</trkpt>
<trkpt lat="47.366208" lon="7.834245">
<ele>880.5</ele>
<time>2003-02-20T09:33:55Z</time>
<speed>1.5</speed>
</trkpt>
<trkpt lat="47.366273" lon="7.834229">
<ele>879.2</ele>
<time>2003-02-20T09:34:00Z</time>
<speed>1.4</speed>
</trkpt>
<trkpt lat="47.366338" lon="7.834227">
<ele>878.0</ele>
<time>2003-02-20T09:34:05Z</time>
<speed>1.0</speed>
</trkpt>
<trkpt lat="47.366383" lon="7.834221">
<ele>877.4</ele>
<time>2003-02-20T09:34:10Z</time>
<speed>1.2</speed>
</trkpt>
<trkpt lat="47.366435" lon="7.834215">
<ele>877.6</ele>
<time>2003-02-20T09:34:15Z</time>
<speed>0.9</speed>
</trkpt>
<trkpt lat="47.366472" lon="7.834234">
<ele>877.9</ele>
<time>2003-02-20T09:34:20Z</time>
<speed>1.0</speed>
</trkpt>
<trkpt lat="47.366516" lon="7.834241">
<ele>877.4</ele>
<time>2003-02-20T09:34:25Z</time>
<speed>0.0</speed>
</trkpt>
<trkpt lat="47.366516" lon="7.834241">
<ele>877.4</ele>
<time>2003-02-20T09:34:30Z</time>
<speed>0.0</speed>
</trkpt>
<trkpt lat="47.366516" lon="7.834241">
<ele>877.4</ele>
<time>2003-02-20T09:34:35Z</time>
<speed>0.0</speed>
</trkpt>
<trkpt lat="47.366516" lon="7.834241">
<ele>877.4</ele>
<time>2003-02-20T09:34:40Z</time>
<speed>0.6</speed>
</trkpt>
<trkpt lat="47.366541" lon="7.834245">
<ele>877.6</ele>
<time>2003-02-20T09:34:45Z</time>
<speed>0.3</speed>
</trkpt>
<trkpt lat="47.366549" lon="7.834233">
<ele>876.8</ele>
<time>2003-02-20T09:34:50Z</time>
<speed>0.0</speed>
</trkpt>
<trkpt lat="47.366549" lon="7.834233">
<ele>876.8</ele>
<time>2003-02-20T09:34:55Z</time>
<speed>0.0</speed>
</trkpt>
<trkpt lat="47.366549" lon="7.834233">
<ele>876.8</ele>
<time>2003-02-20T09:35:00Z</time>
<speed>0.0</speed>
</trkpt>
<trkpt lat="47.366549" lon="7.834233">
<ele>876.8</ele>
<time>2003-02-20T09:35:05Z</time>
<speed>0.0</speed>
</trkpt>
<trkpt lat="47.366549" lon="7.834233">
<ele>876.8</ele>
<time>2003-02-20T09:35:10Z</time>
<speed>0.0</speed>
</trkpt>
<trkpt lat="47.366549" lon="7.834233">
<ele>876.8</ele>
<time>2003-02-20T09:35:15Z</time>
<speed>0.1</speed>
</trkpt>
<trkpt lat="47.366555" lon="7.834235">
<ele>876.1</ele>
<time>2003-02-20T09:35:20Z</time>
<speed>0.2</speed>
</trkpt>
<trkpt lat="47.366557" lon="7.834224">
<ele>874.6</ele>
<time>2003-02-20T09:35:25Z</time>
<speed>0.0</speed>
</trkpt>
<trkpt lat="47.366557" lon="7.834224">
<ele>874.6</ele>
<time>2003-02-20T09:35:30Z</time>
<speed>0.1</speed>
</trkpt>
<trkpt lat="47.366563" lon="7.834226">
<ele>874.0</ele>
<time>2003-02-20T09:35:35Z</time>
<speed>0.3</speed>
</trkpt>
<trkpt lat="47.366576" lon="7.834229">
<ele>872.6</ele>
<time>2003-02-20T09:35:40Z</time>
<speed>0.0</speed>
</trkpt>
<trkpt lat="47.366576" lon="7.834229">
<ele>872.6</ele>
<time>2003-02-20T09:35:45Z</time>
<speed>0.0</speed>
</trkpt>
<trkpt lat="47.366576" lon="7.834229">
<ele>872.6</ele>
<time>2003-02-20T09:35:50Z</time>
<speed>0.0</speed>
</trkpt>
<trkpt lat="47.366576" lon="7.834229">
<ele>872.6</ele>
<time>2003-02-20T09:35:55Z</time>
<speed>0.0</speed>
</trkpt>
<trkpt lat="47.366576" lon="7.834229">
<ele>872.6</ele>
<time>2003-02-20T09:36:00Z</time>
<speed>0.0</speed>
</trkpt>
<trkpt lat="47.366576" lon="7.834229">
<ele>872.6</ele>
<time>2003-02-20T09:36:05Z</time>
<speed>0.0</speed>
</trkpt>
<trkpt lat="47.366576" lon="7.834229">
<ele>872.6</ele>
<time>2003-02-20T09:36:10Z</time>
<speed>0.0</speed>
</trkpt>
<trkpt lat="47.366576" lon="7.834229">
<ele>872.6</ele>
<time>2003-02-20T09:36:15Z</time>
<speed>0.0</speed>
</trkpt>
<trkpt lat="47.366576" lon="7.834229">
<ele>872.6</ele>
<time>2003-02-20T09:36:20Z</time>
<speed>0.0</speed>
</trkpt>
<trkpt lat="47.366576" lon="7.834229">
<ele>872.6</ele>
<time>2003-02-20T09:36:25Z</time>
<speed>0.0</speed>
</trkpt>
<trkpt lat="47.366576" lon="7.834229">
<ele>872.6</ele>
<time>2003-02-20T09:36:30Z</time>
<speed>0.1</speed>
</trkpt>
<trkpt lat="47.366570" lon="7.834227">
<ele>873.3</ele>
<time>2003-02-20T09:36:35Z</time>
<speed>0.0</speed>
</trkpt>
<trkpt lat="47.366570" lon="7.834227">
<ele>873.3</ele>
<time>2003-02-20T09:36:40Z</time>
<speed>0.0</speed>
</trkpt>
<trkpt lat="47.366570" lon="7.834227">
<ele>873.3</ele>
<time>2003-02-20T09:36:45Z</time>
<speed>0.0</speed>
</trkpt>
<trkpt lat="47.366570" lon="7.834227">
<ele>873.3</ele>
<time>2003-02-20T09:36:50Z</time>
<speed>0.0</speed>
</trkpt>
<trkpt lat="47.366570" lon="7.834227">
<ele>873.3</ele>
<time>2003-02-20T09:36:55Z</time>
<speed>0.0</speed>
</trkpt>
<trkpt lat="47.366570" lon="7.834227">
<ele>873.3</ele>
<time>2003-02-20T09:37:00Z</time>
<speed>0.0</speed>
</trkpt>
<trkpt lat="47.366570" lon="7.834227">
<ele>873.3</ele>
<time>2003-02-20T09:37:05Z</time>
<speed>0.0</speed>
</trkpt>
<trkpt lat="47.366570" lon="7.834227">
<ele>873.3</ele>
<time>2003-02-20T09:37:10Z</time>
<speed>0.0</speed>
</trkpt>
<trkpt lat="47.366570" lon="7.834227">
<ele>873.3</ele>
<time>2003-02-20T09:37:15Z</time>
<speed>0.0</speed>
</trkpt>
<trkpt lat="47.366570" lon="7.834227">
<ele>873.3</ele>
<time>2003-02-20T09:37:20Z</time>
<speed>0.0</speed>
</trkpt>
<trkpt lat="47.366570" lon="7.834227">
<ele>873.3</ele>
<time>2003-02-20T09:37:25Z</time>
<speed>0.0</speed>
</trkpt>
<trkpt lat="47.366570" lon="7.834227">
<ele>873.3</ele>
<time>2003-02-20T09:37:30Z</time>
<speed>0.0</speed>
</trkpt>
<trkpt lat="47.366570" lon="7.834227">
<ele>873.3</ele>
<time>2003-02-20T09:37:35Z</time>
<speed>0.0</speed>
</trkpt>
<trkpt lat="47.366570" lon="7.834227">
<ele>873.3</ele>
<time>2003-02-20T09:37:40Z</time>
<speed>0.0</speed>
</trkpt>
<trkpt lat="47.366570" lon="7.834227">
<ele>873.3</ele>
<time>2003-02-20T09:37:45Z</time>
<speed>0.0</speed>
</trkpt>
<trkpt lat="47.366570" lon="7.834227">
<ele>873.3</ele>
<time>2003-02-20T09:37:50Z</time>
<speed>0.0</speed>
</trkpt>
<trkpt lat="47.366570" lon="7.834227">
<ele>873.3</ele>
<time>2003-02-20T09:37:55Z</time>
<speed>0.0</speed>
</trkpt>
<trkpt lat="47.366570" lon="7.834227">
<ele>873.3</ele>
<time>2003-02-20T09:38:00Z</time>
<speed>0.0</speed>
</trkpt>
<trkpt lat="47.366570" lon="7.834227">
<ele>873.3</ele>
<time>2003-02-20T09:38:05Z</time>
<speed>0.0</speed>
</trkpt>
<trkpt lat="47.366570" lon="7.834227">
<ele>873.3</ele>
<time>2003-02-20T09:38:10Z</time>
<speed>0.0</speed>
</trkpt>
<trkpt lat="47.366570" lon="7.834227">
<ele>873.3</ele>
<time>2003-02-20T09:38:15Z</time>
<speed>0.0</speed>
</trkpt>
<trkpt lat="47.366570" lon="7.834227">
<ele>873.3</ele>
<time>2003-02-20T09:38:20Z</time>
<speed>0.2</speed>
</trkpt>
<trkpt lat="47.366563" lon="7.834226">
<ele>874.0</ele>
<time>2003-02-20T09:38:25Z</time>
<speed>0.0</speed>
</trkpt>
<trkpt lat="47.366563" lon="7.834226">
<ele>874.0</ele>
<time>2003-02-20T09:38:30Z</time>
<speed>0.0</speed>
</trkpt>
<trkpt lat="47.366563" lon="7.834226">
<ele>874.0</ele>
<time>2003-02-20T09:38:35Z</time>
<speed>0.0</speed>
</trkpt>
<trkpt lat="47.366563" lon="7.834226">
<ele>874.0</ele>
<time>2003-02-20T09:38:40Z</time>
<speed>0.0</speed>
</trkpt>
<trkpt lat="47.366563" lon="7.834226">
<ele>874.0</ele>
<time>2003-02-20T09:38:45Z</time>
<speed>0.0</speed>
</trkpt>
<trkpt lat="47.366563" lon="7.834226">
<ele>874.0</ele>
<time>2003-02-20T09:38:50Z</time>
<speed>0.0</speed>
</trkpt>
<trkpt lat="47.366563" lon="7.834226">
<ele>874.0</ele>
<time>2003-02-20T09:38:55Z</time>
<speed>0.0</speed>
</trkpt>
<trkpt lat="47.366563" lon="7.834226">
<ele>874.0</ele>
<time>2003-02-20T09:39:00Z</time>
<speed>0.0</speed>
</trkpt>
<trkpt lat="47.366563" lon="7.834226">
<ele>874.0</ele>
<time>2003-02-20T09:39:05Z</time>
<speed>0.0</speed>
</trkpt>
<trkpt lat="47.366563" lon="7.834226">
<ele>874.0</ele>
<time>2003-02-20T09:39:10Z</time>
<speed>0.0</speed>
</trkpt>
<trkpt lat="47.366563" lon="7.834226">
<ele>874.0</ele>
<time>2003-02-20T09:39:15Z</time>
<speed>0.0</speed>
</trkpt>
<trkpt lat="47.366563" lon="7.834226">
<ele>874.0</ele>
<time>2003-02-20T09:39:20Z</time>
<speed>0.0</speed>
</trkpt>
<trkpt lat="47.366563" lon="7.834226">
<ele>874.0</ele>
<time>2003-02-20T09:39:25Z</time>
<speed>0.0</speed>
</trkpt>
<trkpt lat="47.366563" lon="7.834226">
<ele>874.0</ele>
<time>2003-02-20T09:39:30Z</time>
<speed>0.0</speed>
</trkpt>
<trkpt lat="47.366563" lon="7.834226">
<ele>874.0</ele>
<time>2003-02-20T09:39:35Z</time>
<speed>0.0</speed>
</trkpt>
<trkpt lat="47.366563" lon="7.834226">
<ele>874.0</ele>
<time>2003-02-20T09:39:40Z</time>
<speed>0.0</speed>
</trkpt>
<trkpt lat="47.366563" lon="7.834226">
<ele>874.0</ele>
<time>2003-02-20T09:39:45Z</time>
<speed>0.9</speed>
</trkpt>
<trkpt lat="47.366603" lon="7.834220">
<ele>872.6</ele>
<time>2003-02-20T09:39:50Z</time>
<speed>1.5</speed>
</trkpt>
<trkpt lat="47.366672" lon="7.834231">
<ele>872.3</ele>
<time>2003-02-20T09:39:55Z</time>
<speed>1.4</speed>
</trkpt>
<trkpt lat="47.366728" lon="7.834266">
<ele>872.1</ele>
<time>2003-02-20T09:40:00Z</time>
<speed>1.3</speed>
</trkpt>
<trkpt lat="47.366785" lon="7.834275">
<ele>871.7</ele>
<time>2003-02-20T09:40:05Z</time>
<speed>0.8</speed>
</trkpt>
<trkpt lat="47.366823" lon="7.834280">
<ele>871.9</ele>
<time>2003-02-20T09:40:10Z</time>
<speed>0.0</speed>
</trkpt>
<trkpt lat="47.366823" lon="7.834280">
<ele>871.9</ele>
<time>2003-02-20T09:40:15Z</time>
<speed>0.0</speed>
</trkpt>
<trkpt lat="47.366823" lon="7.834280">
<ele>871.9</ele>
<time>2003-02-20T09:40:20Z</time>
<speed>0.3</speed>
</trkpt>
<trkpt lat="47.366828" lon="7.834295">
<ele>871.3</ele>
<time>2003-02-20T09:40:25Z</time>
<speed>0.0</speed>
</trkpt>
<trkpt lat="47.366828" lon="7.834295">
<ele>871.3</ele>
<time>2003-02-20T09:40:30Z</time>
<speed>0.0</speed>
</trkpt>
<trkpt lat="47.366828" lon="7.834295">
<ele>871.3</ele>
<time>2003-02-20T09:40:35Z</time>
<speed>0.0</speed>
</trkpt>
<trkpt lat="47.366828" lon="7.834295">
<ele>871.3</ele>
<time>2003-02-20T09:40:40Z</time>
<speed>0.4</speed>
</trkpt>
<trkpt lat="47.366848" lon="7.834299">
<ele>870.7</ele>
<time>2003-02-20T09:40:45Z</time>
<speed>0.0</speed>
</trkpt>
<trkpt lat="47.366848" lon="7.834299">
<ele>870.7</ele>
<time>2003-02-20T09:40:50Z</time>
<speed>1.0</speed>
</trkpt>
<trkpt lat="47.366892" lon="7.834306">
<ele>870.2</ele>
<time>2003-02-20T09:40:55Z</time>
<speed>1.0</speed>
</trkpt>
<trkpt lat="47.366936" lon="7.834326">
<ele>869.8</ele>
<time>2003-02-20T09:41:00Z</time>
<speed>1.4</speed>
</trkpt>
<trkpt lat="47.366999" lon="7.834337">
<ele>868.7</ele>
<time>2003-02-20T09:41:05Z</time>
<speed>0.9</speed>
</trkpt>
<trkpt lat="47.367039" lon="7.834315">
<ele>870.1</ele>
<time>2003-02-20T09:41:10Z</time>
<speed>0.3</speed>
</trkpt>
<trkpt lat="47.367039" lon="7.834298">
<ele>872.9</ele>
<time>2003-02-20T09:41:15Z</time>
<speed>0.7</speed>
</trkpt>
<trkpt lat="47.367055" lon="7.834341">
<ele>872.5</ele>
<time>2003-02-20T09:41:20Z</time>
<speed>0.8</speed>
</trkpt>
<trkpt lat="47.367085" lon="7.834372">
<ele>872.2</ele>
<time>2003-02-20T09:41:25Z</time>
<speed>0.3</speed>
</trkpt>
<trkpt lat="47.367092" lon="7.834359">
<ele>872.8</ele>
<time>2003-02-20T09:41:30Z</time>
<speed>0.1</speed>
</trkpt>
<trkpt lat="47.367086" lon="7.834358">
<ele>873.5</ele>
<time>2003-02-20T09:41:35Z</time>
<speed>1.3</speed>
</trkpt>
<trkpt lat="47.367141" lon="7.834393">
<ele>873.3</ele>
<time>2003-02-20T09:41:40Z</time>
<speed>1.3</speed>
</trkpt>
<trkpt lat="47.367196" lon="7.834428">
<ele>873.0</ele>
<time>2003-02-20T09:41:45Z</time>
<speed>1.5</speed>
</trkpt>
<trkpt lat="47.367258" lon="7.834465">
<ele>872.1</ele>
<time>2003-02-20T09:41:50Z</time>
<speed>1.2</speed>
</trkpt>
<trkpt lat="47.367307" lon="7.834498">
<ele>872.6</ele>
<time>2003-02-20T09:41:55Z</time>
<speed>1.2</speed>
</trkpt>
<trkpt lat="47.367349" lon="7.834545">
<ele>872.4</ele>
<time>2003-02-20T09:42:00Z</time>
<speed>1.6</speed>
</trkpt>
<trkpt lat="47.367417" lon="7.834582">
<ele>872.2</ele>
<time>2003-02-20T09:42:05Z</time>
<speed>1.8</speed>
</trkpt>
<trkpt lat="47.367490" lon="7.834634">
<ele>871.5</ele>
<time>2003-02-20T09:42:10Z</time>
<speed>1.4</speed>
</trkpt>
<trkpt lat="47.367545" lon="7.834682">
<ele>871.3</ele>
<time>2003-02-20T09:42:15Z</time>
<speed>1.3</speed>
</trkpt>
<trkpt lat="47.367601" lon="7.834705">
<ele>871.0</ele>
<time>2003-02-20T09:42:20Z</time>
<speed>1.4</speed>
</trkpt>
<trkpt lat="47.367655" lon="7.834753">
<ele>870.9</ele>
<time>2003-02-20T09:42:25Z</time>
<speed>1.2</speed>
</trkpt>
<trkpt lat="47.367697" lon="7.834800">
<ele>870.7</ele>
<time>2003-02-20T09:42:30Z</time>
<speed>1.3</speed>
</trkpt>
<trkpt lat="47.367745" lon="7.834846">
<ele>871.2</ele>
<time>2003-02-20T09:42:35Z</time>
<speed>1.7</speed>
</trkpt>
<trkpt lat="47.367812" lon="7.834896">
<ele>871.2</ele>
<time>2003-02-20T09:42:40Z</time>
<speed>1.4</speed>
</trkpt>
<trkpt lat="47.367877" lon="7.834894">
<ele>870.0</ele>
<time>2003-02-20T09:42:45Z</time>
<speed>1.6</speed>
</trkpt>
<trkpt lat="47.367944" lon="7.834851">
<ele>869.9</ele>
<time>2003-02-20T09:42:50Z</time>
<speed>1.7</speed>
</trkpt>
<trkpt lat="47.368007" lon="7.834783">
<ele>867.6</ele>
<time>2003-02-20T09:42:55Z</time>
<speed>1.7</speed>
</trkpt>
<trkpt lat="47.368070" lon="7.834715">
<ele>865.2</ele>
<time>2003-02-20T09:43:00Z</time>
<speed>2.3</speed>
</trkpt>
<trkpt lat="47.368130" lon="7.834594">
<ele>861.7</ele>
<time>2003-02-20T09:43:05Z</time>
<speed>1.5</speed>
</trkpt>
<trkpt lat="47.368169" lon="7.834510">
<ele>859.1</ele>
<time>2003-02-20T09:43:10Z</time>
<speed>1.8</speed>
</trkpt>
<trkpt lat="47.368214" lon="7.834412">
<ele>857.2</ele>
<time>2003-02-20T09:43:15Z</time>
<speed>1.8</speed>
</trkpt>
<trkpt lat="47.368271" lon="7.834328">
<ele>856.8</ele>
<time>2003-02-20T09:43:20Z</time>
<speed>2.4</speed>
</trkpt>
<trkpt lat="47.368361" lon="7.834237">
<ele>854.3</ele>
<time>2003-02-20T09:43:25Z</time>
<speed>1.5</speed>
</trkpt>
<trkpt lat="47.368417" lon="7.834179">
<ele>854.1</ele>
<time>2003-02-20T09:43:30Z</time>
<speed>2.2</speed>
</trkpt>
<trkpt lat="47.368505" lon="7.834115">
<ele>851.9</ele>
<time>2003-02-20T09:43:35Z</time>
<speed>0.6</speed>
</trkpt>
<trkpt lat="47.368521" lon="7.834079">
<ele>850.3</ele>
<time>2003-02-20T09:43:40Z</time>
<speed>1.1</speed>
</trkpt>
<trkpt lat="47.368571" lon="7.834086">
<ele>850.5</ele>
<time>2003-02-20T09:43:45Z</time>
<speed>0.6</speed>
</trkpt>
<trkpt lat="47.368569" lon="7.834129">
<ele>848.0</ele>
<time>2003-02-20T09:43:50Z</time>
<speed>1.4</speed>
</trkpt>
<trkpt lat="47.368624" lon="7.834177">
<ele>847.9</ele>
<time>2003-02-20T09:43:55Z</time>
<speed>1.6</speed>
</trkpt>
<trkpt lat="47.368692" lon="7.834214">
<ele>847.7</ele>
<time>2003-02-20T09:44:00Z</time>
<speed>1.5</speed>
</trkpt>
<trkpt lat="47.368738" lon="7.834289">
<ele>847.0</ele>
<time>2003-02-20T09:44:05Z</time>
<speed>1.5</speed>
</trkpt>
<trkpt lat="47.368779" lon="7.834364">
<ele>845.6</ele>
<time>2003-02-20T09:44:10Z</time>
<speed>1.6</speed>
</trkpt>
<trkpt lat="47.368839" lon="7.834427">
<ele>844.9</ele>
<time>2003-02-20T09:44:15Z</time>
<speed>1.2</speed>
</trkpt>
<trkpt lat="47.368866" lon="7.834498">
<ele>844.8</ele>
<time>2003-02-20T09:44:20Z</time>
<speed>1.3</speed>
</trkpt>
<trkpt lat="47.368907" lon="7.834558">
<ele>844.7</ele>
<time>2003-02-20T09:44:25Z</time>
<speed>0.3</speed>
</trkpt>
<trkpt lat="47.368919" lon="7.834572">
<ele>844.9</ele>
<time>2003-02-20T09:44:30Z</time>
<speed>0.3</speed>
</trkpt>
<trkpt lat="47.368932" lon="7.834574">
<ele>844.9</ele>
<time>2003-02-20T09:44:35Z</time>
<speed>0.6</speed>
</trkpt>
<trkpt lat="47.368935" lon="7.834615">
<ele>844.5</ele>
<time>2003-02-20T09:44:40Z</time>
<speed>0.7</speed>
</trkpt>
<trkpt lat="47.368959" lon="7.834645">
<ele>844.8</ele>
<time>2003-02-20T09:44:45Z</time>
<speed>1.3</speed>
</trkpt>
<trkpt lat="47.368993" lon="7.834718">
<ele>844.1</ele>
<time>2003-02-20T09:44:50Z</time>
<speed>1.5</speed>
</trkpt>
<trkpt lat="47.369046" lon="7.834780">
<ele>844.0</ele>
<time>2003-02-20T09:44:55Z</time>
<speed>0.2</speed>
</trkpt>
<trkpt lat="47.369052" lon="7.834794">
<ele>843.5</ele>
<time>2003-02-20T09:45:00Z</time>
<speed>0.1</speed>
</trkpt>
<trkpt lat="47.369058" lon="7.834794">
<ele>844.2</ele>
<time>2003-02-20T09:45:05Z</time>
<speed>0.0</speed>
</trkpt>
<trkpt lat="47.369058" lon="7.834794">
<ele>844.2</ele>
<time>2003-02-20T09:45:10Z</time>
<speed>0.6</speed>
</trkpt>
<trkpt lat="47.369062" lon="7.834836">
<ele>843.8</ele>
<time>2003-02-20T09:45:15Z</time>
<speed>0.3</speed>
</trkpt>
<trkpt lat="47.369075" lon="7.834837">
<ele>843.9</ele>
<time>2003-02-20T09:45:20Z</time>
<speed>0.0</speed>
</trkpt>
<trkpt lat="47.369075" lon="7.834837">
<ele>843.9</ele>
<time>2003-02-20T09:45:25Z</time>
<speed>0.0</speed>
</trkpt>
<trkpt lat="47.369075" lon="7.834837">
<ele>843.9</ele>
<time>2003-02-20T09:45:30Z</time>
<speed>0.1</speed>
</trkpt>
<trkpt lat="47.369069" lon="7.834837">
<ele>843.1</ele>
<time>2003-02-20T09:45:35Z</time>
<speed>0.3</speed>
</trkpt>
<trkpt lat="47.369080" lon="7.834852">
<ele>843.3</ele>
<time>2003-02-20T09:45:40Z</time>
<speed>1.2</speed>
</trkpt>
<trkpt lat="47.369129" lon="7.834888">
<ele>842.3</ele>
<time>2003-02-20T09:45:45Z</time>
<speed>1.3</speed>
</trkpt>
<trkpt lat="47.369177" lon="7.834934">
<ele>842.9</ele>
<time>2003-02-20T09:45:50Z</time>
<speed>1.4</speed>
</trkpt>
<trkpt lat="47.369217" lon="7.835007">
<ele>842.9</ele>
<time>2003-02-20T09:45:55Z</time>
<speed>1.4</speed>
</trkpt>
<trkpt lat="47.369272" lon="7.835055">
<ele>842.7</ele>
<time>2003-02-20T09:46:00Z</time>
<speed>1.4</speed>
</trkpt>
<trkpt lat="47.369312" lon="7.835128">
<ele>842.7</ele>
<time>2003-02-20T09:46:05Z</time>
<speed>1.6</speed>
</trkpt>
<trkpt lat="47.369364" lon="7.835203">
<ele>842.8</ele>
<time>2003-02-20T09:46:10Z</time>
<speed>1.1</speed>
</trkpt>
<trkpt lat="47.369407" lon="7.835236">
<ele>842.5</ele>
<time>2003-02-20T09:46:15Z</time>
<speed>0.8</speed>
</trkpt>
<trkpt lat="47.369430" lon="7.835279">
<ele>842.9</ele>
<time>2003-02-20T09:46:20Z</time>
<speed>1.2</speed>
</trkpt>
<trkpt lat="47.369457" lon="7.835350">
<ele>842.8</ele>
<time>2003-02-20T09:46:25Z</time>
<speed>1.7</speed>
</trkpt>
<trkpt lat="47.369489" lon="7.835449">
<ele>842.2</ele>
<time>2003-02-20T09:46:30Z</time>
<speed>1.2</speed>
</trkpt>
<trkpt lat="47.369478" lon="7.835528">
<ele>842.0</ele>
<time>2003-02-20T09:46:35Z</time>
<speed>1.5</speed>
</trkpt>
<trkpt lat="47.369497" lon="7.835625">
<ele>841.4</ele>
<time>2003-02-20T09:46:40Z</time>
<speed>1.5</speed>
</trkpt>
<trkpt lat="47.369516" lon="7.835720">
<ele>842.2</ele>
<time>2003-02-20T09:46:45Z</time>
<speed>1.5</speed>
</trkpt>
<trkpt lat="47.369523" lon="7.835816">
<ele>841.5</ele>
<time>2003-02-20T09:46:50Z</time>
<speed>1.2</speed>
</trkpt>
<trkpt lat="47.369530" lon="7.835898">
<ele>840.7</ele>
<time>2003-02-20T09:46:55Z</time>
<speed>1.5</speed>
</trkpt>
<trkpt lat="47.369550" lon="7.835995">
<ele>840.1</ele>
<time>2003-02-20T09:47:00Z</time>
<speed>1.2</speed>
</trkpt>
<trkpt lat="47.369557" lon="7.836076">
<ele>840.7</ele>
<time>2003-02-20T09:47:05Z</time>
<speed>1.4</speed>
</trkpt>
<trkpt lat="47.369558" lon="7.836171">
<ele>839.3</ele>
<time>2003-02-20T09:47:10Z</time>
<speed>1.2</speed>
</trkpt>
<trkpt lat="47.369565" lon="7.836252">
<ele>839.9</ele>
<time>2003-02-20T09:47:15Z</time>
<speed>1.5</speed>
</trkpt>
<trkpt lat="47.369584" lon="7.836347">
<ele>840.7</ele>
<time>2003-02-20T09:47:20Z</time>
<speed>1.5</speed>
</trkpt>
<trkpt lat="47.369591" lon="7.836443">
<ele>840.0</ele>
<time>2003-02-20T09:47:25Z</time>
<speed>1.4</speed>
</trkpt>
<trkpt lat="47.369618" lon="7.836528">
<ele>838.6</ele>
<time>2003-02-20T09:47:30Z</time>
<speed>1.3</speed>
</trkpt>
<trkpt lat="47.369632" lon="7.836611">
<ele>838.5</ele>
<time>2003-02-20T09:47:35Z</time>
<speed>1.6</speed>
</trkpt>
<trkpt lat="47.369631" lon="7.836719">
<ele>837.2</ele>
<time>2003-02-20T09:47:40Z</time>
<speed>1.2</speed>
</trkpt>
<trkpt lat="47.369633" lon="7.836800">
<ele>837.1</ele>
<time>2003-02-20T09:47:45Z</time>
<speed>1.4</speed>
</trkpt>
<trkpt lat="47.369659" lon="7.836886">
<ele>835.7</ele>
<time>2003-02-20T09:47:50Z</time>
<speed>1.4</speed>
</trkpt>
<trkpt lat="47.369686" lon="7.836970">
<ele>835.7</ele>
<time>2003-02-20T09:47:55Z</time>
<speed>1.6</speed>
</trkpt>
<trkpt lat="47.369712" lon="7.837069">
<ele>834.4</ele>
<time>2003-02-20T09:48:00Z</time>
<speed>1.2</speed>
</trkpt>
<trkpt lat="47.369707" lon="7.837149">
<ele>833.5</ele>
<time>2003-02-20T09:48:05Z</time>
<speed>1.6</speed>
</trkpt>
<trkpt lat="47.369707" lon="7.837258">
<ele>832.2</ele>
<time>2003-02-20T09:48:10Z</time>
<speed>1.3</speed>
</trkpt>
<trkpt lat="47.369720" lon="7.837340">
<ele>832.1</ele>
<time>2003-02-20T09:48:15Z</time>
<speed>1.3</speed>
</trkpt>
<trkpt lat="47.369741" lon="7.837424">
<ele>831.4</ele>
<time>2003-02-20T09:48:20Z</time>
<speed>1.6</speed>
</trkpt>
<trkpt lat="47.369772" lon="7.837521">
<ele>832.3</ele>
<time>2003-02-20T09:48:25Z</time>
<speed>1.6</speed>
</trkpt>
<trkpt lat="47.369812" lon="7.837607">
<ele>832.3</ele>
<time>2003-02-20T09:48:30Z</time>
<speed>1.3</speed>
</trkpt>
<trkpt lat="47.369832" lon="7.837691">
<ele>831.6</ele>
<time>2003-02-20T09:48:35Z</time>
<speed>1.4</speed>
</trkpt>
<trkpt lat="47.369858" lon="7.837776">
<ele>831.6</ele>
<time>2003-02-20T09:48:40Z</time>
<speed>1.3</speed>
</trkpt>
<trkpt lat="47.369872" lon="7.837858">
<ele>831.6</ele>
<time>2003-02-20T09:48:45Z</time>
<speed>1.3</speed>
</trkpt>
<trkpt lat="47.369892" lon="7.837942">
<ele>830.8</ele>
<time>2003-02-20T09:48:50Z</time>
<speed>1.3</speed>
</trkpt>
<trkpt lat="47.369906" lon="7.838024">
<ele>830.8</ele>
<time>2003-02-20T09:48:55Z</time>
<speed>1.4</speed>
</trkpt>
<trkpt lat="47.369913" lon="7.838118">
<ele>831.5</ele>
<time>2003-02-20T09:49:00Z</time>
<speed>1.2</speed>
</trkpt>
<trkpt lat="47.369926" lon="7.838198">
<ele>832.9</ele>
<time>2003-02-20T09:49:05Z</time>
<speed>1.2</speed>
</trkpt>
<trkpt lat="47.369927" lon="7.838279">
<ele>832.7</ele>
<time>2003-02-20T09:49:10Z</time>
<speed>1.5</speed>
</trkpt>
<trkpt lat="47.369960" lon="7.838365">
<ele>832.1</ele>
<time>2003-02-20T09:49:15Z</time>
<speed>1.5</speed>
</trkpt>
<trkpt lat="47.369993" lon="7.838449">
<ele>832.8</ele>
<time>2003-02-20T09:49:20Z</time>
<speed>1.2</speed>
</trkpt>
<trkpt lat="47.370020" lon="7.838520">
<ele>832.8</ele>
<time>2003-02-20T09:49:25Z</time>
<speed>1.3</speed>
</trkpt>
<trkpt lat="47.370034" lon="7.838602">
<ele>832.7</ele>
<time>2003-02-20T09:49:30Z</time>
<speed>1.4</speed>
</trkpt>
<trkpt lat="47.370060" lon="7.838686">
<ele>832.7</ele>
<time>2003-02-20T09:49:35Z</time>
<speed>1.5</speed>
</trkpt>
<trkpt lat="47.370093" lon="7.838770">
<ele>833.5</ele>
<time>2003-02-20T09:49:40Z</time>
<speed>1.4</speed>
</trkpt>
<trkpt lat="47.370140" lon="7.838832">
<ele>832.7</ele>
<time>2003-02-20T09:49:45Z</time>
<speed>1.2</speed>
</trkpt>
<trkpt lat="47.370175" lon="7.838891">
<ele>831.8</ele>
<time>2003-02-20T09:49:50Z</time>
<speed>1.3</speed>
</trkpt>
<trkpt lat="47.370208" lon="7.838962">
<ele>832.5</ele>
<time>2003-02-20T09:49:55Z</time>
<speed>1.4</speed>
</trkpt>
<trkpt lat="47.370256" lon="7.839024">
<ele>831.7</ele>
<time>2003-02-20T09:50:00Z</time>
<speed>1.5</speed>
</trkpt>
<trkpt lat="47.370302" lon="7.839099">
<ele>831.0</ele>
<time>2003-02-20T09:50:05Z</time>
<speed>1.5</speed>
</trkpt>
<trkpt lat="47.370349" lon="7.839173">
<ele>830.3</ele>
<time>2003-02-20T09:50:10Z</time>
<speed>1.1</speed>
</trkpt>
<trkpt lat="47.370363" lon="7.839242">
<ele>830.2</ele>
<time>2003-02-20T09:50:15Z</time>
<speed>1.5</speed>
</trkpt>
<trkpt lat="47.370396" lon="7.839328">
<ele>829.5</ele>
<time>2003-02-20T09:50:20Z</time>
<speed>1.5</speed>
</trkpt>
<trkpt lat="47.370403" lon="7.839424">
<ele>828.9</ele>
<time>2003-02-20T09:50:25Z</time>
<speed>1.4</speed>
</trkpt>
<trkpt lat="47.370438" lon="7.839498">
<ele>826.7</ele>
<time>2003-02-20T09:50:30Z</time>
<speed>1.4</speed>
</trkpt>
<trkpt lat="47.370478" lon="7.839573">
<ele>825.3</ele>
<time>2003-02-20T09:50:35Z</time>
<speed>1.7</speed>
</trkpt>
<trkpt lat="47.370539" lon="7.839638">
<ele>823.2</ele>
<time>2003-02-20T09:50:40Z</time>
<speed>1.4</speed>
</trkpt>
<trkpt lat="47.370586" lon="7.839701">
<ele>821.0</ele>
<time>2003-02-20T09:50:45Z</time>
<speed>1.5</speed>
</trkpt>
<trkpt lat="47.370633" lon="7.839776">
<ele>820.3</ele>
<time>2003-02-20T09:50:50Z</time>
<speed>1.5</speed>
</trkpt>
<trkpt lat="47.370687" lon="7.839839">
<ele>818.8</ele>
<time>2003-02-20T09:50:55Z</time>
<speed>2.0</speed>
</trkpt>
<trkpt lat="47.370759" lon="7.839919">
<ele>816.9</ele>
<time>2003-02-20T09:51:00Z</time>
<speed>1.6</speed>
</trkpt>
<trkpt lat="47.370807" lon="7.839997">
<ele>813.4</ele>
<time>2003-02-20T09:51:05Z</time>
<speed>1.8</speed>
</trkpt>
<trkpt lat="47.370866" lon="7.840074">
<ele>812.8</ele>
<time>2003-02-20T09:51:10Z</time>
<speed>1.6</speed>
</trkpt>
<trkpt lat="47.370905" lon="7.840161">
<ele>811.4</ele>
<time>2003-02-20T09:51:15Z</time>
<speed>1.3</speed>
</trkpt>
<trkpt lat="47.370939" lon="7.840234">
<ele>810.7</ele>
<time>2003-02-20T09:51:20Z</time>
<speed>1.5</speed>
</trkpt>
<trkpt lat="47.370986" lon="7.840309">
<ele>810.0</ele>
<time>2003-02-20T09:51:25Z</time>
<speed>1.3</speed>
</trkpt>
<trkpt lat="47.371019" lon="7.840380">
<ele>810.6</ele>
<time>2003-02-20T09:51:30Z</time>
<speed>1.7</speed>
</trkpt>
<trkpt lat="47.371087" lon="7.840432">
<ele>809.2</ele>
<time>2003-02-20T09:51:35Z</time>
<speed>1.4</speed>
</trkpt>
<trkpt lat="47.371134" lon="7.840493">
<ele>808.4</ele>
<time>2003-02-20T09:51:40Z</time>
<speed>0.6</speed>
</trkpt>
<trkpt lat="47.371138" lon="7.840533">
<ele>809.4</ele>
<time>2003-02-20T09:51:45Z</time>
<speed>0.2</speed>
</trkpt>
<trkpt lat="47.371130" lon="7.840544">
<ele>810.2</ele>
<time>2003-02-20T09:51:50Z</time>
<speed>0.6</speed>
</trkpt>
<trkpt lat="47.371114" lon="7.840578">
<ele>813.2</ele>
<time>2003-02-20T09:51:55Z</time>
<speed>0.9</speed>
</trkpt>
<trkpt lat="47.371143" lon="7.840621">
<ele>814.3</ele>
<time>2003-02-20T09:52:00Z</time>
<speed>1.2</speed>
</trkpt>
<trkpt lat="47.371156" lon="7.840701">
<ele>815.7</ele>
<time>2003-02-20T09:52:05Z</time>
<speed>1.0</speed>
</trkpt>
<trkpt lat="47.371193" lon="7.840735">
<ele>814.7</ele>
<time>2003-02-20T09:52:10Z</time>
<speed>1.5</speed>
</trkpt>
<trkpt lat="47.371239" lon="7.840809">
<ele>814.0</ele>
<time>2003-02-20T09:52:15Z</time>
<speed>1.4</speed>
</trkpt>
<trkpt lat="47.371287" lon="7.840873">
<ele>811.8</ele>
<time>2003-02-20T09:52:20Z</time>
<speed>1.2</speed>
</trkpt>
<trkpt lat="47.371321" lon="7.840931">
<ele>812.4</ele>
<time>2003-02-20T09:52:25Z</time>
<speed>1.3</speed>
</trkpt>
<trkpt lat="47.371363" lon="7.840992">
<ele>810.8</ele>
<time>2003-02-20T09:52:30Z</time>
<speed>1.3</speed>
</trkpt>
<trkpt lat="47.371383" lon="7.841076">
<ele>810.1</ele>
<time>2003-02-20T09:52:35Z</time>
<speed>1.2</speed>
</trkpt>
<trkpt lat="47.371405" lon="7.841149">
<ele>807.9</ele>
<time>2003-02-20T09:52:40Z</time>
<speed>1.6</speed>
</trkpt>
<trkpt lat="47.371430" lon="7.841246">
<ele>808.0</ele>
<time>2003-02-20T09:52:45Z</time>
<speed>0.5</speed>
</trkpt>
<trkpt lat="47.371442" lon="7.841276">
<ele>806.8</ele>
<time>2003-02-20T09:52:50Z</time>
<speed>0.6</speed>
</trkpt>
<trkpt lat="47.371451" lon="7.841240">
<ele>804.5</ele>
<time>2003-02-20T09:52:55Z</time>
<speed>0.4</speed>
</trkpt>
<trkpt lat="47.371456" lon="7.841268">
<ele>804.0</ele>
<time>2003-02-20T09:53:00Z</time>
<speed>0.9</speed>
</trkpt>
<trkpt lat="47.371466" lon="7.841326">
<ele>801.6</ele>
<time>2003-02-20T09:53:05Z</time>
<speed>1.7</speed>
</trkpt>
<trkpt lat="47.371519" lon="7.841403">
<ele>800.3</ele>
<time>2003-02-20T09:53:10Z</time>
<speed>1.2</speed>
</trkpt>
<trkpt lat="47.371554" lon="7.841464">
<ele>798.0</ele>
<time>2003-02-20T09:53:15Z</time>
<speed>1.6</speed>
</trkpt>
<trkpt lat="47.371593" lon="7.841550">
<ele>798.1</ele>
<time>2003-02-20T09:53:20Z</time>
<speed>1.4</speed>
</trkpt>
<trkpt lat="47.371615" lon="7.841638">
<ele>794.6</ele>
<time>2003-02-20T09:53:25Z</time>
<speed>1.6</speed>
</trkpt>
<trkpt lat="47.371641" lon="7.841737">
<ele>793.3</ele>
<time>2003-02-20T09:53:30Z</time>
<speed>1.3</speed>
</trkpt>
<trkpt lat="47.371661" lon="7.841819">
<ele>793.9</ele>
<time>2003-02-20T09:53:35Z</time>
<speed>1.4</speed>
</trkpt>
<trkpt lat="47.371708" lon="7.841881">
<ele>793.2</ele>
<time>2003-02-20T09:53:40Z</time>
<speed>1.2</speed>
</trkpt>
<trkpt lat="47.371729" lon="7.841952">
<ele>792.4</ele>
<time>2003-02-20T09:53:45Z</time>
<speed>1.3</speed>
</trkpt>
<trkpt lat="47.371763" lon="7.842024">
<ele>791.6</ele>
<time>2003-02-20T09:53:50Z</time>
<speed>1.3</speed>
</trkpt>
<trkpt lat="47.371797" lon="7.842097">
<ele>790.9</ele>
<time>2003-02-20T09:53:55Z</time>
<speed>1.3</speed>
</trkpt>
<trkpt lat="47.371817" lon="7.842181">
<ele>790.1</ele>
<time>2003-02-20T09:54:00Z</time>
<speed>1.3</speed>
</trkpt>
<trkpt lat="47.371825" lon="7.842264">
<ele>789.3</ele>
<time>2003-02-20T09:54:05Z</time>
<speed>1.5</speed>
</trkpt>
<trkpt lat="47.371844" lon="7.842361">
<ele>788.7</ele>
<time>2003-02-20T09:54:10Z</time>
<speed>1.6</speed>
</trkpt>
<trkpt lat="47.371884" lon="7.842450">
<ele>786.0</ele>
<time>2003-02-20T09:54:15Z</time>
<speed>1.5</speed>
</trkpt>
<trkpt lat="47.371912" lon="7.842538">
<ele>783.2</ele>
<time>2003-02-20T09:54:20Z</time>
<speed>1.4</speed>
</trkpt>
<trkpt lat="47.371946" lon="7.842613">
<ele>781.0</ele>
<time>2003-02-20T09:54:25Z</time>
<speed>1.5</speed>
</trkpt>
<trkpt lat="47.371974" lon="7.842700">
<ele>778.2</ele>
<time>2003-02-20T09:54:30Z</time>
<speed>1.6</speed>
</trkpt>
<trkpt lat="47.372000" lon="7.842799">
<ele>776.9</ele>
<time>2003-02-20T09:54:35Z</time>
<speed>1.1</speed>
</trkpt>
<trkpt lat="47.372015" lon="7.842870">
<ele>775.4</ele>
<time>2003-02-20T09:54:40Z</time>
<speed>1.6</speed>
</trkpt>
<trkpt lat="47.372054" lon="7.842958">
<ele>774.0</ele>
<time>2003-02-20T09:54:45Z</time>
<speed>1.3</speed>
</trkpt>
<trkpt lat="47.372068" lon="7.843042">
<ele>772.6</ele>
<time>2003-02-20T09:54:50Z</time>
<speed>1.6</speed>
</trkpt>
<trkpt lat="47.372094" lon="7.843140">
<ele>772.7</ele>
<time>2003-02-20T09:54:55Z</time>
<speed>1.3</speed>
</trkpt>
<trkpt lat="47.372114" lon="7.843224">
<ele>772.0</ele>
<time>2003-02-20T09:55:00Z</time>
<speed>1.4</speed>
</trkpt>
<trkpt lat="47.372141" lon="7.843310">
<ele>770.6</ele>
<time>2003-02-20T09:55:05Z</time>
<speed>1.3</speed>
</trkpt>
<trkpt lat="47.372155" lon="7.843392">
<ele>770.5</ele>
<time>2003-02-20T09:55:10Z</time>
<speed>1.4</speed>
</trkpt>
<trkpt lat="47.372195" lon="7.843466">
<ele>769.1</ele>
<time>2003-02-20T09:55:15Z</time>
<speed>1.4</speed>
</trkpt>
<trkpt lat="47.372216" lon="7.843551">
<ele>768.4</ele>
<time>2003-02-20T09:55:20Z</time>
<speed>1.4</speed>
</trkpt>
<trkpt lat="47.372223" lon="7.843646">
<ele>767.7</ele>
<time>2003-02-20T09:55:25Z</time>
<speed>1.6</speed>
</trkpt>
<trkpt lat="47.372249" lon="7.843745">
<ele>766.4</ele>
<time>2003-02-20T09:55:30Z</time>
<speed>1.3</speed>
</trkpt>
<trkpt lat="47.372269" lon="7.843829">
<ele>765.7</ele>
<time>2003-02-20T09:55:35Z</time>
<speed>1.4</speed>
</trkpt>
<trkpt lat="47.372296" lon="7.843915">
<ele>764.3</ele>
<time>2003-02-20T09:55:40Z</time>
<speed>1.3</speed>
</trkpt>
<trkpt lat="47.372316" lon="7.843999">
<ele>763.5</ele>
<time>2003-02-20T09:55:45Z</time>
<speed>1.5</speed>
</trkpt>
<trkpt lat="47.372350" lon="7.844087">
<ele>761.5</ele>
<time>2003-02-20T09:55:50Z</time>
<speed>1.3</speed>
</trkpt>
<trkpt lat="47.372369" lon="7.844169">
<ele>762.2</ele>
<time>2003-02-20T09:55:55Z</time>
<speed>1.1</speed>
</trkpt>
<trkpt lat="47.372385" lon="7.844240">
<ele>760.6</ele>
<time>2003-02-20T09:56:00Z</time>
<speed>1.3</speed>
</trkpt>
<trkpt lat="47.372398" lon="7.844322">
<ele>760.6</ele>
<time>2003-02-20T09:56:05Z</time>
<speed>1.3</speed>
</trkpt>
<trkpt lat="47.372406" lon="7.844405">
<ele>759.8</ele>
<time>2003-02-20T09:56:10Z</time>
<speed>1.6</speed>
</trkpt>
<trkpt lat="47.372432" lon="7.844502">
<ele>759.9</ele>
<time>2003-02-20T09:56:15Z</time>
<speed>1.3</speed>
</trkpt>
<trkpt lat="47.372445" lon="7.844584">
<ele>759.8</ele>
<time>2003-02-20T09:56:20Z</time>
<speed>1.4</speed>
</trkpt>
<trkpt lat="47.372427" lon="7.844676">
<ele>759.0</ele>
<time>2003-02-20T09:56:25Z</time>
<speed>1.2</speed>
</trkpt>
<trkpt lat="47.372428" lon="7.844758">
<ele>757.5</ele>
<time>2003-02-20T09:56:30Z</time>
<speed>1.1</speed>
</trkpt>
<trkpt lat="47.372431" lon="7.844828">
<ele>755.9</ele>
<time>2003-02-20T09:56:35Z</time>
<speed>1.2</speed>
</trkpt>
<trkpt lat="47.372433" lon="7.844910">
<ele>754.3</ele>
<time>2003-02-20T09:56:40Z</time>
<speed>1.2</speed>
</trkpt>
<trkpt lat="47.372434" lon="7.844990">
<ele>754.2</ele>
<time>2003-02-20T09:56:45Z</time>
<speed>1.3</speed>
</trkpt>
<trkpt lat="47.372441" lon="7.845073">
<ele>753.4</ele>
<time>2003-02-20T09:56:50Z</time>
<speed>1.4</speed>
</trkpt>
<trkpt lat="47.372422" lon="7.845163">
<ele>754.0</ele>
<time>2003-02-20T09:56:55Z</time>
<speed>1.2</speed>
</trkpt>
<trkpt lat="47.372424" lon="7.845245">
<ele>752.5</ele>
<time>2003-02-20T09:57:00Z</time>
<speed>1.5</speed>
</trkpt>
<trkpt lat="47.372431" lon="7.845342">
<ele>750.4</ele>
<time>2003-02-20T09:57:05Z</time>
<speed>1.3</speed>
</trkpt>
<trkpt lat="47.372446" lon="7.845426">
<ele>748.9</ele>
<time>2003-02-20T09:57:10Z</time>
<speed>1.3</speed>
</trkpt>
<trkpt lat="47.372460" lon="7.845510">
<ele>747.5</ele>
<time>2003-02-20T09:57:15Z</time>
<speed>1.2</speed>
</trkpt>
<trkpt lat="47.372461" lon="7.845591">
<ele>747.4</ele>
<time>2003-02-20T09:57:20Z</time>
<speed>1.3</speed>
</trkpt>
<trkpt lat="47.372475" lon="7.845675">
<ele>745.9</ele>
<time>2003-02-20T09:57:25Z</time>
<speed>1.2</speed>
</trkpt>
<trkpt lat="47.372483" lon="7.845757">
<ele>745.1</ele>
<time>2003-02-20T09:57:30Z</time>
<speed>1.5</speed>
</trkpt>
<trkpt lat="47.372490" lon="7.845853">
<ele>744.4</ele>
<time>2003-02-20T09:57:35Z</time>
<speed>1.2</speed>
</trkpt>
<trkpt lat="47.372485" lon="7.845935">
<ele>742.2</ele>
<time>2003-02-20T09:57:40Z</time>
<speed>1.4</speed>
</trkpt>
<trkpt lat="47.372479" lon="7.846029">
<ele>741.4</ele>
<time>2003-02-20T09:57:45Z</time>
<speed>1.2</speed>
</trkpt>
<trkpt lat="47.372481" lon="7.846111">
<ele>739.9</ele>
<time>2003-02-20T09:57:50Z</time>
<speed>1.4</speed>
</trkpt>
<trkpt lat="47.372468" lon="7.846203">
<ele>739.8</ele>
<time>2003-02-20T09:57:55Z</time>
<speed>1.6</speed>
</trkpt>
<trkpt lat="47.372462" lon="7.846310">
<ele>739.1</ele>
<time>2003-02-20T09:58:00Z</time>
<speed>1.4</speed>
</trkpt>
<trkpt lat="47.372449" lon="7.846401">
<ele>739.0</ele>
<time>2003-02-20T09:58:05Z</time>
<speed>1.4</speed>
</trkpt>
<trkpt lat="47.372443" lon="7.846495">
<ele>738.3</ele>
<time>2003-02-20T09:58:10Z</time>
<speed>1.4</speed>
</trkpt>
<trkpt lat="47.372431" lon="7.846587">
<ele>738.2</ele>
<time>2003-02-20T09:58:15Z</time>
<speed>1.4</speed>
</trkpt>
<trkpt lat="47.372438" lon="7.846682">
<ele>737.5</ele>
<time>2003-02-20T09:58:20Z</time>
<speed>1.5</speed>
</trkpt>
<trkpt lat="47.372413" lon="7.846772">
<ele>737.3</ele>
<time>2003-02-20T09:58:25Z</time>
<speed>1.4</speed>
</trkpt>
<trkpt lat="47.372394" lon="7.846862">
<ele>737.9</ele>
<time>2003-02-20T09:58:30Z</time>
<speed>1.3</speed>
</trkpt>
<trkpt lat="47.372390" lon="7.846946">
<ele>734.3</ele>
<time>2003-02-20T09:58:35Z</time>
<speed>1.2</speed>
</trkpt>
<trkpt lat="47.372385" lon="7.847027">
<ele>733.4</ele>
<time>2003-02-20T09:58:40Z</time>
<speed>1.4</speed>
</trkpt>
<trkpt lat="47.372373" lon="7.847120">
<ele>731.9</ele>
<time>2003-02-20T09:58:45Z</time>
<speed>1.2</speed>
</trkpt>
<trkpt lat="47.372374" lon="7.847201">
<ele>731.8</ele>
<time>2003-02-20T09:58:50Z</time>
<speed>1.4</speed>
</trkpt>
<trkpt lat="47.372362" lon="7.847293">
<ele>731.7</ele>
<time>2003-02-20T09:58:55Z</time>
<speed>1.4</speed>
</trkpt>
<trkpt lat="47.372356" lon="7.847386">
<ele>731.0</ele>
<time>2003-02-20T09:59:00Z</time>
<speed>1.2</speed>
</trkpt>
<trkpt lat="47.372344" lon="7.847465">
<ele>730.8</ele>
<time>2003-02-20T09:59:05Z</time>
<speed>1.2</speed>
</trkpt>
<trkpt lat="47.372333" lon="7.847546">
<ele>729.2</ele>
<time>2003-02-20T09:59:10Z</time>
<speed>1.4</speed>
</trkpt>
<trkpt lat="47.372327" lon="7.847639">
<ele>728.4</ele>
<time>2003-02-20T09:59:15Z</time>
<speed>1.2</speed>
</trkpt>
<trkpt lat="47.372310" lon="7.847718">
<ele>727.5</ele>
<time>2003-02-20T09:59:20Z</time>
<speed>1.4</speed>
</trkpt>
<trkpt lat="47.372298" lon="7.847811">
<ele>726.0</ele>
<time>2003-02-20T09:59:25Z</time>
<speed>1.2</speed>
</trkpt>
<trkpt lat="47.372293" lon="7.847892">
<ele>725.2</ele>
<time>2003-02-20T09:59:30Z</time>
<speed>1.2</speed>
</trkpt>
<trkpt lat="47.372300" lon="7.847974">
<ele>724.4</ele>
<time>2003-02-20T09:59:35Z</time>
<speed>1.3</speed>
</trkpt>
<trkpt lat="47.372308" lon="7.848057">
<ele>723.6</ele>
<time>2003-02-20T09:59:40Z</time>
<speed>1.4</speed>
</trkpt>
<trkpt lat="47.372302" lon="7.848150">
<ele>722.8</ele>
<time>2003-02-20T09:59:45Z</time>
<speed>1.2</speed>
</trkpt>
<trkpt lat="47.372303" lon="7.848231">
<ele>722.7</ele>
<time>2003-02-20T09:59:50Z</time>
<speed>0.6</speed>
</trkpt>
<trkpt lat="47.372307" lon="7.848272">
<ele>722.3</ele>
<time>2003-02-20T09:59:55Z</time>
<speed>0.0</speed>
</trkpt>
<trkpt lat="47.372307" lon="7.848272">
<ele>722.3</ele>
<time>2003-02-20T10:00:00Z</time>
<speed>0.0</speed>
</trkpt>
<trkpt lat="47.372307" lon="7.848272">
<ele>722.3</ele>
<time>2003-02-20T10:00:05Z</time>
<speed>0.7</speed>
</trkpt>
<trkpt lat="47.372324" lon="7.848315">
<ele>722.0</ele>
<time>2003-02-20T10:00:10Z</time>
<speed>0.6</speed>
</trkpt>
<trkpt lat="47.372348" lon="7.848331">
<ele>722.2</ele>
<time>2003-02-20T10:00:15Z</time>
<speed>0.2</speed>
</trkpt>
<trkpt lat="47.372355" lon="7.848333">
<ele>721.5</ele>
<time>2003-02-20T10:00:20Z</time>
<speed>0.0</speed>
</trkpt>
<trkpt lat="47.372355" lon="7.848333">
<ele>721.5</ele>
<time>2003-02-20T10:00:25Z</time>
<speed>0.1</speed>
</trkpt>
<trkpt lat="47.372361" lon="7.848333">
<ele>722.3</ele>
<time>2003-02-20T10:00:30Z</time>
<speed>0.2</speed>
</trkpt>
<trkpt lat="47.372362" lon="7.848320">
<ele>722.2</ele>
<time>2003-02-20T10:00:35Z</time>
<speed>0.3</speed>
</trkpt>
<trkpt lat="47.372369" lon="7.848307">
<ele>722.8</ele>
<time>2003-02-20T10:00:40Z</time>
<speed>0.5</speed>
</trkpt>
<trkpt lat="47.372389" lon="7.848298">
<ele>722.1</ele>
<time>2003-02-20T10:00:45Z</time>
<speed>0.6</speed>
</trkpt>
<trkpt lat="47.372415" lon="7.848288">
<ele>722.2</ele>
<time>2003-02-20T10:00:50Z</time>
<speed>0.3</speed>
</trkpt>
<trkpt lat="47.372428" lon="7.848290">
<ele>722.2</ele>
<time>2003-02-20T10:00:55Z</time>
<speed>0.0</speed>
</trkpt>
<trkpt lat="47.372428" lon="7.848290">
<ele>722.2</ele>
<time>2003-02-20T10:01:00Z</time>
<speed>0.0</speed>
</trkpt>
<trkpt lat="47.372428" lon="7.848290">
<ele>722.2</ele>
<time>2003-02-20T10:01:05Z</time>
<speed>0.0</speed>
</trkpt>
<trkpt lat="47.372428" lon="7.848290">
<ele>722.2</ele>
<time>2003-02-20T10:01:10Z</time>
<speed>0.4</speed>
</trkpt>
<trkpt lat="47.372414" lon="7.848301">
<ele>722.3</ele>
<time>2003-02-20T10:01:15Z</time>
<speed>0.0</speed>
</trkpt>
<trkpt lat="47.372414" lon="7.848301">
<ele>722.3</ele>
<time>2003-02-20T10:01:20Z</time>
<speed>0.0</speed>
</trkpt>
<trkpt lat="47.372414" lon="7.848301">
<ele>722.3</ele>
<time>2003-02-20T10:01:25Z</time>
<speed>0.4</speed>
</trkpt>
<trkpt lat="47.372406" lon="7.848327">
<ele>721.7</ele>
<time>2003-02-20T10:01:30Z</time>
<speed>0.3</speed>
</trkpt>
<trkpt lat="47.372393" lon="7.848339">
<ele>721.7</ele>
<time>2003-02-20T10:01:35Z</time>
<speed>0.8</speed>
</trkpt>
<trkpt lat="47.372359" lon="7.848361">
<ele>721.1</ele>
<time>2003-02-20T10:01:40Z</time>
<speed>0.6</speed>
</trkpt>
<trkpt lat="47.372357" lon="7.848401">
<ele>721.3</ele>
<time>2003-02-20T10:01:45Z</time>
<speed>0.7</speed>
</trkpt>
<trkpt lat="47.372373" lon="7.848444">
<ele>721.0</ele>
<time>2003-02-20T10:01:50Z</time>
<speed>0.2</speed>
</trkpt>
<trkpt lat="47.372378" lon="7.848457">
<ele>721.8</ele>
<time>2003-02-20T10:01:55Z</time>
<speed>0.2</speed>
</trkpt>
<trkpt lat="47.372385" lon="7.848459">
<ele>721.2</ele>
<time>2003-02-20T10:02:00Z</time>
<speed>0.2</speed>
</trkpt>
<trkpt lat="47.372384" lon="7.848472">
<ele>721.3</ele>
<time>2003-02-20T10:02:05Z</time>
<speed>0.2</speed>
</trkpt>
<trkpt lat="47.372383" lon="7.848485">
<ele>721.3</ele>
<time>2003-02-20T10:02:10Z</time>
<speed>0.0</speed>
</trkpt>
<trkpt lat="47.372383" lon="7.848485">
<ele>721.3</ele>
<time>2003-02-20T10:02:15Z</time>
<speed>0.0</speed>
</trkpt>
<trkpt lat="47.372383" lon="7.848485">
<ele>721.3</ele>
<time>2003-02-20T10:02:20Z</time>
<speed>0.3</speed>
</trkpt>
<trkpt lat="47.372377" lon="7.848468">
<ele>723.3</ele>
<time>2003-02-20T10:02:25Z</time>
<speed>0.8</speed>
</trkpt>
<trkpt lat="47.372381" lon="7.848417">
<ele>721.6</ele>
<time>2003-02-20T10:02:30Z</time>
<speed>0.4</speed>
</trkpt>
<trkpt lat="47.372395" lon="7.848406">
<ele>721.5</ele>
<time>2003-02-20T10:02:35Z</time>
<speed>0.0</speed>
</trkpt>
<trkpt lat="47.372395" lon="7.848406">
<ele>721.5</ele>
<time>2003-02-20T10:02:40Z</time>
<speed>0.0</speed>
</trkpt>
<trkpt lat="47.372395" lon="7.848406">
<ele>721.5</ele>
<time>2003-02-20T10:02:45Z</time>
<speed>0.0</speed>
</trkpt>
<trkpt lat="47.372395" lon="7.848406">
<ele>721.5</ele>
<time>2003-02-20T10:02:50Z</time>
<speed>0.0</speed>
</trkpt>
<trkpt lat="47.372395" lon="7.848406">
<ele>721.5</ele>
<time>2003-02-20T10:02:55Z</time>
<speed>0.0</speed>
</trkpt>
<trkpt lat="47.372395" lon="7.848406">
<ele>721.5</ele>
<time>2003-02-20T10:03:00Z</time>
<speed>0.0</speed>
</trkpt>
<trkpt lat="47.372395" lon="7.848406">
<ele>721.5</ele>
<time>2003-02-20T10:03:05Z</time>
<speed>0.0</speed>
</trkpt>
<trkpt lat="47.372395" lon="7.848406">
<ele>721.5</ele>
<time>2003-02-20T10:03:10Z</time>
<speed>0.0</speed>
</trkpt>
<trkpt lat="47.372395" lon="7.848406">
<ele>721.5</ele>
<time>2003-02-20T10:03:15Z</time>
<speed>0.0</speed>
</trkpt>
<trkpt lat="47.372395" lon="7.848406">
<ele>721.5</ele>
<time>2003-02-20T10:03:20Z</time>
<speed>0.0</speed>
</trkpt>
<trkpt lat="47.372395" lon="7.848406">
<ele>721.5</ele>
<time>2003-02-20T10:03:25Z</time>
<speed>0.0</speed>
</trkpt>
<trkpt lat="47.372395" lon="7.848406">
<ele>721.5</ele>
<time>2003-02-20T10:03:30Z</time>
<speed>0.0</speed>
</trkpt>
<trkpt lat="47.372395" lon="7.848406">
<ele>721.5</ele>
<time>2003-02-20T10:03:35Z</time>
<speed>0.0</speed>
</trkpt>
<trkpt lat="47.372395" lon="7.848406">
<ele>721.5</ele>
<time>2003-02-20T10:03:40Z</time>
<speed>0.0</speed>
</trkpt>
<trkpt lat="47.372395" lon="7.848406">
<ele>721.5</ele>
<time>2003-02-20T10:03:45Z</time>
<speed>0.0</speed>
</trkpt>
<trkpt lat="47.372395" lon="7.848406">
<ele>721.5</ele>
<time>2003-02-20T10:03:50Z</time>
<speed>0.0</speed>
</trkpt>
<trkpt lat="47.372395" lon="7.848406">
<ele>721.5</ele>
<time>2003-02-20T10:03:55Z</time>
<speed>0.0</speed>
</trkpt>
<trkpt lat="47.372395" lon="7.848406">
<ele>721.5</ele>
<time>2003-02-20T10:04:00Z</time>
<speed>0.0</speed>
</trkpt>
<trkpt lat="47.372395" lon="7.848406">
<ele>721.5</ele>
<time>2003-02-20T10:04:05Z</time>
<speed>0.0</speed>
</trkpt>
<trkpt lat="47.372395" lon="7.848406">
<ele>721.5</ele>
<time>2003-02-20T10:04:10Z</time>
<speed>0.0</speed>
</trkpt>
<trkpt lat="47.372395" lon="7.848406">
<ele>721.5</ele>
<time>2003-02-20T10:04:15Z</time>
<speed>0.0</speed>
</trkpt>
<trkpt lat="47.372395" lon="7.848406">
<ele>721.5</ele>
<time>2003-02-20T10:04:20Z</time>
<speed>0.0</speed>
</trkpt>
<trkpt lat="47.372395" lon="7.848406">
<ele>721.5</ele>
<time>2003-02-20T10:04:25Z</time>
<speed>0.0</speed>
</trkpt>
<trkpt lat="47.372395" lon="7.848406">
<ele>721.5</ele>
<time>2003-02-20T10:04:30Z</time>
<speed>0.0</speed>
</trkpt>
<trkpt lat="47.372395" lon="7.848406">
<ele>721.5</ele>
<time>2003-02-20T10:04:35Z</time>
<speed>0.0</speed>
</trkpt>
<trkpt lat="47.372395" lon="7.848406">
<ele>721.5</ele>
<time>2003-02-20T10:04:40Z</time>
<speed>0.0</speed>
</trkpt>
<trkpt lat="47.372395" lon="7.848406">
<ele>721.5</ele>
<time>2003-02-20T10:04:45Z</time>
<speed>0.0</speed>
</trkpt>
<trkpt lat="47.372395" lon="7.848406">
<ele>721.5</ele>
<time>2003-02-20T10:04:50Z</time>
<speed>0.0</speed>
</trkpt>
<trkpt lat="47.372395" lon="7.848406">
<ele>721.5</ele>
<time>2003-02-20T10:04:55Z</time>
<speed>0.0</speed>
</trkpt>
<trkpt lat="47.372395" lon="7.848406">
<ele>721.5</ele>
<time>2003-02-20T10:05:00Z</time>
<speed>0.0</speed>
</trkpt>
<trkpt lat="47.372395" lon="7.848406">
<ele>721.5</ele>
<time>2003-02-20T10:05:05Z</time>
<speed>0.0</speed>
</trkpt>
<trkpt lat="47.372395" lon="7.848406">
<ele>721.5</ele>
<time>2003-02-20T10:05:10Z</time>
<speed>0.0</speed>
</trkpt>
<trkpt lat="47.372395" lon="7.848406">
<ele>721.5</ele>
<time>2003-02-20T10:05:15Z</time>
<speed>0.0</speed>
</trkpt>
<trkpt lat="47.372395" lon="7.848406">
<ele>721.5</ele>
<time>2003-02-20T10:05:20Z</time>
<speed>0.0</speed>
</trkpt>
<trkpt lat="47.372395" lon="7.848406">
<ele>721.5</ele>
<time>2003-02-20T10:05:25Z</time>
<speed>0.0</speed>
</trkpt>
<trkpt lat="47.372395" lon="7.848406">
<ele>721.5</ele>
<time>2003-02-20T10:05:30Z</time>
<speed>0.0</speed>
</trkpt>
<trkpt lat="47.372395" lon="7.848406">
<ele>721.5</ele>
<time>2003-02-20T10:05:35Z</time>
<speed>0.0</speed>
</trkpt>
<trkpt lat="47.372395" lon="7.848406">
<ele>721.5</ele>
<time>2003-02-20T10:05:40Z</time>
<speed>0.0</speed>
</trkpt>
<trkpt lat="47.372395" lon="7.848406">
<ele>721.5</ele>
<time>2003-02-20T10:05:45Z</time>
<speed>0.0</speed>
</trkpt>
<trkpt lat="47.372395" lon="7.848406">
<ele>721.5</ele>
<time>2003-02-20T10:05:50Z</time>
<speed>0.0</speed>
</trkpt>
<trkpt lat="47.372395" lon="7.848406">
<ele>721.5</ele>
<time>2003-02-20T10:05:55Z</time>
<speed>0.0</speed>
</trkpt>
<trkpt lat="47.372395" lon="7.848406">
<ele>721.5</ele>
<time>2003-02-20T10:06:00Z</time>
<speed>0.0</speed>
</trkpt>
<trkpt lat="47.372395" lon="7.848406">
<ele>721.5</ele>
<time>2003-02-20T10:06:05Z</time>
<speed>0.0</speed>
</trkpt>
<trkpt lat="47.372395" lon="7.848406">
<ele>721.5</ele>
<time>2003-02-20T10:06:10Z</time>
<speed>0.0</speed>
</trkpt>
<trkpt lat="47.372395" lon="7.848406">
<ele>721.5</ele>
<time>2003-02-20T10:06:15Z</time>
<speed>0.0</speed>
</trkpt>
<trkpt lat="47.372395" lon="7.848406">
<ele>721.5</ele>
<time>2003-02-20T10:06:20Z</time>
<speed>0.0</speed>
</trkpt>
<trkpt lat="47.372395" lon="7.848406">
<ele>721.5</ele>
<time>2003-02-20T10:06:25Z</time>
<speed>0.0</speed>
</trkpt>
<trkpt lat="47.372395" lon="7.848406">
<ele>721.5</ele>
<time>2003-02-20T10:06:30Z</time>
<speed>0.0</speed>
</trkpt>
<trkpt lat="47.372395" lon="7.848406">
<ele>721.5</ele>
<time>2003-02-20T10:06:35Z</time>
<speed>0.0</speed>
</trkpt>
<trkpt lat="47.372395" lon="7.848406">
<ele>721.5</ele>
<time>2003-02-20T10:06:40Z</time>
<speed>0.0</speed>
</trkpt>
<trkpt lat="47.372395" lon="7.848406">
<ele>721.5</ele>
<time>2003-02-20T10:06:45Z</time>
<speed>0.0</speed>
</trkpt>
<trkpt lat="47.372395" lon="7.848406">
<ele>721.5</ele>
<time>2003-02-20T10:06:50Z</time>
<speed>0.0</speed>
</trkpt>
<trkpt lat="47.372395" lon="7.848406">
<ele>721.5</ele>
<time>2003-02-20T10:06:55Z</time>
<speed>0.0</speed>
</trkpt>
<trkpt lat="47.372395" lon="7.848406">
<ele>721.5</ele>
<time>2003-02-20T10:07:00Z</time>
<speed>0.0</speed>
</trkpt>
<trkpt lat="47.372395" lon="7.848406">
<ele>721.5</ele>
<time>2003-02-20T10:07:05Z</time>
<speed>0.0</speed>
</trkpt>
<trkpt lat="47.372395" lon="7.848406">
<ele>721.5</ele>
<time>2003-02-20T10:07:10Z</time>
<speed>0.0</speed>
</trkpt>
<trkpt lat="47.372395" lon="7.848406">
<ele>721.5</ele>
<time>2003-02-20T10:07:15Z</time>
<speed>0.0</speed>
</trkpt>
<trkpt lat="47.372395" lon="7.848406">
<ele>721.5</ele>
<time>2003-02-20T10:07:20Z</time>
<speed>0.0</speed>
</trkpt>
<trkpt lat="47.372395" lon="7.848406">
<ele>721.5</ele>
<time>2003-02-20T10:07:25Z</time>
<speed>0.0</speed>
</trkpt>
<trkpt lat="47.372395" lon="7.848406">
<ele>721.5</ele>
<time>2003-02-20T10:07:30Z</time>
<speed>0.0</speed>
</trkpt>
<trkpt lat="47.372395" lon="7.848406">
<ele>721.5</ele>
<time>2003-02-20T10:07:35Z</time>
<speed>0.0</speed>
</trkpt>
<trkpt lat="47.372395" lon="7.848406">
<ele>721.5</ele>
<time>2003-02-20T10:07:40Z</time>
<speed>0.0</speed>
</trkpt>
<trkpt lat="47.372395" lon="7.848406">
<ele>721.5</ele>
<time>2003-02-20T10:07:45Z</time>
<speed>0.0</speed>
</trkpt>
<trkpt lat="47.372395" lon="7.848406">
<ele>721.5</ele>
<time>2003-02-20T10:07:50Z</time>
<speed>0.0</speed>
</trkpt>
<trkpt lat="47.372395" lon="7.848406">
<ele>721.5</ele>
<time>2003-02-20T10:07:55Z</time>
<speed>0.0</speed>
</trkpt>
<trkpt lat="47.372395" lon="7.848406">
<ele>721.5</ele>
<time>2003-02-20T10:08:00Z</time>
<speed>0.0</speed>
</trkpt>
<trkpt lat="47.372395" lon="7.848406">
<ele>721.5</ele>
<time>2003-02-20T10:08:05Z</time>
<speed>0.0</speed>
</trkpt>
<trkpt lat="47.372395" lon="7.848406">
<ele>721.5</ele>
<time>2003-02-20T10:08:10Z</time>
<speed>0.0</speed>
</trkpt>
<trkpt lat="47.372395" lon="7.848406">
<ele>721.5</ele>
<time>2003-02-20T10:08:15Z</time>
<speed>0.0</speed>
</trkpt>
<trkpt lat="47.372395" lon="7.848406">
<ele>721.5</ele>
<time>2003-02-20T10:08:20Z</time>
<speed>0.2</speed>
</trkpt>
<trkpt lat="47.372402" lon="7.848395">
<ele>720.8</ele>
<time>2003-02-20T10:08:25Z</time>
<speed>0.0</speed>
</trkpt>
<trkpt lat="47.372402" lon="7.848395">
<ele>720.8</ele>
<time>2003-02-20T10:08:30Z</time>
<speed>0.0</speed>
</trkpt>
<trkpt lat="47.372402" lon="7.848395">
<ele>720.8</ele>
<time>2003-02-20T10:08:35Z</time>
<speed>0.0</speed>
</trkpt>
<trkpt lat="47.372402" lon="7.848395">
<ele>720.8</ele>
<time>2003-02-20T10:08:40Z</time>
<speed>0.0</speed>
</trkpt>
<trkpt lat="47.372402" lon="7.848395">
<ele>720.8</ele>
<time>2003-02-20T10:08:45Z</time>
<speed>0.0</speed>
</trkpt>
<trkpt lat="47.372402" lon="7.848395">
<ele>720.8</ele>
<time>2003-02-20T10:08:50Z</time>
<speed>0.0</speed>
</trkpt>
<trkpt lat="47.372402" lon="7.848395">
<ele>720.8</ele>
<time>2003-02-20T10:08:55Z</time>
<speed>0.0</speed>
</trkpt>
<trkpt lat="47.372402" lon="7.848395">
<ele>720.8</ele>
<time>2003-02-20T10:09:00Z</time>
<speed>0.0</speed>
</trkpt>
<trkpt lat="47.372402" lon="7.848395">
<ele>720.8</ele>
<time>2003-02-20T10:09:05Z</time>
<speed>0.0</speed>
</trkpt>
<trkpt lat="47.372402" lon="7.848395">
<ele>720.8</ele>
<time>2003-02-20T10:09:10Z</time>
<speed>0.0</speed>
</trkpt>
<trkpt lat="47.372402" lon="7.848395">
<ele>720.8</ele>
<time>2003-02-20T10:09:15Z</time>
<speed>0.0</speed>
</trkpt>
<trkpt lat="47.372402" lon="7.848395">
<ele>720.8</ele>
<time>2003-02-20T10:09:20Z</time>
<speed>0.0</speed>
</trkpt>
<trkpt lat="47.372402" lon="7.848395">
<ele>720.8</ele>
<time>2003-02-20T10:09:25Z</time>
<speed>0.0</speed>
</trkpt>
<trkpt lat="47.372402" lon="7.848395">
<ele>720.8</ele>
<time>2003-02-20T10:09:30Z</time>
<speed>0.0</speed>
</trkpt>
<trkpt lat="47.372402" lon="7.848395">
<ele>720.8</ele>
<time>2003-02-20T10:09:35Z</time>
<speed>0.0</speed>
</trkpt>
<trkpt lat="47.372402" lon="7.848395">
<ele>720.8</ele>
<time>2003-02-20T10:09:40Z</time>
<speed>0.0</speed>
</trkpt>
<trkpt lat="47.372402" lon="7.848395">
<ele>720.8</ele>
<time>2003-02-20T10:09:45Z</time>
<speed>0.0</speed>
</trkpt>
<trkpt lat="47.372402" lon="7.848395">
<ele>720.8</ele>
<time>2003-02-20T10:09:50Z</time>
<speed>0.0</speed>
</trkpt>
<trkpt lat="47.372402" lon="7.848395">
<ele>720.8</ele>
<time>2003-02-20T10:09:55Z</time>
<speed>0.0</speed>
</trkpt>
<trkpt lat="47.372402" lon="7.848395">
<ele>720.8</ele>
<time>2003-02-20T10:10:00Z</time>
<speed>0.0</speed>
</trkpt>
<trkpt lat="47.372402" lon="7.848395">
<ele>720.8</ele>
<time>2003-02-20T10:10:05Z</time>
<speed>0.0</speed>
</trkpt>
<trkpt lat="47.372402" lon="7.848395">
<ele>720.8</ele>
<time>2003-02-20T10:10:10Z</time>
<speed>0.1</speed>
</trkpt>
<trkpt lat="47.372396" lon="7.848395">
<ele>720.0</ele>
<time>2003-02-20T10:10:15Z</time>
<speed>0.0</speed>
</trkpt>
<trkpt lat="47.372396" lon="7.848395">
<ele>720.0</ele>
<time>2003-02-20T10:10:20Z</time>
<speed>0.0</speed>
</trkpt>
<trkpt lat="47.372396" lon="7.848395">
<ele>720.0</ele>
<time>2003-02-20T10:10:25Z</time>
<speed>0.0</speed>
</trkpt>
<trkpt lat="47.372396" lon="7.848395">
<ele>720.0</ele>
<time>2003-02-20T10:10:30Z</time>
<speed>0.0</speed>
</trkpt>
<trkpt lat="47.372396" lon="7.848395">
<ele>720.0</ele>
<time>2003-02-20T10:10:35Z</time>
<speed>0.0</speed>
</trkpt>
<trkpt lat="47.372396" lon="7.848395">
<ele>720.0</ele>
<time>2003-02-20T10:10:40Z</time>
<speed>0.0</speed>
</trkpt>
<trkpt lat="47.372396" lon="7.848395">
<ele>720.0</ele>
<time>2003-02-20T10:10:45Z</time>
<speed>0.0</speed>
</trkpt>
<trkpt lat="47.372396" lon="7.848395">
<ele>720.0</ele>
<time>2003-02-20T10:10:50Z</time>
<speed>0.0</speed>
</trkpt>
<trkpt lat="47.372396" lon="7.848395">
<ele>720.0</ele>
<time>2003-02-20T10:10:55Z</time>
<speed>0.0</speed>
</trkpt>
<trkpt lat="47.372396" lon="7.848395">
<ele>720.0</ele>
<time>2003-02-20T10:11:00Z</time>
<speed>0.0</speed>
</trkpt>
<trkpt lat="47.372396" lon="7.848395">
<ele>720.0</ele>
<time>2003-02-20T10:11:05Z</time>
<speed>0.0</speed>
</trkpt>
<trkpt lat="47.372396" lon="7.848395">
<ele>720.0</ele>
<time>2003-02-20T10:11:10Z</time>
<speed>0.0</speed>
</trkpt>
<trkpt lat="47.372396" lon="7.848395">
<ele>720.0</ele>
<time>2003-02-20T10:11:15Z</time>
<speed>0.0</speed>
</trkpt>
<trkpt lat="47.372396" lon="7.848395">
<ele>720.0</ele>
<time>2003-02-20T10:11:20Z</time>
<speed>0.0</speed>
</trkpt>
<trkpt lat="47.372396" lon="7.848395">
<ele>720.0</ele>
<time>2003-02-20T10:11:25Z</time>
<speed>0.0</speed>
</trkpt>
<trkpt lat="47.372396" lon="7.848395">
<ele>720.0</ele>
<time>2003-02-20T10:11:30Z</time>
<speed>0.0</speed>
</trkpt>
<trkpt lat="47.372396" lon="7.848395">
<ele>720.0</ele>
<time>2003-02-20T10:11:35Z</time>
<speed>0.0</speed>
</trkpt>
<trkpt lat="47.372396" lon="7.848395">
<ele>720.0</ele>
<time>2003-02-20T10:11:40Z</time>
<speed>0.0</speed>
</trkpt>
<trkpt lat="47.372396" lon="7.848395">
<ele>720.0</ele>
<time>2003-02-20T10:11:45Z</time>
<speed>0.0</speed>
</trkpt>
<trkpt lat="47.372396" lon="7.848395">
<ele>720.0</ele>
<time>2003-02-20T10:11:50Z</time>
<speed>0.0</speed>
</trkpt>
<trkpt lat="47.372396" lon="7.848395">
<ele>720.0</ele>
<time>2003-02-20T10:11:55Z</time>
<speed>0.0</speed>
</trkpt>
<trkpt lat="47.372396" lon="7.848395">
<ele>720.0</ele>
<time>2003-02-20T10:12:00Z</time>
<speed>0.0</speed>
</trkpt>
<trkpt lat="47.372396" lon="7.848395">
<ele>720.0</ele>
<time>2003-02-20T10:12:05Z</time>
<speed>0.0</speed>
</trkpt>
<trkpt lat="47.372396" lon="7.848395">
<ele>720.0</ele>
<time>2003-02-20T10:12:10Z</time>
<speed>0.0</speed>
</trkpt>
<trkpt lat="47.372396" lon="7.848395">
<ele>720.0</ele>
<time>2003-02-20T10:12:15Z</time>
<speed>0.0</speed>
</trkpt>
<trkpt lat="47.372396" lon="7.848395">
<ele>720.0</ele>
<time>2003-02-20T10:12:20Z</time>
<speed>0.0</speed>
</trkpt>
<trkpt lat="47.372396" lon="7.848395">
<ele>720.0</ele>
<time>2003-02-20T10:12:25Z</time>
<speed>0.0</speed>
</trkpt>
<trkpt lat="47.372396" lon="7.848395">
<ele>720.0</ele>
<time>2003-02-20T10:12:30Z</time>
<speed>0.0</speed>
</trkpt>
<trkpt lat="47.372396" lon="7.848395">
<ele>720.0</ele>
<time>2003-02-20T10:12:35Z</time>
<speed>0.0</speed>
</trkpt>
<trkpt lat="47.372396" lon="7.848395">
<ele>720.0</ele>
<time>2003-02-20T10:12:40Z</time>
<speed>0.0</speed>
</trkpt>
<trkpt lat="47.372396" lon="7.848395">
<ele>720.0</ele>
<time>2003-02-20T10:12:45Z</time>
<speed>0.0</speed>
</trkpt>
<trkpt lat="47.372396" lon="7.848395">
<ele>720.0</ele>
<time>2003-02-20T10:12:50Z</time>
<speed>0.0</speed>
</trkpt>
<trkpt lat="47.372396" lon="7.848395">
<ele>720.0</ele>
<time>2003-02-20T10:12:55Z</time>
<speed>0.0</speed>
</trkpt>
<trkpt lat="47.372396" lon="7.848395">
<ele>720.0</ele>
<time>2003-02-20T10:13:00Z</time>
<speed>0.0</speed>
</trkpt>
<trkpt lat="47.372396" lon="7.848395">
<ele>720.0</ele>
<time>2003-02-20T10:13:05Z</time>
<speed>0.0</speed>
</trkpt>
<trkpt lat="47.372396" lon="7.848395">
<ele>720.0</ele>
<time>2003-02-20T10:13:10Z</time>
<speed>0.0</speed>
</trkpt>
<trkpt lat="47.372396" lon="7.848395">
<ele>720.0</ele>
<time>2003-02-20T10:13:15Z</time>
<speed>0.0</speed>
</trkpt>
<trkpt lat="47.372396" lon="7.848395">
<ele>720.0</ele>
<time>2003-02-20T10:13:20Z</time>
<speed>0.0</speed>
</trkpt>
<trkpt lat="47.372396" lon="7.848395">
<ele>720.0</ele>
<time>2003-02-20T10:13:25Z</time>
<speed>0.0</speed>
</trkpt>
<trkpt lat="47.372396" lon="7.848395">
<ele>720.0</ele>
<time>2003-02-20T10:13:30Z</time>
<speed>0.0</speed>
</trkpt>
<trkpt lat="47.372396" lon="7.848395">
<ele>720.0</ele>
<time>2003-02-20T10:13:35Z</time>
<speed>0.0</speed>
</trkpt>
<trkpt lat="47.372396" lon="7.848395">
<ele>720.0</ele>
<time>2003-02-20T10:13:40Z</time>
<speed>0.0</speed>
</trkpt>
<trkpt lat="47.372396" lon="7.848395">
<ele>720.0</ele>
<time>2003-02-20T10:13:45Z</time>
<speed>0.0</speed>
</trkpt>
<trkpt lat="47.372396" lon="7.848395">
<ele>720.0</ele>
<time>2003-02-20T10:13:50Z</time>
<speed>0.0</speed>
</trkpt>
<trkpt lat="47.372396" lon="7.848395">
<ele>720.0</ele>
<time>2003-02-20T10:13:55Z</time>
<speed>0.0</speed>
</trkpt>
<trkpt lat="47.372396" lon="7.848395">
<ele>720.0</ele>
<time>2003-02-20T10:14:00Z</time>
<speed>0.0</speed>
</trkpt>
<trkpt lat="47.372396" lon="7.848395">
<ele>720.0</ele>
<time>2003-02-20T10:14:05Z</time>
<speed>0.0</speed>
</trkpt>
<trkpt lat="47.372396" lon="7.848395">
<ele>720.0</ele>
<time>2003-02-20T10:14:10Z</time>
<speed>0.0</speed>
</trkpt>
<trkpt lat="47.372396" lon="7.848395">
<ele>720.0</ele>
<time>2003-02-20T10:14:15Z</time>
<speed>0.0</speed>
</trkpt>
<trkpt lat="47.372396" lon="7.848395">
<ele>720.0</ele>
<time>2003-02-20T10:14:20Z</time>
<speed>0.0</speed>
</trkpt>
<trkpt lat="47.372396" lon="7.848395">
<ele>720.0</ele>
<time>2003-02-20T10:14:25Z</time>
<speed>0.2</speed>
</trkpt>
<trkpt lat="47.372389" lon="7.848393">
<ele>720.7</ele>
<time>2003-02-20T10:14:30Z</time>
<speed>0.0</speed>
</trkpt>
<trkpt lat="47.372389" lon="7.848393">
<ele>720.7</ele>
<time>2003-02-20T10:14:35Z</time>
<speed>0.0</speed>
</trkpt>
<trkpt lat="47.372389" lon="7.848393">
<ele>720.7</ele>
<time>2003-02-20T10:14:40Z</time>
<speed>0.0</speed>
</trkpt>
<trkpt lat="47.372389" lon="7.848393">
<ele>720.7</ele>
<time>2003-02-20T10:14:45Z</time>
<speed>0.0</speed>
</trkpt>
<trkpt lat="47.372389" lon="7.848393">
<ele>720.7</ele>
<time>2003-02-20T10:14:50Z</time>
<speed>0.0</speed>
</trkpt>
<trkpt lat="47.372389" lon="7.848393">
<ele>720.7</ele>
<time>2003-02-20T10:14:55Z</time>
<speed>0.0</speed>
</trkpt>
<trkpt lat="47.372389" lon="7.848393">
<ele>720.7</ele>
<time>2003-02-20T10:15:00Z</time>
<speed>0.0</speed>
</trkpt>
<trkpt lat="47.372389" lon="7.848393">
<ele>720.7</ele>
<time>2003-02-20T10:15:05Z</time>
<speed>0.0</speed>
</trkpt>
<trkpt lat="47.372389" lon="7.848393">
<ele>720.7</ele>
<time>2003-02-20T10:15:10Z</time>
<speed>0.0</speed>
</trkpt>
<trkpt lat="47.372389" lon="7.848393">
<ele>720.7</ele>
<time>2003-02-20T10:15:15Z</time>
<speed>0.0</speed>
</trkpt>
<trkpt lat="47.372389" lon="7.848393">
<ele>720.7</ele>
<time>2003-02-20T10:15:20Z</time>
<speed>0.0</speed>
</trkpt>
<trkpt lat="47.372389" lon="7.848393">
<ele>720.7</ele>
<time>2003-02-20T10:15:25Z</time>
<speed>0.1</speed>
</trkpt>
<trkpt lat="47.372383" lon="7.848393">
<ele>720.0</ele>
<time>2003-02-20T10:15:30Z</time>
<speed>0.0</speed>
</trkpt>
<trkpt lat="47.372383" lon="7.848393">
<ele>720.0</ele>
<time>2003-02-20T10:15:35Z</time>
<speed>0.0</speed>
</trkpt>
<trkpt lat="47.372383" lon="7.848393">
<ele>720.0</ele>
<time>2003-02-20T10:15:40Z</time>
<speed>0.0</speed>
</trkpt>
<trkpt lat="47.372383" lon="7.848393">
<ele>720.0</ele>
<time>2003-02-20T10:15:45Z</time>
<speed>0.0</speed>
</trkpt>
<trkpt lat="47.372383" lon="7.848393">
<ele>720.0</ele>
<time>2003-02-20T10:15:50Z</time>
<speed>0.0</speed>
</trkpt>
<trkpt lat="47.372383" lon="7.848393">
<ele>720.0</ele>
<time>2003-02-20T10:15:55Z</time>
<speed>0.0</speed>
</trkpt>
<trkpt lat="47.372383" lon="7.848393">
<ele>720.0</ele>
<time>2003-02-20T10:16:00Z</time>
<speed>0.0</speed>
</trkpt>
<trkpt lat="47.372383" lon="7.848393">
<ele>720.0</ele>
<time>2003-02-20T10:16:05Z</time>
<speed>0.0</speed>
</trkpt>
<trkpt lat="47.372383" lon="7.848393">
<ele>720.0</ele>
<time>2003-02-20T10:16:10Z</time>
<speed>0.0</speed>
</trkpt>
<trkpt lat="47.372383" lon="7.848393">
<ele>720.0</ele>
<time>2003-02-20T10:16:15Z</time>
<speed>0.0</speed>
</trkpt>
<trkpt lat="47.372383" lon="7.848393">
<ele>720.0</ele>
<time>2003-02-20T10:16:20Z</time>
<speed>0.0</speed>
</trkpt>
<trkpt lat="47.372383" lon="7.848393">
<ele>720.0</ele>
<time>2003-02-20T10:16:25Z</time>
<speed>0.0</speed>
</trkpt>
<trkpt lat="47.372383" lon="7.848393">
<ele>720.0</ele>
<time>2003-02-20T10:16:30Z</time>
<speed>0.0</speed>
</trkpt>
<trkpt lat="47.372383" lon="7.848393">
<ele>720.0</ele>
<time>2003-02-20T10:16:35Z</time>
<speed>0.0</speed>
</trkpt>
<trkpt lat="47.372383" lon="7.848393">
<ele>720.0</ele>
<time>2003-02-20T10:16:40Z</time>
<speed>0.0</speed>
</trkpt>
<trkpt lat="47.372383" lon="7.848393">
<ele>720.0</ele>
<time>2003-02-20T10:16:45Z</time>
<speed>0.0</speed>
</trkpt>
<trkpt lat="47.372383" lon="7.848393">
<ele>720.0</ele>
<time>2003-02-20T10:16:50Z</time>
<speed>0.0</speed>
</trkpt>
<trkpt lat="47.372383" lon="7.848393">
<ele>720.0</ele>
<time>2003-02-20T10:16:55Z</time>
<speed>0.0</speed>
</trkpt>
<trkpt lat="47.372383" lon="7.848393">
<ele>720.0</ele>
<time>2003-02-20T10:17:00Z</time>
<speed>0.0</speed>
</trkpt>
<trkpt lat="47.372383" lon="7.848393">
<ele>720.0</ele>
<time>2003-02-20T10:17:05Z</time>
<speed>0.0</speed>
</trkpt>
<trkpt lat="47.372383" lon="7.848393">
<ele>720.0</ele>
<time>2003-02-20T10:17:10Z</time>
<speed>0.0</speed>
</trkpt>
<trkpt lat="47.372383" lon="7.848393">
<ele>720.0</ele>
<time>2003-02-20T10:17:15Z</time>
<speed>0.0</speed>
</trkpt>
<trkpt lat="47.372383" lon="7.848393">
<ele>720.0</ele>
<time>2003-02-20T10:17:20Z</time>
<speed>0.0</speed>
</trkpt>
<trkpt lat="47.372383" lon="7.848393">
<ele>720.0</ele>
<time>2003-02-20T10:17:25Z</time>
<speed>0.0</speed>
</trkpt>
<trkpt lat="47.372383" lon="7.848393">
<ele>720.0</ele>
<time>2003-02-20T10:17:30Z</time>
<speed>0.0</speed>
</trkpt>
<trkpt lat="47.372383" lon="7.848393">
<ele>720.0</ele>
<time>2003-02-20T10:17:35Z</time>
<speed>0.0</speed>
</trkpt>
<trkpt lat="47.372383" lon="7.848393">
<ele>720.0</ele>
<time>2003-02-20T10:17:40Z</time>
<speed>0.0</speed>
</trkpt>
<trkpt lat="47.372383" lon="7.848393">
<ele>720.0</ele>
<time>2003-02-20T10:17:45Z</time>
<speed>0.0</speed>
</trkpt>
<trkpt lat="47.372383" lon="7.848393">
<ele>720.0</ele>
<time>2003-02-20T10:17:50Z</time>
<speed>0.0</speed>
</trkpt>
<trkpt lat="47.372383" lon="7.848393">
<ele>720.0</ele>
<time>2003-02-20T10:17:55Z</time>
<speed>0.0</speed>
</trkpt>
<trkpt lat="47.372383" lon="7.848393">
<ele>720.0</ele>
<time>2003-02-20T10:18:00Z</time>
<speed>0.0</speed>
</trkpt>
<trkpt lat="47.372383" lon="7.848393">
<ele>720.0</ele>
<time>2003-02-20T10:18:05Z</time>
<speed>0.0</speed>
</trkpt>
<trkpt lat="47.372383" lon="7.848393">
<ele>720.0</ele>
<time>2003-02-20T10:18:10Z</time>
<speed>0.0</speed>
</trkpt>
<trkpt lat="47.372383" lon="7.848393">
<ele>720.0</ele>
<time>2003-02-20T10:18:15Z</time>
<speed>0.0</speed>
</trkpt>
<trkpt lat="47.372383" lon="7.848393">
<ele>720.0</ele>
<time>2003-02-20T10:18:20Z</time>
<speed>0.0</speed>
</trkpt>
<trkpt lat="47.372383" lon="7.848393">
<ele>720.0</ele>
<time>2003-02-20T10:18:25Z</time>
<speed>0.0</speed>
</trkpt>
<trkpt lat="47.372383" lon="7.848393">
<ele>720.0</ele>
<time>2003-02-20T10:18:30Z</time>
<speed>0.0</speed>
</trkpt>
<trkpt lat="47.372383" lon="7.848393">
<ele>720.0</ele>
<time>2003-02-20T10:18:35Z</time>
<speed>0.0</speed>
</trkpt>
<trkpt lat="47.372383" lon="7.848393">
<ele>720.0</ele>
<time>2003-02-20T10:18:40Z</time>
<speed>0.0</speed>
</trkpt>
<trkpt lat="47.372383" lon="7.848393">
<ele>720.0</ele>
<time>2003-02-20T10:18:45Z</time>
<speed>0.0</speed>
</trkpt>
<trkpt lat="47.372383" lon="7.848393">
<ele>720.0</ele>
<time>2003-02-20T10:18:50Z</time>
<speed>0.0</speed>
</trkpt>
<trkpt lat="47.372383" lon="7.848393">
<ele>720.0</ele>
<time>2003-02-20T10:18:55Z</time>
<speed>0.0</speed>
</trkpt>
<trkpt lat="47.372383" lon="7.848393">
<ele>720.0</ele>
<time>2003-02-20T10:19:00Z</time>
<speed>0.0</speed>
</trkpt>
<trkpt lat="47.372383" lon="7.848393">
<ele>720.0</ele>
<time>2003-02-20T10:19:05Z</time>
<speed>0.0</speed>
</trkpt>
<trkpt lat="47.372383" lon="7.848393">
<ele>720.0</ele>
<time>2003-02-20T10:19:10Z</time>
<speed>0.0</speed>
</trkpt>
<trkpt lat="47.372383" lon="7.848393">
<ele>720.0</ele>
<time>2003-02-20T10:19:15Z</time>
<speed>0.0</speed>
</trkpt>
<trkpt lat="47.372383" lon="7.848393">
<ele>720.0</ele>
<time>2003-02-20T10:19:20Z</time>
<speed>0.0</speed>
</trkpt>
<trkpt lat="47.372383" lon="7.848393">
<ele>720.0</ele>
<time>2003-02-20T10:19:25Z</time>
<speed>0.0</speed>
</trkpt>
<trkpt lat="47.372383" lon="7.848393">
<ele>720.0</ele>
<time>2003-02-20T10:19:30Z</time>
<speed>0.2</speed>
</trkpt>
<trkpt lat="47.372384" lon="7.848380">
<ele>719.9</ele>
<time>2003-02-20T10:19:35Z</time>
<speed>0.0</speed>
</trkpt>
<trkpt lat="47.372384" lon="7.848380">
<ele>719.9</ele>
<time>2003-02-20T10:19:40Z</time>
<speed>0.3</speed>
</trkpt>
<trkpt lat="47.372391" lon="7.848367">
<ele>720.5</ele>
<time>2003-02-20T10:19:45Z</time>
<speed>0.0</speed>
</trkpt>
<trkpt lat="47.372391" lon="7.848367">
<ele>720.5</ele>
<time>2003-02-20T10:19:50Z</time>
<speed>0.0</speed>
</trkpt>
<trkpt lat="47.372391" lon="7.848367">
<ele>720.5</ele>
<time>2003-02-20T10:19:55Z</time>
<speed>0.0</speed>
</trkpt>
<trkpt lat="47.372391" lon="7.848367">
<ele>720.5</ele>
<time>2003-02-20T10:20:00Z</time>
<speed>0.0</speed>
</trkpt>
<trkpt lat="47.372391" lon="7.848367">
<ele>720.5</ele>
<time>2003-02-20T10:20:05Z</time>
<speed>0.2</speed>
</trkpt>
<trkpt lat="47.372392" lon="7.848354">
<ele>720.4</ele>
<time>2003-02-20T10:20:10Z</time>
<speed>0.0</speed>
</trkpt>
<trkpt lat="47.372392" lon="7.848354">
<ele>720.4</ele>
<time>2003-02-20T10:20:15Z</time>
<speed>0.0</speed>
</trkpt>
<trkpt lat="47.372392" lon="7.848354">
<ele>720.4</ele>
<time>2003-02-20T10:20:20Z</time>
<speed>0.0</speed>
</trkpt>
<trkpt lat="47.372392" lon="7.848354">
<ele>720.4</ele>
<time>2003-02-20T10:20:25Z</time>
<speed>0.0</speed>
</trkpt>
<trkpt lat="47.372392" lon="7.848354">
<ele>720.4</ele>
<time>2003-02-20T10:20:30Z</time>
<speed>0.0</speed>
</trkpt>
<trkpt lat="47.372392" lon="7.848354">
<ele>720.4</ele>
<time>2003-02-20T10:20:35Z</time>
<speed>0.0</speed>
</trkpt>
<trkpt lat="47.372392" lon="7.848354">
<ele>720.4</ele>
<time>2003-02-20T10:20:40Z</time>
<speed>0.0</speed>
</trkpt>
<trkpt lat="47.372392" lon="7.848354">
<ele>720.4</ele>
<time>2003-02-20T10:20:45Z</time>
<speed>0.0</speed>
</trkpt>
<trkpt lat="47.372392" lon="7.848354">
<ele>720.4</ele>
<time>2003-02-20T10:20:50Z</time>
<speed>0.0</speed>
</trkpt>
<trkpt lat="47.372392" lon="7.848354">
<ele>720.4</ele>
<time>2003-02-20T10:20:55Z</time>
<speed>0.0</speed>
</trkpt>
<trkpt lat="47.372392" lon="7.848354">
<ele>720.4</ele>
<time>2003-02-20T10:21:00Z</time>
<speed>0.0</speed>
</trkpt>
<trkpt lat="47.372392" lon="7.848354">
<ele>720.4</ele>
<time>2003-02-20T10:21:05Z</time>
<speed>0.0</speed>
</trkpt>
<trkpt lat="47.372392" lon="7.848354">
<ele>720.4</ele>
<time>2003-02-20T10:21:10Z</time>
<speed>0.0</speed>
</trkpt>
<trkpt lat="47.372392" lon="7.848354">
<ele>720.4</ele>
<time>2003-02-20T10:21:15Z</time>
<speed>0.0</speed>
</trkpt>
<trkpt lat="47.372392" lon="7.848354">
<ele>720.4</ele>
<time>2003-02-20T10:21:20Z</time>
<speed>0.0</speed>
</trkpt>
<trkpt lat="47.372392" lon="7.848354">
<ele>720.4</ele>
<time>2003-02-20T10:21:25Z</time>
<speed>0.0</speed>
</trkpt>
<trkpt lat="47.372392" lon="7.848354">
<ele>720.4</ele>
<time>2003-02-20T10:21:30Z</time>
<speed>0.0</speed>
</trkpt>
<trkpt lat="47.372392" lon="7.848354">
<ele>720.4</ele>
<time>2003-02-20T10:21:35Z</time>
<speed>0.0</speed>
</trkpt>
<trkpt lat="47.372392" lon="7.848354">
<ele>720.4</ele>
<time>2003-02-20T10:21:40Z</time>
<speed>0.0</speed>
</trkpt>
<trkpt lat="47.372392" lon="7.848354">
<ele>720.4</ele>
<time>2003-02-20T10:21:45Z</time>
<speed>0.0</speed>
</trkpt>
<trkpt lat="47.372392" lon="7.848354">
<ele>720.4</ele>
<time>2003-02-20T10:21:50Z</time>
<speed>0.0</speed>
</trkpt>
<trkpt lat="47.372392" lon="7.848354">
<ele>720.4</ele>
<time>2003-02-20T10:21:55Z</time>
<speed>0.0</speed>
</trkpt>
<trkpt lat="47.372392" lon="7.848354">
<ele>720.4</ele>
<time>2003-02-20T10:22:00Z</time>
<speed>0.0</speed>
</trkpt>
<trkpt lat="47.372392" lon="7.848354">
<ele>720.4</ele>
<time>2003-02-20T10:22:05Z</time>
<speed>0.0</speed>
</trkpt>
<trkpt lat="47.372392" lon="7.848354">
<ele>720.4</ele>
<time>2003-02-20T10:22:10Z</time>
<speed>0.0</speed>
</trkpt>
<trkpt lat="47.372392" lon="7.848354">
<ele>720.4</ele>
<time>2003-02-20T10:22:15Z</time>
<speed>0.2</speed>
</trkpt>
<trkpt lat="47.372399" lon="7.848355">
<ele>719.8</ele>
<time>2003-02-20T10:22:20Z</time>
<speed>0.0</speed>
</trkpt>
<trkpt lat="47.372399" lon="7.848355">
<ele>719.8</ele>
<time>2003-02-20T10:22:25Z</time>
<speed>0.0</speed>
</trkpt>
<trkpt lat="47.372399" lon="7.848355">
<ele>719.8</ele>
<time>2003-02-20T10:22:30Z</time>
<speed>0.0</speed>
</trkpt>
<trkpt lat="47.372399" lon="7.848355">
<ele>719.8</ele>
<time>2003-02-20T10:22:35Z</time>
<speed>0.0</speed>
</trkpt>
<trkpt lat="47.372399" lon="7.848355">
<ele>719.8</ele>
<time>2003-02-20T10:22:40Z</time>
<speed>0.0</speed>
</trkpt>
<trkpt lat="47.372399" lon="7.848355">
<ele>719.8</ele>
<time>2003-02-20T10:22:45Z</time>
<speed>0.0</speed>
</trkpt>
<trkpt lat="47.372399" lon="7.848355">
<ele>719.8</ele>
<time>2003-02-20T10:22:50Z</time>
<speed>0.0</speed>
</trkpt>
<trkpt lat="47.372399" lon="7.848355">
<ele>719.8</ele>
<time>2003-02-20T10:22:55Z</time>
<speed>0.0</speed>
</trkpt>
<trkpt lat="47.372399" lon="7.848355">
<ele>719.8</ele>
<time>2003-02-20T10:23:00Z</time>
<speed>0.0</speed>
</trkpt>
<trkpt lat="47.372399" lon="7.848355">
<ele>719.8</ele>
<time>2003-02-20T10:23:05Z</time>
<speed>0.0</speed>
</trkpt>
<trkpt lat="47.372399" lon="7.848355">
<ele>719.8</ele>
<time>2003-02-20T10:23:10Z</time>
<speed>0.0</speed>
</trkpt>
<trkpt lat="47.372399" lon="7.848355">
<ele>719.8</ele>
<time>2003-02-20T10:23:15Z</time>
<speed>0.0</speed>
</trkpt>
<trkpt lat="47.372399" lon="7.848355">
<ele>719.8</ele>
<time>2003-02-20T10:23:20Z</time>
<speed>0.0</speed>
</trkpt>
<trkpt lat="47.372399" lon="7.848355">
<ele>719.8</ele>
<time>2003-02-20T10:23:25Z</time>
<speed>0.0</speed>
</trkpt>
<trkpt lat="47.372399" lon="7.848355">
<ele>719.8</ele>
<time>2003-02-20T10:23:30Z</time>
<speed>0.0</speed>
</trkpt>
<trkpt lat="47.372399" lon="7.848355">
<ele>719.8</ele>
<time>2003-02-20T10:23:35Z</time>
<speed>0.0</speed>
</trkpt>
<trkpt lat="47.372399" lon="7.848355">
<ele>719.8</ele>
<time>2003-02-20T10:23:40Z</time>
<speed>0.0</speed>
</trkpt>
<trkpt lat="47.372399" lon="7.848355">
<ele>719.8</ele>
<time>2003-02-20T10:23:45Z</time>
<speed>0.0</speed>
</trkpt>
<trkpt lat="47.372399" lon="7.848355">
<ele>719.8</ele>
<time>2003-02-20T10:23:50Z</time>
<speed>0.0</speed>
</trkpt>
<trkpt lat="47.372399" lon="7.848355">
<ele>719.8</ele>
<time>2003-02-20T10:23:55Z</time>
<speed>0.0</speed>
</trkpt>
<trkpt lat="47.372399" lon="7.848355">
<ele>719.8</ele>
<time>2003-02-20T10:24:00Z</time>
<speed>0.0</speed>
</trkpt>
<trkpt lat="47.372399" lon="7.848355">
<ele>719.8</ele>
<time>2003-02-20T10:24:05Z</time>
<speed>0.0</speed>
</trkpt>
<trkpt lat="47.372399" lon="7.848355">
<ele>719.8</ele>
<time>2003-02-20T10:24:11Z</time>
<speed>0.0</speed>
</trkpt>
<trkpt lat="47.372399" lon="7.848355">
<ele>719.8</ele>
<time>2003-02-20T10:24:16Z</time>
<speed>0.0</speed>
</trkpt>
<trkpt lat="47.372399" lon="7.848355">
<ele>719.8</ele>
<time>2003-02-20T10:24:21Z</time>
<speed>0.0</speed>
</trkpt>
<trkpt lat="47.372399" lon="7.848355">
<ele>719.8</ele>
<time>2003-02-20T10:24:26Z</time>
<speed>0.0</speed>
</trkpt>
<trkpt lat="47.372399" lon="7.848355">
<ele>719.8</ele>
<time>2003-02-20T10:24:31Z</time>
<speed>0.0</speed>
</trkpt>
<trkpt lat="47.372399" lon="7.848355">
<ele>719.8</ele>
<time>2003-02-20T10:24:36Z</time>
<speed>0.2</speed>
</trkpt>
<trkpt lat="47.372392" lon="7.848354">
<ele>720.4</ele>
<time>2003-02-20T10:24:41Z</time>
<speed>0.0</speed>
</trkpt>
<trkpt lat="47.372392" lon="7.848354">
<ele>720.4</ele>
<time>2003-02-20T10:24:46Z</time>
<speed>0.0</speed>
</trkpt>
<trkpt lat="47.372392" lon="7.848354">
<ele>720.4</ele>
<time>2003-02-20T10:24:51Z</time>
<speed>0.0</speed>
</trkpt>
<trkpt lat="47.372392" lon="7.848354">
<ele>720.4</ele>
<time>2003-02-20T10:24:56Z</time>
<speed>0.0</speed>
</trkpt>
<trkpt lat="47.372392" lon="7.848354">
<ele>720.4</ele>
<time>2003-02-20T10:25:01Z</time>
<speed>0.0</speed>
</trkpt>
<trkpt lat="47.372392" lon="7.848354">
<ele>720.4</ele>
<time>2003-02-20T10:25:06Z</time>
<speed>0.0</speed>
</trkpt>
<trkpt lat="47.372392" lon="7.848354">
<ele>720.4</ele>
<time>2003-02-20T10:25:11Z</time>
<speed>0.0</speed>
</trkpt>
<trkpt lat="47.372392" lon="7.848354">
<ele>720.4</ele>
<time>2003-02-20T10:25:16Z</time>
<speed>0.0</speed>
</trkpt>
<trkpt lat="47.372392" lon="7.848354">
<ele>720.4</ele>
<time>2003-02-20T10:25:21Z</time>
<speed>0.0</speed>
</trkpt>
<trkpt lat="47.372392" lon="7.848354">
<ele>720.4</ele>
<time>2003-02-20T10:25:26Z</time>
<speed>0.0</speed>
</trkpt>
<trkpt lat="47.372392" lon="7.848354">
<ele>720.4</ele>
<time>2003-02-20T10:25:31Z</time>
<speed>0.0</speed>
</trkpt>
<trkpt lat="47.372392" lon="7.848354">
<ele>720.4</ele>
<time>2003-02-20T10:25:36Z</time>
<speed>0.0</speed>
</trkpt>
<trkpt lat="47.372392" lon="7.848354">
<ele>720.4</ele>
<time>2003-02-20T10:25:41Z</time>
<speed>0.0</speed>
</trkpt>
<trkpt lat="47.372392" lon="7.848354">
<ele>720.4</ele>
<time>2003-02-20T10:25:46Z</time>
<speed>0.0</speed>
</trkpt>
<trkpt lat="47.372392" lon="7.848354">
<ele>720.4</ele>
<time>2003-02-20T10:25:51Z</time>
<speed>0.0</speed>
</trkpt>
<trkpt lat="47.372392" lon="7.848354">
<ele>720.4</ele>
<time>2003-02-20T10:25:56Z</time>
<speed>0.0</speed>
</trkpt>
<trkpt lat="47.372392" lon="7.848354">
<ele>720.4</ele>
<time>2003-02-20T10:26:01Z</time>
<speed>0.0</speed>
</trkpt>
<trkpt lat="47.372392" lon="7.848354">
<ele>720.4</ele>
<time>2003-02-20T10:26:06Z</time>
<speed>0.0</speed>
</trkpt>
<trkpt lat="47.372392" lon="7.848354">
<ele>720.4</ele>
<time>2003-02-20T10:26:11Z</time>
<speed>0.0</speed>
</trkpt>
<trkpt lat="47.372392" lon="7.848354">
<ele>720.4</ele>
<time>2003-02-20T10:26:16Z</time>
<speed>0.0</speed>
</trkpt>
<trkpt lat="47.372392" lon="7.848354">
<ele>720.4</ele>
<time>2003-02-20T10:26:21Z</time>
<speed>0.0</speed>
</trkpt>
<trkpt lat="47.372392" lon="7.848354">
<ele>720.4</ele>
<time>2003-02-20T10:26:26Z</time>
<speed>0.0</speed>
</trkpt>
<trkpt lat="47.372392" lon="7.848354">
<ele>720.4</ele>
<time>2003-02-20T10:26:31Z</time>
<speed>0.0</speed>
</trkpt>
<trkpt lat="47.372392" lon="7.848354">
<ele>720.4</ele>
<time>2003-02-20T10:26:36Z</time>
<speed>0.2</speed>
</trkpt>
<trkpt lat="47.372399" lon="7.848355">
<ele>719.8</ele>
<time>2003-02-20T10:26:41Z</time>
<speed>0.0</speed>
</trkpt>
<trkpt lat="47.372399" lon="7.848355">
<ele>719.8</ele>
<time>2003-02-20T10:26:46Z</time>
<speed>0.2</speed>
</trkpt>
<trkpt lat="47.372398" lon="7.848369">
<ele>719.8</ele>
<time>2003-02-20T10:26:51Z</time>
<speed>0.0</speed>
</trkpt>
<trkpt lat="47.372398" lon="7.848369">
<ele>719.8</ele>
<time>2003-02-20T10:26:56Z</time>
<speed>0.2</speed>
</trkpt>
<trkpt lat="47.372397" lon="7.848382">
<ele>719.9</ele>
<time>2003-02-20T10:27:01Z</time>
<speed>0.2</speed>
</trkpt>
<trkpt lat="47.372404" lon="7.848383">
<ele>719.3</ele>
<time>2003-02-20T10:27:06Z</time>
<speed>0.0</speed>
</trkpt>
<trkpt lat="47.372404" lon="7.848383">
<ele>719.3</ele>
<time>2003-02-20T10:27:11Z</time>
<speed>0.0</speed>
</trkpt>
<trkpt lat="47.372404" lon="7.848383">
<ele>719.3</ele>
<time>2003-02-20T10:27:16Z</time>
<speed>0.0</speed>
</trkpt>
<trkpt lat="47.372404" lon="7.848383">
<ele>719.3</ele>
<time>2003-02-20T10:27:21Z</time>
<speed>0.0</speed>
</trkpt>
<trkpt lat="47.372404" lon="7.848383">
<ele>719.3</ele>
<time>2003-02-20T10:27:26Z</time>
<speed>0.0</speed>
</trkpt>
<trkpt lat="47.372404" lon="7.848383">
<ele>719.3</ele>
<time>2003-02-20T10:27:31Z</time>
<speed>0.0</speed>
</trkpt>
<trkpt lat="47.372404" lon="7.848383">
<ele>719.3</ele>
<time>2003-02-20T10:27:36Z</time>
<speed>0.0</speed>
</trkpt>
<trkpt lat="47.372404" lon="7.848383">
<ele>719.3</ele>
<time>2003-02-20T10:27:41Z</time>
<speed>0.0</speed>
</trkpt>
<trkpt lat="47.372404" lon="7.848383">
<ele>719.3</ele>
<time>2003-02-20T10:27:46Z</time>
<speed>0.2</speed>
</trkpt>
<trkpt lat="47.372397" lon="7.848382">
<ele>719.9</ele>
<time>2003-02-20T10:27:51Z</time>
<speed>0.0</speed>
</trkpt>
<trkpt lat="47.372397" lon="7.848382">
<ele>719.9</ele>
<time>2003-02-20T10:27:56Z</time>
<speed>0.0</speed>
</trkpt>
<trkpt lat="47.372397" lon="7.848382">
<ele>719.9</ele>
<time>2003-02-20T10:28:01Z</time>
<speed>0.0</speed>
</trkpt>
<trkpt lat="47.372397" lon="7.848382">
<ele>719.9</ele>
<time>2003-02-20T10:28:06Z</time>
<speed>0.0</speed>
</trkpt>
<trkpt lat="47.372397" lon="7.848382">
<ele>719.9</ele>
<time>2003-02-20T10:28:11Z</time>
<speed>0.0</speed>
</trkpt>
<trkpt lat="47.372397" lon="7.848382">
<ele>719.9</ele>
<time>2003-02-20T10:28:16Z</time>
<speed>0.0</speed>
</trkpt>
<trkpt lat="47.372397" lon="7.848382">
<ele>719.9</ele>
<time>2003-02-20T10:28:21Z</time>
<speed>0.0</speed>
</trkpt>
<trkpt lat="47.372397" lon="7.848382">
<ele>719.9</ele>
<time>2003-02-20T10:28:26Z</time>
<speed>0.0</speed>
</trkpt>
<trkpt lat="47.372397" lon="7.848382">
<ele>719.9</ele>
<time>2003-02-20T10:28:31Z</time>
<speed>0.2</speed>
</trkpt>
<trkpt lat="47.372396" lon="7.848395">
<ele>720.0</ele>
<time>2003-02-20T10:28:36Z</time>
<speed>0.0</speed>
</trkpt>
<trkpt lat="47.372396" lon="7.848395">
<ele>720.0</ele>
<time>2003-02-20T10:28:41Z</time>
<speed>0.3</speed>
</trkpt>
<trkpt lat="47.372383" lon="7.848393">
<ele>720.0</ele>
<time>2003-02-20T10:28:46Z</time>
<speed>0.0</speed>
</trkpt>
<trkpt lat="47.372383" lon="7.848393">
<ele>720.0</ele>
<time>2003-02-20T10:28:51Z</time>
<speed>0.0</speed>
</trkpt>
<trkpt lat="47.372383" lon="7.848393">
<ele>720.0</ele>
<time>2003-02-20T10:28:56Z</time>
<speed>0.0</speed>
</trkpt>
<trkpt lat="47.372383" lon="7.848393">
<ele>720.0</ele>
<time>2003-02-20T10:29:01Z</time>
<speed>0.0</speed>
</trkpt>
<trkpt lat="47.372383" lon="7.848393">
<ele>720.0</ele>
<time>2003-02-20T10:29:06Z</time>
<speed>0.0</speed>
</trkpt>
<trkpt lat="47.372383" lon="7.848393">
<ele>720.0</ele>
<time>2003-02-20T10:29:11Z</time>
<speed>0.0</speed>
</trkpt>
<trkpt lat="47.372383" lon="7.848393">
<ele>720.0</ele>
<time>2003-02-20T10:29:16Z</time>
<speed>0.3</speed>
</trkpt>
<trkpt lat="47.372378" lon="7.848378">
<ele>720.5</ele>
<time>2003-02-20T10:29:21Z</time>
<speed>0.2</speed>
</trkpt>
<trkpt lat="47.372379" lon="7.848365">
<ele>720.5</ele>
<time>2003-02-20T10:29:26Z</time>
<speed>1.1</speed>
</trkpt>
<trkpt lat="47.372336" lon="7.848331">
<ele>720.7</ele>
<time>2003-02-20T10:29:31Z</time>
<speed>0.3</speed>
</trkpt>
<trkpt lat="47.372323" lon="7.848330">
<ele>720.7</ele>
<time>2003-02-20T10:29:36Z</time>
<speed>0.7</speed>
</trkpt>
<trkpt lat="47.372291" lon="7.848324">
<ele>721.2</ele>
<time>2003-02-20T10:29:41Z</time>
<speed>0.6</speed>
</trkpt>
<trkpt lat="47.372265" lon="7.848334">
<ele>721.2</ele>
<time>2003-02-20T10:29:46Z</time>
<speed>0.8</speed>
</trkpt>
<trkpt lat="47.372227" lon="7.848328">
<ele>721.0</ele>
<time>2003-02-20T10:29:51Z</time>
<speed>0.0</speed>
</trkpt>
<trkpt lat="47.372227" lon="7.848328">
<ele>721.0</ele>
<time>2003-02-20T10:29:56Z</time>
<speed>0.0</speed>
</trkpt>
<trkpt lat="47.372227" lon="7.848328">
<ele>721.0</ele>
<time>2003-02-20T10:30:01Z</time>
<speed>0.1</speed>
</trkpt>
<trkpt lat="47.372233" lon="7.848328">
<ele>721.7</ele>
<time>2003-02-20T10:30:06Z</time>
<speed>0.0</speed>
</trkpt>
<trkpt lat="47.372233" lon="7.848328">
<ele>721.7</ele>
<time>2003-02-20T10:30:11Z</time>
<speed>0.0</speed>
</trkpt>
<trkpt lat="47.372233" lon="7.848328">
<ele>721.7</ele>
<time>2003-02-20T10:30:16Z</time>
<speed>0.0</speed>
</trkpt>
<trkpt lat="47.372233" lon="7.848328">
<ele>721.7</ele>
<time>2003-02-20T10:30:21Z</time>
<speed>0.0</speed>
</trkpt>
<trkpt lat="47.372233" lon="7.848328">
<ele>721.7</ele>
<time>2003-02-20T10:30:26Z</time>
<speed>0.0</speed>
</trkpt>
<trkpt lat="47.372233" lon="7.848328">
<ele>721.7</ele>
<time>2003-02-20T10:30:31Z</time>
<speed>0.0</speed>
</trkpt>
<trkpt lat="47.372233" lon="7.848328">
<ele>721.7</ele>
<time>2003-02-20T10:30:36Z</time>
<speed>0.0</speed>
</trkpt>
<trkpt lat="47.372233" lon="7.848328">
<ele>721.7</ele>
<time>2003-02-20T10:30:41Z</time>
<speed>0.0</speed>
</trkpt>
<trkpt lat="47.372233" lon="7.848328">
<ele>721.7</ele>
<time>2003-02-20T10:30:46Z</time>
<speed>0.2</speed>
</trkpt>
<trkpt lat="47.372241" lon="7.848317">
<ele>721.0</ele>
<time>2003-02-20T10:30:51Z</time>
<speed>0.0</speed>
</trkpt>
<trkpt lat="47.372241" lon="7.848317">
<ele>721.0</ele>
<time>2003-02-20T10:30:56Z</time>
<speed>0.6</speed>
</trkpt>
<trkpt lat="47.372266" lon="7.848321">
<ele>721.1</ele>
<time>2003-02-20T10:31:01Z</time>
<speed>0.1</speed>
</trkpt>
<trkpt lat="47.372272" lon="7.848321">
<ele>721.8</ele>
<time>2003-02-20T10:31:06Z</time>
<speed>0.0</speed>
</trkpt>
<trkpt lat="47.372272" lon="7.848321">
<ele>721.8</ele>
<time>2003-02-20T10:31:11Z</time>
<speed>0.0</speed>
</trkpt>
<trkpt lat="47.372272" lon="7.848321">
<ele>721.8</ele>
<time>2003-02-20T10:31:16Z</time>
<speed>0.0</speed>
</trkpt>
<trkpt lat="47.372272" lon="7.848321">
<ele>721.8</ele>
<time>2003-02-20T10:31:21Z</time>
<speed>0.0</speed>
</trkpt>
<trkpt lat="47.372272" lon="7.848321">
<ele>721.8</ele>
<time>2003-02-20T10:31:26Z</time>
<speed>0.0</speed>
</trkpt>
<trkpt lat="47.372272" lon="7.848321">
<ele>721.8</ele>
<time>2003-02-20T10:31:31Z</time>
<speed>0.0</speed>
</trkpt>
<trkpt lat="47.372272" lon="7.848321">
<ele>721.8</ele>
<time>2003-02-20T10:31:36Z</time>
<speed>0.5</speed>
</trkpt>
<trkpt lat="47.372290" lon="7.848336">
<ele>722.7</ele>
<time>2003-02-20T10:31:41Z</time>
<speed>0.0</speed>
</trkpt>
<trkpt lat="47.372290" lon="7.848336">
<ele>722.7</ele>
<time>2003-02-20T10:31:46Z</time>
<speed>0.0</speed>
</trkpt>
<trkpt lat="47.372290" lon="7.848336">
<ele>722.7</ele>
<time>2003-02-20T10:31:51Z</time>
<speed>0.1</speed>
</trkpt>
<trkpt lat="47.372296" lon="7.848336">
<ele>723.5</ele>
<time>2003-02-20T10:31:56Z</time>
<speed>0.0</speed>
</trkpt>
<trkpt lat="47.372296" lon="7.848336">
<ele>723.5</ele>
<time>2003-02-20T10:32:01Z</time>
<speed>0.0</speed>
</trkpt>
<trkpt lat="47.372296" lon="7.848336">
<ele>723.5</ele>
<time>2003-02-20T10:32:06Z</time>
<speed>0.0</speed>
</trkpt>
<trkpt lat="47.372296" lon="7.848336">
<ele>723.5</ele>
<time>2003-02-20T10:32:11Z</time>
<speed>0.0</speed>
</trkpt>
<trkpt lat="47.372296" lon="7.848336">
<ele>723.5</ele>
<time>2003-02-20T10:32:16Z</time>
<speed>0.0</speed>
</trkpt>
<trkpt lat="47.372296" lon="7.848336">
<ele>723.5</ele>
<time>2003-02-20T10:32:21Z</time>
<speed>0.0</speed>
</trkpt>
<trkpt lat="47.372296" lon="7.848336">
<ele>723.5</ele>
<time>2003-02-20T10:32:26Z</time>
<speed>0.0</speed>
</trkpt>
<trkpt lat="47.372296" lon="7.848336">
<ele>723.5</ele>
<time>2003-02-20T10:32:31Z</time>
<speed>0.0</speed>
</trkpt>
<trkpt lat="47.372296" lon="7.848336">
<ele>723.5</ele>
<time>2003-02-20T10:32:36Z</time>
<speed>0.0</speed>
</trkpt>
<trkpt lat="47.372296" lon="7.848336">
<ele>723.5</ele>
<time>2003-02-20T10:32:41Z</time>
<speed>0.0</speed>
</trkpt>
<trkpt lat="47.372296" lon="7.848336">
<ele>723.5</ele>
<time>2003-02-20T10:32:46Z</time>
<speed>0.0</speed>
</trkpt>
<trkpt lat="47.372296" lon="7.848336">
<ele>723.5</ele>
<time>2003-02-20T10:32:51Z</time>
<speed>0.0</speed>
</trkpt>
<trkpt lat="47.372296" lon="7.848336">
<ele>723.5</ele>
<time>2003-02-20T10:32:56Z</time>
<speed>0.0</speed>
</trkpt>
<trkpt lat="47.372296" lon="7.848336">
<ele>723.5</ele>
<time>2003-02-20T10:33:01Z</time>
<speed>0.0</speed>
</trkpt>
<trkpt lat="47.372296" lon="7.848336">
<ele>723.5</ele>
<time>2003-02-20T10:33:06Z</time>
<speed>0.0</speed>
</trkpt>
<trkpt lat="47.372296" lon="7.848336">
<ele>723.5</ele>
<time>2003-02-20T10:33:11Z</time>
<speed>0.2</speed>
</trkpt>
<trkpt lat="47.372297" lon="7.848322">
<ele>723.4</ele>
<time>2003-02-20T10:33:16Z</time>
<speed>0.0</speed>
</trkpt>
<trkpt lat="47.372297" lon="7.848322">
<ele>723.4</ele>
<time>2003-02-20T10:33:21Z</time>
<speed>0.0</speed>
</trkpt>
<trkpt lat="47.372297" lon="7.848322">
<ele>723.4</ele>
<time>2003-02-20T10:33:26Z</time>
<speed>0.0</speed>
</trkpt>
<trkpt lat="47.372297" lon="7.848322">
<ele>723.4</ele>
<time>2003-02-20T10:33:31Z</time>
<speed>0.0</speed>
</trkpt>
<trkpt lat="47.372297" lon="7.848322">
<ele>723.4</ele>
<time>2003-02-20T10:33:36Z</time>
<speed>0.0</speed>
</trkpt>
<trkpt lat="47.372297" lon="7.848322">
<ele>723.4</ele>
<time>2003-02-20T10:33:41Z</time>
<speed>0.0</speed>
</trkpt>
<trkpt lat="47.372297" lon="7.848322">
<ele>723.4</ele>
<time>2003-02-20T10:33:46Z</time>
<speed>0.0</speed>
</trkpt>
<trkpt lat="47.372297" lon="7.848322">
<ele>723.4</ele>
<time>2003-02-20T10:33:51Z</time>
<speed>0.0</speed>
</trkpt>
<trkpt lat="47.372297" lon="7.848322">
<ele>723.4</ele>
<time>2003-02-20T10:33:56Z</time>
<speed>0.0</speed>
</trkpt>
<trkpt lat="47.372297" lon="7.848322">
<ele>723.4</ele>
<time>2003-02-20T10:34:01Z</time>
<speed>0.0</speed>
</trkpt>
<trkpt lat="47.372297" lon="7.848322">
<ele>723.4</ele>
<time>2003-02-20T10:34:06Z</time>
<speed>0.0</speed>
</trkpt>
<trkpt lat="47.372297" lon="7.848322">
<ele>723.4</ele>
<time>2003-02-20T10:34:11Z</time>
<speed>0.0</speed>
</trkpt>
<trkpt lat="47.372297" lon="7.848322">
<ele>723.4</ele>
<time>2003-02-20T10:34:16Z</time>
<speed>0.0</speed>
</trkpt>
<trkpt lat="47.372297" lon="7.848322">
<ele>723.4</ele>
<time>2003-02-20T10:34:21Z</time>
<speed>0.0</speed>
</trkpt>
<trkpt lat="47.372297" lon="7.848322">
<ele>723.4</ele>
<time>2003-02-20T10:34:26Z</time>
<speed>0.3</speed>
</trkpt>
<trkpt lat="47.372310" lon="7.848324">
<ele>723.4</ele>
<time>2003-02-20T10:34:31Z</time>
<speed>0.0</speed>
</trkpt>
<trkpt lat="47.372310" lon="7.848324">
<ele>723.4</ele>
<time>2003-02-20T10:34:36Z</time>
<speed>0.1</speed>
</trkpt>
<trkpt lat="47.372316" lon="7.848324">
<ele>724.2</ele>
<time>2003-02-20T10:34:41Z</time>
<speed>0.0</speed>
</trkpt>
<trkpt lat="47.372316" lon="7.848324">
<ele>724.2</ele>
<time>2003-02-20T10:34:46Z</time>
<speed>0.0</speed>
</trkpt>
<trkpt lat="47.372316" lon="7.848324">
<ele>724.2</ele>
<time>2003-02-20T10:34:51Z</time>
<speed>0.0</speed>
</trkpt>
<trkpt lat="47.372316" lon="7.848324">
<ele>724.2</ele>
<time>2003-02-20T10:34:56Z</time>
<speed>0.0</speed>
</trkpt>
<trkpt lat="47.372316" lon="7.848324">
<ele>724.2</ele>
<time>2003-02-20T10:35:01Z</time>
<speed>0.0</speed>
</trkpt>
<trkpt lat="47.372316" lon="7.848324">
<ele>724.2</ele>
<time>2003-02-20T10:35:06Z</time>
<speed>0.3</speed>
</trkpt>
<trkpt lat="47.372328" lon="7.848326">
<ele>724.2</ele>
<time>2003-02-20T10:35:11Z</time>
<speed>0.3</speed>
</trkpt>
<trkpt lat="47.372340" lon="7.848341">
<ele>724.4</ele>
<time>2003-02-20T10:35:16Z</time>
<speed>0.5</speed>
</trkpt>
<trkpt lat="47.372360" lon="7.848331">
<ele>723.7</ele>
<time>2003-02-20T10:35:21Z</time>
<speed>0.5</speed>
</trkpt>
<trkpt lat="47.372380" lon="7.848320">
<ele>724.4</ele>
<time>2003-02-20T10:35:26Z</time>
<speed>0.0</speed>
</trkpt>
<trkpt lat="47.372380" lon="7.848320">
<ele>724.4</ele>
<time>2003-02-20T10:35:31Z</time>
<speed>0.0</speed>
</trkpt>
<trkpt lat="47.372380" lon="7.848320">
<ele>724.4</ele>
<time>2003-02-20T10:35:36Z</time>
<speed>0.0</speed>
</trkpt>
<trkpt lat="47.372380" lon="7.848320">
<ele>724.4</ele>
<time>2003-02-20T10:35:41Z</time>
<speed>0.0</speed>
</trkpt>
<trkpt lat="47.372380" lon="7.848320">
<ele>724.4</ele>
<time>2003-02-20T10:35:46Z</time>
<speed>0.0</speed>
</trkpt>
<trkpt lat="47.372380" lon="7.848320">
<ele>724.4</ele>
<time>2003-02-20T10:35:51Z</time>
<speed>0.0</speed>
</trkpt>
<trkpt lat="47.372380" lon="7.848320">
<ele>724.4</ele>
<time>2003-02-20T10:35:56Z</time>
<speed>0.0</speed>
</trkpt>
<trkpt lat="47.372380" lon="7.848320">
<ele>724.4</ele>
<time>2003-02-20T10:36:01Z</time>
<speed>0.4</speed>
</trkpt>
<trkpt lat="47.372366" lon="7.848331">
<ele>724.4</ele>
<time>2003-02-20T10:36:06Z</time>
<speed>0.3</speed>
</trkpt>
<trkpt lat="47.372354" lon="7.848330">
<ele>724.4</ele>
<time>2003-02-20T10:36:11Z</time>
<speed>0.2</speed>
</trkpt>
<trkpt lat="47.372347" lon="7.848328">
<ele>725.0</ele>
<time>2003-02-20T10:36:16Z</time>
<speed>0.0</speed>
</trkpt>
<trkpt lat="47.372347" lon="7.848328">
<ele>725.0</ele>
<time>2003-02-20T10:36:21Z</time>
<speed>0.0</speed>
</trkpt>
<trkpt lat="47.372347" lon="7.848328">
<ele>725.0</ele>
<time>2003-02-20T10:36:26Z</time>
<speed>0.0</speed>
</trkpt>
<trkpt lat="47.372347" lon="7.848328">
<ele>725.0</ele>
<time>2003-02-20T10:36:31Z</time>
<speed>0.0</speed>
</trkpt>
<trkpt lat="47.372347" lon="7.848328">
<ele>725.0</ele>
<time>2003-02-20T10:36:36Z</time>
<speed>0.0</speed>
</trkpt>
<trkpt lat="47.372347" lon="7.848328">
<ele>725.0</ele>
<time>2003-02-20T10:36:41Z</time>
<speed>0.0</speed>
</trkpt>
<trkpt lat="47.372347" lon="7.848328">
<ele>725.0</ele>
<time>2003-02-20T10:36:46Z</time>
<speed>0.0</speed>
</trkpt>
<trkpt lat="47.372347" lon="7.848328">
<ele>725.0</ele>
<time>2003-02-20T10:36:51Z</time>
<speed>0.0</speed>
</trkpt>
<trkpt lat="47.372347" lon="7.848328">
<ele>725.0</ele>
<time>2003-02-20T10:36:56Z</time>
<speed>0.0</speed>
</trkpt>
<trkpt lat="47.372347" lon="7.848328">
<ele>725.0</ele>
<time>2003-02-20T10:37:01Z</time>
<speed>0.2</speed>
</trkpt>
<trkpt lat="47.372348" lon="7.848315">
<ele>724.9</ele>
<time>2003-02-20T10:37:06Z</time>
<speed>0.0</speed>
</trkpt>
<trkpt lat="47.372348" lon="7.848315">
<ele>724.9</ele>
<time>2003-02-20T10:37:11Z</time>
<speed>0.0</speed>
</trkpt>
<trkpt lat="47.372348" lon="7.848315">
<ele>724.9</ele>
<time>2003-02-20T10:37:16Z</time>
<speed>0.1</speed>
</trkpt>
<trkpt lat="47.372342" lon="7.848313">
<ele>725.6</ele>
<time>2003-02-20T10:37:21Z</time>
<speed>0.0</speed>
</trkpt>
<trkpt lat="47.372342" lon="7.848313">
<ele>725.6</ele>
<time>2003-02-20T10:37:26Z</time>
<speed>0.0</speed>
</trkpt>
<trkpt lat="47.372342" lon="7.848313">
<ele>725.6</ele>
<time>2003-02-20T10:37:31Z</time>
<speed>0.2</speed>
</trkpt>
<trkpt lat="47.372334" lon="7.848324">
<ele>726.4</ele>
<time>2003-02-20T10:37:36Z</time>
<speed>0.0</speed>
</trkpt>
<trkpt lat="47.372334" lon="7.848324">
<ele>726.4</ele>
<time>2003-02-20T10:37:41Z</time>
<speed>0.0</speed>
</trkpt>
<trkpt lat="47.372334" lon="7.848324">
<ele>726.4</ele>
<time>2003-02-20T10:37:46Z</time>
<speed>0.1</speed>
</trkpt>
<trkpt lat="47.372328" lon="7.848322">
<ele>727.0</ele>
<time>2003-02-20T10:37:51Z</time>
<speed>0.1</speed>
</trkpt>
<trkpt lat="47.372334" lon="7.848322">
<ele>727.8</ele>
<time>2003-02-20T10:37:56Z</time>
<speed>0.0</speed>
</trkpt>
<trkpt lat="47.372334" lon="7.848322">
<ele>727.8</ele>
<time>2003-02-20T10:38:01Z</time>
<speed>0.0</speed>
</trkpt>
<trkpt lat="47.372334" lon="7.848322">
<ele>727.8</ele>
<time>2003-02-20T10:38:06Z</time>
<speed>0.2</speed>
</trkpt>
<trkpt lat="47.372327" lon="7.848321">
<ele>728.4</ele>
<time>2003-02-20T10:38:11Z</time>
<speed>0.0</speed>
</trkpt>
<trkpt lat="47.372327" lon="7.848321">
<ele>728.4</ele>
<time>2003-02-20T10:38:16Z</time>
<speed>0.0</speed>
</trkpt>
<trkpt lat="47.372327" lon="7.848321">
<ele>728.4</ele>
<time>2003-02-20T10:38:21Z</time>
<speed>0.0</speed>
</trkpt>
<trkpt lat="47.372327" lon="7.848321">
<ele>728.4</ele>
<time>2003-02-20T10:38:26Z</time>
<speed>0.0</speed>
</trkpt>
<trkpt lat="47.372327" lon="7.848321">
<ele>728.4</ele>
<time>2003-02-20T10:38:31Z</time>
<speed>0.0</speed>
</trkpt>
<trkpt lat="47.372327" lon="7.848321">
<ele>728.4</ele>
<time>2003-02-20T10:38:36Z</time>
<speed>0.0</speed>
</trkpt>
<trkpt lat="47.372327" lon="7.848321">
<ele>728.4</ele>
<time>2003-02-20T10:38:41Z</time>
<speed>0.0</speed>
</trkpt>
<trkpt lat="47.372327" lon="7.848321">
<ele>728.4</ele>
<time>2003-02-20T10:38:46Z</time>
<speed>0.0</speed>
</trkpt>
<trkpt lat="47.372327" lon="7.848321">
<ele>728.4</ele>
<time>2003-02-20T10:38:51Z</time>
<speed>0.0</speed>
</trkpt>
<trkpt lat="47.372327" lon="7.848321">
<ele>728.4</ele>
<time>2003-02-20T10:38:56Z</time>
<speed>0.0</speed>
</trkpt>
<trkpt lat="47.372327" lon="7.848321">
<ele>728.4</ele>
<time>2003-02-20T10:39:01Z</time>
<speed>0.0</speed>
</trkpt>
<trkpt lat="47.372327" lon="7.848321">
<ele>728.4</ele>
<time>2003-02-20T10:39:06Z</time>
<speed>0.0</speed>
</trkpt>
<trkpt lat="47.372327" lon="7.848321">
<ele>728.4</ele>
<time>2003-02-20T10:39:11Z</time>
<speed>0.0</speed>
</trkpt>
<trkpt lat="47.372327" lon="7.848321">
<ele>728.4</ele>
<time>2003-02-20T10:39:16Z</time>
<speed>0.0</speed>
</trkpt>
<trkpt lat="47.372327" lon="7.848321">
<ele>728.4</ele>
<time>2003-02-20T10:39:21Z</time>
<speed>0.0</speed>
</trkpt>
<trkpt lat="47.372327" lon="7.848321">
<ele>728.4</ele>
<time>2003-02-20T10:39:26Z</time>
<speed>0.0</speed>
</trkpt>
<trkpt lat="47.372327" lon="7.848321">
<ele>728.4</ele>
<time>2003-02-20T10:39:31Z</time>
<speed>0.0</speed>
</trkpt>
<trkpt lat="47.372327" lon="7.848321">
<ele>728.4</ele>
<time>2003-02-20T10:39:36Z</time>
<speed>0.0</speed>
</trkpt>
<trkpt lat="47.372327" lon="7.848321">
<ele>728.4</ele>
<time>2003-02-20T10:39:41Z</time>
<speed>0.0</speed>
</trkpt>
<trkpt lat="47.372327" lon="7.848321">
<ele>728.4</ele>
<time>2003-02-20T10:39:46Z</time>
<speed>0.1</speed>
</trkpt>
<trkpt lat="47.372321" lon="7.848319">
<ele>729.1</ele>
<time>2003-02-20T10:39:51Z</time>
<speed>0.0</speed>
</trkpt>
<trkpt lat="47.372321" lon="7.848319">
<ele>729.1</ele>
<time>2003-02-20T10:39:56Z</time>
<speed>0.0</speed>
</trkpt>
<trkpt lat="47.372321" lon="7.848319">
<ele>729.1</ele>
<time>2003-02-20T10:40:01Z</time>
<speed>0.0</speed>
</trkpt>
<trkpt lat="47.372321" lon="7.848319">
<ele>729.1</ele>
<time>2003-02-20T10:40:06Z</time>
<speed>0.0</speed>
</trkpt>
<trkpt lat="47.372321" lon="7.848319">
<ele>729.1</ele>
<time>2003-02-20T10:40:11Z</time>
<speed>0.0</speed>
</trkpt>
<trkpt lat="47.372321" lon="7.848319">
<ele>729.1</ele>
<time>2003-02-20T10:40:16Z</time>
<speed>0.1</speed>
</trkpt>
<trkpt lat="47.372327" lon="7.848319">
<ele>729.9</ele>
<time>2003-02-20T10:40:21Z</time>
<speed>0.0</speed>
</trkpt>
<trkpt lat="47.372327" lon="7.848319">
<ele>729.9</ele>
<time>2003-02-20T10:40:26Z</time>
<speed>0.0</speed>
</trkpt>
<trkpt lat="47.372327" lon="7.848319">
<ele>729.9</ele>
<time>2003-02-20T10:40:31Z</time>
<speed>0.0</speed>
</trkpt>
<trkpt lat="47.372327" lon="7.848319">
<ele>729.9</ele>
<time>2003-02-20T10:40:36Z</time>
<speed>0.1</speed>
</trkpt>
<trkpt lat="47.372333" lon="7.848321">
<ele>729.2</ele>
<time>2003-02-20T10:40:41Z</time>
<speed>0.0</speed>
</trkpt>
<trkpt lat="47.372333" lon="7.848321">
<ele>729.2</ele>
<time>2003-02-20T10:40:46Z</time>
<speed>0.3</speed>
</trkpt>
<trkpt lat="47.372328" lon="7.848306">
<ele>729.8</ele>
<time>2003-02-20T10:40:51Z</time>
<speed>0.0</speed>
</trkpt>
<trkpt lat="47.372328" lon="7.848306">
<ele>729.8</ele>
<time>2003-02-20T10:40:56Z</time>
<speed>0.0</speed>
</trkpt>
<trkpt lat="47.372328" lon="7.848306">
<ele>729.8</ele>
<time>2003-02-20T10:41:01Z</time>
<speed>0.0</speed>
</trkpt>
<trkpt lat="47.372328" lon="7.848306">
<ele>729.8</ele>
<time>2003-02-20T10:41:06Z</time>
<speed>0.0</speed>
</trkpt>
<trkpt lat="47.372328" lon="7.848306">
<ele>729.8</ele>
<time>2003-02-20T10:41:11Z</time>
<speed>0.0</speed>
</trkpt>
<trkpt lat="47.372328" lon="7.848306">
<ele>729.8</ele>
<time>2003-02-20T10:41:16Z</time>
<speed>0.0</speed>
</trkpt>
<trkpt lat="47.372328" lon="7.848306">
<ele>729.8</ele>
<time>2003-02-20T10:41:21Z</time>
<speed>0.0</speed>
</trkpt>
<trkpt lat="47.372328" lon="7.848306">
<ele>729.8</ele>
<time>2003-02-20T10:41:26Z</time>
<speed>0.0</speed>
</trkpt>
<trkpt lat="47.372328" lon="7.848306">
<ele>729.8</ele>
<time>2003-02-20T10:41:31Z</time>
<speed>0.1</speed>
</trkpt>
<trkpt lat="47.372334" lon="7.848306">
<ele>730.5</ele>
<time>2003-02-20T10:41:36Z</time>
<speed>0.0</speed>
</trkpt>
<trkpt lat="47.372334" lon="7.848306">
<ele>730.5</ele>
<time>2003-02-20T10:41:41Z</time>
<speed>0.0</speed>
</trkpt>
<trkpt lat="47.372334" lon="7.848306">
<ele>730.5</ele>
<time>2003-02-20T10:41:46Z</time>
<speed>0.0</speed>
</trkpt>
<trkpt lat="47.372334" lon="7.848306">
<ele>730.5</ele>
<time>2003-02-20T10:41:51Z</time>
<speed>0.0</speed>
</trkpt>
<trkpt lat="47.372334" lon="7.848306">
<ele>730.5</ele>
<time>2003-02-20T10:41:57Z</time>
<speed>0.0</speed>
</trkpt>
<trkpt lat="47.372334" lon="7.848306">
<ele>730.5</ele>
<time>2003-02-20T10:42:02Z</time>
<speed>0.0</speed>
</trkpt>
<trkpt lat="47.372334" lon="7.848306">
<ele>730.5</ele>
<time>2003-02-20T10:42:07Z</time>
<speed>0.2</speed>
</trkpt>
<trkpt lat="47.372335" lon="7.848293">
<ele>730.4</ele>
<time>2003-02-20T10:42:12Z</time>
<speed>0.0</speed>
</trkpt>
<trkpt lat="47.372335" lon="7.848293">
<ele>730.4</ele>
<time>2003-02-20T10:42:17Z</time>
<speed>0.0</speed>
</trkpt>
<trkpt lat="47.372335" lon="7.848293">
<ele>730.4</ele>
<time>2003-02-20T10:42:22Z</time>
<speed>0.0</speed>
</trkpt>
<trkpt lat="47.372335" lon="7.848293">
<ele>730.4</ele>
<time>2003-02-20T10:42:27Z</time>
<speed>0.0</speed>
</trkpt>
<trkpt lat="47.372335" lon="7.848293">
<ele>730.4</ele>
<time>2003-02-20T10:42:32Z</time>
<speed>0.0</speed>
</trkpt>
<trkpt lat="47.372335" lon="7.848293">
<ele>730.4</ele>
<time>2003-02-20T10:42:37Z</time>
<speed>0.0</speed>
</trkpt>
<trkpt lat="47.372335" lon="7.848293">
<ele>730.4</ele>
<time>2003-02-20T10:42:42Z</time>
<speed>0.0</speed>
</trkpt>
<trkpt lat="47.372335" lon="7.848293">
<ele>730.4</ele>
<time>2003-02-20T10:42:47Z</time>
<speed>0.0</speed>
</trkpt>
<trkpt lat="47.372335" lon="7.848293">
<ele>730.4</ele>
<time>2003-02-20T10:42:52Z</time>
<speed>0.0</speed>
</trkpt>
<trkpt lat="47.372335" lon="7.848293">
<ele>730.4</ele>
<time>2003-02-20T10:42:57Z</time>
<speed>0.0</speed>
</trkpt>
<trkpt lat="47.372335" lon="7.848293">
<ele>730.4</ele>
<time>2003-02-20T10:43:02Z</time>
<speed>0.0</speed>
</trkpt>
<trkpt lat="47.372335" lon="7.848293">
<ele>730.4</ele>
<time>2003-02-20T10:43:07Z</time>
<speed>0.0</speed>
</trkpt>
<trkpt lat="47.372335" lon="7.848293">
<ele>730.4</ele>
<time>2003-02-20T10:43:12Z</time>
<speed>0.0</speed>
</trkpt>
<trkpt lat="47.372335" lon="7.848293">
<ele>730.4</ele>
<time>2003-02-20T10:43:17Z</time>
<speed>0.0</speed>
</trkpt>
<trkpt lat="47.372335" lon="7.848293">
<ele>730.4</ele>
<time>2003-02-20T10:43:22Z</time>
<speed>0.0</speed>
</trkpt>
<trkpt lat="47.372335" lon="7.848293">
<ele>730.4</ele>
<time>2003-02-20T10:43:27Z</time>
<speed>0.0</speed>
</trkpt>
<trkpt lat="47.372335" lon="7.848293">
<ele>730.4</ele>
<time>2003-02-20T10:43:32Z</time>
<speed>0.0</speed>
</trkpt>
<trkpt lat="47.372335" lon="7.848293">
<ele>730.4</ele>
<time>2003-02-20T10:43:37Z</time>
<speed>0.0</speed>
</trkpt>
<trkpt lat="47.372335" lon="7.848293">
<ele>730.4</ele>
<time>2003-02-20T10:43:42Z</time>
<speed>0.0</speed>
</trkpt>
<trkpt lat="47.372335" lon="7.848293">
<ele>730.4</ele>
<time>2003-02-20T10:43:47Z</time>
<speed>0.0</speed>
</trkpt>
<trkpt lat="47.372335" lon="7.848293">
<ele>730.4</ele>
<time>2003-02-20T10:43:52Z</time>
<speed>0.0</speed>
</trkpt>
<trkpt lat="47.372335" lon="7.848293">
<ele>730.4</ele>
<time>2003-02-20T10:43:57Z</time>
<speed>0.0</speed>
</trkpt>
<trkpt lat="47.372335" lon="7.848293">
<ele>730.4</ele>
<time>2003-02-20T10:44:02Z</time>
<speed>0.0</speed>
</trkpt>
<trkpt lat="47.372335" lon="7.848293">
<ele>730.4</ele>
<time>2003-02-20T10:44:07Z</time>
<speed>0.0</speed>
</trkpt>
<trkpt lat="47.372335" lon="7.848293">
<ele>730.4</ele>
<time>2003-02-20T10:44:12Z</time>
<speed>0.0</speed>
</trkpt>
<trkpt lat="47.372335" lon="7.848293">
<ele>730.4</ele>
<time>2003-02-20T10:44:17Z</time>
<speed>0.0</speed>
</trkpt>
<trkpt lat="47.372335" lon="7.848293">
<ele>730.4</ele>
<time>2003-02-20T10:44:22Z</time>
<speed>0.0</speed>
</trkpt>
<trkpt lat="47.372335" lon="7.848293">
<ele>730.4</ele>
<time>2003-02-20T10:44:27Z</time>
<speed>0.0</speed>
</trkpt>
<trkpt lat="47.372335" lon="7.848293">
<ele>730.4</ele>
<time>2003-02-20T10:44:32Z</time>
<speed>0.0</speed>
</trkpt>
<trkpt lat="47.372335" lon="7.848293">
<ele>730.4</ele>
<time>2003-02-20T10:44:37Z</time>
<speed>0.0</speed>
</trkpt>
<trkpt lat="47.372335" lon="7.848293">
<ele>730.4</ele>
<time>2003-02-20T10:44:42Z</time>
<speed>0.0</speed>
</trkpt>
<trkpt lat="47.372335" lon="7.848293">
<ele>730.4</ele>
<time>2003-02-20T10:44:47Z</time>
<speed>0.0</speed>
</trkpt>
<trkpt lat="47.372335" lon="7.848293">
<ele>730.4</ele>
<time>2003-02-20T10:44:52Z</time>
<speed>0.0</speed>
</trkpt>
<trkpt lat="47.372335" lon="7.848293">
<ele>730.4</ele>
<time>2003-02-20T10:44:57Z</time>
<speed>0.0</speed>
</trkpt>
<trkpt lat="47.372335" lon="7.848293">
<ele>730.4</ele>
<time>2003-02-20T10:45:02Z</time>
<speed>0.0</speed>
</trkpt>
<trkpt lat="47.372335" lon="7.848293">
<ele>730.4</ele>
<time>2003-02-20T10:45:07Z</time>
<speed>0.0</speed>
</trkpt>
<trkpt lat="47.372335" lon="7.848293">
<ele>730.4</ele>
<time>2003-02-20T10:45:12Z</time>
<speed>0.0</speed>
</trkpt>
<trkpt lat="47.372335" lon="7.848293">
<ele>730.4</ele>
<time>2003-02-20T10:45:17Z</time>
<speed>0.2</speed>
</trkpt>
<trkpt lat="47.372334" lon="7.848306">
<ele>730.5</ele>
<time>2003-02-20T10:45:22Z</time>
<speed>0.0</speed>
</trkpt>
<trkpt lat="47.372334" lon="7.848306">
<ele>730.5</ele>
<time>2003-02-20T10:45:27Z</time>
<speed>0.0</speed>
</trkpt>
<trkpt lat="47.372334" lon="7.848306">
<ele>730.5</ele>
<time>2003-02-20T10:45:32Z</time>
<speed>0.0</speed>
</trkpt>
<trkpt lat="47.372334" lon="7.848306">
<ele>730.5</ele>
<time>2003-02-20T10:45:37Z</time>
<speed>0.0</speed>
</trkpt>
<trkpt lat="47.372334" lon="7.848306">
<ele>730.5</ele>
<time>2003-02-20T10:45:42Z</time>
<speed>0.0</speed>
</trkpt>
<trkpt lat="47.372334" lon="7.848306">
<ele>730.5</ele>
<time>2003-02-20T10:45:47Z</time>
<speed>0.0</speed>
</trkpt>
<trkpt lat="47.372334" lon="7.848306">
<ele>730.5</ele>
<time>2003-02-20T10:45:52Z</time>
<speed>0.0</speed>
</trkpt>
<trkpt lat="47.372334" lon="7.848306">
<ele>730.5</ele>
<time>2003-02-20T10:45:57Z</time>
<speed>0.0</speed>
</trkpt>
<trkpt lat="47.372334" lon="7.848306">
<ele>730.5</ele>
<time>2003-02-20T10:46:02Z</time>
<speed>0.0</speed>
</trkpt>
<trkpt lat="47.372334" lon="7.848306">
<ele>730.5</ele>
<time>2003-02-20T10:46:07Z</time>
<speed>0.0</speed>
</trkpt>
<trkpt lat="47.372334" lon="7.848306">
<ele>730.5</ele>
<time>2003-02-20T10:46:12Z</time>
<speed>0.1</speed>
</trkpt>
<trkpt lat="47.372340" lon="7.848306">
<ele>731.2</ele>
<time>2003-02-20T10:46:17Z</time>
<speed>0.0</speed>
</trkpt>
<trkpt lat="47.372340" lon="7.848306">
<ele>731.2</ele>
<time>2003-02-20T10:46:22Z</time>
<speed>0.0</speed>
</trkpt>
<trkpt lat="47.372340" lon="7.848306">
<ele>731.2</ele>
<time>2003-02-20T10:46:27Z</time>
<speed>0.0</speed>
</trkpt>
<trkpt lat="47.372340" lon="7.848306">
<ele>731.2</ele>
<time>2003-02-20T10:46:32Z</time>
<speed>0.0</speed>
</trkpt>
<trkpt lat="47.372340" lon="7.848306">
<ele>731.2</ele>
<time>2003-02-20T10:46:37Z</time>
<speed>0.0</speed>
</trkpt>
<trkpt lat="47.372340" lon="7.848306">
<ele>731.2</ele>
<time>2003-02-20T10:46:42Z</time>
<speed>0.0</speed>
</trkpt>
<trkpt lat="47.372340" lon="7.848306">
<ele>731.2</ele>
<time>2003-02-20T10:46:47Z</time>
<speed>0.0</speed>
</trkpt>
<trkpt lat="47.372340" lon="7.848306">
<ele>731.2</ele>
<time>2003-02-20T10:46:52Z</time>
<speed>0.0</speed>
</trkpt>
<trkpt lat="47.372340" lon="7.848306">
<ele>731.2</ele>
<time>2003-02-20T10:46:57Z</time>
<speed>0.2</speed>
</trkpt>
<trkpt lat="47.372339" lon="7.848319">
<ele>731.3</ele>
<time>2003-02-20T10:47:02Z</time>
<speed>0.0</speed>
</trkpt>
<trkpt lat="47.372339" lon="7.848319">
<ele>731.3</ele>
<time>2003-02-20T10:47:07Z</time>
<speed>0.0</speed>
</trkpt>
<trkpt lat="47.372339" lon="7.848319">
<ele>731.3</ele>
<time>2003-02-20T10:47:12Z</time>
<speed>0.0</speed>
</trkpt>
<trkpt lat="47.372339" lon="7.848319">
<ele>731.3</ele>
<time>2003-02-20T10:47:17Z</time>
<speed>0.0</speed>
</trkpt>
<trkpt lat="47.372339" lon="7.848319">
<ele>731.3</ele>
<time>2003-02-20T10:47:22Z</time>
<speed>0.0</speed>
</trkpt>
<trkpt lat="47.372339" lon="7.848319">
<ele>731.3</ele>
<time>2003-02-20T10:47:27Z</time>
<speed>0.0</speed>
</trkpt>
<trkpt lat="47.372339" lon="7.848319">
<ele>731.3</ele>
<time>2003-02-20T10:47:32Z</time>
<speed>0.0</speed>
</trkpt>
<trkpt lat="47.372339" lon="7.848319">
<ele>731.3</ele>
<time>2003-02-20T10:47:37Z</time>
<speed>0.0</speed>
</trkpt>
<trkpt lat="47.372339" lon="7.848319">
<ele>731.3</ele>
<time>2003-02-20T10:47:42Z</time>
<speed>0.0</speed>
</trkpt>
<trkpt lat="47.372339" lon="7.848319">
<ele>731.3</ele>
<time>2003-02-20T10:47:47Z</time>
<speed>0.0</speed>
</trkpt>
<trkpt lat="47.372339" lon="7.848319">
<ele>731.3</ele>
<time>2003-02-20T10:47:52Z</time>
<speed>0.2</speed>
</trkpt>
<trkpt lat="47.372340" lon="7.848306">
<ele>731.2</ele>
<time>2003-02-20T10:47:57Z</time>
<speed>0.2</speed>
</trkpt>
<trkpt lat="47.372339" lon="7.848319">
<ele>731.3</ele>
<time>2003-02-20T10:48:02Z</time>
<speed>0.0</speed>
</trkpt>
<trkpt lat="47.372339" lon="7.848319">
<ele>731.3</ele>
<time>2003-02-20T10:48:07Z</time>
<speed>0.0</speed>
</trkpt>
<trkpt lat="47.372339" lon="7.848319">
<ele>731.3</ele>
<time>2003-02-20T10:48:12Z</time>
<speed>0.0</speed>
</trkpt>
<trkpt lat="47.372339" lon="7.848319">
<ele>731.3</ele>
<time>2003-02-20T10:48:17Z</time>
<speed>0.0</speed>
</trkpt>
<trkpt lat="47.372339" lon="7.848319">
<ele>731.3</ele>
<time>2003-02-20T10:48:22Z</time>
<speed>0.1</speed>
</trkpt>
<trkpt lat="47.372345" lon="7.848321">
<ele>730.7</ele>
<time>2003-02-20T10:48:27Z</time>
<speed>0.0</speed>
</trkpt>
<trkpt lat="47.372345" lon="7.848321">
<ele>730.7</ele>
<time>2003-02-20T10:48:32Z</time>
<speed>0.0</speed>
</trkpt>
<trkpt lat="47.372345" lon="7.848321">
<ele>730.7</ele>
<time>2003-02-20T10:48:37Z</time>
<speed>0.0</speed>
</trkpt>
<trkpt lat="47.372345" lon="7.848321">
<ele>730.7</ele>
<time>2003-02-20T10:48:42Z</time>
<speed>0.0</speed>
</trkpt>
<trkpt lat="47.372345" lon="7.848321">
<ele>730.7</ele>
<time>2003-02-20T10:48:47Z</time>
<speed>0.2</speed>
</trkpt>
<trkpt lat="47.372346" lon="7.848308">
<ele>730.6</ele>
<time>2003-02-20T10:48:52Z</time>
<speed>0.0</speed>
</trkpt>
<trkpt lat="47.372346" lon="7.848308">
<ele>730.6</ele>
<time>2003-02-20T10:48:57Z</time>
<speed>0.1</speed>
</trkpt>
<trkpt lat="47.372340" lon="7.848308">
<ele>729.8</ele>
<time>2003-02-20T10:49:02Z</time>
<speed>0.2</speed>
</trkpt>
<trkpt lat="47.372346" lon="7.848322">
<ele>729.2</ele>
<time>2003-02-20T10:49:07Z</time>
<speed>0.0</speed>
</trkpt>
<trkpt lat="47.372346" lon="7.848322">
<ele>729.2</ele>
<time>2003-02-20T10:49:12Z</time>
<speed>0.0</speed>
</trkpt>
<trkpt lat="47.372346" lon="7.848322">
<ele>729.2</ele>
<time>2003-02-20T10:49:17Z</time>
<speed>0.0</speed>
</trkpt>
<trkpt lat="47.372346" lon="7.848322">
<ele>729.2</ele>
<time>2003-02-20T10:49:22Z</time>
<speed>0.0</speed>
</trkpt>
<trkpt lat="47.372346" lon="7.848322">
<ele>729.2</ele>
<time>2003-02-20T10:49:27Z</time>
<speed>0.0</speed>
</trkpt>
<trkpt lat="47.372346" lon="7.848322">
<ele>729.2</ele>
<time>2003-02-20T10:49:32Z</time>
<speed>0.0</speed>
</trkpt>
<trkpt lat="47.372346" lon="7.848322">
<ele>729.2</ele>
<time>2003-02-20T10:49:37Z</time>
<speed>0.0</speed>
</trkpt>
<trkpt lat="47.372346" lon="7.848322">
<ele>729.2</ele>
<time>2003-02-20T10:49:42Z</time>
<speed>0.0</speed>
</trkpt>
<trkpt lat="47.372346" lon="7.848322">
<ele>729.2</ele>
<time>2003-02-20T10:49:47Z</time>
<speed>0.0</speed>
</trkpt>
<trkpt lat="47.372346" lon="7.848322">
<ele>729.2</ele>
<time>2003-02-20T10:49:52Z</time>
<speed>0.0</speed>
</trkpt>
<trkpt lat="47.372346" lon="7.848322">
<ele>729.2</ele>
<time>2003-02-20T10:49:57Z</time>
<speed>0.0</speed>
</trkpt>
<trkpt lat="47.372346" lon="7.848322">
<ele>729.2</ele>
<time>2003-02-20T10:50:02Z</time>
<speed>0.1</speed>
</trkpt>
<trkpt lat="47.372340" lon="7.848322">
<ele>728.5</ele>
<time>2003-02-20T10:50:07Z</time>
<speed>0.0</speed>
</trkpt>
<trkpt lat="47.372340" lon="7.848322">
<ele>728.5</ele>
<time>2003-02-20T10:50:12Z</time>
<speed>0.0</speed>
</trkpt>
<trkpt lat="47.372340" lon="7.848322">
<ele>728.5</ele>
<time>2003-02-20T10:50:17Z</time>
<speed>0.0</speed>
</trkpt>
<trkpt lat="47.372340" lon="7.848322">
<ele>728.5</ele>
<time>2003-02-20T10:50:22Z</time>
<speed>0.0</speed>
</trkpt>
<trkpt lat="47.372340" lon="7.848322">
<ele>728.5</ele>
<time>2003-02-20T10:50:27Z</time>
<speed>0.0</speed>
</trkpt>
<trkpt lat="47.372340" lon="7.848322">
<ele>728.5</ele>
<time>2003-02-20T10:50:32Z</time>
<speed>0.0</speed>
</trkpt>
<trkpt lat="47.372340" lon="7.848322">
<ele>728.5</ele>
<time>2003-02-20T10:50:37Z</time>
<speed>0.0</speed>
</trkpt>
<trkpt lat="47.372340" lon="7.848322">
<ele>728.5</ele>
<time>2003-02-20T10:50:42Z</time>
<speed>0.0</speed>
</trkpt>
<trkpt lat="47.372340" lon="7.848322">
<ele>728.5</ele>
<time>2003-02-20T10:50:47Z</time>
<speed>0.0</speed>
</trkpt>
<trkpt lat="47.372340" lon="7.848322">
<ele>728.5</ele>
<time>2003-02-20T10:50:52Z</time>
<speed>0.0</speed>
</trkpt>
<trkpt lat="47.372340" lon="7.848322">
<ele>728.5</ele>
<time>2003-02-20T10:50:57Z</time>
<speed>0.0</speed>
</trkpt>
<trkpt lat="47.372340" lon="7.848322">
<ele>728.5</ele>
<time>2003-02-20T10:51:02Z</time>
<speed>0.0</speed>
</trkpt>
<trkpt lat="47.372340" lon="7.848322">
<ele>728.5</ele>
<time>2003-02-20T10:51:07Z</time>
<speed>0.0</speed>
</trkpt>
<trkpt lat="47.372340" lon="7.848322">
<ele>728.5</ele>
<time>2003-02-20T10:51:12Z</time>
<speed>0.0</speed>
</trkpt>
<trkpt lat="47.372340" lon="7.848322">
<ele>728.5</ele>
<time>2003-02-20T10:51:17Z</time>
<speed>0.0</speed>
</trkpt>
<trkpt lat="47.372340" lon="7.848322">
<ele>728.5</ele>
<time>2003-02-20T10:51:22Z</time>
<speed>0.0</speed>
</trkpt>
<trkpt lat="47.372340" lon="7.848322">
<ele>728.5</ele>
<time>2003-02-20T10:51:27Z</time>
<speed>0.0</speed>
</trkpt>
<trkpt lat="47.372340" lon="7.848322">
<ele>728.5</ele>
<time>2003-02-20T10:51:32Z</time>
<speed>0.0</speed>
</trkpt>
<trkpt lat="47.372340" lon="7.848322">
<ele>728.5</ele>
<time>2003-02-20T10:51:37Z</time>
<speed>0.1</speed>
</trkpt>
<trkpt lat="47.372346" lon="7.848324">
<ele>727.8</ele>
<time>2003-02-20T10:51:42Z</time>
<speed>0.0</speed>
</trkpt>
<trkpt lat="47.372346" lon="7.848324">
<ele>727.8</ele>
<time>2003-02-20T10:51:47Z</time>
<speed>0.0</speed>
</trkpt>
<trkpt lat="47.372346" lon="7.848324">
<ele>727.8</ele>
<time>2003-02-20T10:51:52Z</time>
<speed>0.0</speed>
</trkpt>
<trkpt lat="47.372346" lon="7.848324">
<ele>727.8</ele>
<time>2003-02-20T10:51:57Z</time>
<speed>0.0</speed>
</trkpt>
<trkpt lat="47.372346" lon="7.848324">
<ele>727.8</ele>
<time>2003-02-20T10:52:02Z</time>
<speed>0.0</speed>
</trkpt>
<trkpt lat="47.372346" lon="7.848324">
<ele>727.8</ele>
<time>2003-02-20T10:52:07Z</time>
<speed>0.0</speed>
</trkpt>
<trkpt lat="47.372346" lon="7.848324">
<ele>727.8</ele>
<time>2003-02-20T10:52:12Z</time>
<speed>0.0</speed>
</trkpt>
<trkpt lat="47.372346" lon="7.848324">
<ele>727.8</ele>
<time>2003-02-20T10:52:17Z</time>
<speed>0.3</speed>
</trkpt>
<trkpt lat="47.372352" lon="7.848339">
<ele>727.3</ele>
<time>2003-02-20T10:52:22Z</time>
<speed>0.1</speed>
</trkpt>
<trkpt lat="47.372358" lon="7.848341">
<ele>726.6</ele>
<time>2003-02-20T10:52:27Z</time>
<speed>0.0</speed>
</trkpt>
<trkpt lat="47.372358" lon="7.848341">
<ele>726.6</ele>
<time>2003-02-20T10:52:32Z</time>
<speed>0.0</speed>
</trkpt>
<trkpt lat="47.372358" lon="7.848341">
<ele>726.6</ele>
<time>2003-02-20T10:52:37Z</time>
<speed>0.0</speed>
</trkpt>
<trkpt lat="47.372358" lon="7.848341">
<ele>726.6</ele>
<time>2003-02-20T10:52:42Z</time>
<speed>0.0</speed>
</trkpt>
<trkpt lat="47.372358" lon="7.848341">
<ele>726.6</ele>
<time>2003-02-20T10:52:47Z</time>
<speed>0.0</speed>
</trkpt>
<trkpt lat="47.372358" lon="7.848341">
<ele>726.6</ele>
<time>2003-02-20T10:52:52Z</time>
<speed>0.0</speed>
</trkpt>
<trkpt lat="47.372358" lon="7.848341">
<ele>726.6</ele>
<time>2003-02-20T10:52:57Z</time>
<speed>0.0</speed>
</trkpt>
<trkpt lat="47.372358" lon="7.848341">
<ele>726.6</ele>
<time>2003-02-20T10:53:02Z</time>
<speed>0.0</speed>
</trkpt>
<trkpt lat="47.372358" lon="7.848341">
<ele>726.6</ele>
<time>2003-02-20T10:53:07Z</time>
<speed>0.0</speed>
</trkpt>
<trkpt lat="47.372358" lon="7.848341">
<ele>726.6</ele>
<time>2003-02-20T10:53:12Z</time>
<speed>0.0</speed>
</trkpt>
<trkpt lat="47.372358" lon="7.848341">
<ele>726.6</ele>
<time>2003-02-20T10:53:17Z</time>
<speed>0.0</speed>
</trkpt>
<trkpt lat="47.372358" lon="7.848341">
<ele>726.6</ele>
<time>2003-02-20T10:53:22Z</time>
<speed>0.0</speed>
</trkpt>
<trkpt lat="47.372358" lon="7.848341">
<ele>726.6</ele>
<time>2003-02-20T10:53:27Z</time>
<speed>0.0</speed>
</trkpt>
<trkpt lat="47.372358" lon="7.848341">
<ele>726.6</ele>
<time>2003-02-20T10:53:32Z</time>
<speed>0.0</speed>
</trkpt>
<trkpt lat="47.372358" lon="7.848341">
<ele>726.6</ele>
<time>2003-02-20T10:53:37Z</time>
<speed>0.0</speed>
</trkpt>
<trkpt lat="47.372358" lon="7.848341">
<ele>726.6</ele>
<time>2003-02-20T10:53:42Z</time>
<speed>0.0</speed>
</trkpt>
<trkpt lat="47.372358" lon="7.848341">
<ele>726.6</ele>
<time>2003-02-20T10:53:47Z</time>
<speed>0.2</speed>
</trkpt>
<trkpt lat="47.372365" lon="7.848343">
<ele>725.9</ele>
<time>2003-02-20T10:53:52Z</time>
<speed>0.0</speed>
</trkpt>
<trkpt lat="47.372365" lon="7.848343">
<ele>725.9</ele>
<time>2003-02-20T10:53:57Z</time>
<speed>0.0</speed>
</trkpt>
<trkpt lat="47.372365" lon="7.848343">
<ele>725.9</ele>
<time>2003-02-20T10:54:02Z</time>
<speed>0.3</speed>
</trkpt>
<trkpt lat="47.372352" lon="7.848354">
<ele>725.9</ele>
<time>2003-02-20T10:54:07Z</time>
<speed>0.0</speed>
</trkpt>
<trkpt lat="47.372352" lon="7.848354">
<ele>725.9</ele>
<time>2003-02-20T10:54:12Z</time>
<speed>0.0</speed>
</trkpt>
<trkpt lat="47.372352" lon="7.848354">
<ele>725.9</ele>
<time>2003-02-20T10:54:17Z</time>
<speed>0.0</speed>
</trkpt>
<trkpt lat="47.372352" lon="7.848354">
<ele>725.9</ele>
<time>2003-02-20T10:54:22Z</time>
<speed>0.0</speed>
</trkpt>
<trkpt lat="47.372352" lon="7.848354">
<ele>725.9</ele>
<time>2003-02-20T10:54:27Z</time>
<speed>0.0</speed>
</trkpt>
<trkpt lat="47.372352" lon="7.848354">
<ele>725.9</ele>
<time>2003-02-20T10:54:32Z</time>
<speed>0.0</speed>
</trkpt>
<trkpt lat="47.372352" lon="7.848354">
<ele>725.9</ele>
<time>2003-02-20T10:54:37Z</time>
<speed>0.0</speed>
</trkpt>
<trkpt lat="47.372352" lon="7.848354">
<ele>725.9</ele>
<time>2003-02-20T10:54:42Z</time>
<speed>0.0</speed>
</trkpt>
<trkpt lat="47.372352" lon="7.848354">
<ele>725.9</ele>
<time>2003-02-20T10:54:47Z</time>
<speed>0.0</speed>
</trkpt>
<trkpt lat="47.372352" lon="7.848354">
<ele>725.9</ele>
<time>2003-02-20T10:54:52Z</time>
<speed>0.2</speed>
</trkpt>
<trkpt lat="47.372345" lon="7.848352">
<ele>726.6</ele>
<time>2003-02-20T10:54:57Z</time>
<speed>0.0</speed>
</trkpt>
<trkpt lat="47.372345" lon="7.848352">
<ele>726.6</ele>
<time>2003-02-20T10:55:02Z</time>
<speed>0.0</speed>
</trkpt>
<trkpt lat="47.372345" lon="7.848352">
<ele>726.6</ele>
<time>2003-02-20T10:55:07Z</time>
<speed>0.0</speed>
</trkpt>
<trkpt lat="47.372345" lon="7.848352">
<ele>726.6</ele>
<time>2003-02-20T10:55:12Z</time>
<speed>0.0</speed>
</trkpt>
<trkpt lat="47.372345" lon="7.848352">
<ele>726.6</ele>
<time>2003-02-20T10:55:17Z</time>
<speed>0.0</speed>
</trkpt>
<trkpt lat="47.372345" lon="7.848352">
<ele>726.6</ele>
<time>2003-02-20T10:55:22Z</time>
<speed>0.1</speed>
</trkpt>
<trkpt lat="47.372339" lon="7.848352">
<ele>725.9</ele>
<time>2003-02-20T10:55:27Z</time>
<speed>0.0</speed>
</trkpt>
<trkpt lat="47.372339" lon="7.848352">
<ele>725.9</ele>
<time>2003-02-20T10:55:32Z</time>
<speed>0.0</speed>
</trkpt>
<trkpt lat="47.372339" lon="7.848352">
<ele>725.9</ele>
<time>2003-02-20T10:55:37Z</time>
<speed>0.0</speed>
</trkpt>
<trkpt lat="47.372339" lon="7.848352">
<ele>725.9</ele>
<time>2003-02-20T10:55:42Z</time>
<speed>0.0</speed>
</trkpt>
<trkpt lat="47.372339" lon="7.848352">
<ele>725.9</ele>
<time>2003-02-20T10:55:47Z</time>
<speed>0.0</speed>
</trkpt>
<trkpt lat="47.372339" lon="7.848352">
<ele>725.9</ele>
<time>2003-02-20T10:55:52Z</time>
<speed>0.0</speed>
</trkpt>
<trkpt lat="47.372339" lon="7.848352">
<ele>725.9</ele>
<time>2003-02-20T10:55:57Z</time>
<speed>0.0</speed>
</trkpt>
<trkpt lat="47.372339" lon="7.848352">
<ele>725.9</ele>
<time>2003-02-20T10:56:02Z</time>
<speed>0.0</speed>
</trkpt>
<trkpt lat="47.372339" lon="7.848352">
<ele>725.9</ele>
<time>2003-02-20T10:56:07Z</time>
<speed>0.3</speed>
</trkpt>
<trkpt lat="47.372331" lon="7.848364">
<ele>726.6</ele>
<time>2003-02-20T10:56:12Z</time>
<speed>0.0</speed>
</trkpt>
<trkpt lat="47.372331" lon="7.848364">
<ele>726.6</ele>
<time>2003-02-20T10:56:17Z</time>
<speed>0.0</speed>
</trkpt>
<trkpt lat="47.372331" lon="7.848364">
<ele>726.6</ele>
<time>2003-02-20T10:56:22Z</time>
<speed>0.0</speed>
</trkpt>
<trkpt lat="47.372331" lon="7.848364">
<ele>726.6</ele>
<time>2003-02-20T10:56:27Z</time>
<speed>0.0</speed>
</trkpt>
<trkpt lat="47.372331" lon="7.848364">
<ele>726.6</ele>
<time>2003-02-20T10:56:32Z</time>
<speed>0.0</speed>
</trkpt>
<trkpt lat="47.372331" lon="7.848364">
<ele>726.6</ele>
<time>2003-02-20T10:56:37Z</time>
<speed>0.2</speed>
</trkpt>
<trkpt lat="47.372332" lon="7.848350">
<ele>726.6</ele>
<time>2003-02-20T10:56:42Z</time>
<speed>0.0</speed>
</trkpt>
<trkpt lat="47.372332" lon="7.848350">
<ele>726.6</ele>
<time>2003-02-20T10:56:47Z</time>
<speed>0.0</speed>
</trkpt>
<trkpt lat="47.372332" lon="7.848350">
<ele>726.6</ele>
<time>2003-02-20T10:56:52Z</time>
<speed>0.0</speed>
</trkpt>
<trkpt lat="47.372332" lon="7.848350">
<ele>726.6</ele>
<time>2003-02-20T10:56:57Z</time>
<speed>0.0</speed>
</trkpt>
<trkpt lat="47.372332" lon="7.848350">
<ele>726.6</ele>
<time>2003-02-20T10:57:02Z</time>
<speed>0.0</speed>
</trkpt>
<trkpt lat="47.372332" lon="7.848350">
<ele>726.6</ele>
<time>2003-02-20T10:57:07Z</time>
<speed>0.0</speed>
</trkpt>
<trkpt lat="47.372332" lon="7.848350">
<ele>726.6</ele>
<time>2003-02-20T10:57:12Z</time>
<speed>0.0</speed>
</trkpt>
<trkpt lat="47.372332" lon="7.848350">
<ele>726.6</ele>
<time>2003-02-20T10:57:17Z</time>
<speed>0.0</speed>
</trkpt>
<trkpt lat="47.372332" lon="7.848350">
<ele>726.6</ele>
<time>2003-02-20T10:57:22Z</time>
<speed>0.0</speed>
</trkpt>
<trkpt lat="47.372332" lon="7.848350">
<ele>726.6</ele>
<time>2003-02-20T10:57:27Z</time>
<speed>0.0</speed>
</trkpt>
<trkpt lat="47.372332" lon="7.848350">
<ele>726.6</ele>
<time>2003-02-20T10:57:32Z</time>
<speed>0.0</speed>
</trkpt>
<trkpt lat="47.372332" lon="7.848350">
<ele>726.6</ele>
<time>2003-02-20T10:57:37Z</time>
<speed>0.0</speed>
</trkpt>
<trkpt lat="47.372332" lon="7.848350">
<ele>726.6</ele>
<time>2003-02-20T10:57:42Z</time>
<speed>0.0</speed>
</trkpt>
<trkpt lat="47.372332" lon="7.848350">
<ele>726.6</ele>
<time>2003-02-20T10:57:47Z</time>
<speed>0.0</speed>
</trkpt>
<trkpt lat="47.372332" lon="7.848350">
<ele>726.6</ele>
<time>2003-02-20T10:57:52Z</time>
<speed>0.0</speed>
</trkpt>
<trkpt lat="47.372332" lon="7.848350">
<ele>726.6</ele>
<time>2003-02-20T10:57:57Z</time>
<speed>0.0</speed>
</trkpt>
<trkpt lat="47.372332" lon="7.848350">
<ele>726.6</ele>
<time>2003-02-20T10:58:02Z</time>
<speed>0.0</speed>
</trkpt>
<trkpt lat="47.372332" lon="7.848350">
<ele>726.6</ele>
<time>2003-02-20T10:58:07Z</time>
<speed>0.0</speed>
</trkpt>
<trkpt lat="47.372332" lon="7.848350">
<ele>726.6</ele>
<time>2003-02-20T10:58:12Z</time>
<speed>0.0</speed>
</trkpt>
<trkpt lat="47.372332" lon="7.848350">
<ele>726.6</ele>
<time>2003-02-20T10:58:17Z</time>
<speed>0.0</speed>
</trkpt>
<trkpt lat="47.372332" lon="7.848350">
<ele>726.6</ele>
<time>2003-02-20T10:58:22Z</time>
<speed>0.0</speed>
</trkpt>
<trkpt lat="47.372332" lon="7.848350">
<ele>726.6</ele>
<time>2003-02-20T10:58:27Z</time>
<speed>0.0</speed>
</trkpt>
<trkpt lat="47.372332" lon="7.848350">
<ele>726.6</ele>
<time>2003-02-20T10:58:32Z</time>
<speed>0.0</speed>
</trkpt>
<trkpt lat="47.372332" lon="7.848350">
<ele>726.6</ele>
<time>2003-02-20T10:58:37Z</time>
<speed>0.0</speed>
</trkpt>
<trkpt lat="47.372332" lon="7.848350">
<ele>726.6</ele>
<time>2003-02-20T10:58:42Z</time>
<speed>0.0</speed>
</trkpt>
<trkpt lat="47.372332" lon="7.848350">
<ele>726.6</ele>
<time>2003-02-20T10:58:47Z</time>
<speed>0.0</speed>
</trkpt>
<trkpt lat="47.372332" lon="7.848350">
<ele>726.6</ele>
<time>2003-02-20T10:58:52Z</time>
<speed>0.0</speed>
</trkpt>
<trkpt lat="47.372332" lon="7.848350">
<ele>726.6</ele>
<time>2003-02-20T10:58:57Z</time>
<speed>0.0</speed>
</trkpt>
<trkpt lat="47.372332" lon="7.848350">
<ele>726.6</ele>
<time>2003-02-20T10:59:02Z</time>
<speed>0.0</speed>
</trkpt>
<trkpt lat="47.372332" lon="7.848350">
<ele>726.6</ele>
<time>2003-02-20T10:59:07Z</time>
<speed>0.0</speed>
</trkpt>
<trkpt lat="47.372332" lon="7.848350">
<ele>726.6</ele>
<time>2003-02-20T10:59:12Z</time>
<speed>0.0</speed>
</trkpt>
<trkpt lat="47.372332" lon="7.848350">
<ele>726.6</ele>
<time>2003-02-20T10:59:17Z</time>
<speed>0.0</speed>
</trkpt>
<trkpt lat="47.372332" lon="7.848350">
<ele>726.6</ele>
<time>2003-02-20T10:59:22Z</time>
<speed>0.0</speed>
</trkpt>
<trkpt lat="47.372332" lon="7.848350">
<ele>726.6</ele>
<time>2003-02-20T10:59:27Z</time>
<speed>0.0</speed>
</trkpt>
<trkpt lat="47.372332" lon="7.848350">
<ele>726.6</ele>
<time>2003-02-20T10:59:32Z</time>
<speed>0.0</speed>
</trkpt>
<trkpt lat="47.372332" lon="7.848350">
<ele>726.6</ele>
<time>2003-02-20T10:59:37Z</time>
<speed>0.0</speed>
</trkpt>
<trkpt lat="47.372332" lon="7.848350">
<ele>726.6</ele>
<time>2003-02-20T10:59:42Z</time>
<speed>0.0</speed>
</trkpt>
<trkpt lat="47.372332" lon="7.848350">
<ele>726.6</ele>
<time>2003-02-20T10:59:47Z</time>
<speed>0.0</speed>
</trkpt>
<trkpt lat="47.372332" lon="7.848350">
<ele>726.6</ele>
<time>2003-02-20T10:59:52Z</time>
<speed>0.0</speed>
</trkpt>
<trkpt lat="47.372332" lon="7.848350">
<ele>726.6</ele>
<time>2003-02-20T10:59:57Z</time>
<speed>0.0</speed>
</trkpt>
<trkpt lat="47.372332" lon="7.848350">
<ele>726.6</ele>
<time>2003-02-20T11:00:02Z</time>
<speed>0.0</speed>
</trkpt>
<trkpt lat="47.372332" lon="7.848350">
<ele>726.6</ele>
<time>2003-02-20T11:00:07Z</time>
<speed>0.0</speed>
</trkpt>
<trkpt lat="47.372332" lon="7.848350">
<ele>726.6</ele>
<time>2003-02-20T11:00:12Z</time>
<speed>0.0</speed>
</trkpt>
<trkpt lat="47.372332" lon="7.848350">
<ele>726.6</ele>
<time>2003-02-20T11:00:17Z</time>
<speed>0.0</speed>
</trkpt>
<trkpt lat="47.372332" lon="7.848350">
<ele>726.6</ele>
<time>2003-02-20T11:00:22Z</time>
<speed>0.0</speed>
</trkpt>
<trkpt lat="47.372332" lon="7.848350">
<ele>726.6</ele>
<time>2003-02-20T11:00:27Z</time>
<speed>0.0</speed>
</trkpt>
<trkpt lat="47.372332" lon="7.848350">
<ele>726.6</ele>
<time>2003-02-20T11:00:32Z</time>
<speed>0.0</speed>
</trkpt>
<trkpt lat="47.372332" lon="7.848350">
<ele>726.6</ele>
<time>2003-02-20T11:00:37Z</time>
<speed>0.0</speed>
</trkpt>
<trkpt lat="47.372332" lon="7.848350">
<ele>726.6</ele>
<time>2003-02-20T11:00:42Z</time>
<speed>0.0</speed>
</trkpt>
<trkpt lat="47.372332" lon="7.848350">
<ele>726.6</ele>
<time>2003-02-20T11:00:47Z</time>
<speed>0.0</speed>
</trkpt>
<trkpt lat="47.372332" lon="7.848350">
<ele>726.6</ele>
<time>2003-02-20T11:00:52Z</time>
<speed>0.0</speed>
</trkpt>
<trkpt lat="47.372332" lon="7.848350">
<ele>726.6</ele>
<time>2003-02-20T11:00:57Z</time>
<speed>0.0</speed>
</trkpt>
<trkpt lat="47.372332" lon="7.848350">
<ele>726.6</ele>
<time>2003-02-20T11:01:02Z</time>
<speed>0.0</speed>
</trkpt>
<trkpt lat="47.372332" lon="7.848350">
<ele>726.6</ele>
<time>2003-02-20T11:01:07Z</time>
<speed>0.2</speed>
</trkpt>
<trkpt lat="47.372333" lon="7.848337">
<ele>726.5</ele>
<time>2003-02-20T11:01:12Z</time>
<speed>0.0</speed>
</trkpt>
<trkpt lat="47.372333" lon="7.848337">
<ele>726.5</ele>
<time>2003-02-20T11:01:17Z</time>
<speed>0.0</speed>
</trkpt>
<trkpt lat="47.372333" lon="7.848337">
<ele>726.5</ele>
<time>2003-02-20T11:01:22Z</time>
<speed>0.0</speed>
</trkpt>
<trkpt lat="47.372333" lon="7.848337">
<ele>726.5</ele>
<time>2003-02-20T11:01:27Z</time>
<speed>0.0</speed>
</trkpt>
<trkpt lat="47.372333" lon="7.848337">
<ele>726.5</ele>
<time>2003-02-20T11:01:32Z</time>
<speed>0.0</speed>
</trkpt>
<trkpt lat="47.372333" lon="7.848337">
<ele>726.5</ele>
<time>2003-02-20T11:01:37Z</time>
<speed>0.0</speed>
</trkpt>
<trkpt lat="47.372333" lon="7.848337">
<ele>726.5</ele>
<time>2003-02-20T11:01:42Z</time>
<speed>0.0</speed>
</trkpt>
<trkpt lat="47.372333" lon="7.848337">
<ele>726.5</ele>
<time>2003-02-20T11:01:47Z</time>
<speed>0.0</speed>
</trkpt>
<trkpt lat="47.372333" lon="7.848337">
<ele>726.5</ele>
<time>2003-02-20T11:01:52Z</time>
<speed>0.0</speed>
</trkpt>
<trkpt lat="47.372333" lon="7.848337">
<ele>726.5</ele>
<time>2003-02-20T11:01:57Z</time>
<speed>0.0</speed>
</trkpt>
<trkpt lat="47.372333" lon="7.848337">
<ele>726.5</ele>
<time>2003-02-20T11:02:02Z</time>
<speed>0.0</speed>
</trkpt>
<trkpt lat="47.372333" lon="7.848337">
<ele>726.5</ele>
<time>2003-02-20T11:02:07Z</time>
<speed>0.0</speed>
</trkpt>
<trkpt lat="47.372333" lon="7.848337">
<ele>726.5</ele>
<time>2003-02-20T11:02:12Z</time>
<speed>0.0</speed>
</trkpt>
<trkpt lat="47.372333" lon="7.848337">
<ele>726.5</ele>
<time>2003-02-20T11:02:17Z</time>
<speed>0.0</speed>
</trkpt>
<trkpt lat="47.372333" lon="7.848337">
<ele>726.5</ele>
<time>2003-02-20T11:02:22Z</time>
<speed>0.0</speed>
</trkpt>
<trkpt lat="47.372333" lon="7.848337">
<ele>726.5</ele>
<time>2003-02-20T11:02:27Z</time>
<speed>0.0</speed>
</trkpt>
<trkpt lat="47.372333" lon="7.848337">
<ele>726.5</ele>
<time>2003-02-20T11:02:32Z</time>
<speed>0.0</speed>
</trkpt>
<trkpt lat="47.372333" lon="7.848337">
<ele>726.5</ele>
<time>2003-02-20T11:02:37Z</time>
<speed>0.0</speed>
</trkpt>
<trkpt lat="47.372333" lon="7.848337">
<ele>726.5</ele>
<time>2003-02-20T11:02:42Z</time>
<speed>0.0</speed>
</trkpt>
<trkpt lat="47.372333" lon="7.848337">
<ele>726.5</ele>
<time>2003-02-20T11:02:47Z</time>
<speed>0.0</speed>
</trkpt>
<trkpt lat="47.372333" lon="7.848337">
<ele>726.5</ele>
<time>2003-02-20T11:02:52Z</time>
<speed>0.0</speed>
</trkpt>
<trkpt lat="47.372333" lon="7.848337">
<ele>726.5</ele>
<time>2003-02-20T11:02:57Z</time>
<speed>0.0</speed>
</trkpt>
<trkpt lat="47.372333" lon="7.848337">
<ele>726.5</ele>
<time>2003-02-20T11:03:02Z</time>
<speed>0.0</speed>
</trkpt>
<trkpt lat="47.372333" lon="7.848337">
<ele>726.5</ele>
<time>2003-02-20T11:03:07Z</time>
<speed>0.0</speed>
</trkpt>
<trkpt lat="47.372333" lon="7.848337">
<ele>726.5</ele>
<time>2003-02-20T11:03:12Z</time>
<speed>0.0</speed>
</trkpt>
<trkpt lat="47.372333" lon="7.848337">
<ele>726.5</ele>
<time>2003-02-20T11:03:17Z</time>
<speed>0.0</speed>
</trkpt>
<trkpt lat="47.372333" lon="7.848337">
<ele>726.5</ele>
<time>2003-02-20T11:03:22Z</time>
<speed>0.0</speed>
</trkpt>
<trkpt lat="47.372333" lon="7.848337">
<ele>726.5</ele>
<time>2003-02-20T11:03:27Z</time>
<speed>0.0</speed>
</trkpt>
<trkpt lat="47.372333" lon="7.848337">
<ele>726.5</ele>
<time>2003-02-20T11:03:32Z</time>
<speed>0.0</speed>
</trkpt>
<trkpt lat="47.372333" lon="7.848337">
<ele>726.5</ele>
<time>2003-02-20T11:03:37Z</time>
<speed>0.0</speed>
</trkpt>
<trkpt lat="47.372333" lon="7.848337">
<ele>726.5</ele>
<time>2003-02-20T11:03:42Z</time>
<speed>0.0</speed>
</trkpt>
<trkpt lat="47.372333" lon="7.848337">
<ele>726.5</ele>
<time>2003-02-20T11:03:47Z</time>
<speed>0.0</speed>
</trkpt>
<trkpt lat="47.372333" lon="7.848337">
<ele>726.5</ele>
<time>2003-02-20T11:03:52Z</time>
<speed>0.0</speed>
</trkpt>
<trkpt lat="47.372333" lon="7.848337">
<ele>726.5</ele>
<time>2003-02-20T11:03:57Z</time>
<speed>0.0</speed>
</trkpt>
<trkpt lat="47.372333" lon="7.848337">
<ele>726.5</ele>
<time>2003-02-20T11:04:02Z</time>
<speed>0.0</speed>
</trkpt>
<trkpt lat="47.372333" lon="7.848337">
<ele>726.5</ele>
<time>2003-02-20T11:04:07Z</time>
<speed>0.0</speed>
</trkpt>
<trkpt lat="47.372333" lon="7.848337">
<ele>726.5</ele>
<time>2003-02-20T11:04:12Z</time>
<speed>0.2</speed>
</trkpt>
<trkpt lat="47.372340" lon="7.848339">
<ele>725.8</ele>
<time>2003-02-20T11:04:17Z</time>
<speed>0.0</speed>
</trkpt>
<trkpt lat="47.372340" lon="7.848339">
<ele>725.8</ele>
<time>2003-02-20T11:04:22Z</time>
<speed>0.0</speed>
</trkpt>
<trkpt lat="47.372340" lon="7.848339">
<ele>725.8</ele>
<time>2003-02-20T11:04:27Z</time>
<speed>0.0</speed>
</trkpt>
<trkpt lat="47.372340" lon="7.848339">
<ele>725.8</ele>
<time>2003-02-20T11:04:32Z</time>
<speed>0.1</speed>
</trkpt>
<trkpt lat="47.372346" lon="7.848339">
<ele>726.5</ele>
<time>2003-02-20T11:04:37Z</time>
<speed>0.1</speed>
</trkpt>
<trkpt lat="47.372352" lon="7.848341">
<ele>725.9</ele>
<time>2003-02-20T11:04:42Z</time>
<speed>0.2</speed>
</trkpt>
<trkpt lat="47.372353" lon="7.848328">
<ele>725.8</ele>
<time>2003-02-20T11:04:47Z</time>
<speed>0.2</speed>
</trkpt>
<trkpt lat="47.372360" lon="7.848330">
<ele>725.1</ele>
<time>2003-02-20T11:04:52Z</time>
<speed>0.0</speed>
</trkpt>
<trkpt lat="47.372360" lon="7.848330">
<ele>725.1</ele>
<time>2003-02-20T11:04:57Z</time>
<speed>0.0</speed>
</trkpt>
<trkpt lat="47.372360" lon="7.848330">
<ele>725.1</ele>
<time>2003-02-20T11:05:02Z</time>
<speed>0.0</speed>
</trkpt>
<trkpt lat="47.372360" lon="7.848330">
<ele>725.1</ele>
<time>2003-02-20T11:05:07Z</time>
<speed>0.1</speed>
</trkpt>
<trkpt lat="47.372366" lon="7.848331">
<ele>724.4</ele>
<time>2003-02-20T11:05:12Z</time>
<speed>0.0</speed>
</trkpt>
<trkpt lat="47.372366" lon="7.848331">
<ele>724.4</ele>
<time>2003-02-20T11:05:17Z</time>
<speed>0.0</speed>
</trkpt>
<trkpt lat="47.372366" lon="7.848331">
<ele>724.4</ele>
<time>2003-02-20T11:05:22Z</time>
<speed>0.3</speed>
</trkpt>
<trkpt lat="47.372379" lon="7.848333">
<ele>724.5</ele>
<time>2003-02-20T11:05:27Z</time>
<speed>0.2</speed>
</trkpt>
<trkpt lat="47.372378" lon="7.848346">
<ele>724.6</ele>
<time>2003-02-20T11:05:32Z</time>
<speed>0.0</speed>
</trkpt>
<trkpt lat="47.372378" lon="7.848346">
<ele>724.6</ele>
<time>2003-02-20T11:05:37Z</time>
<speed>0.0</speed>
</trkpt>
<trkpt lat="47.372378" lon="7.848346">
<ele>724.6</ele>
<time>2003-02-20T11:05:42Z</time>
<speed>0.0</speed>
</trkpt>
<trkpt lat="47.372378" lon="7.848346">
<ele>724.6</ele>
<time>2003-02-20T11:05:47Z</time>
<speed>0.1</speed>
</trkpt>
<trkpt lat="47.372384" lon="7.848346">
<ele>725.3</ele>
<time>2003-02-20T11:05:52Z</time>
<speed>0.2</speed>
</trkpt>
<trkpt lat="47.372383" lon="7.848360">
<ele>725.4</ele>
<time>2003-02-20T11:05:57Z</time>
<speed>0.3</speed>
</trkpt>
<trkpt lat="47.372391" lon="7.848348">
<ele>724.6</ele>
<time>2003-02-20T11:06:02Z</time>
<speed>0.2</speed>
</trkpt>
<trkpt lat="47.372390" lon="7.848361">
<ele>724.7</ele>
<time>2003-02-20T11:06:07Z</time>
<speed>0.0</speed>
</trkpt>
<trkpt lat="47.372390" lon="7.848361">
<ele>724.7</ele>
<time>2003-02-20T11:06:12Z</time>
<speed>0.0</speed>
</trkpt>
<trkpt lat="47.372390" lon="7.848361">
<ele>724.7</ele>
<time>2003-02-20T11:06:17Z</time>
<speed>0.1</speed>
</trkpt>
<trkpt lat="47.372396" lon="7.848361">
<ele>725.5</ele>
<time>2003-02-20T11:06:22Z</time>
<speed>0.2</speed>
</trkpt>
<trkpt lat="47.372397" lon="7.848348">
<ele>725.4</ele>
<time>2003-02-20T11:06:27Z</time>
<speed>0.3</speed>
</trkpt>
<trkpt lat="47.372390" lon="7.848361">
<ele>724.7</ele>
<time>2003-02-20T11:06:32Z</time>
<speed>0.3</speed>
</trkpt>
<trkpt lat="47.372384" lon="7.848346">
<ele>725.3</ele>
<time>2003-02-20T11:06:37Z</time>
<speed>0.0</speed>
</trkpt>
<trkpt lat="47.372384" lon="7.848346">
<ele>725.3</ele>
<time>2003-02-20T11:06:42Z</time>
<speed>0.4</speed>
</trkpt>
<trkpt lat="47.372398" lon="7.848335">
<ele>725.3</ele>
<time>2003-02-20T11:06:47Z</time>
<speed>0.0</speed>
</trkpt>
<trkpt lat="47.372398" lon="7.848335">
<ele>725.3</ele>
<time>2003-02-20T11:06:52Z</time>
<speed>0.2</speed>
</trkpt>
<trkpt lat="47.372393" lon="7.848322">
<ele>724.5</ele>
<time>2003-02-20T11:06:57Z</time>
<speed>0.2</speed>
</trkpt>
<trkpt lat="47.372400" lon="7.848311">
<ele>723.7</ele>
<time>2003-02-20T11:07:02Z</time>
<speed>0.0</speed>
</trkpt>
<trkpt lat="47.372400" lon="7.848311">
<ele>723.7</ele>
<time>2003-02-20T11:07:07Z</time>
<speed>0.3</speed>
</trkpt>
<trkpt lat="47.372413" lon="7.848312">
<ele>723.8</ele>
<time>2003-02-20T11:07:12Z</time>
<speed>0.0</speed>
</trkpt>
<trkpt lat="47.372413" lon="7.848312">
<ele>723.8</ele>
<time>2003-02-20T11:07:17Z</time>
<speed>0.0</speed>
</trkpt>
<trkpt lat="47.372413" lon="7.848312">
<ele>723.8</ele>
<time>2003-02-20T11:07:22Z</time>
<speed>0.0</speed>
</trkpt>
<trkpt lat="47.372413" lon="7.848312">
<ele>723.8</ele>
<time>2003-02-20T11:07:27Z</time>
<speed>0.0</speed>
</trkpt>
<trkpt lat="47.372413" lon="7.848312">
<ele>723.8</ele>
<time>2003-02-20T11:07:32Z</time>
<speed>0.0</speed>
</trkpt>
<trkpt lat="47.372413" lon="7.848312">
<ele>723.8</ele>
<time>2003-02-20T11:07:37Z</time>
<speed>0.0</speed>
</trkpt>
<trkpt lat="47.372413" lon="7.848312">
<ele>723.8</ele>
<time>2003-02-20T11:07:42Z</time>
<speed>0.1</speed>
</trkpt>
<trkpt lat="47.372419" lon="7.848314">
<ele>723.1</ele>
<time>2003-02-20T11:07:47Z</time>
<speed>0.0</speed>
</trkpt>
<trkpt lat="47.372419" lon="7.848314">
<ele>723.1</ele>
<time>2003-02-20T11:07:52Z</time>
<speed>0.2</speed>
</trkpt>
<trkpt lat="47.372420" lon="7.848301">
<ele>723.0</ele>
<time>2003-02-20T11:07:57Z</time>
<speed>0.0</speed>
</trkpt>
<trkpt lat="47.372420" lon="7.848301">
<ele>723.0</ele>
<time>2003-02-20T11:08:02Z</time>
<speed>0.0</speed>
</trkpt>
<trkpt lat="47.372420" lon="7.848301">
<ele>723.0</ele>
<time>2003-02-20T11:08:07Z</time>
<speed>0.3</speed>
</trkpt>
<trkpt lat="47.372408" lon="7.848286">
<ele>722.8</ele>
<time>2003-02-20T11:08:12Z</time>
<speed>0.1</speed>
</trkpt>
<trkpt lat="47.372402" lon="7.848284">
<ele>723.5</ele>
<time>2003-02-20T11:08:17Z</time>
<speed>0.0</speed>
</trkpt>
<trkpt lat="47.372402" lon="7.848284">
<ele>723.5</ele>
<time>2003-02-20T11:08:22Z</time>
<speed>0.0</speed>
</trkpt>
<trkpt lat="47.372402" lon="7.848284">
<ele>723.5</ele>
<time>2003-02-20T11:08:27Z</time>
<speed>0.0</speed>
</trkpt>
<trkpt lat="47.372402" lon="7.848284">
<ele>723.5</ele>
<time>2003-02-20T11:08:32Z</time>
<speed>0.0</speed>
</trkpt>
<trkpt lat="47.372402" lon="7.848284">
<ele>723.5</ele>
<time>2003-02-20T11:08:37Z</time>
<speed>0.0</speed>
</trkpt>
<trkpt lat="47.372402" lon="7.848284">
<ele>723.5</ele>
<time>2003-02-20T11:08:42Z</time>
<speed>0.0</speed>
</trkpt>
<trkpt lat="47.372402" lon="7.848284">
<ele>723.5</ele>
<time>2003-02-20T11:08:47Z</time>
<speed>0.2</speed>
</trkpt>
<trkpt lat="47.372401" lon="7.848298">
<ele>723.6</ele>
<time>2003-02-20T11:08:52Z</time>
<speed>0.0</speed>
</trkpt>
<trkpt lat="47.372401" lon="7.848298">
<ele>723.6</ele>
<time>2003-02-20T11:08:57Z</time>
<speed>0.0</speed>
</trkpt>
<trkpt lat="47.372401" lon="7.848298">
<ele>723.6</ele>
<time>2003-02-20T11:09:02Z</time>
<speed>0.0</speed>
</trkpt>
<trkpt lat="47.372401" lon="7.848298">
<ele>723.6</ele>
<time>2003-02-20T11:09:07Z</time>
<speed>0.0</speed>
</trkpt>
<trkpt lat="47.372401" lon="7.848298">
<ele>723.6</ele>
<time>2003-02-20T11:09:12Z</time>
<speed>0.0</speed>
</trkpt>
<trkpt lat="47.372401" lon="7.848298">
<ele>723.6</ele>
<time>2003-02-20T11:09:17Z</time>
<speed>0.0</speed>
</trkpt>
<trkpt lat="47.372401" lon="7.848298">
<ele>723.6</ele>
<time>2003-02-20T11:09:22Z</time>
<speed>0.0</speed>
</trkpt>
<trkpt lat="47.372401" lon="7.848298">
<ele>723.6</ele>
<time>2003-02-20T11:09:27Z</time>
<speed>0.0</speed>
</trkpt>
<trkpt lat="47.372401" lon="7.848298">
<ele>723.6</ele>
<time>2003-02-20T11:09:32Z</time>
<speed>0.0</speed>
</trkpt>
<trkpt lat="47.372401" lon="7.848298">
<ele>723.6</ele>
<time>2003-02-20T11:09:37Z</time>
<speed>0.0</speed>
</trkpt>
<trkpt lat="47.372401" lon="7.848298">
<ele>723.6</ele>
<time>2003-02-20T11:09:42Z</time>
<speed>0.0</speed>
</trkpt>
<trkpt lat="47.372401" lon="7.848298">
<ele>723.6</ele>
<time>2003-02-20T11:09:47Z</time>
<speed>0.0</speed>
</trkpt>
<trkpt lat="47.372401" lon="7.848298">
<ele>723.6</ele>
<time>2003-02-20T11:09:52Z</time>
<speed>0.0</speed>
</trkpt>
<trkpt lat="47.372401" lon="7.848298">
<ele>723.6</ele>
<time>2003-02-20T11:09:57Z</time>
<speed>0.0</speed>
</trkpt>
<trkpt lat="47.372401" lon="7.848298">
<ele>723.6</ele>
<time>2003-02-20T11:10:02Z</time>
<speed>0.0</speed>
</trkpt>
<trkpt lat="47.372401" lon="7.848298">
<ele>723.6</ele>
<time>2003-02-20T11:10:07Z</time>
<speed>0.0</speed>
</trkpt>
<trkpt lat="47.372401" lon="7.848298">
<ele>723.6</ele>
<time>2003-02-20T11:10:12Z</time>
<speed>0.0</speed>
</trkpt>
<trkpt lat="47.372401" lon="7.848298">
<ele>723.6</ele>
<time>2003-02-20T11:10:17Z</time>
<speed>0.0</speed>
</trkpt>
<trkpt lat="47.372401" lon="7.848298">
<ele>723.6</ele>
<time>2003-02-20T11:10:22Z</time>
<speed>0.0</speed>
</trkpt>
<trkpt lat="47.372401" lon="7.848298">
<ele>723.6</ele>
<time>2003-02-20T11:10:27Z</time>
<speed>0.0</speed>
</trkpt>
<trkpt lat="47.372401" lon="7.848298">
<ele>723.6</ele>
<time>2003-02-20T11:10:32Z</time>
<speed>0.0</speed>
</trkpt>
<trkpt lat="47.372401" lon="7.848298">
<ele>723.6</ele>
<time>2003-02-20T11:10:37Z</time>
<speed>0.0</speed>
</trkpt>
<trkpt lat="47.372401" lon="7.848298">
<ele>723.6</ele>
<time>2003-02-20T11:10:42Z</time>
<speed>0.0</speed>
</trkpt>
<trkpt lat="47.372401" lon="7.848298">
<ele>723.6</ele>
<time>2003-02-20T11:10:47Z</time>
<speed>0.0</speed>
</trkpt>
<trkpt lat="47.372401" lon="7.848298">
<ele>723.6</ele>
<time>2003-02-20T11:10:52Z</time>
<speed>0.0</speed>
</trkpt>
<trkpt lat="47.372401" lon="7.848298">
<ele>723.6</ele>
<time>2003-02-20T11:10:57Z</time>
<speed>0.0</speed>
</trkpt>
<trkpt lat="47.372401" lon="7.848298">
<ele>723.6</ele>
<time>2003-02-20T11:11:02Z</time>
<speed>0.0</speed>
</trkpt>
<trkpt lat="47.372401" lon="7.848298">
<ele>723.6</ele>
<time>2003-02-20T11:11:07Z</time>
<speed>0.0</speed>
</trkpt>
<trkpt lat="47.372401" lon="7.848298">
<ele>723.6</ele>
<time>2003-02-20T11:11:12Z</time>
<speed>0.0</speed>
</trkpt>
<trkpt lat="47.372401" lon="7.848298">
<ele>723.6</ele>
<time>2003-02-20T11:11:17Z</time>
<speed>0.0</speed>
</trkpt>
<trkpt lat="47.372401" lon="7.848298">
<ele>723.6</ele>
<time>2003-02-20T11:11:22Z</time>
<speed>0.0</speed>
</trkpt>
<trkpt lat="47.372401" lon="7.848298">
<ele>723.6</ele>
<time>2003-02-20T11:11:27Z</time>
<speed>0.0</speed>
</trkpt>
<trkpt lat="47.372401" lon="7.848298">
<ele>723.6</ele>
<time>2003-02-20T11:11:32Z</time>
<speed>0.0</speed>
</trkpt>
<trkpt lat="47.372401" lon="7.848298">
<ele>723.6</ele>
<time>2003-02-20T11:11:37Z</time>
<speed>0.0</speed>
</trkpt>
<trkpt lat="47.372401" lon="7.848298">
<ele>723.6</ele>
<time>2003-02-20T11:11:42Z</time>
<speed>0.0</speed>
</trkpt>
<trkpt lat="47.372401" lon="7.848298">
<ele>723.6</ele>
<time>2003-02-20T11:11:47Z</time>
<speed>0.0</speed>
</trkpt>
<trkpt lat="47.372401" lon="7.848298">
<ele>723.6</ele>
<time>2003-02-20T11:11:52Z</time>
<speed>0.0</speed>
</trkpt>
<trkpt lat="47.372401" lon="7.848298">
<ele>723.6</ele>
<time>2003-02-20T11:11:57Z</time>
<speed>0.0</speed>
</trkpt>
<trkpt lat="47.372401" lon="7.848298">
<ele>723.6</ele>
<time>2003-02-20T11:12:02Z</time>
<speed>0.0</speed>
</trkpt>
<trkpt lat="47.372401" lon="7.848298">
<ele>723.6</ele>
<time>2003-02-20T11:12:07Z</time>
<speed>0.3</speed>
</trkpt>
<trkpt lat="47.372394" lon="7.848311">
<ele>723.0</ele>
<time>2003-02-20T11:12:12Z</time>
<speed>0.0</speed>
</trkpt>
<trkpt lat="47.372394" lon="7.848311">
<ele>723.0</ele>
<time>2003-02-20T11:12:17Z</time>
<speed>0.0</speed>
</trkpt>
<trkpt lat="47.372394" lon="7.848311">
<ele>723.0</ele>
<time>2003-02-20T11:12:22Z</time>
<speed>0.0</speed>
</trkpt>
<trkpt lat="47.372394" lon="7.848311">
<ele>723.0</ele>
<time>2003-02-20T11:12:27Z</time>
<speed>0.0</speed>
</trkpt>
<trkpt lat="47.372394" lon="7.848311">
<ele>723.0</ele>
<time>2003-02-20T11:12:32Z</time>
<speed>0.2</speed>
</trkpt>
<trkpt lat="47.372401" lon="7.848312">
<ele>722.3</ele>
<time>2003-02-20T11:12:37Z</time>
<speed>0.2</speed>
</trkpt>
<trkpt lat="47.372400" lon="7.848326">
<ele>722.4</ele>
<time>2003-02-20T11:12:42Z</time>
<speed>0.0</speed>
</trkpt>
<trkpt lat="47.372400" lon="7.848326">
<ele>722.4</ele>
<time>2003-02-20T11:12:47Z</time>
<speed>0.0</speed>
</trkpt>
<trkpt lat="47.372400" lon="7.848326">
<ele>722.4</ele>
<time>2003-02-20T11:12:52Z</time>
<speed>0.0</speed>
</trkpt>
<trkpt lat="47.372400" lon="7.848326">
<ele>722.4</ele>
<time>2003-02-20T11:12:57Z</time>
<speed>0.0</speed>
</trkpt>
<trkpt lat="47.372400" lon="7.848326">
<ele>722.4</ele>
<time>2003-02-20T11:13:02Z</time>
<speed>0.0</speed>
</trkpt>
<trkpt lat="47.372400" lon="7.848326">
<ele>722.4</ele>
<time>2003-02-20T11:13:07Z</time>
<speed>0.0</speed>
</trkpt>
<trkpt lat="47.372400" lon="7.848326">
<ele>722.4</ele>
<time>2003-02-20T11:13:12Z</time>
<speed>0.0</speed>
</trkpt>
<trkpt lat="47.372400" lon="7.848326">
<ele>722.4</ele>
<time>2003-02-20T11:13:17Z</time>
<speed>0.0</speed>
</trkpt>
<trkpt lat="47.372400" lon="7.848326">
<ele>722.4</ele>
<time>2003-02-20T11:13:22Z</time>
<speed>0.0</speed>
</trkpt>
<trkpt lat="47.372400" lon="7.848326">
<ele>722.4</ele>
<time>2003-02-20T11:13:27Z</time>
<speed>0.0</speed>
</trkpt>
<trkpt lat="47.372400" lon="7.848326">
<ele>722.4</ele>
<time>2003-02-20T11:13:32Z</time>
<speed>0.0</speed>
</trkpt>
<trkpt lat="47.372400" lon="7.848326">
<ele>722.4</ele>
<time>2003-02-20T11:13:37Z</time>
<speed>0.0</speed>
</trkpt>
<trkpt lat="47.372400" lon="7.848326">
<ele>722.4</ele>
<time>2003-02-20T11:13:42Z</time>
<speed>0.0</speed>
</trkpt>
<trkpt lat="47.372400" lon="7.848326">
<ele>722.4</ele>
<time>2003-02-20T11:13:47Z</time>
<speed>0.0</speed>
</trkpt>
<trkpt lat="47.372400" lon="7.848326">
<ele>722.4</ele>
<time>2003-02-20T11:13:52Z</time>
<speed>0.0</speed>
</trkpt>
<trkpt lat="47.372400" lon="7.848326">
<ele>722.4</ele>
<time>2003-02-20T11:13:57Z</time>
<speed>0.0</speed>
</trkpt>
<trkpt lat="47.372400" lon="7.848326">
<ele>722.4</ele>
<time>2003-02-20T11:14:02Z</time>
<speed>0.0</speed>
</trkpt>
<trkpt lat="47.372400" lon="7.848326">
<ele>722.4</ele>
<time>2003-02-20T11:14:07Z</time>
<speed>0.0</speed>
</trkpt>
<trkpt lat="47.372400" lon="7.848326">
<ele>722.4</ele>
<time>2003-02-20T11:14:12Z</time>
<speed>0.0</speed>
</trkpt>
<trkpt lat="47.372400" lon="7.848326">
<ele>722.4</ele>
<time>2003-02-20T11:14:17Z</time>
<speed>0.0</speed>
</trkpt>
<trkpt lat="47.372400" lon="7.848326">
<ele>722.4</ele>
<time>2003-02-20T11:14:22Z</time>
<speed>0.0</speed>
</trkpt>
<trkpt lat="47.372400" lon="7.848326">
<ele>722.4</ele>
<time>2003-02-20T11:14:27Z</time>
<speed>0.0</speed>
</trkpt>
<trkpt lat="47.372400" lon="7.848326">
<ele>722.4</ele>
<time>2003-02-20T11:14:32Z</time>
<speed>0.0</speed>
</trkpt>
<trkpt lat="47.372400" lon="7.848326">
<ele>722.4</ele>
<time>2003-02-20T11:14:37Z</time>
<speed>0.0</speed>
</trkpt>
<trkpt lat="47.372400" lon="7.848326">
<ele>722.4</ele>
<time>2003-02-20T11:14:42Z</time>
<speed>0.0</speed>
</trkpt>
<trkpt lat="47.372400" lon="7.848326">
<ele>722.4</ele>
<time>2003-02-20T11:14:47Z</time>
<speed>0.0</speed>
</trkpt>
<trkpt lat="47.372400" lon="7.848326">
<ele>722.4</ele>
<time>2003-02-20T11:14:52Z</time>
<speed>0.0</speed>
</trkpt>
<trkpt lat="47.372400" lon="7.848326">
<ele>722.4</ele>
<time>2003-02-20T11:14:57Z</time>
<speed>0.0</speed>
</trkpt>
<trkpt lat="47.372400" lon="7.848326">
<ele>722.4</ele>
<time>2003-02-20T11:15:02Z</time>
<speed>0.3</speed>
</trkpt>
<trkpt lat="47.372412" lon="7.848327">
<ele>722.4</ele>
<time>2003-02-20T11:15:07Z</time>
<speed>0.3</speed>
</trkpt>
<trkpt lat="47.372400" lon="7.848326">
<ele>722.4</ele>
<time>2003-02-20T11:15:12Z</time>
<speed>0.0</speed>
</trkpt>
<trkpt lat="47.372400" lon="7.848326">
<ele>722.4</ele>
<time>2003-02-20T11:15:17Z</time>
<speed>0.0</speed>
</trkpt>
<trkpt lat="47.372400" lon="7.848326">
<ele>722.4</ele>
<time>2003-02-20T11:15:22Z</time>
<speed>0.0</speed>
</trkpt>
<trkpt lat="47.372400" lon="7.848326">
<ele>722.4</ele>
<time>2003-02-20T11:15:27Z</time>
<speed>0.1</speed>
</trkpt>
<trkpt lat="47.372406" lon="7.848326">
<ele>723.1</ele>
<time>2003-02-20T11:15:32Z</time>
<speed>0.1</speed>
</trkpt>
<trkpt lat="47.372400" lon="7.848326">
<ele>722.4</ele>
<time>2003-02-20T11:15:37Z</time>
<speed>0.1</speed>
</trkpt>
<trkpt lat="47.372406" lon="7.848326">
<ele>723.1</ele>
<time>2003-02-20T11:15:42Z</time>
<speed>0.0</speed>
</trkpt>
<trkpt lat="47.372406" lon="7.848326">
<ele>723.1</ele>
<time>2003-02-20T11:15:47Z</time>
<speed>0.3</speed>
</trkpt>
<trkpt lat="47.372411" lon="7.848341">
<ele>722.5</ele>
<time>2003-02-20T11:15:52Z</time>
<speed>0.3</speed>
</trkpt>
<trkpt lat="47.372406" lon="7.848326">
<ele>723.1</ele>
<time>2003-02-20T11:15:57Z</time>
<speed>0.0</speed>
</trkpt>
<trkpt lat="47.372406" lon="7.848326">
<ele>723.1</ele>
<time>2003-02-20T11:16:02Z</time>
<speed>0.3</speed>
</trkpt>
<trkpt lat="47.372411" lon="7.848341">
<ele>722.5</ele>
<time>2003-02-20T11:16:07Z</time>
<speed>0.6</speed>
</trkpt>
<trkpt lat="47.372437" lon="7.848344">
<ele>722.7</ele>
<time>2003-02-20T11:16:12Z</time>
<speed>0.2</speed>
</trkpt>
<trkpt lat="47.372430" lon="7.848342">
<ele>723.3</ele>
<time>2003-02-20T11:16:17Z</time>
<speed>0.0</speed>
</trkpt>
<trkpt lat="47.372430" lon="7.848342">
<ele>723.3</ele>
<time>2003-02-20T11:16:22Z</time>
<speed>0.2</speed>
</trkpt>
<trkpt lat="47.372429" lon="7.848355">
<ele>723.4</ele>
<time>2003-02-20T11:16:27Z</time>
<speed>0.0</speed>
</trkpt>
<trkpt lat="47.372429" lon="7.848355">
<ele>723.4</ele>
<time>2003-02-20T11:16:32Z</time>
<speed>0.0</speed>
</trkpt>
<trkpt lat="47.372429" lon="7.848355">
<ele>723.4</ele>
<time>2003-02-20T11:16:37Z</time>
<speed>0.0</speed>
</trkpt>
<trkpt lat="47.372429" lon="7.848355">
<ele>723.4</ele>
<time>2003-02-20T11:16:42Z</time>
<speed>0.0</speed>
</trkpt>
<trkpt lat="47.372429" lon="7.848355">
<ele>723.4</ele>
<time>2003-02-20T11:16:47Z</time>
<speed>0.0</speed>
</trkpt>
<trkpt lat="47.372429" lon="7.848355">
<ele>723.4</ele>
<time>2003-02-20T11:16:52Z</time>
<speed>0.0</speed>
</trkpt>
<trkpt lat="47.372429" lon="7.848355">
<ele>723.4</ele>
<time>2003-02-20T11:16:57Z</time>
<speed>0.0</speed>
</trkpt>
<trkpt lat="47.372429" lon="7.848355">
<ele>723.4</ele>
<time>2003-02-20T11:17:02Z</time>
<speed>0.0</speed>
</trkpt>
<trkpt lat="47.372429" lon="7.848355">
<ele>723.4</ele>
<time>2003-02-20T11:17:07Z</time>
<speed>0.0</speed>
</trkpt>
<trkpt lat="47.372429" lon="7.848355">
<ele>723.4</ele>
<time>2003-02-20T11:17:12Z</time>
<speed>0.0</speed>
</trkpt>
<trkpt lat="47.372429" lon="7.848355">
<ele>723.4</ele>
<time>2003-02-20T11:17:17Z</time>
<speed>0.0</speed>
</trkpt>
<trkpt lat="47.372429" lon="7.848355">
<ele>723.4</ele>
<time>2003-02-20T11:17:22Z</time>
<speed>0.0</speed>
</trkpt>
<trkpt lat="47.372429" lon="7.848355">
<ele>723.4</ele>
<time>2003-02-20T11:17:27Z</time>
<speed>0.0</speed>
</trkpt>
<trkpt lat="47.372429" lon="7.848355">
<ele>723.4</ele>
<time>2003-02-20T11:17:32Z</time>
<speed>0.0</speed>
</trkpt>
<trkpt lat="47.372429" lon="7.848355">
<ele>723.4</ele>
<time>2003-02-20T11:17:37Z</time>
<speed>0.3</speed>
</trkpt>
<trkpt lat="47.372417" lon="7.848354">
<ele>723.4</ele>
<time>2003-02-20T11:17:42Z</time>
<speed>0.0</speed>
</trkpt>
<trkpt lat="47.372417" lon="7.848354">
<ele>723.4</ele>
<time>2003-02-20T11:17:47Z</time>
<speed>0.0</speed>
</trkpt>
<trkpt lat="47.372417" lon="7.848354">
<ele>723.4</ele>
<time>2003-02-20T11:17:52Z</time>
<speed>0.0</speed>
</trkpt>
<trkpt lat="47.372417" lon="7.848354">
<ele>723.4</ele>
<time>2003-02-20T11:17:57Z</time>
<speed>0.0</speed>
</trkpt>
<trkpt lat="47.372417" lon="7.848354">
<ele>723.4</ele>
<time>2003-02-20T11:18:02Z</time>
<speed>0.0</speed>
</trkpt>
<trkpt lat="47.372417" lon="7.848354">
<ele>723.4</ele>
<time>2003-02-20T11:18:07Z</time>
<speed>0.0</speed>
</trkpt>
<trkpt lat="47.372417" lon="7.848354">
<ele>723.4</ele>
<time>2003-02-20T11:18:12Z</time>
<speed>0.0</speed>
</trkpt>
<trkpt lat="47.372417" lon="7.848354">
<ele>723.4</ele>
<time>2003-02-20T11:18:17Z</time>
<speed>0.0</speed>
</trkpt>
<trkpt lat="47.372417" lon="7.848354">
<ele>723.4</ele>
<time>2003-02-20T11:18:22Z</time>
<speed>0.0</speed>
</trkpt>
<trkpt lat="47.372417" lon="7.848354">
<ele>723.4</ele>
<time>2003-02-20T11:18:27Z</time>
<speed>0.0</speed>
</trkpt>
<trkpt lat="47.372417" lon="7.848354">
<ele>723.4</ele>
<time>2003-02-20T11:18:32Z</time>
<speed>0.0</speed>
</trkpt>
<trkpt lat="47.372417" lon="7.848354">
<ele>723.4</ele>
<time>2003-02-20T11:18:37Z</time>
<speed>0.4</speed>
</trkpt>
<trkpt lat="47.372398" lon="7.848352">
<ele>722.6</ele>
<time>2003-02-20T11:18:42Z</time>
<speed>0.3</speed>
</trkpt>
<trkpt lat="47.372386" lon="7.848337">
<ele>722.4</ele>
<time>2003-02-20T11:18:47Z</time>
<speed>0.0</speed>
</trkpt>
<trkpt lat="47.372386" lon="7.848337">
<ele>722.4</ele>
<time>2003-02-20T11:18:52Z</time>
<speed>0.1</speed>
</trkpt>
<trkpt lat="47.372380" lon="7.848337">
<ele>721.7</ele>
<time>2003-02-20T11:18:57Z</time>
<speed>0.0</speed>
</trkpt>
<trkpt lat="47.372380" lon="7.848337">
<ele>721.7</ele>
<time>2003-02-20T11:19:02Z</time>
<speed>0.1</speed>
</trkpt>
<trkpt lat="47.372374" lon="7.848337">
<ele>720.9</ele>
<time>2003-02-20T11:19:07Z</time>
<speed>0.0</speed>
</trkpt>
<trkpt lat="47.372374" lon="7.848337">
<ele>720.9</ele>
<time>2003-02-20T11:19:12Z</time>
<speed>0.0</speed>
</trkpt>
<trkpt lat="47.372374" lon="7.848337">
<ele>720.9</ele>
<time>2003-02-20T11:19:17Z</time>
<speed>0.0</speed>
</trkpt>
<trkpt lat="47.372374" lon="7.848337">
<ele>720.9</ele>
<time>2003-02-20T11:19:22Z</time>
<speed>0.0</speed>
</trkpt>
<trkpt lat="47.372374" lon="7.848337">
<ele>720.9</ele>
<time>2003-02-20T11:19:27Z</time>
<speed>0.1</speed>
</trkpt>
<trkpt lat="47.372368" lon="7.848337">
<ele>720.2</ele>
<time>2003-02-20T11:19:32Z</time>
<speed>0.2</speed>
</trkpt>
<trkpt lat="47.372361" lon="7.848335">
<ele>720.9</ele>
<time>2003-02-20T11:19:37Z</time>
<speed>0.0</speed>
</trkpt>
<trkpt lat="47.372361" lon="7.848335">
<ele>720.9</ele>
<time>2003-02-20T11:19:42Z</time>
<speed>0.0</speed>
</trkpt>
<trkpt lat="47.372361" lon="7.848335">
<ele>720.9</ele>
<time>2003-02-20T11:19:47Z</time>
<speed>0.0</speed>
</trkpt>
<trkpt lat="47.372361" lon="7.848335">
<ele>720.9</ele>
<time>2003-02-20T11:19:52Z</time>
<speed>0.0</speed>
</trkpt>
<trkpt lat="47.372361" lon="7.848335">
<ele>720.9</ele>
<time>2003-02-20T11:19:57Z</time>
<speed>0.0</speed>
</trkpt>
<trkpt lat="47.372361" lon="7.848335">
<ele>720.9</ele>
<time>2003-02-20T11:20:02Z</time>
<speed>0.0</speed>
</trkpt>
<trkpt lat="47.372361" lon="7.848335">
<ele>720.9</ele>
<time>2003-02-20T11:20:07Z</time>
<speed>0.0</speed>
</trkpt>
<trkpt lat="47.372361" lon="7.848335">
<ele>720.9</ele>
<time>2003-02-20T11:20:12Z</time>
<speed>0.0</speed>
</trkpt>
<trkpt lat="47.372361" lon="7.848335">
<ele>720.9</ele>
<time>2003-02-20T11:20:17Z</time>
<speed>0.0</speed>
</trkpt>
<trkpt lat="47.372361" lon="7.848335">
<ele>720.9</ele>
<time>2003-02-20T11:20:22Z</time>
<speed>0.0</speed>
</trkpt>
<trkpt lat="47.372361" lon="7.848335">
<ele>720.9</ele>
<time>2003-02-20T11:20:27Z</time>
<speed>0.0</speed>
</trkpt>
<trkpt lat="47.372361" lon="7.848335">
<ele>720.9</ele>
<time>2003-02-20T11:20:32Z</time>
<speed>0.0</speed>
</trkpt>
<trkpt lat="47.372361" lon="7.848335">
<ele>720.9</ele>
<time>2003-02-20T11:20:37Z</time>
<speed>0.0</speed>
</trkpt>
<trkpt lat="47.372361" lon="7.848335">
<ele>720.9</ele>
<time>2003-02-20T11:20:42Z</time>
<speed>0.0</speed>
</trkpt>
<trkpt lat="47.372361" lon="7.848335">
<ele>720.9</ele>
<time>2003-02-20T11:20:47Z</time>
<speed>0.0</speed>
</trkpt>
<trkpt lat="47.372361" lon="7.848335">
<ele>720.9</ele>
<time>2003-02-20T11:20:52Z</time>
<speed>0.0</speed>
</trkpt>
<trkpt lat="47.372361" lon="7.848335">
<ele>720.9</ele>
<time>2003-02-20T11:20:57Z</time>
<speed>0.0</speed>
</trkpt>
<trkpt lat="47.372361" lon="7.848335">
<ele>720.9</ele>
<time>2003-02-20T11:21:02Z</time>
<speed>0.0</speed>
</trkpt>
<trkpt lat="47.372361" lon="7.848335">
<ele>720.9</ele>
<time>2003-02-20T11:21:07Z</time>
<speed>0.0</speed>
</trkpt>
<trkpt lat="47.372361" lon="7.848335">
<ele>720.9</ele>
<time>2003-02-20T11:21:12Z</time>
<speed>0.0</speed>
</trkpt>
<trkpt lat="47.372361" lon="7.848335">
<ele>720.9</ele>
<time>2003-02-20T11:21:17Z</time>
<speed>0.0</speed>
</trkpt>
<trkpt lat="47.372361" lon="7.848335">
<ele>720.9</ele>
<time>2003-02-20T11:21:22Z</time>
<speed>0.0</speed>
</trkpt>
<trkpt lat="47.372361" lon="7.848335">
<ele>720.9</ele>
<time>2003-02-20T11:21:27Z</time>
<speed>0.0</speed>
</trkpt>
<trkpt lat="47.372361" lon="7.848335">
<ele>720.9</ele>
<time>2003-02-20T11:21:32Z</time>
<speed>0.0</speed>
</trkpt>
<trkpt lat="47.372361" lon="7.848335">
<ele>720.9</ele>
<time>2003-02-20T11:21:37Z</time>
<speed>0.0</speed>
</trkpt>
<trkpt lat="47.372361" lon="7.848335">
<ele>720.9</ele>
<time>2003-02-20T11:21:42Z</time>
<speed>0.0</speed>
</trkpt>
<trkpt lat="47.372361" lon="7.848335">
<ele>720.9</ele>
<time>2003-02-20T11:21:47Z</time>
<speed>0.0</speed>
</trkpt>
<trkpt lat="47.372361" lon="7.848335">
<ele>720.9</ele>
<time>2003-02-20T11:21:52Z</time>
<speed>0.0</speed>
</trkpt>
<trkpt lat="47.372361" lon="7.848335">
<ele>720.9</ele>
<time>2003-02-20T11:21:57Z</time>
<speed>0.0</speed>
</trkpt>
<trkpt lat="47.372361" lon="7.848335">
<ele>720.9</ele>
<time>2003-02-20T11:22:02Z</time>
<speed>0.0</speed>
</trkpt>
<trkpt lat="47.372361" lon="7.848335">
<ele>720.9</ele>
<time>2003-02-20T11:22:07Z</time>
<speed>0.0</speed>
</trkpt>
<trkpt lat="47.372361" lon="7.848335">
<ele>720.9</ele>
<time>2003-02-20T11:22:12Z</time>
<speed>0.0</speed>
</trkpt>
<trkpt lat="47.372361" lon="7.848335">
<ele>720.9</ele>
<time>2003-02-20T11:22:17Z</time>
<speed>0.0</speed>
</trkpt>
<trkpt lat="47.372361" lon="7.848335">
<ele>720.9</ele>
<time>2003-02-20T11:22:22Z</time>
<speed>0.0</speed>
</trkpt>
<trkpt lat="47.372361" lon="7.848335">
<ele>720.9</ele>
<time>2003-02-20T11:22:27Z</time>
<speed>0.0</speed>
</trkpt>
<trkpt lat="47.372361" lon="7.848335">
<ele>720.9</ele>
<time>2003-02-20T11:22:32Z</time>
<speed>0.0</speed>
</trkpt>
<trkpt lat="47.372361" lon="7.848335">
<ele>720.9</ele>
<time>2003-02-20T11:22:37Z</time>
<speed>0.0</speed>
</trkpt>
<trkpt lat="47.372361" lon="7.848335">
<ele>720.9</ele>
<time>2003-02-20T11:22:42Z</time>
<speed>0.0</speed>
</trkpt>
<trkpt lat="47.372361" lon="7.848335">
<ele>720.9</ele>
<time>2003-02-20T11:22:47Z</time>
<speed>0.0</speed>
</trkpt>
<trkpt lat="47.372361" lon="7.848335">
<ele>720.9</ele>
<time>2003-02-20T11:22:52Z</time>
<speed>0.0</speed>
</trkpt>
<trkpt lat="47.372361" lon="7.848335">
<ele>720.9</ele>
<time>2003-02-20T11:22:57Z</time>
<speed>0.0</speed>
</trkpt>
<trkpt lat="47.372361" lon="7.848335">
<ele>720.9</ele>
<time>2003-02-20T11:23:02Z</time>
<speed>0.0</speed>
</trkpt>
<trkpt lat="47.372361" lon="7.848335">
<ele>720.9</ele>
<time>2003-02-20T11:23:07Z</time>
<speed>0.0</speed>
</trkpt>
<trkpt lat="47.372361" lon="7.848335">
<ele>720.9</ele>
<time>2003-02-20T11:23:12Z</time>
<speed>0.0</speed>
</trkpt>
<trkpt lat="47.372361" lon="7.848335">
<ele>720.9</ele>
<time>2003-02-20T11:23:17Z</time>
<speed>0.0</speed>
</trkpt>
<trkpt lat="47.372361" lon="7.848335">
<ele>720.9</ele>
<time>2003-02-20T11:23:22Z</time>
<speed>0.0</speed>
</trkpt>
<trkpt lat="47.372361" lon="7.848335">
<ele>720.9</ele>
<time>2003-02-20T11:23:27Z</time>
<speed>0.0</speed>
</trkpt>
<trkpt lat="47.372361" lon="7.848335">
<ele>720.9</ele>
<time>2003-02-20T11:23:32Z</time>
<speed>0.0</speed>
</trkpt>
<trkpt lat="47.372361" lon="7.848335">
<ele>720.9</ele>
<time>2003-02-20T11:23:37Z</time>
<speed>0.0</speed>
</trkpt>
<trkpt lat="47.372361" lon="7.848335">
<ele>720.9</ele>
<time>2003-02-20T11:23:42Z</time>
<speed>0.0</speed>
</trkpt>
<trkpt lat="47.372361" lon="7.848335">
<ele>720.9</ele>
<time>2003-02-20T11:23:47Z</time>
<speed>0.0</speed>
</trkpt>
<trkpt lat="47.372361" lon="7.848335">
<ele>720.9</ele>
<time>2003-02-20T11:23:52Z</time>
<speed>0.0</speed>
</trkpt>
<trkpt lat="47.372361" lon="7.848335">
<ele>720.9</ele>
<time>2003-02-20T11:23:57Z</time>
<speed>0.0</speed>
</trkpt>
<trkpt lat="47.372361" lon="7.848335">
<ele>720.9</ele>
<time>2003-02-20T11:24:02Z</time>
<speed>0.0</speed>
</trkpt>
<trkpt lat="47.372361" lon="7.848335">
<ele>720.9</ele>
<time>2003-02-20T11:24:07Z</time>
<speed>0.0</speed>
</trkpt>
<trkpt lat="47.372361" lon="7.848335">
<ele>720.9</ele>
<time>2003-02-20T11:24:12Z</time>
<speed>0.0</speed>
</trkpt>
<trkpt lat="47.372361" lon="7.848335">
<ele>720.9</ele>
<time>2003-02-20T11:24:17Z</time>
<speed>0.0</speed>
</trkpt>
<trkpt lat="47.372361" lon="7.848335">
<ele>720.9</ele>
<time>2003-02-20T11:24:22Z</time>
<speed>0.0</speed>
</trkpt>
<trkpt lat="47.372361" lon="7.848335">
<ele>720.9</ele>
<time>2003-02-20T11:24:27Z</time>
<speed>0.0</speed>
</trkpt>
<trkpt lat="47.372361" lon="7.848335">
<ele>720.9</ele>
<time>2003-02-20T11:24:32Z</time>
<speed>0.0</speed>
</trkpt>
<trkpt lat="47.372361" lon="7.848335">
<ele>720.9</ele>
<time>2003-02-20T11:24:37Z</time>
<speed>0.0</speed>
</trkpt>
<trkpt lat="47.372361" lon="7.848335">
<ele>720.9</ele>
<time>2003-02-20T11:24:42Z</time>
<speed>0.0</speed>
</trkpt>
<trkpt lat="47.372361" lon="7.848335">
<ele>720.9</ele>
<time>2003-02-20T11:24:47Z</time>
<speed>0.0</speed>
</trkpt>
<trkpt lat="47.372361" lon="7.848335">
<ele>720.9</ele>
<time>2003-02-20T11:24:52Z</time>
<speed>0.0</speed>
</trkpt>
<trkpt lat="47.372361" lon="7.848335">
<ele>720.9</ele>
<time>2003-02-20T11:24:57Z</time>
<speed>0.0</speed>
</trkpt>
<trkpt lat="47.372361" lon="7.848335">
<ele>720.9</ele>
<time>2003-02-20T11:25:02Z</time>
<speed>0.0</speed>
</trkpt>
<trkpt lat="47.372361" lon="7.848335">
<ele>720.9</ele>
<time>2003-02-20T11:25:07Z</time>
<speed>0.0</speed>
</trkpt>
<trkpt lat="47.372361" lon="7.848335">
<ele>720.9</ele>
<time>2003-02-20T11:25:12Z</time>
<speed>0.0</speed>
</trkpt>
<trkpt lat="47.372361" lon="7.848335">
<ele>720.9</ele>
<time>2003-02-20T11:25:17Z</time>
<speed>0.2</speed>
</trkpt>
<trkpt lat="47.372368" lon="7.848337">
<ele>720.2</ele>
<time>2003-02-20T11:25:22Z</time>
<speed>0.2</speed>
</trkpt>
<trkpt lat="47.372369" lon="7.848324">
<ele>720.1</ele>
<time>2003-02-20T11:25:27Z</time>
<speed>0.0</speed>
</trkpt>
<trkpt lat="47.372369" lon="7.848324">
<ele>720.1</ele>
<time>2003-02-20T11:25:32Z</time>
<speed>0.1</speed>
</trkpt>
<trkpt lat="47.372375" lon="7.848324">
<ele>720.8</ele>
<time>2003-02-20T11:25:37Z</time>
<speed>0.0</speed>
</trkpt>
<trkpt lat="47.372375" lon="7.848324">
<ele>720.8</ele>
<time>2003-02-20T11:25:42Z</time>
<speed>0.0</speed>
</trkpt>
<trkpt lat="47.372375" lon="7.848324">
<ele>720.8</ele>
<time>2003-02-20T11:25:47Z</time>
<speed>0.0</speed>
</trkpt>
<trkpt lat="47.372375" lon="7.848324">
<ele>720.8</ele>
<time>2003-02-20T11:25:52Z</time>
<speed>0.0</speed>
</trkpt>
<trkpt lat="47.372375" lon="7.848324">
<ele>720.8</ele>
<time>2003-02-20T11:25:57Z</time>
<speed>0.0</speed>
</trkpt>
<trkpt lat="47.372375" lon="7.848324">
<ele>720.8</ele>
<time>2003-02-20T11:26:02Z</time>
<speed>0.0</speed>
</trkpt>
<trkpt lat="47.372375" lon="7.848324">
<ele>720.8</ele>
<time>2003-02-20T11:26:07Z</time>
<speed>0.0</speed>
</trkpt>
<trkpt lat="47.372375" lon="7.848324">
<ele>720.8</ele>
<time>2003-02-20T11:26:12Z</time>
<speed>0.0</speed>
</trkpt>
<trkpt lat="47.372375" lon="7.848324">
<ele>720.8</ele>
<time>2003-02-20T11:26:17Z</time>
<speed>0.0</speed>
</trkpt>
<trkpt lat="47.372375" lon="7.848324">
<ele>720.8</ele>
<time>2003-02-20T11:26:22Z</time>
<speed>0.0</speed>
</trkpt>
<trkpt lat="47.372375" lon="7.848324">
<ele>720.8</ele>
<time>2003-02-20T11:26:27Z</time>
<speed>0.0</speed>
</trkpt>
<trkpt lat="47.372375" lon="7.848324">
<ele>720.8</ele>
<time>2003-02-20T11:26:32Z</time>
<speed>0.0</speed>
</trkpt>
<trkpt lat="47.372375" lon="7.848324">
<ele>720.8</ele>
<time>2003-02-20T11:26:37Z</time>
<speed>0.0</speed>
</trkpt>
<trkpt lat="47.372375" lon="7.848324">
<ele>720.8</ele>
<time>2003-02-20T11:26:42Z</time>
<speed>0.0</speed>
</trkpt>
<trkpt lat="47.372375" lon="7.848324">
<ele>720.8</ele>
<time>2003-02-20T11:26:47Z</time>
<speed>0.0</speed>
</trkpt>
<trkpt lat="47.372375" lon="7.848324">
<ele>720.8</ele>
<time>2003-02-20T11:26:52Z</time>
<speed>0.0</speed>
</trkpt>
<trkpt lat="47.372375" lon="7.848324">
<ele>720.8</ele>
<time>2003-02-20T11:26:57Z</time>
<speed>0.0</speed>
</trkpt>
<trkpt lat="47.372375" lon="7.848324">
<ele>720.8</ele>
<time>2003-02-20T11:27:02Z</time>
<speed>0.0</speed>
</trkpt>
<trkpt lat="47.372375" lon="7.848324">
<ele>720.8</ele>
<time>2003-02-20T11:27:07Z</time>
<speed>0.0</speed>
</trkpt>
<trkpt lat="47.372375" lon="7.848324">
<ele>720.8</ele>
<time>2003-02-20T11:27:12Z</time>
<speed>0.0</speed>
</trkpt>
<trkpt lat="47.372375" lon="7.848324">
<ele>720.8</ele>
<time>2003-02-20T11:27:17Z</time>
<speed>0.0</speed>
</trkpt>
<trkpt lat="47.372375" lon="7.848324">
<ele>720.8</ele>
<time>2003-02-20T11:27:22Z</time>
<speed>0.0</speed>
</trkpt>
<trkpt lat="47.372375" lon="7.848324">
<ele>720.8</ele>
<time>2003-02-20T11:27:27Z</time>
<speed>0.0</speed>
</trkpt>
<trkpt lat="47.372375" lon="7.848324">
<ele>720.8</ele>
<time>2003-02-20T11:27:32Z</time>
<speed>0.0</speed>
</trkpt>
<trkpt lat="47.372375" lon="7.848324">
<ele>720.8</ele>
<time>2003-02-20T11:27:37Z</time>
<speed>0.0</speed>
</trkpt>
<trkpt lat="47.372375" lon="7.848324">
<ele>720.8</ele>
<time>2003-02-20T11:27:42Z</time>
<speed>0.0</speed>
</trkpt>
<trkpt lat="47.372375" lon="7.848324">
<ele>720.8</ele>
<time>2003-02-20T11:27:47Z</time>
<speed>0.0</speed>
</trkpt>
<trkpt lat="47.372375" lon="7.848324">
<ele>720.8</ele>
<time>2003-02-20T11:27:52Z</time>
<speed>0.0</speed>
</trkpt>
<trkpt lat="47.372375" lon="7.848324">
<ele>720.8</ele>
<time>2003-02-20T11:27:57Z</time>
<speed>0.1</speed>
</trkpt>
<trkpt lat="47.372381" lon="7.848326">
<ele>720.2</ele>
<time>2003-02-20T11:28:02Z</time>
<speed>0.0</speed>
</trkpt>
<trkpt lat="47.372381" lon="7.848326">
<ele>720.2</ele>
<time>2003-02-20T11:28:07Z</time>
<speed>0.0</speed>
</trkpt>
<trkpt lat="47.372381" lon="7.848326">
<ele>720.2</ele>
<time>2003-02-20T11:28:12Z</time>
<speed>0.0</speed>
</trkpt>
<trkpt lat="47.372381" lon="7.848326">
<ele>720.2</ele>
<time>2003-02-20T11:28:17Z</time>
<speed>0.0</speed>
</trkpt>
<trkpt lat="47.372381" lon="7.848326">
<ele>720.2</ele>
<time>2003-02-20T11:28:22Z</time>
<speed>0.0</speed>
</trkpt>
<trkpt lat="47.372381" lon="7.848326">
<ele>720.2</ele>
<time>2003-02-20T11:28:27Z</time>
<speed>0.0</speed>
</trkpt>
<trkpt lat="47.372381" lon="7.848326">
<ele>720.2</ele>
<time>2003-02-20T11:28:32Z</time>
<speed>0.0</speed>
</trkpt>
<trkpt lat="47.372381" lon="7.848326">
<ele>720.2</ele>
<time>2003-02-20T11:28:37Z</time>
<speed>0.0</speed>
</trkpt>
<trkpt lat="47.372381" lon="7.848326">
<ele>720.2</ele>
<time>2003-02-20T11:28:42Z</time>
<speed>0.0</speed>
</trkpt>
<trkpt lat="47.372381" lon="7.848326">
<ele>720.2</ele>
<time>2003-02-20T11:28:47Z</time>
<speed>0.0</speed>
</trkpt>
<trkpt lat="47.372381" lon="7.848326">
<ele>720.2</ele>
<time>2003-02-20T11:28:52Z</time>
<speed>0.0</speed>
</trkpt>
<trkpt lat="47.372381" lon="7.848326">
<ele>720.2</ele>
<time>2003-02-20T11:28:57Z</time>
<speed>0.0</speed>
</trkpt>
<trkpt lat="47.372381" lon="7.848326">
<ele>720.2</ele>
<time>2003-02-20T11:29:02Z</time>
<speed>0.0</speed>
</trkpt>
<trkpt lat="47.372381" lon="7.848326">
<ele>720.2</ele>
<time>2003-02-20T11:29:07Z</time>
<speed>0.0</speed>
</trkpt>
<trkpt lat="47.372381" lon="7.848326">
<ele>720.2</ele>
<time>2003-02-20T11:29:12Z</time>
<speed>0.0</speed>
</trkpt>
<trkpt lat="47.372381" lon="7.848326">
<ele>720.2</ele>
<time>2003-02-20T11:29:17Z</time>
<speed>0.0</speed>
</trkpt>
<trkpt lat="47.372381" lon="7.848326">
<ele>720.2</ele>
<time>2003-02-20T11:29:22Z</time>
<speed>0.0</speed>
</trkpt>
<trkpt lat="47.372381" lon="7.848326">
<ele>720.2</ele>
<time>2003-02-20T11:29:27Z</time>
<speed>0.0</speed>
</trkpt>
<trkpt lat="47.372381" lon="7.848326">
<ele>720.2</ele>
<time>2003-02-20T11:29:32Z</time>
<speed>0.0</speed>
</trkpt>
<trkpt lat="47.372381" lon="7.848326">
<ele>720.2</ele>
<time>2003-02-20T11:29:37Z</time>
<speed>0.0</speed>
</trkpt>
<trkpt lat="47.372381" lon="7.848326">
<ele>720.2</ele>
<time>2003-02-20T11:29:42Z</time>
<speed>0.0</speed>
</trkpt>
<trkpt lat="47.372381" lon="7.848326">
<ele>720.2</ele>
<time>2003-02-20T11:29:47Z</time>
<speed>0.0</speed>
</trkpt>
<trkpt lat="47.372381" lon="7.848326">
<ele>720.2</ele>
<time>2003-02-20T11:29:52Z</time>
<speed>0.0</speed>
</trkpt>
<trkpt lat="47.372381" lon="7.848326">
<ele>720.2</ele>
<time>2003-02-20T11:29:57Z</time>
<speed>0.1</speed>
</trkpt>
<trkpt lat="47.372387" lon="7.848326">
<ele>720.9</ele>
<time>2003-02-20T11:30:02Z</time>
<speed>0.0</speed>
</trkpt>
<trkpt lat="47.372387" lon="7.848326">
<ele>720.9</ele>
<time>2003-02-20T11:30:07Z</time>
<speed>0.0</speed>
</trkpt>
<trkpt lat="47.372387" lon="7.848326">
<ele>720.9</ele>
<time>2003-02-20T11:30:12Z</time>
<speed>0.0</speed>
</trkpt>
<trkpt lat="47.372387" lon="7.848326">
<ele>720.9</ele>
<time>2003-02-20T11:30:17Z</time>
<speed>0.0</speed>
</trkpt>
<trkpt lat="47.372387" lon="7.848326">
<ele>720.9</ele>
<time>2003-02-20T11:30:22Z</time>
<speed>0.0</speed>
</trkpt>
<trkpt lat="47.372387" lon="7.848326">
<ele>720.9</ele>
<time>2003-02-20T11:30:27Z</time>
<speed>0.0</speed>
</trkpt>
<trkpt lat="47.372387" lon="7.848326">
<ele>720.9</ele>
<time>2003-02-20T11:30:32Z</time>
<speed>0.0</speed>
</trkpt>
<trkpt lat="47.372387" lon="7.848326">
<ele>720.9</ele>
<time>2003-02-20T11:30:37Z</time>
<speed>0.0</speed>
</trkpt>
<trkpt lat="47.372387" lon="7.848326">
<ele>720.9</ele>
<time>2003-02-20T11:30:42Z</time>
<speed>0.0</speed>
</trkpt>
<trkpt lat="47.372387" lon="7.848326">
<ele>720.9</ele>
<time>2003-02-20T11:30:47Z</time>
<speed>0.0</speed>
</trkpt>
<trkpt lat="47.372387" lon="7.848326">
<ele>720.9</ele>
<time>2003-02-20T11:30:52Z</time>
<speed>0.0</speed>
</trkpt>
<trkpt lat="47.372387" lon="7.848326">
<ele>720.9</ele>
<time>2003-02-20T11:30:57Z</time>
<speed>0.0</speed>
</trkpt>
<trkpt lat="47.372387" lon="7.848326">
<ele>720.9</ele>
<time>2003-02-20T11:31:02Z</time>
<speed>0.0</speed>
</trkpt>
<trkpt lat="47.372387" lon="7.848326">
<ele>720.9</ele>
<time>2003-02-20T11:31:07Z</time>
<speed>0.0</speed>
</trkpt>
<trkpt lat="47.372387" lon="7.848326">
<ele>720.9</ele>
<time>2003-02-20T11:31:12Z</time>
<speed>0.0</speed>
</trkpt>
<trkpt lat="47.372387" lon="7.848326">
<ele>720.9</ele>
<time>2003-02-20T11:31:17Z</time>
<speed>0.0</speed>
</trkpt>
<trkpt lat="47.372387" lon="7.848326">
<ele>720.9</ele>
<time>2003-02-20T11:31:22Z</time>
<speed>0.0</speed>
</trkpt>
<trkpt lat="47.372387" lon="7.848326">
<ele>720.9</ele>
<time>2003-02-20T11:31:27Z</time>
<speed>0.0</speed>
</trkpt>
<trkpt lat="47.372387" lon="7.848326">
<ele>720.9</ele>
<time>2003-02-20T11:31:32Z</time>
<speed>0.0</speed>
</trkpt>
<trkpt lat="47.372387" lon="7.848326">
<ele>720.9</ele>
<time>2003-02-20T11:31:37Z</time>
<speed>0.0</speed>
</trkpt>
<trkpt lat="47.372387" lon="7.848326">
<ele>720.9</ele>
<time>2003-02-20T11:31:42Z</time>
<speed>0.0</speed>
</trkpt>
<trkpt lat="47.372387" lon="7.848326">
<ele>720.9</ele>
<time>2003-02-20T11:31:47Z</time>
<speed>0.0</speed>
</trkpt>
<trkpt lat="47.372387" lon="7.848326">
<ele>720.9</ele>
<time>2003-02-20T11:31:52Z</time>
<speed>0.0</speed>
</trkpt>
<trkpt lat="47.372387" lon="7.848326">
<ele>720.9</ele>
<time>2003-02-20T11:31:57Z</time>
<speed>0.0</speed>
</trkpt>
<trkpt lat="47.372387" lon="7.848326">
<ele>720.9</ele>
<time>2003-02-20T11:32:02Z</time>
<speed>0.0</speed>
</trkpt>
<trkpt lat="47.372387" lon="7.848326">
<ele>720.9</ele>
<time>2003-02-20T11:32:07Z</time>
<speed>0.0</speed>
</trkpt>
<trkpt lat="47.372387" lon="7.848326">
<ele>720.9</ele>
<time>2003-02-20T11:32:12Z</time>
<speed>0.0</speed>
</trkpt>
<trkpt lat="47.372387" lon="7.848326">
<ele>720.9</ele>
<time>2003-02-20T11:32:17Z</time>
<speed>0.0</speed>
</trkpt>
<trkpt lat="47.372387" lon="7.848326">
<ele>720.9</ele>
<time>2003-02-20T11:32:22Z</time>
<speed>0.0</speed>
</trkpt>
<trkpt lat="47.372387" lon="7.848326">
<ele>720.9</ele>
<time>2003-02-20T11:32:27Z</time>
<speed>0.0</speed>
</trkpt>
<trkpt lat="47.372387" lon="7.848326">
<ele>720.9</ele>
<time>2003-02-20T11:32:32Z</time>
<speed>0.0</speed>
</trkpt>
<trkpt lat="47.372387" lon="7.848326">
<ele>720.9</ele>
<time>2003-02-20T11:32:37Z</time>
<speed>0.0</speed>
</trkpt>
<trkpt lat="47.372387" lon="7.848326">
<ele>720.9</ele>
<time>2003-02-20T11:32:42Z</time>
<speed>0.0</speed>
</trkpt>
<trkpt lat="47.372387" lon="7.848326">
<ele>720.9</ele>
<time>2003-02-20T11:32:47Z</time>
<speed>0.0</speed>
</trkpt>
<trkpt lat="47.372387" lon="7.848326">
<ele>720.9</ele>
<time>2003-02-20T11:32:52Z</time>
<speed>0.0</speed>
</trkpt>
<trkpt lat="47.372387" lon="7.848326">
<ele>720.9</ele>
<time>2003-02-20T11:32:57Z</time>
<speed>0.0</speed>
</trkpt>
<trkpt lat="47.372387" lon="7.848326">
<ele>720.9</ele>
<time>2003-02-20T11:33:02Z</time>
<speed>0.0</speed>
</trkpt>
<trkpt lat="47.372387" lon="7.848326">
<ele>720.9</ele>
<time>2003-02-20T11:33:07Z</time>
<speed>0.0</speed>
</trkpt>
<trkpt lat="47.372387" lon="7.848326">
<ele>720.9</ele>
<time>2003-02-20T11:33:12Z</time>
<speed>0.0</speed>
</trkpt>
<trkpt lat="47.372387" lon="7.848326">
<ele>720.9</ele>
<time>2003-02-20T11:33:17Z</time>
<speed>0.0</speed>
</trkpt>
<trkpt lat="47.372387" lon="7.848326">
<ele>720.9</ele>
<time>2003-02-20T11:33:22Z</time>
<speed>0.0</speed>
</trkpt>
<trkpt lat="47.372387" lon="7.848326">
<ele>720.9</ele>
<time>2003-02-20T11:33:27Z</time>
<speed>0.2</speed>
</trkpt>
<trkpt lat="47.372388" lon="7.848312">
<ele>720.8</ele>
<time>2003-02-20T11:33:32Z</time>
<speed>0.0</speed>
</trkpt>
<trkpt lat="47.372388" lon="7.848312">
<ele>720.8</ele>
<time>2003-02-20T11:33:37Z</time>
<speed>0.0</speed>
</trkpt>
<trkpt lat="47.372388" lon="7.848312">
<ele>720.8</ele>
<time>2003-02-20T11:33:42Z</time>
<speed>0.0</speed>
</trkpt>
<trkpt lat="47.372388" lon="7.848312">
<ele>720.8</ele>
<time>2003-02-20T11:33:47Z</time>
<speed>0.0</speed>
</trkpt>
<trkpt lat="47.372388" lon="7.848312">
<ele>720.8</ele>
<time>2003-02-20T11:33:52Z</time>
<speed>0.0</speed>
</trkpt>
<trkpt lat="47.372388" lon="7.848312">
<ele>720.8</ele>
<time>2003-02-20T11:33:57Z</time>
<speed>0.0</speed>
</trkpt>
<trkpt lat="47.372388" lon="7.848312">
<ele>720.8</ele>
<time>2003-02-20T11:34:02Z</time>
<speed>0.0</speed>
</trkpt>
<trkpt lat="47.372388" lon="7.848312">
<ele>720.8</ele>
<time>2003-02-20T11:34:07Z</time>
<speed>0.0</speed>
</trkpt>
<trkpt lat="47.372388" lon="7.848312">
<ele>720.8</ele>
<time>2003-02-20T11:34:12Z</time>
<speed>0.0</speed>
</trkpt>
<trkpt lat="47.372388" lon="7.848312">
<ele>720.8</ele>
<time>2003-02-20T11:34:17Z</time>
<speed>0.1</speed>
</trkpt>
<trkpt lat="47.372382" lon="7.848311">
<ele>721.5</ele>
<time>2003-02-20T11:34:22Z</time>
<speed>0.1</speed>
</trkpt>
<trkpt lat="47.372388" lon="7.848312">
<ele>720.8</ele>
<time>2003-02-20T11:34:27Z</time>
<speed>0.1</speed>
</trkpt>
<trkpt lat="47.372382" lon="7.848311">
<ele>721.5</ele>
<time>2003-02-20T11:34:32Z</time>
<speed>0.3</speed>
</trkpt>
<trkpt lat="47.372394" lon="7.848312">
<ele>721.6</ele>
<time>2003-02-20T11:34:37Z</time>
<speed>0.3</speed>
</trkpt>
<trkpt lat="47.372400" lon="7.848327">
<ele>721.0</ele>
<time>2003-02-20T11:34:42Z</time>
<speed>0.1</speed>
</trkpt>
<trkpt lat="47.372406" lon="7.848327">
<ele>721.7</ele>
<time>2003-02-20T11:34:47Z</time>
<speed>0.2</speed>
</trkpt>
<trkpt lat="47.372407" lon="7.848314">
<ele>721.6</ele>
<time>2003-02-20T11:34:52Z</time>
<speed>0.3</speed>
</trkpt>
<trkpt lat="47.372420" lon="7.848316">
<ele>721.7</ele>
<time>2003-02-20T11:34:57Z</time>
<speed>0.3</speed>
</trkpt>
<trkpt lat="47.372432" lon="7.848318">
<ele>721.7</ele>
<time>2003-02-20T11:35:02Z</time>
<speed>0.0</speed>
</trkpt>
<trkpt lat="47.372432" lon="7.848318">
<ele>721.7</ele>
<time>2003-02-20T11:35:07Z</time>
<speed>0.5</speed>
</trkpt>
<trkpt lat="47.372422" lon="7.848290">
<ele>721.5</ele>
<time>2003-02-20T11:35:12Z</time>
<speed>0.4</speed>
</trkpt>
<trkpt lat="47.372402" lon="7.848286">
<ele>722.1</ele>
<time>2003-02-20T11:35:17Z</time>
<speed>0.2</speed>
</trkpt>
<trkpt lat="47.372401" lon="7.848299">
<ele>722.2</ele>
<time>2003-02-20T11:35:22Z</time>
<speed>0.3</speed>
</trkpt>
<trkpt lat="47.372394" lon="7.848312">
<ele>721.6</ele>
<time>2003-02-20T11:35:27Z</time>
<speed>0.5</speed>
</trkpt>
<trkpt lat="47.372409" lon="7.848288">
<ele>721.4</ele>
<time>2003-02-20T11:35:32Z</time>
<speed>0.4</speed>
</trkpt>
<trkpt lat="47.372395" lon="7.848299">
<ele>721.5</ele>
<time>2003-02-20T11:35:37Z</time>
<speed>0.3</speed>
</trkpt>
<trkpt lat="47.372382" lon="7.848311">
<ele>721.5</ele>
<time>2003-02-20T11:35:42Z</time>
<speed>0.3</speed>
</trkpt>
<trkpt lat="47.372387" lon="7.848326">
<ele>720.9</ele>
<time>2003-02-20T11:35:47Z</time>
<speed>0.0</speed>
</trkpt>
<trkpt lat="47.372387" lon="7.848326">
<ele>720.9</ele>
<time>2003-02-20T11:35:52Z</time>
<speed>0.0</speed>
</trkpt>
<trkpt lat="47.372387" lon="7.848326">
<ele>720.9</ele>
<time>2003-02-20T11:35:57Z</time>
<speed>0.0</speed>
</trkpt>
<trkpt lat="47.372387" lon="7.848326">
<ele>720.9</ele>
<time>2003-02-20T11:36:02Z</time>
<speed>0.0</speed>
</trkpt>
<trkpt lat="47.372387" lon="7.848326">
<ele>720.9</ele>
<time>2003-02-20T11:36:07Z</time>
<speed>0.0</speed>
</trkpt>
<trkpt lat="47.372387" lon="7.848326">
<ele>720.9</ele>
<time>2003-02-20T11:36:12Z</time>
<speed>0.0</speed>
</trkpt>
<trkpt lat="47.372387" lon="7.848326">
<ele>720.9</ele>
<time>2003-02-20T11:36:17Z</time>
<speed>0.0</speed>
</trkpt>
<trkpt lat="47.372387" lon="7.848326">
<ele>720.9</ele>
<time>2003-02-20T11:36:22Z</time>
<speed>0.0</speed>
</trkpt>
<trkpt lat="47.372387" lon="7.848326">
<ele>720.9</ele>
<time>2003-02-20T11:36:27Z</time>
<speed>0.0</speed>
</trkpt>
<trkpt lat="47.372387" lon="7.848326">
<ele>720.9</ele>
<time>2003-02-20T11:36:32Z</time>
<speed>0.0</speed>
</trkpt>
<trkpt lat="47.372387" lon="7.848326">
<ele>720.9</ele>
<time>2003-02-20T11:36:37Z</time>
<speed>0.2</speed>
</trkpt>
<trkpt lat="47.372394" lon="7.848326">
<ele>721.6</ele>
<time>2003-02-20T11:36:42Z</time>
<speed>0.0</speed>
</trkpt>
<trkpt lat="47.372394" lon="7.848326">
<ele>721.6</ele>
<time>2003-02-20T11:36:47Z</time>
<speed>0.0</speed>
</trkpt>
<trkpt lat="47.372394" lon="7.848326">
<ele>721.6</ele>
<time>2003-02-20T11:36:52Z</time>
<speed>0.2</speed>
</trkpt>
<trkpt lat="47.372387" lon="7.848324">
<ele>722.3</ele>
<time>2003-02-20T11:36:57Z</time>
<speed>0.0</speed>
</trkpt>
<trkpt lat="47.372387" lon="7.848324">
<ele>722.3</ele>
<time>2003-02-20T11:37:02Z</time>
<speed>0.0</speed>
</trkpt>
<trkpt lat="47.372387" lon="7.848324">
<ele>722.3</ele>
<time>2003-02-20T11:37:07Z</time>
<speed>0.0</speed>
</trkpt>
<trkpt lat="47.372387" lon="7.848324">
<ele>722.3</ele>
<time>2003-02-20T11:37:12Z</time>
<speed>0.0</speed>
</trkpt>
<trkpt lat="47.372387" lon="7.848324">
<ele>722.3</ele>
<time>2003-02-20T11:37:17Z</time>
<speed>0.0</speed>
</trkpt>
<trkpt lat="47.372387" lon="7.848324">
<ele>722.3</ele>
<time>2003-02-20T11:37:22Z</time>
<speed>0.0</speed>
</trkpt>
<trkpt lat="47.372387" lon="7.848324">
<ele>722.3</ele>
<time>2003-02-20T11:37:27Z</time>
<speed>0.0</speed>
</trkpt>
<trkpt lat="47.372387" lon="7.848324">
<ele>722.3</ele>
<time>2003-02-20T11:37:32Z</time>
<speed>0.0</speed>
</trkpt>
<trkpt lat="47.372387" lon="7.848324">
<ele>722.3</ele>
<time>2003-02-20T11:37:37Z</time>
<speed>0.0</speed>
</trkpt>
<trkpt lat="47.372387" lon="7.848324">
<ele>722.3</ele>
<time>2003-02-20T11:37:42Z</time>
<speed>0.0</speed>
</trkpt>
<trkpt lat="47.372387" lon="7.848324">
<ele>722.3</ele>
<time>2003-02-20T11:37:47Z</time>
<speed>0.0</speed>
</trkpt>
<trkpt lat="47.372387" lon="7.848324">
<ele>722.3</ele>
<time>2003-02-20T11:37:52Z</time>
<speed>0.0</speed>
</trkpt>
<trkpt lat="47.372387" lon="7.848324">
<ele>722.3</ele>
<time>2003-02-20T11:37:57Z</time>
<speed>0.0</speed>
</trkpt>
<trkpt lat="47.372387" lon="7.848324">
<ele>722.3</ele>
<time>2003-02-20T11:38:02Z</time>
<speed>0.0</speed>
</trkpt>
<trkpt lat="47.372387" lon="7.848324">
<ele>722.3</ele>
<time>2003-02-20T11:38:07Z</time>
<speed>0.0</speed>
</trkpt>
<trkpt lat="47.372387" lon="7.848324">
<ele>722.3</ele>
<time>2003-02-20T11:38:12Z</time>
<speed>0.0</speed>
</trkpt>
<trkpt lat="47.372387" lon="7.848324">
<ele>722.3</ele>
<time>2003-02-20T11:38:17Z</time>
<speed>0.1</speed>
</trkpt>
<trkpt lat="47.372381" lon="7.848324">
<ele>721.6</ele>
<time>2003-02-20T11:38:22Z</time>
<speed>0.0</speed>
</trkpt>
<trkpt lat="47.372381" lon="7.848324">
<ele>721.6</ele>
<time>2003-02-20T11:38:27Z</time>
<speed>0.0</speed>
</trkpt>
<trkpt lat="47.372381" lon="7.848324">
<ele>721.6</ele>
<time>2003-02-20T11:38:32Z</time>
<speed>0.3</speed>
</trkpt>
<trkpt lat="47.372375" lon="7.848309">
<ele>722.2</ele>
<time>2003-02-20T11:38:37Z</time>
<speed>0.2</speed>
</trkpt>
<trkpt lat="47.372382" lon="7.848311">
<ele>721.5</ele>
<time>2003-02-20T11:38:42Z</time>
<speed>0.2</speed>
</trkpt>
<trkpt lat="47.372381" lon="7.848324">
<ele>721.6</ele>
<time>2003-02-20T11:38:47Z</time>
<speed>0.0</speed>
</trkpt>
<trkpt lat="47.372381" lon="7.848324">
<ele>721.6</ele>
<time>2003-02-20T11:38:52Z</time>
<speed>0.0</speed>
</trkpt>
<trkpt lat="47.372381" lon="7.848324">
<ele>721.6</ele>
<time>2003-02-20T11:38:57Z</time>
<speed>0.0</speed>
</trkpt>
<trkpt lat="47.372381" lon="7.848324">
<ele>721.6</ele>
<time>2003-02-20T11:39:02Z</time>
<speed>0.2</speed>
</trkpt>
<trkpt lat="47.372382" lon="7.848311">
<ele>721.5</ele>
<time>2003-02-20T11:39:07Z</time>
<speed>0.2</speed>
</trkpt>
<trkpt lat="47.372375" lon="7.848309">
<ele>722.2</ele>
<time>2003-02-20T11:39:12Z</time>
<speed>0.1</speed>
</trkpt>
<trkpt lat="47.372369" lon="7.848307">
<ele>722.8</ele>
<time>2003-02-20T11:39:17Z</time>
<speed>0.2</speed>
</trkpt>
<trkpt lat="47.372370" lon="7.848294">
<ele>722.7</ele>
<time>2003-02-20T11:39:22Z</time>
<speed>0.0</speed>
</trkpt>
<trkpt lat="47.372370" lon="7.848294">
<ele>722.7</ele>
<time>2003-02-20T11:39:27Z</time>
<speed>0.0</speed>
</trkpt>
<trkpt lat="47.372370" lon="7.848294">
<ele>722.7</ele>
<time>2003-02-20T11:39:32Z</time>
<speed>0.0</speed>
</trkpt>
<trkpt lat="47.372370" lon="7.848294">
<ele>722.7</ele>
<time>2003-02-20T11:39:37Z</time>
<speed>0.0</speed>
</trkpt>
<trkpt lat="47.372370" lon="7.848294">
<ele>722.7</ele>
<time>2003-02-20T11:39:42Z</time>
<speed>0.0</speed>
</trkpt>
<trkpt lat="47.372370" lon="7.848294">
<ele>722.7</ele>
<time>2003-02-20T11:39:47Z</time>
<speed>0.0</speed>
</trkpt>
<trkpt lat="47.372370" lon="7.848294">
<ele>722.7</ele>
<time>2003-02-20T11:39:52Z</time>
<speed>0.0</speed>
</trkpt>
<trkpt lat="47.372370" lon="7.848294">
<ele>722.7</ele>
<time>2003-02-20T11:39:57Z</time>
<speed>0.0</speed>
</trkpt>
<trkpt lat="47.372370" lon="7.848294">
<ele>722.7</ele>
<time>2003-02-20T11:40:02Z</time>
<speed>0.2</speed>
</trkpt>
<trkpt lat="47.372369" lon="7.848307">
<ele>722.8</ele>
<time>2003-02-20T11:40:07Z</time>
<speed>0.2</speed>
</trkpt>
<trkpt lat="47.372368" lon="7.848320">
<ele>722.9</ele>
<time>2003-02-20T11:40:12Z</time>
<speed>0.0</speed>
</trkpt>
<trkpt lat="47.372368" lon="7.848320">
<ele>722.9</ele>
<time>2003-02-20T11:40:17Z</time>
<speed>0.0</speed>
</trkpt>
<trkpt lat="47.372368" lon="7.848320">
<ele>722.9</ele>
<time>2003-02-20T11:40:22Z</time>
<speed>0.0</speed>
</trkpt>
<trkpt lat="47.372368" lon="7.848320">
<ele>722.9</ele>
<time>2003-02-20T11:40:27Z</time>
<speed>0.0</speed>
</trkpt>
<trkpt lat="47.372368" lon="7.848320">
<ele>722.9</ele>
<time>2003-02-20T11:40:32Z</time>
<speed>0.0</speed>
</trkpt>
<trkpt lat="47.372368" lon="7.848320">
<ele>722.9</ele>
<time>2003-02-20T11:40:37Z</time>
<speed>0.0</speed>
</trkpt>
<trkpt lat="47.372368" lon="7.848320">
<ele>722.9</ele>
<time>2003-02-20T11:40:42Z</time>
<speed>0.0</speed>
</trkpt>
<trkpt lat="47.372368" lon="7.848320">
<ele>722.9</ele>
<time>2003-02-20T11:40:47Z</time>
<speed>0.0</speed>
</trkpt>
<trkpt lat="47.372368" lon="7.848320">
<ele>722.9</ele>
<time>2003-02-20T11:40:52Z</time>
<speed>0.0</speed>
</trkpt>
<trkpt lat="47.372368" lon="7.848320">
<ele>722.9</ele>
<time>2003-02-20T11:40:57Z</time>
<speed>0.0</speed>
</trkpt>
<trkpt lat="47.372368" lon="7.848320">
<ele>722.9</ele>
<time>2003-02-20T11:41:02Z</time>
<speed>0.0</speed>
</trkpt>
<trkpt lat="47.372368" lon="7.848320">
<ele>722.9</ele>
<time>2003-02-20T11:41:07Z</time>
<speed>0.0</speed>
</trkpt>
<trkpt lat="47.372368" lon="7.848320">
<ele>722.9</ele>
<time>2003-02-20T11:41:12Z</time>
<speed>0.0</speed>
</trkpt>
<trkpt lat="47.372368" lon="7.848320">
<ele>722.9</ele>
<time>2003-02-20T11:41:17Z</time>
<speed>0.0</speed>
</trkpt>
<trkpt lat="47.372368" lon="7.848320">
<ele>722.9</ele>
<time>2003-02-20T11:41:22Z</time>
<speed>0.0</speed>
</trkpt>
<trkpt lat="47.372368" lon="7.848320">
<ele>722.9</ele>
<time>2003-02-20T11:41:27Z</time>
<speed>0.0</speed>
</trkpt>
<trkpt lat="47.372368" lon="7.848320">
<ele>722.9</ele>
<time>2003-02-20T11:41:32Z</time>
<speed>0.0</speed>
</trkpt>
<trkpt lat="47.372368" lon="7.848320">
<ele>722.9</ele>
<time>2003-02-20T11:41:37Z</time>
<speed>0.0</speed>
</trkpt>
<trkpt lat="47.372368" lon="7.848320">
<ele>722.9</ele>
<time>2003-02-20T11:41:42Z</time>
<speed>0.0</speed>
</trkpt>
<trkpt lat="47.372368" lon="7.848320">
<ele>722.9</ele>
<time>2003-02-20T11:41:47Z</time>
<speed>0.0</speed>
</trkpt>
<trkpt lat="47.372368" lon="7.848320">
<ele>722.9</ele>
<time>2003-02-20T11:41:52Z</time>
<speed>0.0</speed>
</trkpt>
<trkpt lat="47.372368" lon="7.848320">
<ele>722.9</ele>
<time>2003-02-20T11:41:57Z</time>
<speed>0.2</speed>
</trkpt>
<trkpt lat="47.372367" lon="7.848333">
<ele>723.0</ele>
<time>2003-02-20T11:42:02Z</time>
<speed>0.0</speed>
</trkpt>
<trkpt lat="47.372367" lon="7.848333">
<ele>723.0</ele>
<time>2003-02-20T11:42:07Z</time>
<speed>0.0</speed>
</trkpt>
<trkpt lat="47.372367" lon="7.848333">
<ele>723.0</ele>
<time>2003-02-20T11:42:12Z</time>
<speed>0.0</speed>
</trkpt>
<trkpt lat="47.372367" lon="7.848333">
<ele>723.0</ele>
<time>2003-02-20T11:42:17Z</time>
<speed>0.0</speed>
</trkpt>
<trkpt lat="47.372367" lon="7.848333">
<ele>723.0</ele>
<time>2003-02-20T11:42:22Z</time>
<speed>0.0</speed>
</trkpt>
<trkpt lat="47.372367" lon="7.848333">
<ele>723.0</ele>
<time>2003-02-20T11:42:27Z</time>
<speed>0.0</speed>
</trkpt>
<trkpt lat="47.372367" lon="7.848333">
<ele>723.0</ele>
<time>2003-02-20T11:42:32Z</time>
<speed>0.0</speed>
</trkpt>
<trkpt lat="47.372367" lon="7.848333">
<ele>723.0</ele>
<time>2003-02-20T11:42:37Z</time>
<speed>0.0</speed>
</trkpt>
<trkpt lat="47.372367" lon="7.848333">
<ele>723.0</ele>
<time>2003-02-20T11:42:42Z</time>
<speed>0.0</speed>
</trkpt>
<trkpt lat="47.372367" lon="7.848333">
<ele>723.0</ele>
<time>2003-02-20T11:42:47Z</time>
<speed>0.1</speed>
</trkpt>
<trkpt lat="47.372373" lon="7.848333">
<ele>723.7</ele>
<time>2003-02-20T11:42:52Z</time>
<speed>0.1</speed>
</trkpt>
<trkpt lat="47.372367" lon="7.848333">
<ele>723.0</ele>
<time>2003-02-20T11:42:57Z</time>
<speed>0.0</speed>
</trkpt>
<trkpt lat="47.372367" lon="7.848333">
<ele>723.0</ele>
<time>2003-02-20T11:43:02Z</time>
<speed>0.0</speed>
</trkpt>
<trkpt lat="47.372367" lon="7.848333">
<ele>723.0</ele>
<time>2003-02-20T11:43:07Z</time>
<speed>0.0</speed>
</trkpt>
<trkpt lat="47.372367" lon="7.848333">
<ele>723.0</ele>
<time>2003-02-20T11:43:12Z</time>
<speed>0.0</speed>
</trkpt>
<trkpt lat="47.372367" lon="7.848333">
<ele>723.0</ele>
<time>2003-02-20T11:43:17Z</time>
<speed>0.0</speed>
</trkpt>
<trkpt lat="47.372367" lon="7.848333">
<ele>723.0</ele>
<time>2003-02-20T11:43:22Z</time>
<speed>0.0</speed>
</trkpt>
<trkpt lat="47.372367" lon="7.848333">
<ele>723.0</ele>
<time>2003-02-20T11:43:27Z</time>
<speed>0.0</speed>
</trkpt>
<trkpt lat="47.372367" lon="7.848333">
<ele>723.0</ele>
<time>2003-02-20T11:43:32Z</time>
<speed>0.0</speed>
</trkpt>
<trkpt lat="47.372367" lon="7.848333">
<ele>723.0</ele>
<time>2003-02-20T11:43:37Z</time>
<speed>0.0</speed>
</trkpt>
<trkpt lat="47.372367" lon="7.848333">
<ele>723.0</ele>
<time>2003-02-20T11:43:42Z</time>
<speed>0.0</speed>
</trkpt>
<trkpt lat="47.372367" lon="7.848333">
<ele>723.0</ele>
<time>2003-02-20T11:43:47Z</time>
<speed>0.2</speed>
</trkpt>
<trkpt lat="47.372372" lon="7.848346">
<ele>723.8</ele>
<time>2003-02-20T11:43:52Z</time>
<speed>0.0</speed>
</trkpt>
<trkpt lat="47.372372" lon="7.848346">
<ele>723.8</ele>
<time>2003-02-20T11:43:57Z</time>
<speed>0.0</speed>
</trkpt>
<trkpt lat="47.372372" lon="7.848346">
<ele>723.8</ele>
<time>2003-02-20T11:44:02Z</time>
<speed>0.0</speed>
</trkpt>
<trkpt lat="47.372372" lon="7.848346">
<ele>723.8</ele>
<time>2003-02-20T11:44:07Z</time>
<speed>0.0</speed>
</trkpt>
<trkpt lat="47.372372" lon="7.848346">
<ele>723.8</ele>
<time>2003-02-20T11:44:12Z</time>
<speed>0.0</speed>
</trkpt>
<trkpt lat="47.372372" lon="7.848346">
<ele>723.8</ele>
<time>2003-02-20T11:44:17Z</time>
<speed>0.0</speed>
</trkpt>
<trkpt lat="47.372372" lon="7.848346">
<ele>723.8</ele>
<time>2003-02-20T11:44:22Z</time>
<speed>0.0</speed>
</trkpt>
<trkpt lat="47.372372" lon="7.848346">
<ele>723.8</ele>
<time>2003-02-20T11:44:27Z</time>
<speed>0.0</speed>
</trkpt>
<trkpt lat="47.372372" lon="7.848346">
<ele>723.8</ele>
<time>2003-02-20T11:44:32Z</time>
<speed>0.0</speed>
</trkpt>
<trkpt lat="47.372372" lon="7.848346">
<ele>723.8</ele>
<time>2003-02-20T11:44:37Z</time>
<speed>0.0</speed>
</trkpt>
<trkpt lat="47.372372" lon="7.848346">
<ele>723.8</ele>
<time>2003-02-20T11:44:42Z</time>
<speed>0.0</speed>
</trkpt>
<trkpt lat="47.372372" lon="7.848346">
<ele>723.8</ele>
<time>2003-02-20T11:44:47Z</time>
<speed>0.0</speed>
</trkpt>
<trkpt lat="47.372372" lon="7.848346">
<ele>723.8</ele>
<time>2003-02-20T11:44:52Z</time>
<speed>0.0</speed>
</trkpt>
<trkpt lat="47.372372" lon="7.848346">
<ele>723.8</ele>
<time>2003-02-20T11:44:57Z</time>
<speed>0.0</speed>
</trkpt>
<trkpt lat="47.372372" lon="7.848346">
<ele>723.8</ele>
<time>2003-02-20T11:45:02Z</time>
<speed>0.0</speed>
</trkpt>
<trkpt lat="47.372372" lon="7.848346">
<ele>723.8</ele>
<time>2003-02-20T11:45:07Z</time>
<speed>0.0</speed>
</trkpt>
<trkpt lat="47.372372" lon="7.848346">
<ele>723.8</ele>
<time>2003-02-20T11:45:12Z</time>
<speed>0.0</speed>
</trkpt>
<trkpt lat="47.372372" lon="7.848346">
<ele>723.8</ele>
<time>2003-02-20T11:45:17Z</time>
<speed>0.0</speed>
</trkpt>
<trkpt lat="47.372372" lon="7.848346">
<ele>723.8</ele>
<time>2003-02-20T11:45:22Z</time>
<speed>0.0</speed>
</trkpt>
<trkpt lat="47.372372" lon="7.848346">
<ele>723.8</ele>
<time>2003-02-20T11:45:27Z</time>
<speed>0.0</speed>
</trkpt>
<trkpt lat="47.372372" lon="7.848346">
<ele>723.8</ele>
<time>2003-02-20T11:45:32Z</time>
<speed>0.0</speed>
</trkpt>
<trkpt lat="47.372372" lon="7.848346">
<ele>723.8</ele>
<time>2003-02-20T11:45:37Z</time>
<speed>0.0</speed>
</trkpt>
<trkpt lat="47.372372" lon="7.848346">
<ele>723.8</ele>
<time>2003-02-20T11:45:42Z</time>
<speed>0.0</speed>
</trkpt>
<trkpt lat="47.372372" lon="7.848346">
<ele>723.8</ele>
<time>2003-02-20T11:45:47Z</time>
<speed>0.0</speed>
</trkpt>
<trkpt lat="47.372372" lon="7.848346">
<ele>723.8</ele>
<time>2003-02-20T11:45:52Z</time>
<speed>0.0</speed>
</trkpt>
<trkpt lat="47.372372" lon="7.848346">
<ele>723.8</ele>
<time>2003-02-20T11:45:57Z</time>
<speed>0.0</speed>
</trkpt>
<trkpt lat="47.372372" lon="7.848346">
<ele>723.8</ele>
<time>2003-02-20T11:46:02Z</time>
<speed>0.0</speed>
</trkpt>
<trkpt lat="47.372372" lon="7.848346">
<ele>723.8</ele>
<time>2003-02-20T11:46:07Z</time>
<speed>0.2</speed>
</trkpt>
<trkpt lat="47.372377" lon="7.848360">
<ele>724.7</ele>
<time>2003-02-20T11:46:12Z</time>
<speed>0.0</speed>
</trkpt>
<trkpt lat="47.372377" lon="7.848360">
<ele>724.7</ele>
<time>2003-02-20T11:46:17Z</time>
<speed>0.0</speed>
</trkpt>
<trkpt lat="47.372377" lon="7.848360">
<ele>724.7</ele>
<time>2003-02-20T11:46:22Z</time>
<speed>0.0</speed>
</trkpt>
<trkpt lat="47.372377" lon="7.848360">
<ele>724.7</ele>
<time>2003-02-20T11:46:27Z</time>
<speed>0.0</speed>
</trkpt>
<trkpt lat="47.372377" lon="7.848360">
<ele>724.7</ele>
<time>2003-02-20T11:46:32Z</time>
<speed>0.0</speed>
</trkpt>
<trkpt lat="47.372377" lon="7.848360">
<ele>724.7</ele>
<time>2003-02-20T11:46:37Z</time>
<speed>0.0</speed>
</trkpt>
<trkpt lat="47.372377" lon="7.848360">
<ele>724.7</ele>
<time>2003-02-20T11:46:42Z</time>
<speed>0.0</speed>
</trkpt>
<trkpt lat="47.372377" lon="7.848360">
<ele>724.7</ele>
<time>2003-02-20T11:46:47Z</time>
<speed>0.0</speed>
</trkpt>
<trkpt lat="47.372377" lon="7.848360">
<ele>724.7</ele>
<time>2003-02-20T11:46:52Z</time>
<speed>0.0</speed>
</trkpt>
<trkpt lat="47.372377" lon="7.848360">
<ele>724.7</ele>
<time>2003-02-20T11:46:57Z</time>
<speed>0.0</speed>
</trkpt>
<trkpt lat="47.372377" lon="7.848360">
<ele>724.7</ele>
<time>2003-02-20T11:47:02Z</time>
<speed>0.0</speed>
</trkpt>
<trkpt lat="47.372377" lon="7.848360">
<ele>724.7</ele>
<time>2003-02-20T11:47:07Z</time>
<speed>0.0</speed>
</trkpt>
<trkpt lat="47.372377" lon="7.848360">
<ele>724.7</ele>
<time>2003-02-20T11:47:12Z</time>
<speed>0.0</speed>
</trkpt>
<trkpt lat="47.372377" lon="7.848360">
<ele>724.7</ele>
<time>2003-02-20T11:47:17Z</time>
<speed>0.0</speed>
</trkpt>
<trkpt lat="47.372377" lon="7.848360">
<ele>724.7</ele>
<time>2003-02-20T11:47:22Z</time>
<speed>0.0</speed>
</trkpt>
<trkpt lat="47.372377" lon="7.848360">
<ele>724.7</ele>
<time>2003-02-20T11:47:27Z</time>
<speed>0.0</speed>
</trkpt>
<trkpt lat="47.372377" lon="7.848360">
<ele>724.7</ele>
<time>2003-02-20T11:47:32Z</time>
<speed>0.0</speed>
</trkpt>
<trkpt lat="47.372377" lon="7.848360">
<ele>724.7</ele>
<time>2003-02-20T11:47:37Z</time>
<speed>0.0</speed>
</trkpt>
<trkpt lat="47.372377" lon="7.848360">
<ele>724.7</ele>
<time>2003-02-20T11:47:42Z</time>
<speed>0.0</speed>
</trkpt>
<trkpt lat="47.372377" lon="7.848360">
<ele>724.7</ele>
<time>2003-02-20T11:47:47Z</time>
<speed>0.0</speed>
</trkpt>
<trkpt lat="47.372377" lon="7.848360">
<ele>724.7</ele>
<time>2003-02-20T11:47:52Z</time>
<speed>0.0</speed>
</trkpt>
<trkpt lat="47.372377" lon="7.848360">
<ele>724.7</ele>
<time>2003-02-20T11:47:57Z</time>
<speed>0.0</speed>
</trkpt>
<trkpt lat="47.372377" lon="7.848360">
<ele>724.7</ele>
<time>2003-02-20T11:48:02Z</time>
<speed>0.0</speed>
</trkpt>
<trkpt lat="47.372377" lon="7.848360">
<ele>724.7</ele>
<time>2003-02-20T11:48:07Z</time>
<speed>0.0</speed>
</trkpt>
<trkpt lat="47.372377" lon="7.848360">
<ele>724.7</ele>
<time>2003-02-20T11:48:12Z</time>
<speed>0.0</speed>
</trkpt>
<trkpt lat="47.372377" lon="7.848360">
<ele>724.7</ele>
<time>2003-02-20T11:48:17Z</time>
<speed>0.0</speed>
</trkpt>
<trkpt lat="47.372377" lon="7.848360">
<ele>724.7</ele>
<time>2003-02-20T11:48:22Z</time>
<speed>0.0</speed>
</trkpt>
<trkpt lat="47.372377" lon="7.848360">
<ele>724.7</ele>
<time>2003-02-20T11:48:27Z</time>
<speed>0.0</speed>
</trkpt>
<trkpt lat="47.372377" lon="7.848360">
<ele>724.7</ele>
<time>2003-02-20T11:48:32Z</time>
<speed>0.0</speed>
</trkpt>
<trkpt lat="47.372377" lon="7.848360">
<ele>724.7</ele>
<time>2003-02-20T11:48:37Z</time>
<speed>0.0</speed>
</trkpt>
<trkpt lat="47.372377" lon="7.848360">
<ele>724.7</ele>
<time>2003-02-20T11:48:42Z</time>
<speed>0.0</speed>
</trkpt>
<trkpt lat="47.372377" lon="7.848360">
<ele>724.7</ele>
<time>2003-02-20T11:48:47Z</time>
<speed>0.0</speed>
</trkpt>
<trkpt lat="47.372377" lon="7.848360">
<ele>724.7</ele>
<time>2003-02-20T11:48:52Z</time>
<speed>0.0</speed>
</trkpt>
<trkpt lat="47.372377" lon="7.848360">
<ele>724.7</ele>
<time>2003-02-20T11:48:57Z</time>
<speed>0.0</speed>
</trkpt>
<trkpt lat="47.372377" lon="7.848360">
<ele>724.7</ele>
<time>2003-02-20T11:49:02Z</time>
<speed>0.0</speed>
</trkpt>
<trkpt lat="47.372377" lon="7.848360">
<ele>724.7</ele>
<time>2003-02-20T11:49:07Z</time>
<speed>0.0</speed>
</trkpt>
<trkpt lat="47.372377" lon="7.848360">
<ele>724.7</ele>
<time>2003-02-20T11:49:12Z</time>
<speed>0.0</speed>
</trkpt>
<trkpt lat="47.372377" lon="7.848360">
<ele>724.7</ele>
<time>2003-02-20T11:49:17Z</time>
<speed>0.0</speed>
</trkpt>
<trkpt lat="47.372377" lon="7.848360">
<ele>724.7</ele>
<time>2003-02-20T11:49:22Z</time>
<speed>0.0</speed>
</trkpt>
<trkpt lat="47.372377" lon="7.848360">
<ele>724.7</ele>
<time>2003-02-20T11:49:27Z</time>
<speed>0.1</speed>
</trkpt>
<trkpt lat="47.372371" lon="7.848360">
<ele>723.9</ele>
<time>2003-02-20T11:49:32Z</time>
<speed>0.3</speed>
</trkpt>
<trkpt lat="47.372366" lon="7.848345">
<ele>724.5</ele>
<time>2003-02-20T11:49:37Z</time>
<speed>0.2</speed>
</trkpt>
<trkpt lat="47.372359" lon="7.848343">
<ele>725.2</ele>
<time>2003-02-20T11:49:42Z</time>
<speed>0.0</speed>
</trkpt>
<trkpt lat="47.372359" lon="7.848343">
<ele>725.2</ele>
<time>2003-02-20T11:49:47Z</time>
<speed>0.3</speed>
</trkpt>
<trkpt lat="47.372353" lon="7.848328">
<ele>725.8</ele>
<time>2003-02-20T11:49:52Z</time>
<speed>0.1</speed>
</trkpt>
<trkpt lat="47.372347" lon="7.848328">
<ele>725.0</ele>
<time>2003-02-20T11:49:57Z</time>
<speed>0.3</speed>
</trkpt>
<trkpt lat="47.372342" lon="7.848313">
<ele>725.6</ele>
<time>2003-02-20T11:50:02Z</time>
<speed>0.3</speed>
</trkpt>
<trkpt lat="47.372330" lon="7.848298">
<ele>725.4</ele>
<time>2003-02-20T11:50:07Z</time>
<speed>0.0</speed>
</trkpt>
<trkpt lat="47.372330" lon="7.848298">
<ele>725.4</ele>
<time>2003-02-20T11:50:12Z</time>
<speed>0.0</speed>
</trkpt>
<trkpt lat="47.372330" lon="7.848298">
<ele>725.4</ele>
<time>2003-02-20T11:50:17Z</time>
<speed>0.0</speed>
</trkpt>
<trkpt lat="47.372330" lon="7.848298">
<ele>725.4</ele>
<time>2003-02-20T11:50:22Z</time>
<speed>0.0</speed>
</trkpt>
<trkpt lat="47.372330" lon="7.848298">
<ele>725.4</ele>
<time>2003-02-20T11:50:27Z</time>
<speed>0.0</speed>
</trkpt>
<trkpt lat="47.372330" lon="7.848298">
<ele>725.4</ele>
<time>2003-02-20T11:50:32Z</time>
<speed>0.0</speed>
</trkpt>
<trkpt lat="47.372330" lon="7.848298">
<ele>725.4</ele>
<time>2003-02-20T11:50:37Z</time>
<speed>0.0</speed>
</trkpt>
<trkpt lat="47.372330" lon="7.848298">
<ele>725.4</ele>
<time>2003-02-20T11:50:42Z</time>
<speed>0.0</speed>
</trkpt>
<trkpt lat="47.372330" lon="7.848298">
<ele>725.4</ele>
<time>2003-02-20T11:50:47Z</time>
<speed>0.0</speed>
</trkpt>
<trkpt lat="47.372330" lon="7.848298">
<ele>725.4</ele>
<time>2003-02-20T11:50:52Z</time>
<speed>0.0</speed>
</trkpt>
<trkpt lat="47.372330" lon="7.848298">
<ele>725.4</ele>
<time>2003-02-20T11:50:57Z</time>
<speed>0.0</speed>
</trkpt>
<trkpt lat="47.372330" lon="7.848298">
<ele>725.4</ele>
<time>2003-02-20T11:51:02Z</time>
<speed>0.0</speed>
</trkpt>
<trkpt lat="47.372330" lon="7.848298">
<ele>725.4</ele>
<time>2003-02-20T11:51:07Z</time>
<speed>0.0</speed>
</trkpt>
<trkpt lat="47.372330" lon="7.848298">
<ele>725.4</ele>
<time>2003-02-20T11:51:12Z</time>
<speed>0.1</speed>
</trkpt>
<trkpt lat="47.372336" lon="7.848300">
<ele>724.8</ele>
<time>2003-02-20T11:51:17Z</time>
<speed>0.0</speed>
</trkpt>
<trkpt lat="47.372336" lon="7.848300">
<ele>724.8</ele>
<time>2003-02-20T11:51:22Z</time>
<speed>0.0</speed>
</trkpt>
<trkpt lat="47.372336" lon="7.848300">
<ele>724.8</ele>
<time>2003-02-20T11:51:27Z</time>
<speed>0.0</speed>
</trkpt>
<trkpt lat="47.372336" lon="7.848300">
<ele>724.8</ele>
<time>2003-02-20T11:51:32Z</time>
<speed>0.0</speed>
</trkpt>
<trkpt lat="47.372336" lon="7.848300">
<ele>724.8</ele>
<time>2003-02-20T11:51:37Z</time>
<speed>0.0</speed>
</trkpt>
<trkpt lat="47.372336" lon="7.848300">
<ele>724.8</ele>
<time>2003-02-20T11:51:42Z</time>
<speed>0.0</speed>
</trkpt>
<trkpt lat="47.372336" lon="7.848300">
<ele>724.8</ele>
<time>2003-02-20T11:51:47Z</time>
<speed>0.0</speed>
</trkpt>
<trkpt lat="47.372336" lon="7.848300">
<ele>724.8</ele>
<time>2003-02-20T11:51:52Z</time>
<speed>0.0</speed>
</trkpt>
<trkpt lat="47.372336" lon="7.848300">
<ele>724.8</ele>
<time>2003-02-20T11:51:57Z</time>
<speed>0.0</speed>
</trkpt>
<trkpt lat="47.372336" lon="7.848300">
<ele>724.8</ele>
<time>2003-02-20T11:52:02Z</time>
<speed>0.0</speed>
</trkpt>
<trkpt lat="47.372336" lon="7.848300">
<ele>724.8</ele>
<time>2003-02-20T11:52:07Z</time>
<speed>0.0</speed>
</trkpt>
<trkpt lat="47.372336" lon="7.848300">
<ele>724.8</ele>
<time>2003-02-20T11:52:12Z</time>
<speed>0.0</speed>
</trkpt>
<trkpt lat="47.372336" lon="7.848300">
<ele>724.8</ele>
<time>2003-02-20T11:52:17Z</time>
<speed>0.2</speed>
</trkpt>
<trkpt lat="47.372335" lon="7.848313">
<ele>724.9</ele>
<time>2003-02-20T11:52:22Z</time>
<speed>0.0</speed>
</trkpt>
<trkpt lat="47.372335" lon="7.848313">
<ele>724.9</ele>
<time>2003-02-20T11:52:27Z</time>
<speed>0.0</speed>
</trkpt>
<trkpt lat="47.372335" lon="7.848313">
<ele>724.9</ele>
<time>2003-02-20T11:52:32Z</time>
<speed>0.0</speed>
</trkpt>
<trkpt lat="47.372335" lon="7.848313">
<ele>724.9</ele>
<time>2003-02-20T11:52:37Z</time>
<speed>0.0</speed>
</trkpt>
<trkpt lat="47.372335" lon="7.848313">
<ele>724.9</ele>
<time>2003-02-20T11:52:42Z</time>
<speed>0.0</speed>
</trkpt>
<trkpt lat="47.372335" lon="7.848313">
<ele>724.9</ele>
<time>2003-02-20T11:52:47Z</time>
<speed>0.0</speed>
</trkpt>
<trkpt lat="47.372335" lon="7.848313">
<ele>724.9</ele>
<time>2003-02-20T11:52:52Z</time>
<speed>0.0</speed>
</trkpt>
<trkpt lat="47.372335" lon="7.848313">
<ele>724.9</ele>
<time>2003-02-20T11:52:57Z</time>
<speed>0.0</speed>
</trkpt>
<trkpt lat="47.372335" lon="7.848313">
<ele>724.9</ele>
<time>2003-02-20T11:53:02Z</time>
<speed>0.0</speed>
</trkpt>
<trkpt lat="47.372335" lon="7.848313">
<ele>724.9</ele>
<time>2003-02-20T11:53:07Z</time>
<speed>0.0</speed>
</trkpt>
<trkpt lat="47.372335" lon="7.848313">
<ele>724.9</ele>
<time>2003-02-20T11:53:12Z</time>
<speed>0.0</speed>
</trkpt>
<trkpt lat="47.372335" lon="7.848313">
<ele>724.9</ele>
<time>2003-02-20T11:53:17Z</time>
<speed>0.0</speed>
</trkpt>
<trkpt lat="47.372335" lon="7.848313">
<ele>724.9</ele>
<time>2003-02-20T11:53:22Z</time>
<speed>0.0</speed>
</trkpt>
<trkpt lat="47.372335" lon="7.848313">
<ele>724.9</ele>
<time>2003-02-20T11:53:27Z</time>
<speed>0.0</speed>
</trkpt>
<trkpt lat="47.372335" lon="7.848313">
<ele>724.9</ele>
<time>2003-02-20T11:53:32Z</time>
<speed>0.0</speed>
</trkpt>
<trkpt lat="47.372335" lon="7.848313">
<ele>724.9</ele>
<time>2003-02-20T11:53:37Z</time>
<speed>0.0</speed>
</trkpt>
<trkpt lat="47.372335" lon="7.848313">
<ele>724.9</ele>
<time>2003-02-20T11:53:42Z</time>
<speed>0.0</speed>
</trkpt>
<trkpt lat="47.372335" lon="7.848313">
<ele>724.9</ele>
<time>2003-02-20T11:53:47Z</time>
<speed>0.0</speed>
</trkpt>
<trkpt lat="47.372335" lon="7.848313">
<ele>724.9</ele>
<time>2003-02-20T11:53:52Z</time>
<speed>0.0</speed>
</trkpt>
<trkpt lat="47.372335" lon="7.848313">
<ele>724.9</ele>
<time>2003-02-20T11:53:57Z</time>
<speed>0.0</speed>
</trkpt>
<trkpt lat="47.372335" lon="7.848313">
<ele>724.9</ele>
<time>2003-02-20T11:54:02Z</time>
<speed>0.0</speed>
</trkpt>
<trkpt lat="47.372335" lon="7.848313">
<ele>724.9</ele>
<time>2003-02-20T11:54:07Z</time>
<speed>0.0</speed>
</trkpt>
<trkpt lat="47.372335" lon="7.848313">
<ele>724.9</ele>
<time>2003-02-20T11:54:12Z</time>
<speed>0.2</speed>
</trkpt>
<trkpt lat="47.372342" lon="7.848315">
<ele>724.2</ele>
<time>2003-02-20T11:54:17Z</time>
<speed>0.0</speed>
</trkpt>
<trkpt lat="47.372342" lon="7.848315">
<ele>724.2</ele>
<time>2003-02-20T11:54:22Z</time>
<speed>0.0</speed>
</trkpt>
<trkpt lat="47.372342" lon="7.848315">
<ele>724.2</ele>
<time>2003-02-20T11:54:27Z</time>
<speed>0.0</speed>
</trkpt>
<trkpt lat="47.372342" lon="7.848315">
<ele>724.2</ele>
<time>2003-02-20T11:54:32Z</time>
<speed>0.0</speed>
</trkpt>
<trkpt lat="47.372342" lon="7.848315">
<ele>724.2</ele>
<time>2003-02-20T11:54:37Z</time>
<speed>0.0</speed>
</trkpt>
<trkpt lat="47.372342" lon="7.848315">
<ele>724.2</ele>
<time>2003-02-20T11:54:42Z</time>
<speed>0.0</speed>
</trkpt>
<trkpt lat="47.372342" lon="7.848315">
<ele>724.2</ele>
<time>2003-02-20T11:54:47Z</time>
<speed>0.0</speed>
</trkpt>
<trkpt lat="47.372342" lon="7.848315">
<ele>724.2</ele>
<time>2003-02-20T11:54:52Z</time>
<speed>0.0</speed>
</trkpt>
<trkpt lat="47.372342" lon="7.848315">
<ele>724.2</ele>
<time>2003-02-20T11:54:57Z</time>
<speed>0.0</speed>
</trkpt>
<trkpt lat="47.372342" lon="7.848315">
<ele>724.2</ele>
<time>2003-02-20T11:55:02Z</time>
<speed>0.0</speed>
</trkpt>
<trkpt lat="47.372342" lon="7.848315">
<ele>724.2</ele>
<time>2003-02-20T11:55:07Z</time>
<speed>0.0</speed>
</trkpt>
<trkpt lat="47.372342" lon="7.848315">
<ele>724.2</ele>
<time>2003-02-20T11:55:12Z</time>
<speed>0.0</speed>
</trkpt>
<trkpt lat="47.372342" lon="7.848315">
<ele>724.2</ele>
<time>2003-02-20T11:55:17Z</time>
<speed>0.0</speed>
</trkpt>
<trkpt lat="47.372342" lon="7.848315">
<ele>724.2</ele>
<time>2003-02-20T11:55:22Z</time>
<speed>0.0</speed>
</trkpt>
<trkpt lat="47.372342" lon="7.848315">
<ele>724.2</ele>
<time>2003-02-20T11:55:27Z</time>
<speed>0.0</speed>
</trkpt>
<trkpt lat="47.372342" lon="7.848315">
<ele>724.2</ele>
<time>2003-02-20T11:55:32Z</time>
<speed>0.0</speed>
</trkpt>
<trkpt lat="47.372342" lon="7.848315">
<ele>724.2</ele>
<time>2003-02-20T11:55:37Z</time>
<speed>0.0</speed>
</trkpt>
<trkpt lat="47.372342" lon="7.848315">
<ele>724.2</ele>
<time>2003-02-20T11:55:42Z</time>
<speed>0.0</speed>
</trkpt>
<trkpt lat="47.372342" lon="7.848315">
<ele>724.2</ele>
<time>2003-02-20T11:55:47Z</time>
<speed>0.0</speed>
</trkpt>
<trkpt lat="47.372342" lon="7.848315">
<ele>724.2</ele>
<time>2003-02-20T11:55:52Z</time>
<speed>0.0</speed>
</trkpt>
<trkpt lat="47.372342" lon="7.848315">
<ele>724.2</ele>
<time>2003-02-20T11:55:57Z</time>
<speed>0.0</speed>
</trkpt>
<trkpt lat="47.372342" lon="7.848315">
<ele>724.2</ele>
<time>2003-02-20T11:56:02Z</time>
<speed>0.0</speed>
</trkpt>
<trkpt lat="47.372342" lon="7.848315">
<ele>724.2</ele>
<time>2003-02-20T11:56:07Z</time>
<speed>0.0</speed>
</trkpt>
<trkpt lat="47.372342" lon="7.848315">
<ele>724.2</ele>
<time>2003-02-20T11:56:12Z</time>
<speed>0.2</speed>
</trkpt>
<trkpt lat="47.372341" lon="7.848328">
<ele>724.3</ele>
<time>2003-02-20T11:56:17Z</time>
<speed>0.0</speed>
</trkpt>
<trkpt lat="47.372341" lon="7.848328">
<ele>724.3</ele>
<time>2003-02-20T11:56:22Z</time>
<speed>0.0</speed>
</trkpt>
<trkpt lat="47.372341" lon="7.848328">
<ele>724.3</ele>
<time>2003-02-20T11:56:27Z</time>
<speed>0.0</speed>
</trkpt>
<trkpt lat="47.372341" lon="7.848328">
<ele>724.3</ele>
<time>2003-02-20T11:56:32Z</time>
<speed>0.0</speed>
</trkpt>
<trkpt lat="47.372341" lon="7.848328">
<ele>724.3</ele>
<time>2003-02-20T11:56:37Z</time>
<speed>0.0</speed>
</trkpt>
<trkpt lat="47.372341" lon="7.848328">
<ele>724.3</ele>
<time>2003-02-20T11:56:42Z</time>
<speed>0.0</speed>
</trkpt>
<trkpt lat="47.372341" lon="7.848328">
<ele>724.3</ele>
<time>2003-02-20T11:56:47Z</time>
<speed>0.0</speed>
</trkpt>
<trkpt lat="47.372341" lon="7.848328">
<ele>724.3</ele>
<time>2003-02-20T11:56:52Z</time>
<speed>0.0</speed>
</trkpt>
<trkpt lat="47.372341" lon="7.848328">
<ele>724.3</ele>
<time>2003-02-20T11:56:57Z</time>
<speed>0.0</speed>
</trkpt>
<trkpt lat="47.372341" lon="7.848328">
<ele>724.3</ele>
<time>2003-02-20T11:57:02Z</time>
<speed>0.0</speed>
</trkpt>
<trkpt lat="47.372341" lon="7.848328">
<ele>724.3</ele>
<time>2003-02-20T11:57:07Z</time>
<speed>0.0</speed>
</trkpt>
<trkpt lat="47.372341" lon="7.848328">
<ele>724.3</ele>
<time>2003-02-20T11:57:12Z</time>
<speed>0.0</speed>
</trkpt>
<trkpt lat="47.372341" lon="7.848328">
<ele>724.3</ele>
<time>2003-02-20T11:57:17Z</time>
<speed>0.0</speed>
</trkpt>
<trkpt lat="47.372341" lon="7.848328">
<ele>724.3</ele>
<time>2003-02-20T11:57:22Z</time>
<speed>0.1</speed>
</trkpt>
<trkpt lat="47.372347" lon="7.848328">
<ele>725.0</ele>
<time>2003-02-20T11:57:27Z</time>
<speed>0.0</speed>
</trkpt>
<trkpt lat="47.372347" lon="7.848328">
<ele>725.0</ele>
<time>2003-02-20T11:57:32Z</time>
<speed>0.0</speed>
</trkpt>
<trkpt lat="47.372347" lon="7.848328">
<ele>725.0</ele>
<time>2003-02-20T11:57:37Z</time>
<speed>0.0</speed>
</trkpt>
<trkpt lat="47.372347" lon="7.848328">
<ele>725.0</ele>
<time>2003-02-20T11:57:42Z</time>
<speed>0.0</speed>
</trkpt>
<trkpt lat="47.372347" lon="7.848328">
<ele>725.0</ele>
<time>2003-02-20T11:57:47Z</time>
<speed>0.0</speed>
</trkpt>
<trkpt lat="47.372347" lon="7.848328">
<ele>725.0</ele>
<time>2003-02-20T11:57:52Z</time>
<speed>0.0</speed>
</trkpt>
<trkpt lat="47.372347" lon="7.848328">
<ele>725.0</ele>
<time>2003-02-20T11:57:57Z</time>
<speed>0.0</speed>
</trkpt>
<trkpt lat="47.372347" lon="7.848328">
<ele>725.0</ele>
<time>2003-02-20T11:58:02Z</time>
<speed>0.0</speed>
</trkpt>
<trkpt lat="47.372347" lon="7.848328">
<ele>725.0</ele>
<time>2003-02-20T11:58:07Z</time>
<speed>0.0</speed>
</trkpt>
<trkpt lat="47.372347" lon="7.848328">
<ele>725.0</ele>
<time>2003-02-20T11:58:12Z</time>
<speed>0.0</speed>
</trkpt>
<trkpt lat="47.372347" lon="7.848328">
<ele>725.0</ele>
<time>2003-02-20T11:58:17Z</time>
<speed>0.0</speed>
</trkpt>
<trkpt lat="47.372347" lon="7.848328">
<ele>725.0</ele>
<time>2003-02-20T11:58:22Z</time>
<speed>0.0</speed>
</trkpt>
<trkpt lat="47.372347" lon="7.848328">
<ele>725.0</ele>
<time>2003-02-20T11:58:27Z</time>
<speed>0.0</speed>
</trkpt>
<trkpt lat="47.372347" lon="7.848328">
<ele>725.0</ele>
<time>2003-02-20T11:58:32Z</time>
<speed>0.0</speed>
</trkpt>
<trkpt lat="47.372347" lon="7.848328">
<ele>725.0</ele>
<time>2003-02-20T11:58:37Z</time>
<speed>0.0</speed>
</trkpt>
<trkpt lat="47.372347" lon="7.848328">
<ele>725.0</ele>
<time>2003-02-20T11:58:42Z</time>
<speed>0.0</speed>
</trkpt>
<trkpt lat="47.372347" lon="7.848328">
<ele>725.0</ele>
<time>2003-02-20T11:58:47Z</time>
<speed>0.0</speed>
</trkpt>
<trkpt lat="47.372347" lon="7.848328">
<ele>725.0</ele>
<time>2003-02-20T11:58:52Z</time>
<speed>0.0</speed>
</trkpt>
<trkpt lat="47.372347" lon="7.848328">
<ele>725.0</ele>
<time>2003-02-20T11:58:57Z</time>
<speed>0.0</speed>
</trkpt>
<trkpt lat="47.372347" lon="7.848328">
<ele>725.0</ele>
<time>2003-02-20T11:59:02Z</time>
<speed>0.0</speed>
</trkpt>
<trkpt lat="47.372347" lon="7.848328">
<ele>725.0</ele>
<time>2003-02-20T11:59:07Z</time>
<speed>0.0</speed>
</trkpt>
<trkpt lat="47.372347" lon="7.848328">
<ele>725.0</ele>
<time>2003-02-20T11:59:12Z</time>
<speed>0.0</speed>
</trkpt>
<trkpt lat="47.372347" lon="7.848328">
<ele>725.0</ele>
<time>2003-02-20T11:59:17Z</time>
<speed>0.0</speed>
</trkpt>
<trkpt lat="47.372347" lon="7.848328">
<ele>725.0</ele>
<time>2003-02-20T11:59:22Z</time>
<speed>0.0</speed>
</trkpt>
<trkpt lat="47.372347" lon="7.848328">
<ele>725.0</ele>
<time>2003-02-20T11:59:27Z</time>
<speed>0.0</speed>
</trkpt>
<trkpt lat="47.372347" lon="7.848328">
<ele>725.0</ele>
<time>2003-02-20T11:59:32Z</time>
<speed>0.0</speed>
</trkpt>
<trkpt lat="47.372347" lon="7.848328">
<ele>725.0</ele>
<time>2003-02-20T11:59:37Z</time>
<speed>0.0</speed>
</trkpt>
<trkpt lat="47.372347" lon="7.848328">
<ele>725.0</ele>
<time>2003-02-20T11:59:42Z</time>
<speed>0.0</speed>
</trkpt>
<trkpt lat="47.372347" lon="7.848328">
<ele>725.0</ele>
<time>2003-02-20T11:59:47Z</time>
<speed>0.0</speed>
</trkpt>
<trkpt lat="47.372347" lon="7.848328">
<ele>725.0</ele>
<time>2003-02-20T11:59:52Z</time>
<speed>0.0</speed>
</trkpt>
<trkpt lat="47.372347" lon="7.848328">
<ele>725.0</ele>
<time>2003-02-20T11:59:57Z</time>
<speed>0.0</speed>
</trkpt>
<trkpt lat="47.372347" lon="7.848328">
<ele>725.0</ele>
<time>2003-02-20T12:00:02Z</time>
<speed>0.0</speed>
</trkpt>
<trkpt lat="47.372347" lon="7.848328">
<ele>725.0</ele>
<time>2003-02-20T12:00:07Z</time>
<speed>0.0</speed>
</trkpt>
<trkpt lat="47.372347" lon="7.848328">
<ele>725.0</ele>
<time>2003-02-20T12:00:12Z</time>
<speed>0.0</speed>
</trkpt>
<trkpt lat="47.372347" lon="7.848328">
<ele>725.0</ele>
<time>2003-02-20T12:00:17Z</time>
<speed>0.0</speed>
</trkpt>
<trkpt lat="47.372347" lon="7.848328">
<ele>725.0</ele>
<time>2003-02-20T12:00:22Z</time>
<speed>0.0</speed>
</trkpt>
<trkpt lat="47.372347" lon="7.848328">
<ele>725.0</ele>
<time>2003-02-20T12:00:27Z</time>
<speed>0.0</speed>
</trkpt>
<trkpt lat="47.372347" lon="7.848328">
<ele>725.0</ele>
<time>2003-02-20T12:00:32Z</time>
<speed>0.0</speed>
</trkpt>
<trkpt lat="47.372347" lon="7.848328">
<ele>725.0</ele>
<time>2003-02-20T12:00:37Z</time>
<speed>0.0</speed>
</trkpt>
<trkpt lat="47.372347" lon="7.848328">
<ele>725.0</ele>
<time>2003-02-20T12:00:42Z</time>
<speed>0.0</speed>
</trkpt>
<trkpt lat="47.372347" lon="7.848328">
<ele>725.0</ele>
<time>2003-02-20T12:00:47Z</time>
<speed>0.0</speed>
</trkpt>
<trkpt lat="47.372347" lon="7.848328">
<ele>725.0</ele>
<time>2003-02-20T12:00:52Z</time>
<speed>0.0</speed>
</trkpt>
<trkpt lat="47.372347" lon="7.848328">
<ele>725.0</ele>
<time>2003-02-20T12:00:57Z</time>
<speed>0.0</speed>
</trkpt>
<trkpt lat="47.372347" lon="7.848328">
<ele>725.0</ele>
<time>2003-02-20T12:01:02Z</time>
<speed>0.0</speed>
</trkpt>
<trkpt lat="47.372347" lon="7.848328">
<ele>725.0</ele>
<time>2003-02-20T12:01:07Z</time>
<speed>0.0</speed>
</trkpt>
<trkpt lat="47.372347" lon="7.848328">
<ele>725.0</ele>
<time>2003-02-20T12:01:12Z</time>
<speed>0.0</speed>
</trkpt>
<trkpt lat="47.372347" lon="7.848328">
<ele>725.0</ele>
<time>2003-02-20T12:01:17Z</time>
<speed>0.0</speed>
</trkpt>
<trkpt lat="47.372347" lon="7.848328">
<ele>725.0</ele>
<time>2003-02-20T12:01:22Z</time>
<speed>0.0</speed>
</trkpt>
<trkpt lat="47.372347" lon="7.848328">
<ele>725.0</ele>
<time>2003-02-20T12:01:27Z</time>
<speed>0.0</speed>
</trkpt>
<trkpt lat="47.372347" lon="7.848328">
<ele>725.0</ele>
<time>2003-02-20T12:01:32Z</time>
<speed>0.0</speed>
</trkpt>
<trkpt lat="47.372347" lon="7.848328">
<ele>725.0</ele>
<time>2003-02-20T12:01:37Z</time>
<speed>0.0</speed>
</trkpt>
<trkpt lat="47.372347" lon="7.848328">
<ele>725.0</ele>
<time>2003-02-20T12:01:42Z</time>
<speed>0.0</speed>
</trkpt>
<trkpt lat="47.372347" lon="7.848328">
<ele>725.0</ele>
<time>2003-02-20T12:01:47Z</time>
<speed>0.0</speed>
</trkpt>
<trkpt lat="47.372347" lon="7.848328">
<ele>725.0</ele>
<time>2003-02-20T12:01:52Z</time>
<speed>0.0</speed>
</trkpt>
<trkpt lat="47.372347" lon="7.848328">
<ele>725.0</ele>
<time>2003-02-20T12:01:57Z</time>
<speed>0.0</speed>
</trkpt>
<trkpt lat="47.372347" lon="7.848328">
<ele>725.0</ele>
<time>2003-02-20T12:02:02Z</time>
<speed>0.0</speed>
</trkpt>
<trkpt lat="47.372347" lon="7.848328">
<ele>725.0</ele>
<time>2003-02-20T12:02:07Z</time>
<speed>0.2</speed>
</trkpt>
<trkpt lat="47.372348" lon="7.848315">
<ele>724.9</ele>
<time>2003-02-20T12:02:12Z</time>
<speed>0.0</speed>
</trkpt>
<trkpt lat="47.372348" lon="7.848315">
<ele>724.9</ele>
<time>2003-02-20T12:02:17Z</time>
<speed>0.0</speed>
</trkpt>
<trkpt lat="47.372348" lon="7.848315">
<ele>724.9</ele>
<time>2003-02-20T12:02:22Z</time>
<speed>0.1</speed>
</trkpt>
<trkpt lat="47.372354" lon="7.848315">
<ele>725.7</ele>
<time>2003-02-20T12:02:27Z</time>
<speed>0.0</speed>
</trkpt>
<trkpt lat="47.372354" lon="7.848315">
<ele>725.7</ele>
<time>2003-02-20T12:02:32Z</time>
<speed>0.2</speed>
</trkpt>
<trkpt lat="47.372353" lon="7.848328">
<ele>725.8</ele>
<time>2003-02-20T12:02:37Z</time>
<speed>0.0</speed>
</trkpt>
<trkpt lat="47.372353" lon="7.848328">
<ele>725.8</ele>
<time>2003-02-20T12:02:42Z</time>
<speed>0.0</speed>
</trkpt>
<trkpt lat="47.372353" lon="7.848328">
<ele>725.8</ele>
<time>2003-02-20T12:02:47Z</time>
<speed>0.0</speed>
</trkpt>
<trkpt lat="47.372353" lon="7.848328">
<ele>725.8</ele>
<time>2003-02-20T12:02:52Z</time>
<speed>0.0</speed>
</trkpt>
<trkpt lat="47.372353" lon="7.848328">
<ele>725.8</ele>
<time>2003-02-20T12:02:57Z</time>
<speed>0.0</speed>
</trkpt>
<trkpt lat="47.372353" lon="7.848328">
<ele>725.8</ele>
<time>2003-02-20T12:03:02Z</time>
<speed>0.0</speed>
</trkpt>
<trkpt lat="47.372353" lon="7.848328">
<ele>725.8</ele>
<time>2003-02-20T12:03:07Z</time>
<speed>0.0</speed>
</trkpt>
<trkpt lat="47.372353" lon="7.848328">
<ele>725.8</ele>
<time>2003-02-20T12:03:12Z</time>
<speed>0.0</speed>
</trkpt>
<trkpt lat="47.372353" lon="7.848328">
<ele>725.8</ele>
<time>2003-02-20T12:03:17Z</time>
<speed>0.0</speed>
</trkpt>
<trkpt lat="47.372353" lon="7.848328">
<ele>725.8</ele>
<time>2003-02-20T12:03:22Z</time>
<speed>0.0</speed>
</trkpt>
<trkpt lat="47.372353" lon="7.848328">
<ele>725.8</ele>
<time>2003-02-20T12:03:27Z</time>
<speed>0.0</speed>
</trkpt>
<trkpt lat="47.372353" lon="7.848328">
<ele>725.8</ele>
<time>2003-02-20T12:03:32Z</time>
<speed>0.0</speed>
</trkpt>
<trkpt lat="47.372353" lon="7.848328">
<ele>725.8</ele>
<time>2003-02-20T12:03:37Z</time>
<speed>0.0</speed>
</trkpt>
<trkpt lat="47.372353" lon="7.848328">
<ele>725.8</ele>
<time>2003-02-20T12:03:42Z</time>
<speed>0.0</speed>
</trkpt>
<trkpt lat="47.372353" lon="7.848328">
<ele>725.8</ele>
<time>2003-02-20T12:03:47Z</time>
<speed>0.1</speed>
</trkpt>
<trkpt lat="47.372359" lon="7.848328">
<ele>726.5</ele>
<time>2003-02-20T12:03:52Z</time>
<speed>0.0</speed>
</trkpt>
<trkpt lat="47.372359" lon="7.848328">
<ele>726.5</ele>
<time>2003-02-20T12:03:57Z</time>
<speed>0.0</speed>
</trkpt>
<trkpt lat="47.372359" lon="7.848328">
<ele>726.5</ele>
<time>2003-02-20T12:04:02Z</time>
<speed>0.0</speed>
</trkpt>
<trkpt lat="47.372359" lon="7.848328">
<ele>726.5</ele>
<time>2003-02-20T12:04:07Z</time>
<speed>0.0</speed>
</trkpt>
<trkpt lat="47.372359" lon="7.848328">
<ele>726.5</ele>
<time>2003-02-20T12:04:12Z</time>
<speed>0.0</speed>
</trkpt>
<trkpt lat="47.372359" lon="7.848328">
<ele>726.5</ele>
<time>2003-02-20T12:04:17Z</time>
<speed>0.0</speed>
</trkpt>
<trkpt lat="47.372359" lon="7.848328">
<ele>726.5</ele>
<time>2003-02-20T12:04:22Z</time>
<speed>0.0</speed>
</trkpt>
<trkpt lat="47.372359" lon="7.848328">
<ele>726.5</ele>
<time>2003-02-20T12:04:27Z</time>
<speed>0.0</speed>
</trkpt>
<trkpt lat="47.372359" lon="7.848328">
<ele>726.5</ele>
<time>2003-02-20T12:04:32Z</time>
<speed>0.0</speed>
</trkpt>
<trkpt lat="47.372359" lon="7.848328">
<ele>726.5</ele>
<time>2003-02-20T12:04:37Z</time>
<speed>0.0</speed>
</trkpt>
<trkpt lat="47.372359" lon="7.848328">
<ele>726.5</ele>
<time>2003-02-20T12:04:42Z</time>
<speed>0.0</speed>
</trkpt>
<trkpt lat="47.372359" lon="7.848328">
<ele>726.5</ele>
<time>2003-02-20T12:04:47Z</time>
<speed>0.0</speed>
</trkpt>
<trkpt lat="47.372359" lon="7.848328">
<ele>726.5</ele>
<time>2003-02-20T12:04:52Z</time>
<speed>0.0</speed>
</trkpt>
<trkpt lat="47.372359" lon="7.848328">
<ele>726.5</ele>
<time>2003-02-20T12:04:57Z</time>
<speed>0.0</speed>
</trkpt>
<trkpt lat="47.372359" lon="7.848328">
<ele>726.5</ele>
<time>2003-02-20T12:05:02Z</time>
<speed>0.0</speed>
</trkpt>
<trkpt lat="47.372359" lon="7.848328">
<ele>726.5</ele>
<time>2003-02-20T12:05:07Z</time>
<speed>0.0</speed>
</trkpt>
<trkpt lat="47.372359" lon="7.848328">
<ele>726.5</ele>
<time>2003-02-20T12:05:12Z</time>
<speed>0.0</speed>
</trkpt>
<trkpt lat="47.372359" lon="7.848328">
<ele>726.5</ele>
<time>2003-02-20T12:05:17Z</time>
<speed>0.0</speed>
</trkpt>
<trkpt lat="47.372359" lon="7.848328">
<ele>726.5</ele>
<time>2003-02-20T12:05:22Z</time>
<speed>0.0</speed>
</trkpt>
<trkpt lat="47.372359" lon="7.848328">
<ele>726.5</ele>
<time>2003-02-20T12:05:27Z</time>
<speed>0.0</speed>
</trkpt>
<trkpt lat="47.372359" lon="7.848328">
<ele>726.5</ele>
<time>2003-02-20T12:05:32Z</time>
<speed>0.0</speed>
</trkpt>
<trkpt lat="47.372359" lon="7.848328">
<ele>726.5</ele>
<time>2003-02-20T12:05:37Z</time>
<speed>0.0</speed>
</trkpt>
<trkpt lat="47.372359" lon="7.848328">
<ele>726.5</ele>
<time>2003-02-20T12:05:42Z</time>
<speed>0.0</speed>
</trkpt>
<trkpt lat="47.372359" lon="7.848328">
<ele>726.5</ele>
<time>2003-02-20T12:05:47Z</time>
<speed>0.0</speed>
</trkpt>
<trkpt lat="47.372359" lon="7.848328">
<ele>726.5</ele>
<time>2003-02-20T12:05:52Z</time>
<speed>0.0</speed>
</trkpt>
<trkpt lat="47.372359" lon="7.848328">
<ele>726.5</ele>
<time>2003-02-20T12:05:57Z</time>
<speed>0.0</speed>
</trkpt>
<trkpt lat="47.372359" lon="7.848328">
<ele>726.5</ele>
<time>2003-02-20T12:06:02Z</time>
<speed>0.0</speed>
</trkpt>
<trkpt lat="47.372359" lon="7.848328">
<ele>726.5</ele>
<time>2003-02-20T12:06:07Z</time>
<speed>0.0</speed>
</trkpt>
<trkpt lat="47.372359" lon="7.848328">
<ele>726.5</ele>
<time>2003-02-20T12:06:12Z</time>
<speed>0.0</speed>
</trkpt>
<trkpt lat="47.372359" lon="7.848328">
<ele>726.5</ele>
<time>2003-02-20T12:06:17Z</time>
<speed>0.0</speed>
</trkpt>
<trkpt lat="47.372359" lon="7.848328">
<ele>726.5</ele>
<time>2003-02-20T12:06:22Z</time>
<speed>0.0</speed>
</trkpt>
<trkpt lat="47.372359" lon="7.848328">
<ele>726.5</ele>
<time>2003-02-20T12:06:27Z</time>
<speed>0.0</speed>
</trkpt>
<trkpt lat="47.372359" lon="7.848328">
<ele>726.5</ele>
<time>2003-02-20T12:06:32Z</time>
<speed>0.0</speed>
</trkpt>
<trkpt lat="47.372359" lon="7.848328">
<ele>726.5</ele>
<time>2003-02-20T12:06:37Z</time>
<speed>0.2</speed>
</trkpt>
<trkpt lat="47.372366" lon="7.848330">
<ele>725.8</ele>
<time>2003-02-20T12:06:42Z</time>
<speed>0.0</speed>
</trkpt>
<trkpt lat="47.372366" lon="7.848330">
<ele>725.8</ele>
<time>2003-02-20T12:06:47Z</time>
<speed>0.0</speed>
</trkpt>
<trkpt lat="47.372366" lon="7.848330">
<ele>725.8</ele>
<time>2003-02-20T12:06:52Z</time>
<speed>0.0</speed>
</trkpt>
<trkpt lat="47.372366" lon="7.848330">
<ele>725.8</ele>
<time>2003-02-20T12:06:57Z</time>
<speed>0.0</speed>
</trkpt>
<trkpt lat="47.372366" lon="7.848330">
<ele>725.8</ele>
<time>2003-02-20T12:07:02Z</time>
<speed>0.0</speed>
</trkpt>
<trkpt lat="47.372366" lon="7.848330">
<ele>725.8</ele>
<time>2003-02-20T12:07:07Z</time>
<speed>0.2</speed>
</trkpt>
<trkpt lat="47.372367" lon="7.848317">
<ele>725.7</ele>
<time>2003-02-20T12:07:12Z</time>
<speed>0.0</speed>
</trkpt>
<trkpt lat="47.372367" lon="7.848317">
<ele>725.7</ele>
<time>2003-02-20T12:07:17Z</time>
<speed>0.3</speed>
</trkpt>
<trkpt lat="47.372380" lon="7.848318">
<ele>725.8</ele>
<time>2003-02-20T12:07:22Z</time>
<speed>0.6</speed>
</trkpt>
<trkpt lat="47.372401" lon="7.848296">
<ele>725.0</ele>
<time>2003-02-20T12:07:27Z</time>
<speed>0.3</speed>
</trkpt>
<trkpt lat="47.372414" lon="7.848284">
<ele>725.0</ele>
<time>2003-02-20T12:07:32Z</time>
<speed>0.5</speed>
</trkpt>
<trkpt lat="47.372428" lon="7.848258">
<ele>726.3</ele>
<time>2003-02-20T12:07:37Z</time>
<speed>0.2</speed>
</trkpt>
<trkpt lat="47.372427" lon="7.848271">
<ele>726.4</ele>
<time>2003-02-20T12:07:42Z</time>
<speed>0.0</speed>
</trkpt>
<trkpt lat="47.372427" lon="7.848271">
<ele>726.4</ele>
<time>2003-02-20T12:07:47Z</time>
<speed>0.0</speed>
</trkpt>
<trkpt lat="47.372427" lon="7.848271">
<ele>726.4</ele>
<time>2003-02-20T12:07:52Z</time>
<speed>0.0</speed>
</trkpt>
<trkpt lat="47.372427" lon="7.848271">
<ele>726.4</ele>
<time>2003-02-20T12:07:57Z</time>
<speed>0.0</speed>
</trkpt>
<trkpt lat="47.372427" lon="7.848271">
<ele>726.4</ele>
<time>2003-02-20T12:08:02Z</time>
<speed>0.0</speed>
</trkpt>
<trkpt lat="47.372427" lon="7.848271">
<ele>726.4</ele>
<time>2003-02-20T12:08:07Z</time>
<speed>0.3</speed>
</trkpt>
<trkpt lat="47.372434" lon="7.848258">
<ele>727.0</ele>
<time>2003-02-20T12:08:12Z</time>
<speed>0.0</speed>
</trkpt>
<trkpt lat="47.372434" lon="7.848258">
<ele>727.0</ele>
<time>2003-02-20T12:08:17Z</time>
<speed>0.0</speed>
</trkpt>
<trkpt lat="47.372434" lon="7.848258">
<ele>727.0</ele>
<time>2003-02-20T12:08:22Z</time>
<speed>0.0</speed>
</trkpt>
<trkpt lat="47.372434" lon="7.848258">
<ele>727.0</ele>
<time>2003-02-20T12:08:27Z</time>
<speed>0.0</speed>
</trkpt>
<trkpt lat="47.372434" lon="7.848258">
<ele>727.0</ele>
<time>2003-02-20T12:08:32Z</time>
<speed>0.0</speed>
</trkpt>
<trkpt lat="47.372434" lon="7.848258">
<ele>727.0</ele>
<time>2003-02-20T12:08:37Z</time>
<speed>0.0</speed>
</trkpt>
<trkpt lat="47.372434" lon="7.848258">
<ele>727.0</ele>
<time>2003-02-20T12:08:42Z</time>
<speed>0.0</speed>
</trkpt>
<trkpt lat="47.372434" lon="7.848258">
<ele>727.0</ele>
<time>2003-02-20T12:08:47Z</time>
<speed>0.0</speed>
</trkpt>
<trkpt lat="47.372434" lon="7.848258">
<ele>727.0</ele>
<time>2003-02-20T12:08:52Z</time>
<speed>0.0</speed>
</trkpt>
<trkpt lat="47.372434" lon="7.848258">
<ele>727.0</ele>
<time>2003-02-20T12:08:57Z</time>
<speed>0.0</speed>
</trkpt>
<trkpt lat="47.372434" lon="7.848258">
<ele>727.0</ele>
<time>2003-02-20T12:09:02Z</time>
<speed>0.0</speed>
</trkpt>
<trkpt lat="47.372434" lon="7.848258">
<ele>727.0</ele>
<time>2003-02-20T12:09:07Z</time>
<speed>0.0</speed>
</trkpt>
<trkpt lat="47.372434" lon="7.848258">
<ele>727.0</ele>
<time>2003-02-20T12:09:12Z</time>
<speed>0.0</speed>
</trkpt>
<trkpt lat="47.372434" lon="7.848258">
<ele>727.0</ele>
<time>2003-02-20T12:09:17Z</time>
<speed>0.0</speed>
</trkpt>
<trkpt lat="47.372434" lon="7.848258">
<ele>727.0</ele>
<time>2003-02-20T12:09:22Z</time>
<speed>0.0</speed>
</trkpt>
<trkpt lat="47.372434" lon="7.848258">
<ele>727.0</ele>
<time>2003-02-20T12:09:27Z</time>
<speed>0.0</speed>
</trkpt>
<trkpt lat="47.372434" lon="7.848258">
<ele>727.0</ele>
<time>2003-02-20T12:09:32Z</time>
<speed>0.0</speed>
</trkpt>
<trkpt lat="47.372434" lon="7.848258">
<ele>727.0</ele>
<time>2003-02-20T12:09:37Z</time>
<speed>0.0</speed>
</trkpt>
<trkpt lat="47.372434" lon="7.848258">
<ele>727.0</ele>
<time>2003-02-20T12:09:42Z</time>
<speed>0.0</speed>
</trkpt>
<trkpt lat="47.372434" lon="7.848258">
<ele>727.0</ele>
<time>2003-02-20T12:09:47Z</time>
<speed>0.0</speed>
</trkpt>
<trkpt lat="47.372434" lon="7.848258">
<ele>727.0</ele>
<time>2003-02-20T12:09:52Z</time>
<speed>0.0</speed>
</trkpt>
<trkpt lat="47.372434" lon="7.848258">
<ele>727.0</ele>
<time>2003-02-20T12:09:57Z</time>
<speed>0.0</speed>
</trkpt>
<trkpt lat="47.372434" lon="7.848258">
<ele>727.0</ele>
<time>2003-02-20T12:10:02Z</time>
<speed>0.1</speed>
</trkpt>
<trkpt lat="47.372428" lon="7.848258">
<ele>726.3</ele>
<time>2003-02-20T12:10:07Z</time>
<speed>0.0</speed>
</trkpt>
<trkpt lat="47.372428" lon="7.848258">
<ele>726.3</ele>
<time>2003-02-20T12:10:12Z</time>
<speed>0.0</speed>
</trkpt>
<trkpt lat="47.372428" lon="7.848258">
<ele>726.3</ele>
<time>2003-02-20T12:10:17Z</time>
<speed>0.0</speed>
</trkpt>
<trkpt lat="47.372428" lon="7.848258">
<ele>726.3</ele>
<time>2003-02-20T12:10:22Z</time>
<speed>0.0</speed>
</trkpt>
<trkpt lat="47.372428" lon="7.848258">
<ele>726.3</ele>
<time>2003-02-20T12:10:27Z</time>
<speed>0.0</speed>
</trkpt>
<trkpt lat="47.372428" lon="7.848258">
<ele>726.3</ele>
<time>2003-02-20T12:10:32Z</time>
<speed>0.0</speed>
</trkpt>
<trkpt lat="47.372428" lon="7.848258">
<ele>726.3</ele>
<time>2003-02-20T12:10:37Z</time>
<speed>0.0</speed>
</trkpt>
<trkpt lat="47.372428" lon="7.848258">
<ele>726.3</ele>
<time>2003-02-20T12:10:42Z</time>
<speed>0.0</speed>
</trkpt>
<trkpt lat="47.372428" lon="7.848258">
<ele>726.3</ele>
<time>2003-02-20T12:10:47Z</time>
<speed>0.0</speed>
</trkpt>
<trkpt lat="47.372428" lon="7.848258">
<ele>726.3</ele>
<time>2003-02-20T12:10:52Z</time>
<speed>0.0</speed>
</trkpt>
<trkpt lat="47.372428" lon="7.848258">
<ele>726.3</ele>
<time>2003-02-20T12:10:57Z</time>
<speed>0.0</speed>
</trkpt>
<trkpt lat="47.372428" lon="7.848258">
<ele>726.3</ele>
<time>2003-02-20T12:11:02Z</time>
<speed>0.2</speed>
</trkpt>
<trkpt lat="47.372427" lon="7.848271">
<ele>726.4</ele>
<time>2003-02-20T12:11:07Z</time>
<speed>0.0</speed>
</trkpt>
<trkpt lat="47.372427" lon="7.848271">
<ele>726.4</ele>
<time>2003-02-20T12:11:12Z</time>
<speed>0.0</speed>
</trkpt>
<trkpt lat="47.372427" lon="7.848271">
<ele>726.4</ele>
<time>2003-02-20T12:11:17Z</time>
<speed>0.2</speed>
</trkpt>
<trkpt lat="47.372434" lon="7.848273">
<ele>725.7</ele>
<time>2003-02-20T12:11:22Z</time>
<speed>0.0</speed>
</trkpt>
<trkpt lat="47.372434" lon="7.848273">
<ele>725.7</ele>
<time>2003-02-20T12:11:27Z</time>
<speed>0.0</speed>
</trkpt>
<trkpt lat="47.372434" lon="7.848273">
<ele>725.7</ele>
<time>2003-02-20T12:11:32Z</time>
<speed>0.0</speed>
</trkpt>
<trkpt lat="47.372434" lon="7.848273">
<ele>725.7</ele>
<time>2003-02-20T12:11:37Z</time>
<speed>0.0</speed>
</trkpt>
<trkpt lat="47.372434" lon="7.848273">
<ele>725.7</ele>
<time>2003-02-20T12:11:42Z</time>
<speed>0.0</speed>
</trkpt>
<trkpt lat="47.372434" lon="7.848273">
<ele>725.7</ele>
<time>2003-02-20T12:11:47Z</time>
<speed>0.0</speed>
</trkpt>
<trkpt lat="47.372434" lon="7.848273">
<ele>725.7</ele>
<time>2003-02-20T12:11:52Z</time>
<speed>0.0</speed>
</trkpt>
<trkpt lat="47.372434" lon="7.848273">
<ele>725.7</ele>
<time>2003-02-20T12:11:57Z</time>
<speed>0.0</speed>
</trkpt>
<trkpt lat="47.372434" lon="7.848273">
<ele>725.7</ele>
<time>2003-02-20T12:12:02Z</time>
<speed>0.0</speed>
</trkpt>
<trkpt lat="47.372434" lon="7.848273">
<ele>725.7</ele>
<time>2003-02-20T12:12:07Z</time>
<speed>0.0</speed>
</trkpt>
<trkpt lat="47.372434" lon="7.848273">
<ele>725.7</ele>
<time>2003-02-20T12:12:12Z</time>
<speed>0.0</speed>
</trkpt>
<trkpt lat="47.372434" lon="7.848273">
<ele>725.7</ele>
<time>2003-02-20T12:12:17Z</time>
<speed>0.0</speed>
</trkpt>
<trkpt lat="47.372434" lon="7.848273">
<ele>725.7</ele>
<time>2003-02-20T12:12:22Z</time>
<speed>0.0</speed>
</trkpt>
<trkpt lat="47.372434" lon="7.848273">
<ele>725.7</ele>
<time>2003-02-20T12:12:27Z</time>
<speed>0.0</speed>
</trkpt>
<trkpt lat="47.372434" lon="7.848273">
<ele>725.7</ele>
<time>2003-02-20T12:12:32Z</time>
<speed>0.0</speed>
</trkpt>
<trkpt lat="47.372434" lon="7.848273">
<ele>725.7</ele>
<time>2003-02-20T12:12:37Z</time>
<speed>0.0</speed>
</trkpt>
<trkpt lat="47.372434" lon="7.848273">
<ele>725.7</ele>
<time>2003-02-20T12:12:42Z</time>
<speed>0.0</speed>
</trkpt>
<trkpt lat="47.372434" lon="7.848273">
<ele>725.7</ele>
<time>2003-02-20T12:12:47Z</time>
<speed>0.0</speed>
</trkpt>
<trkpt lat="47.372434" lon="7.848273">
<ele>725.7</ele>
<time>2003-02-20T12:12:52Z</time>
<speed>0.0</speed>
</trkpt>
<trkpt lat="47.372434" lon="7.848273">
<ele>725.7</ele>
<time>2003-02-20T12:12:57Z</time>
<speed>0.0</speed>
</trkpt>
<trkpt lat="47.372434" lon="7.848273">
<ele>725.7</ele>
<time>2003-02-20T12:13:02Z</time>
<speed>0.0</speed>
</trkpt>
<trkpt lat="47.372434" lon="7.848273">
<ele>725.7</ele>
<time>2003-02-20T12:13:07Z</time>
<speed>0.0</speed>
</trkpt>
<trkpt lat="47.372434" lon="7.848273">
<ele>725.7</ele>
<time>2003-02-20T12:13:12Z</time>
<speed>0.0</speed>
</trkpt>
<trkpt lat="47.372434" lon="7.848273">
<ele>725.7</ele>
<time>2003-02-20T12:13:17Z</time>
<speed>0.1</speed>
</trkpt>
<trkpt lat="47.372440" lon="7.848275">
<ele>725.0</ele>
<time>2003-02-20T12:13:22Z</time>
<speed>0.0</speed>
</trkpt>
<trkpt lat="47.372440" lon="7.848275">
<ele>725.0</ele>
<time>2003-02-20T12:13:27Z</time>
<speed>0.0</speed>
</trkpt>
<trkpt lat="47.372440" lon="7.848275">
<ele>725.0</ele>
<time>2003-02-20T12:13:32Z</time>
<speed>0.0</speed>
</trkpt>
<trkpt lat="47.372440" lon="7.848275">
<ele>725.0</ele>
<time>2003-02-20T12:13:37Z</time>
<speed>0.0</speed>
</trkpt>
<trkpt lat="47.372440" lon="7.848275">
<ele>725.0</ele>
<time>2003-02-20T12:13:42Z</time>
<speed>0.0</speed>
</trkpt>
<trkpt lat="47.372440" lon="7.848275">
<ele>725.0</ele>
<time>2003-02-20T12:13:47Z</time>
<speed>0.0</speed>
</trkpt>
<trkpt lat="47.372440" lon="7.848275">
<ele>725.0</ele>
<time>2003-02-20T12:13:52Z</time>
<speed>0.2</speed>
</trkpt>
<trkpt lat="47.372441" lon="7.848262">
<ele>724.9</ele>
<time>2003-02-20T12:13:57Z</time>
<speed>0.0</speed>
</trkpt>
<trkpt lat="47.372441" lon="7.848262">
<ele>724.9</ele>
<time>2003-02-20T12:14:02Z</time>
<speed>0.0</speed>
</trkpt>
<trkpt lat="47.372441" lon="7.848262">
<ele>724.9</ele>
<time>2003-02-20T12:14:07Z</time>
<speed>0.0</speed>
</trkpt>
<trkpt lat="47.372441" lon="7.848262">
<ele>724.9</ele>
<time>2003-02-20T12:14:12Z</time>
<speed>0.0</speed>
</trkpt>
<trkpt lat="47.372441" lon="7.848262">
<ele>724.9</ele>
<time>2003-02-20T12:14:17Z</time>
<speed>0.0</speed>
</trkpt>
<trkpt lat="47.372441" lon="7.848262">
<ele>724.9</ele>
<time>2003-02-20T12:14:22Z</time>
<speed>0.0</speed>
</trkpt>
<trkpt lat="47.372441" lon="7.848262">
<ele>724.9</ele>
<time>2003-02-20T12:14:27Z</time>
<speed>0.0</speed>
</trkpt>
<trkpt lat="47.372441" lon="7.848262">
<ele>724.9</ele>
<time>2003-02-20T12:14:32Z</time>
<speed>0.4</speed>
</trkpt>
<trkpt lat="47.372455" lon="7.848251">
<ele>724.9</ele>
<time>2003-02-20T12:14:37Z</time>
<speed>0.0</speed>
</trkpt>
<trkpt lat="47.372455" lon="7.848251">
<ele>724.9</ele>
<time>2003-02-20T12:14:42Z</time>
<speed>0.0</speed>
</trkpt>
<trkpt lat="47.372455" lon="7.848251">
<ele>724.9</ele>
<time>2003-02-20T12:14:47Z</time>
<speed>0.0</speed>
</trkpt>
<trkpt lat="47.372455" lon="7.848251">
<ele>724.9</ele>
<time>2003-02-20T12:14:52Z</time>
<speed>0.0</speed>
</trkpt>
<trkpt lat="47.372455" lon="7.848251">
<ele>724.9</ele>
<time>2003-02-20T12:14:57Z</time>
<speed>0.0</speed>
</trkpt>
<trkpt lat="47.372455" lon="7.848251">
<ele>724.9</ele>
<time>2003-02-20T12:15:02Z</time>
<speed>0.0</speed>
</trkpt>
<trkpt lat="47.372455" lon="7.848251">
<ele>724.9</ele>
<time>2003-02-20T12:15:07Z</time>
<speed>0.0</speed>
</trkpt>
<trkpt lat="47.372455" lon="7.848251">
<ele>724.9</ele>
<time>2003-02-20T12:15:12Z</time>
<speed>0.0</speed>
</trkpt>
<trkpt lat="47.372455" lon="7.848251">
<ele>724.9</ele>
<time>2003-02-20T12:15:17Z</time>
<speed>0.1</speed>
</trkpt>
<trkpt lat="47.372461" lon="7.848252">
<ele>724.2</ele>
<time>2003-02-20T12:15:22Z</time>
<speed>0.2</speed>
</trkpt>
<trkpt lat="47.372462" lon="7.848239">
<ele>724.1</ele>
<time>2003-02-20T12:15:27Z</time>
<speed>0.3</speed>
</trkpt>
<trkpt lat="47.372475" lon="7.848241">
<ele>724.2</ele>
<time>2003-02-20T12:15:32Z</time>
<speed>0.0</speed>
</trkpt>
<trkpt lat="47.372475" lon="7.848241">
<ele>724.2</ele>
<time>2003-02-20T12:15:37Z</time>
<speed>0.1</speed>
</trkpt>
<trkpt lat="47.372469" lon="7.848241">
<ele>723.5</ele>
<time>2003-02-20T12:15:42Z</time>
<speed>0.0</speed>
</trkpt>
<trkpt lat="47.372469" lon="7.848241">
<ele>723.5</ele>
<time>2003-02-20T12:15:47Z</time>
<speed>0.1</speed>
</trkpt>
<trkpt lat="47.372475" lon="7.848241">
<ele>724.2</ele>
<time>2003-02-20T12:15:52Z</time>
<speed>0.0</speed>
</trkpt>
<trkpt lat="47.372475" lon="7.848241">
<ele>724.2</ele>
<time>2003-02-20T12:15:57Z</time>
<speed>0.0</speed>
</trkpt>
<trkpt lat="47.372475" lon="7.848241">
<ele>724.2</ele>
<time>2003-02-20T12:16:02Z</time>
<speed>0.0</speed>
</trkpt>
<trkpt lat="47.372475" lon="7.848241">
<ele>724.2</ele>
<time>2003-02-20T12:16:07Z</time>
<speed>0.0</speed>
</trkpt>
<trkpt lat="47.372475" lon="7.848241">
<ele>724.2</ele>
<time>2003-02-20T12:16:12Z</time>
<speed>0.0</speed>
</trkpt>
<trkpt lat="47.372475" lon="7.848241">
<ele>724.2</ele>
<time>2003-02-20T12:16:17Z</time>
<speed>0.0</speed>
</trkpt>
<trkpt lat="47.372475" lon="7.848241">
<ele>724.2</ele>
<time>2003-02-20T12:16:22Z</time>
<speed>0.0</speed>
</trkpt>
<trkpt lat="47.372475" lon="7.848241">
<ele>724.2</ele>
<time>2003-02-20T12:16:27Z</time>
<speed>0.0</speed>
</trkpt>
<trkpt lat="47.372475" lon="7.848241">
<ele>724.2</ele>
<time>2003-02-20T12:16:32Z</time>
<speed>0.0</speed>
</trkpt>
<trkpt lat="47.372475" lon="7.848241">
<ele>724.2</ele>
<time>2003-02-20T12:16:37Z</time>
<speed>0.0</speed>
</trkpt>
<trkpt lat="47.372475" lon="7.848241">
<ele>724.2</ele>
<time>2003-02-20T12:16:42Z</time>
<speed>0.0</speed>
</trkpt>
<trkpt lat="47.372475" lon="7.848241">
<ele>724.2</ele>
<time>2003-02-20T12:16:47Z</time>
<speed>0.1</speed>
</trkpt>
<trkpt lat="47.372481" lon="7.848243">
<ele>723.5</ele>
<time>2003-02-20T12:16:52Z</time>
<speed>0.2</speed>
</trkpt>
<trkpt lat="47.372482" lon="7.848230">
<ele>723.4</ele>
<time>2003-02-20T12:16:57Z</time>
<speed>0.0</speed>
</trkpt>
<trkpt lat="47.372482" lon="7.848230">
<ele>723.4</ele>
<time>2003-02-20T12:17:02Z</time>
<speed>0.0</speed>
</trkpt>
<trkpt lat="47.372482" lon="7.848230">
<ele>723.4</ele>
<time>2003-02-20T12:17:07Z</time>
<speed>0.0</speed>
</trkpt>
<trkpt lat="47.372482" lon="7.848230">
<ele>723.4</ele>
<time>2003-02-20T12:17:12Z</time>
<speed>0.0</speed>
</trkpt>
<trkpt lat="47.372482" lon="7.848230">
<ele>723.4</ele>
<time>2003-02-20T12:17:17Z</time>
<speed>0.0</speed>
</trkpt>
<trkpt lat="47.372482" lon="7.848230">
<ele>723.4</ele>
<time>2003-02-20T12:17:22Z</time>
<speed>0.5</speed>
</trkpt>
<trkpt lat="47.372497" lon="7.848205">
<ele>723.3</ele>
<time>2003-02-20T12:17:27Z</time>
<speed>0.0</speed>
</trkpt>
<trkpt lat="47.372497" lon="7.848205">
<ele>723.3</ele>
<time>2003-02-20T12:17:32Z</time>
<speed>0.0</speed>
</trkpt>
<trkpt lat="47.372497" lon="7.848205">
<ele>723.3</ele>
<time>2003-02-20T12:17:37Z</time>
<speed>0.1</speed>
</trkpt>
<trkpt lat="47.372503" lon="7.848205">
<ele>724.1</ele>
<time>2003-02-20T12:17:42Z</time>
<speed>0.1</speed>
</trkpt>
<trkpt lat="47.372497" lon="7.848205">
<ele>723.3</ele>
<time>2003-02-20T12:17:47Z</time>
<speed>0.0</speed>
</trkpt>
<trkpt lat="47.372497" lon="7.848205">
<ele>723.3</ele>
<time>2003-02-20T12:17:52Z</time>
<speed>0.0</speed>
</trkpt>
<trkpt lat="47.372497" lon="7.848205">
<ele>723.3</ele>
<time>2003-02-20T12:17:57Z</time>
<speed>0.0</speed>
</trkpt>
<trkpt lat="47.372497" lon="7.848205">
<ele>723.3</ele>
<time>2003-02-20T12:18:02Z</time>
<speed>0.0</speed>
</trkpt>
<trkpt lat="47.372497" lon="7.848205">
<ele>723.3</ele>
<time>2003-02-20T12:18:07Z</time>
<speed>0.0</speed>
</trkpt>
<trkpt lat="47.372497" lon="7.848205">
<ele>723.3</ele>
<time>2003-02-20T12:18:12Z</time>
<speed>0.0</speed>
</trkpt>
<trkpt lat="47.372497" lon="7.848205">
<ele>723.3</ele>
<time>2003-02-20T12:18:17Z</time>
<speed>0.0</speed>
</trkpt>
<trkpt lat="47.372497" lon="7.848205">
<ele>723.3</ele>
<time>2003-02-20T12:18:22Z</time>
<speed>0.0</speed>
</trkpt>
<trkpt lat="47.372497" lon="7.848205">
<ele>723.3</ele>
<time>2003-02-20T12:18:27Z</time>
<speed>0.0</speed>
</trkpt>
<trkpt lat="47.372497" lon="7.848205">
<ele>723.3</ele>
<time>2003-02-20T12:18:32Z</time>
<speed>0.0</speed>
</trkpt>
<trkpt lat="47.372497" lon="7.848205">
<ele>723.3</ele>
<time>2003-02-20T12:18:37Z</time>
<speed>0.2</speed>
</trkpt>
<trkpt lat="47.372498" lon="7.848192">
<ele>723.2</ele>
<time>2003-02-20T12:18:42Z</time>
<speed>0.0</speed>
</trkpt>
<trkpt lat="47.372498" lon="7.848192">
<ele>723.2</ele>
<time>2003-02-20T12:18:47Z</time>
<speed>0.0</speed>
</trkpt>
<trkpt lat="47.372498" lon="7.848192">
<ele>723.2</ele>
<time>2003-02-20T12:18:52Z</time>
<speed>0.0</speed>
</trkpt>
<trkpt lat="47.372498" lon="7.848192">
<ele>723.2</ele>
<time>2003-02-20T12:18:57Z</time>
<speed>0.0</speed>
</trkpt>
<trkpt lat="47.372498" lon="7.848192">
<ele>723.2</ele>
<time>2003-02-20T12:19:02Z</time>
<speed>0.0</speed>
</trkpt>
<trkpt lat="47.372498" lon="7.848192">
<ele>723.2</ele>
<time>2003-02-20T12:19:07Z</time>
<speed>0.0</speed>
</trkpt>
<trkpt lat="47.372498" lon="7.848192">
<ele>723.2</ele>
<time>2003-02-20T12:19:12Z</time>
<speed>0.0</speed>
</trkpt>
<trkpt lat="47.372498" lon="7.848192">
<ele>723.2</ele>
<time>2003-02-20T12:19:17Z</time>
<speed>0.0</speed>
</trkpt>
<trkpt lat="47.372498" lon="7.848192">
<ele>723.2</ele>
<time>2003-02-20T12:19:22Z</time>
<speed>0.0</speed>
</trkpt>
<trkpt lat="47.372498" lon="7.848192">
<ele>723.2</ele>
<time>2003-02-20T12:19:27Z</time>
<speed>0.0</speed>
</trkpt>
<trkpt lat="47.372498" lon="7.848192">
<ele>723.2</ele>
<time>2003-02-20T12:19:32Z</time>
<speed>0.0</speed>
</trkpt>
<trkpt lat="47.372498" lon="7.848192">
<ele>723.2</ele>
<time>2003-02-20T12:19:37Z</time>
<speed>0.0</speed>
</trkpt>
<trkpt lat="47.372498" lon="7.848192">
<ele>723.2</ele>
<time>2003-02-20T12:19:42Z</time>
<speed>0.0</speed>
</trkpt>
<trkpt lat="47.372498" lon="7.848192">
<ele>723.2</ele>
<time>2003-02-20T12:19:47Z</time>
<speed>0.0</speed>
</trkpt>
<trkpt lat="47.372498" lon="7.848192">
<ele>723.2</ele>
<time>2003-02-20T12:19:52Z</time>
<speed>0.0</speed>
</trkpt>
<trkpt lat="47.372498" lon="7.848192">
<ele>723.2</ele>
<time>2003-02-20T12:19:57Z</time>
<speed>0.0</speed>
</trkpt>
<trkpt lat="47.372498" lon="7.848192">
<ele>723.2</ele>
<time>2003-02-20T12:20:02Z</time>
<speed>0.0</speed>
</trkpt>
<trkpt lat="47.372498" lon="7.848192">
<ele>723.2</ele>
<time>2003-02-20T12:20:07Z</time>
<speed>0.0</speed>
</trkpt>
<trkpt lat="47.372498" lon="7.848192">
<ele>723.2</ele>
<time>2003-02-20T12:20:12Z</time>
<speed>0.0</speed>
</trkpt>
<trkpt lat="47.372498" lon="7.848192">
<ele>723.2</ele>
<time>2003-02-20T12:20:17Z</time>
<speed>0.0</speed>
</trkpt>
<trkpt lat="47.372498" lon="7.848192">
<ele>723.2</ele>
<time>2003-02-20T12:20:22Z</time>
<speed>0.0</speed>
</trkpt>
<trkpt lat="47.372498" lon="7.848192">
<ele>723.2</ele>
<time>2003-02-20T12:20:27Z</time>
<speed>0.0</speed>
</trkpt>
<trkpt lat="47.372498" lon="7.848192">
<ele>723.2</ele>
<time>2003-02-20T12:20:32Z</time>
<speed>0.0</speed>
</trkpt>
<trkpt lat="47.372498" lon="7.848192">
<ele>723.2</ele>
<time>2003-02-20T12:20:37Z</time>
<speed>0.0</speed>
</trkpt>
<trkpt lat="47.372498" lon="7.848192">
<ele>723.2</ele>
<time>2003-02-20T12:20:42Z</time>
<speed>0.0</speed>
</trkpt>
<trkpt lat="47.372498" lon="7.848192">
<ele>723.2</ele>
<time>2003-02-20T12:20:47Z</time>
<speed>0.0</speed>
</trkpt>
<trkpt lat="47.372498" lon="7.848192">
<ele>723.2</ele>
<time>2003-02-20T12:20:52Z</time>
<speed>0.0</speed>
</trkpt>
<trkpt lat="47.372498" lon="7.848192">
<ele>723.2</ele>
<time>2003-02-20T12:20:57Z</time>
<speed>0.0</speed>
</trkpt>
<trkpt lat="47.372498" lon="7.848192">
<ele>723.2</ele>
<time>2003-02-20T12:21:02Z</time>
<speed>0.0</speed>
</trkpt>
<trkpt lat="47.372498" lon="7.848192">
<ele>723.2</ele>
<time>2003-02-20T12:21:07Z</time>
<speed>0.2</speed>
</trkpt>
<trkpt lat="47.372497" lon="7.848205">
<ele>723.3</ele>
<time>2003-02-20T12:21:12Z</time>
<speed>0.0</speed>
</trkpt>
<trkpt lat="47.372497" lon="7.848205">
<ele>723.3</ele>
<time>2003-02-20T12:21:17Z</time>
<speed>0.2</speed>
</trkpt>
<trkpt lat="47.372490" lon="7.848203">
<ele>724.0</ele>
<time>2003-02-20T12:21:22Z</time>
<speed>0.0</speed>
</trkpt>
<trkpt lat="47.372490" lon="7.848203">
<ele>724.0</ele>
<time>2003-02-20T12:21:27Z</time>
<speed>0.0</speed>
</trkpt>
<trkpt lat="47.372490" lon="7.848203">
<ele>724.0</ele>
<time>2003-02-20T12:21:32Z</time>
<speed>0.0</speed>
</trkpt>
<trkpt lat="47.372490" lon="7.848203">
<ele>724.0</ele>
<time>2003-02-20T12:21:37Z</time>
<speed>0.2</speed>
</trkpt>
<trkpt lat="47.372489" lon="7.848217">
<ele>724.1</ele>
<time>2003-02-20T12:21:42Z</time>
<speed>0.0</speed>
</trkpt>
<trkpt lat="47.372489" lon="7.848217">
<ele>724.1</ele>
<time>2003-02-20T12:21:47Z</time>
<speed>0.0</speed>
</trkpt>
<trkpt lat="47.372489" lon="7.848217">
<ele>724.1</ele>
<time>2003-02-20T12:21:52Z</time>
<speed>0.0</speed>
</trkpt>
<trkpt lat="47.372489" lon="7.848217">
<ele>724.1</ele>
<time>2003-02-20T12:21:57Z</time>
<speed>0.0</speed>
</trkpt>
<trkpt lat="47.372489" lon="7.848217">
<ele>724.1</ele>
<time>2003-02-20T12:22:02Z</time>
<speed>0.0</speed>
</trkpt>
<trkpt lat="47.372489" lon="7.848217">
<ele>724.1</ele>
<time>2003-02-20T12:22:07Z</time>
<speed>0.0</speed>
</trkpt>
<trkpt lat="47.372489" lon="7.848217">
<ele>724.1</ele>
<time>2003-02-20T12:22:12Z</time>
<speed>0.0</speed>
</trkpt>
<trkpt lat="47.372489" lon="7.848217">
<ele>724.1</ele>
<time>2003-02-20T12:22:17Z</time>
<speed>0.0</speed>
</trkpt>
<trkpt lat="47.372489" lon="7.848217">
<ele>724.1</ele>
<time>2003-02-20T12:22:22Z</time>
<speed>0.0</speed>
</trkpt>
<trkpt lat="47.372489" lon="7.848217">
<ele>724.1</ele>
<time>2003-02-20T12:22:27Z</time>
<speed>0.0</speed>
</trkpt>
<trkpt lat="47.372489" lon="7.848217">
<ele>724.1</ele>
<time>2003-02-20T12:22:32Z</time>
<speed>0.0</speed>
</trkpt>
<trkpt lat="47.372489" lon="7.848217">
<ele>724.1</ele>
<time>2003-02-20T12:22:37Z</time>
<speed>0.0</speed>
</trkpt>
<trkpt lat="47.372489" lon="7.848217">
<ele>724.1</ele>
<time>2003-02-20T12:22:42Z</time>
<speed>0.1</speed>
</trkpt>
<trkpt lat="47.372483" lon="7.848217">
<ele>723.3</ele>
<time>2003-02-20T12:22:47Z</time>
<speed>0.0</speed>
</trkpt>
<trkpt lat="47.372483" lon="7.848217">
<ele>723.3</ele>
<time>2003-02-20T12:22:52Z</time>
<speed>0.0</speed>
</trkpt>
<trkpt lat="47.372483" lon="7.848217">
<ele>723.3</ele>
<time>2003-02-20T12:22:57Z</time>
<speed>0.0</speed>
</trkpt>
<trkpt lat="47.372483" lon="7.848217">
<ele>723.3</ele>
<time>2003-02-20T12:23:02Z</time>
<speed>0.0</speed>
</trkpt>
<trkpt lat="47.372483" lon="7.848217">
<ele>723.3</ele>
<time>2003-02-20T12:23:07Z</time>
<speed>0.0</speed>
</trkpt>
<trkpt lat="47.372483" lon="7.848217">
<ele>723.3</ele>
<time>2003-02-20T12:23:12Z</time>
<speed>0.0</speed>
</trkpt>
<trkpt lat="47.372483" lon="7.848217">
<ele>723.3</ele>
<time>2003-02-20T12:23:17Z</time>
<speed>0.0</speed>
</trkpt>
<trkpt lat="47.372483" lon="7.848217">
<ele>723.3</ele>
<time>2003-02-20T12:23:22Z</time>
<speed>0.0</speed>
</trkpt>
<trkpt lat="47.372483" lon="7.848217">
<ele>723.3</ele>
<time>2003-02-20T12:23:27Z</time>
<speed>0.0</speed>
</trkpt>
<trkpt lat="47.372483" lon="7.848217">
<ele>723.3</ele>
<time>2003-02-20T12:23:32Z</time>
<speed>0.0</speed>
</trkpt>
<trkpt lat="47.372483" lon="7.848215">
<ele>724.8</ele>
<time>2003-02-20T12:23:37Z</time>
<speed>0.0</speed>
</trkpt>
<trkpt lat="47.372483" lon="7.848215">
<ele>724.8</ele>
<time>2003-02-20T12:23:42Z</time>
<speed>0.0</speed>
</trkpt>
<trkpt lat="47.372483" lon="7.848215">
<ele>724.8</ele>
<time>2003-02-20T12:23:47Z</time>
<speed>0.3</speed>
</trkpt>
<trkpt lat="47.372496" lon="7.848203">
<ele>724.7</ele>
<time>2003-02-20T12:23:52Z</time>
<speed>0.3</speed>
</trkpt>
<trkpt lat="47.372489" lon="7.848217">
<ele>724.1</ele>
<time>2003-02-20T12:23:57Z</time>
<speed>0.2</speed>
</trkpt>
<trkpt lat="47.372490" lon="7.848203">
<ele>724.0</ele>
<time>2003-02-20T12:24:02Z</time>
<speed>0.0</speed>
</trkpt>
<trkpt lat="47.372490" lon="7.848203">
<ele>724.0</ele>
<time>2003-02-20T12:24:07Z</time>
<speed>0.0</speed>
</trkpt>
<trkpt lat="47.372490" lon="7.848203">
<ele>724.0</ele>
<time>2003-02-20T12:24:12Z</time>
<speed>0.1</speed>
</trkpt>
<trkpt lat="47.372484" lon="7.848202">
<ele>724.7</ele>
<time>2003-02-20T12:24:17Z</time>
<speed>0.0</speed>
</trkpt>
<trkpt lat="47.372484" lon="7.848202">
<ele>724.7</ele>
<time>2003-02-20T12:24:22Z</time>
<speed>0.6</speed>
</trkpt>
<trkpt lat="47.372492" lon="7.848162">
<ele>725.1</ele>
<time>2003-02-20T12:24:27Z</time>
<speed>0.5</speed>
</trkpt>
<trkpt lat="47.372482" lon="7.848134">
<ele>724.9</ele>
<time>2003-02-20T12:24:32Z</time>
<speed>0.0</speed>
</trkpt>
<trkpt lat="47.372482" lon="7.848134">
<ele>724.9</ele>
<time>2003-02-20T12:24:37Z</time>
<speed>0.3</speed>
</trkpt>
<trkpt lat="47.372487" lon="7.848149">
<ele>724.3</ele>
<time>2003-02-20T12:24:42Z</time>
<speed>0.0</speed>
</trkpt>
<trkpt lat="47.372487" lon="7.848149">
<ele>724.3</ele>
<time>2003-02-20T12:24:47Z</time>
<speed>0.0</speed>
</trkpt>
<trkpt lat="47.372487" lon="7.848149">
<ele>724.3</ele>
<time>2003-02-20T12:24:52Z</time>
<speed>0.2</speed>
</trkpt>
<trkpt lat="47.372486" lon="7.848162">
<ele>724.4</ele>
<time>2003-02-20T12:24:57Z</time>
<speed>1.1</speed>
</trkpt>
<trkpt lat="47.372451" lon="7.848209">
<ele>725.3</ele>
<time>2003-02-20T12:25:02Z</time>
<speed>0.0</speed>
</trkpt>
<trkpt lat="47.372451" lon="7.848209">
<ele>725.3</ele>
<time>2003-02-20T12:25:07Z</time>
<speed>0.0</speed>
</trkpt>
<trkpt lat="47.372451" lon="7.848209">
<ele>725.3</ele>
<time>2003-02-20T12:25:12Z</time>
<speed>0.1</speed>
</trkpt>
<trkpt lat="47.372445" lon="7.848209">
<ele>724.6</ele>
<time>2003-02-20T12:25:17Z</time>
<speed>0.5</speed>
</trkpt>
<trkpt lat="47.372463" lon="7.848226">
<ele>724.0</ele>
<time>2003-02-20T12:25:22Z</time>
<speed>0.0</speed>
</trkpt>
<trkpt lat="47.372463" lon="7.848226">
<ele>724.0</ele>
<time>2003-02-20T12:25:27Z</time>
<speed>0.0</speed>
</trkpt>
<trkpt lat="47.372463" lon="7.848226">
<ele>724.0</ele>
<time>2003-02-20T12:25:32Z</time>
<speed>0.0</speed>
</trkpt>
<trkpt lat="47.372463" lon="7.848226">
<ele>724.0</ele>
<time>2003-02-20T12:25:37Z</time>
<speed>0.0</speed>
</trkpt>
<trkpt lat="47.372463" lon="7.848226">
<ele>724.0</ele>
<time>2003-02-20T12:25:42Z</time>
<speed>0.0</speed>
</trkpt>
<trkpt lat="47.372463" lon="7.848226">
<ele>724.0</ele>
<time>2003-02-20T12:25:47Z</time>
<speed>0.0</speed>
</trkpt>
<trkpt lat="47.372463" lon="7.848226">
<ele>724.0</ele>
<time>2003-02-20T12:25:52Z</time>
<speed>0.0</speed>
</trkpt>
<trkpt lat="47.372463" lon="7.848226">
<ele>724.0</ele>
<time>2003-02-20T12:25:57Z</time>
<speed>0.2</speed>
</trkpt>
<trkpt lat="47.372470" lon="7.848228">
<ele>723.4</ele>
<time>2003-02-20T12:26:02Z</time>
<speed>0.4</speed>
</trkpt>
<trkpt lat="47.372471" lon="7.848202">
<ele>723.2</ele>
<time>2003-02-20T12:26:07Z</time>
<speed>1.0</speed>
</trkpt>
<trkpt lat="47.372469" lon="7.848134">
<ele>723.4</ele>
<time>2003-02-20T12:26:12Z</time>
<speed>0.1</speed>
</trkpt>
<trkpt lat="47.372463" lon="7.848134">
<ele>722.7</ele>
<time>2003-02-20T12:26:17Z</time>
<speed>0.8</speed>
</trkpt>
<trkpt lat="47.372480" lon="7.848179">
<ele>720.9</ele>
<time>2003-02-20T12:26:22Z</time>
<speed>1.7</speed>
</trkpt>
<trkpt lat="47.372448" lon="7.848282">
<ele>720.1</ele>
<time>2003-02-20T12:26:27Z</time>
<speed>0.8</speed>
</trkpt>
<trkpt lat="47.372480" lon="7.848303">
<ele>718.3</ele>
<time>2003-02-20T12:26:32Z</time>
<speed>0.9</speed>
</trkpt>
<trkpt lat="47.372495" lon="7.848359">
<ele>718.0</ele>
<time>2003-02-20T12:26:37Z</time>
<speed>1.3</speed>
</trkpt>
<trkpt lat="47.372552" lon="7.848368">
<ele>717.6</ele>
<time>2003-02-20T12:26:42Z</time>
<speed>1.1</speed>
</trkpt>
<trkpt lat="47.372567" lon="7.848437">
<ele>717.5</ele>
<time>2003-02-20T12:26:47Z</time>
<speed>1.0</speed>
</trkpt>
<trkpt lat="47.372604" lon="7.848470">
<ele>716.5</ele>
<time>2003-02-20T12:26:52Z</time>
<speed>1.4</speed>
</trkpt>
<trkpt lat="47.372592" lon="7.848564">
<ele>715.0</ele>
<time>2003-02-20T12:26:57Z</time>
<speed>2.0</speed>
</trkpt>
<trkpt lat="47.372570" lon="7.848695">
<ele>714.4</ele>
<time>2003-02-20T12:27:02Z</time>
<speed>2.8</speed>
</trkpt>
<trkpt lat="47.372515" lon="7.848862">
<ele>713.3</ele>
<time>2003-02-20T12:27:07Z</time>
<speed>1.6</speed>
</trkpt>
<trkpt lat="47.372508" lon="7.848969">
<ele>712.6</ele>
<time>2003-02-20T12:27:12Z</time>
<speed>0.9</speed>
</trkpt>
<trkpt lat="47.372524" lon="7.849025">
<ele>712.4</ele>
<time>2003-02-20T12:27:17Z</time>
<speed>1.6</speed>
</trkpt>
<trkpt lat="47.372505" lon="7.849130">
<ele>711.6</ele>
<time>2003-02-20T12:27:22Z</time>
<speed>1.7</speed>
</trkpt>
<trkpt lat="47.372479" lon="7.849233">
<ele>711.6</ele>
<time>2003-02-20T12:27:27Z</time>
<speed>0.8</speed>
</trkpt>
<trkpt lat="47.372475" lon="7.849287">
<ele>710.5</ele>
<time>2003-02-20T12:27:32Z</time>
<speed>1.9</speed>
</trkpt>
<trkpt lat="47.372442" lon="7.849401">
<ele>711.2</ele>
<time>2003-02-20T12:27:37Z</time>
<speed>1.7</speed>
</trkpt>
<trkpt lat="47.372416" lon="7.849505">
<ele>711.2</ele>
<time>2003-02-20T12:27:42Z</time>
<speed>0.7</speed>
</trkpt>
<trkpt lat="47.372433" lon="7.849548">
<ele>710.9</ele>
<time>2003-02-20T12:27:47Z</time>
<speed>0.4</speed>
</trkpt>
<trkpt lat="47.372452" lon="7.849551">
<ele>710.3</ele>
<time>2003-02-20T12:27:52Z</time>
<speed>1.4</speed>
</trkpt>
<trkpt lat="47.372433" lon="7.849643">
<ele>709.4</ele>
<time>2003-02-20T12:27:57Z</time>
<speed>1.1</speed>
</trkpt>
<trkpt lat="47.372417" lon="7.849709">
<ele>708.4</ele>
<time>2003-02-20T12:28:02Z</time>
<speed>0.6</speed>
</trkpt>
<trkpt lat="47.372434" lon="7.849738">
<ele>708.0</ele>
<time>2003-02-20T12:28:07Z</time>
<speed>0.8</speed>
</trkpt>
<trkpt lat="47.372431" lon="7.849793">
<ele>707.0</ele>
<time>2003-02-20T12:28:12Z</time>
<speed>0.9</speed>
</trkpt>
<trkpt lat="47.372467" lon="7.849826">
<ele>705.9</ele>
<time>2003-02-20T12:28:17Z</time>
<speed>1.1</speed>
</trkpt>
<trkpt lat="47.372496" lon="7.849884">
<ele>705.8</ele>
<time>2003-02-20T12:28:22Z</time>
<speed>1.3</speed>
</trkpt>
<trkpt lat="47.372516" lon="7.849968">
<ele>705.0</ele>
<time>2003-02-20T12:28:27Z</time>
<speed>1.8</speed>
</trkpt>
<trkpt lat="47.372515" lon="7.850090">
<ele>703.8</ele>
<time>2003-02-20T12:28:32Z</time>
<speed>2.0</speed>
</trkpt>
<trkpt lat="47.372500" lon="7.850221">
<ele>704.0</ele>
<time>2003-02-20T12:28:37Z</time>
<speed>1.5</speed>
</trkpt>
<trkpt lat="47.372513" lon="7.850316">
<ele>704.0</ele>
<time>2003-02-20T12:28:42Z</time>
<speed>1.2</speed>
</trkpt>
<trkpt lat="47.372554" lon="7.850363">
<ele>703.8</ele>
<time>2003-02-20T12:28:47Z</time>
<speed>1.4</speed>
</trkpt>
<trkpt lat="47.372617" lon="7.850387">
<ele>702.8</ele>
<time>2003-02-20T12:28:52Z</time>
<speed>1.6</speed>
</trkpt>
<trkpt lat="47.372616" lon="7.850494">
<ele>702.9</ele>
<time>2003-02-20T12:28:57Z</time>
<speed>1.6</speed>
</trkpt>
<trkpt lat="47.372616" lon="7.850600">
<ele>703.0</ele>
<time>2003-02-20T12:29:02Z</time>
<speed>3.9</speed>
</trkpt>
<trkpt lat="47.372518" lon="7.850812">
<ele>703.4</ele>
<time>2003-02-20T12:29:07Z</time>
<speed>2.0</speed>
</trkpt>
<trkpt lat="47.372503" lon="7.850944">
<ele>703.6</ele>
<time>2003-02-20T12:29:12Z</time>
<speed>1.2</speed>
</trkpt>
<trkpt lat="47.372538" lon="7.851001">
<ele>704.2</ele>
<time>2003-02-20T12:29:17Z</time>
<speed>1.3</speed>
</trkpt>
<trkpt lat="47.372551" lon="7.851084">
<ele>704.1</ele>
<time>2003-02-20T12:29:22Z</time>
<speed>1.2</speed>
</trkpt>
<trkpt lat="47.372593" lon="7.851130">
<ele>703.9</ele>
<time>2003-02-20T12:29:27Z</time>
<speed>1.4</speed>
</trkpt>
<trkpt lat="47.372657" lon="7.851141">
<ele>702.8</ele>
<time>2003-02-20T12:29:32Z</time>
<speed>1.6</speed>
</trkpt>
<trkpt lat="47.372662" lon="7.851248">
<ele>703.7</ele>
<time>2003-02-20T12:29:37Z</time>
<speed>1.4</speed>
</trkpt>
<trkpt lat="47.372717" lon="7.851296">
<ele>703.5</ele>
<time>2003-02-20T12:29:42Z</time>
<speed>1.1</speed>
</trkpt>
<trkpt lat="47.372759" lon="7.851330">
<ele>703.2</ele>
<time>2003-02-20T12:29:47Z</time>
<speed>1.6</speed>
</trkpt>
<trkpt lat="47.372829" lon="7.851341">
<ele>702.9</ele>
<time>2003-02-20T12:29:52Z</time>
<speed>1.7</speed>
</trkpt>
<trkpt lat="47.372905" lon="7.851351">
<ele>703.3</ele>
<time>2003-02-20T12:29:57Z</time>
<speed>1.2</speed>
</trkpt>
<trkpt lat="47.372926" lon="7.851422">
<ele>702.5</ele>
<time>2003-02-20T12:30:02Z</time>
<speed>2.0</speed>
</trkpt>
<trkpt lat="47.373016" lon="7.851422">
<ele>702.8</ele>
<time>2003-02-20T12:30:07Z</time>
<speed>1.2</speed>
</trkpt>
<trkpt lat="47.373023" lon="7.851503">
<ele>703.4</ele>
<time>2003-02-20T12:30:12Z</time>
<speed>1.3</speed>
</trkpt>
<trkpt lat="47.373078" lon="7.851538">
<ele>703.2</ele>
<time>2003-02-20T12:30:17Z</time>
<speed>1.4</speed>
</trkpt>
<trkpt lat="47.373134" lon="7.851573">
<ele>703.0</ele>
<time>2003-02-20T12:30:22Z</time>
<speed>1.7</speed>
</trkpt>
<trkpt lat="47.373210" lon="7.851571">
<ele>703.3</ele>
<time>2003-02-20T12:30:27Z</time>
<speed>1.6</speed>
</trkpt>
<trkpt lat="47.373280" lon="7.851582">
<ele>702.9</ele>
<time>2003-02-20T12:30:32Z</time>
<speed>1.3</speed>
</trkpt>
<trkpt lat="47.373321" lon="7.851641">
<ele>702.8</ele>
<time>2003-02-20T12:30:37Z</time>
<speed>1.2</speed>
</trkpt>
<trkpt lat="47.373361" lon="7.851699">
<ele>704.1</ele>
<time>2003-02-20T12:30:42Z</time>
<speed>1.3</speed>
</trkpt>
<trkpt lat="47.373409" lon="7.851746">
<ele>704.7</ele>
<time>2003-02-20T12:30:47Z</time>
<speed>2.5</speed>
</trkpt>
<trkpt lat="47.373521" lon="7.851710">
<ele>704.1</ele>
<time>2003-02-20T12:30:52Z</time>
<speed>1.5</speed>
</trkpt>
<trkpt lat="47.373540" lon="7.851805">
<ele>704.9</ele>
<time>2003-02-20T12:30:57Z</time>
<speed>1.8</speed>
</trkpt>
<trkpt lat="47.373544" lon="7.851925">
<ele>705.8</ele>
<time>2003-02-20T12:31:02Z</time>
<speed>1.4</speed>
</trkpt>
<trkpt lat="47.373544" lon="7.852019">
<ele>705.8</ele>
<time>2003-02-20T12:31:07Z</time>
<speed>1.3</speed>
</trkpt>
<trkpt lat="47.373585" lon="7.852076">
<ele>707.1</ele>
<time>2003-02-20T12:31:12Z</time>
<speed>1.6</speed>
</trkpt>
<trkpt lat="47.373571" lon="7.852181">
<ele>707.1</ele>
<time>2003-02-20T12:31:17Z</time>
<speed>2.8</speed>
</trkpt>
<trkpt lat="47.373509" lon="7.852345">
<ele>708.0</ele>
<time>2003-02-20T12:31:22Z</time>
<speed>1.4</speed>
</trkpt>
<trkpt lat="47.373509" lon="7.852438">
<ele>708.0</ele>
<time>2003-02-20T12:31:27Z</time>
<speed>1.3</speed>
</trkpt>
<trkpt lat="47.373543" lon="7.852511">
<ele>707.3</ele>
<time>2003-02-20T12:31:32Z</time>
<speed>1.5</speed>
</trkpt>
<trkpt lat="47.373605" lon="7.852546">
<ele>707.8</ele>
<time>2003-02-20T12:31:37Z</time>
<speed>1.3</speed>
</trkpt>
<trkpt lat="47.373625" lon="7.852630">
<ele>707.1</ele>
<time>2003-02-20T12:31:42Z</time>
<speed>1.3</speed>
</trkpt>
<trkpt lat="47.373639" lon="7.852713">
<ele>707.0</ele>
<time>2003-02-20T12:31:47Z</time>
<speed>1.4</speed>
</trkpt>
<trkpt lat="47.373646" lon="7.852808">
<ele>706.3</ele>
<time>2003-02-20T12:31:52Z</time>
<speed>1.4</speed>
</trkpt>
<trkpt lat="47.373646" lon="7.852902">
<ele>706.3</ele>
<time>2003-02-20T12:31:57Z</time>
<speed>1.4</speed>
</trkpt>
<trkpt lat="47.373639" lon="7.852994">
<ele>706.9</ele>
<time>2003-02-20T12:32:02Z</time>
<speed>1.8</speed>
</trkpt>
<trkpt lat="47.373612" lon="7.853108">
<ele>708.4</ele>
<time>2003-02-20T12:32:07Z</time>
<speed>1.8</speed>
</trkpt>
<trkpt lat="47.373604" lon="7.853226">
<ele>709.2</ele>
<time>2003-02-20T12:32:12Z</time>
<speed>1.2</speed>
</trkpt>
<trkpt lat="47.373605" lon="7.853307">
<ele>709.1</ele>
<time>2003-02-20T12:32:17Z</time>
<speed>1.1</speed>
</trkpt>
<trkpt lat="47.373620" lon="7.853378">
<ele>707.5</ele>
<time>2003-02-20T12:32:22Z</time>
<speed>1.4</speed>
</trkpt>
<trkpt lat="47.373667" lon="7.853437">
<ele>708.2</ele>
<time>2003-02-20T12:32:27Z</time>
<speed>1.4</speed>
</trkpt>
<trkpt lat="47.373667" lon="7.853531">
<ele>708.2</ele>
<time>2003-02-20T12:32:32Z</time>
<speed>1.6</speed>
</trkpt>
<trkpt lat="47.373654" lon="7.853636">
<ele>708.2</ele>
<time>2003-02-20T12:32:37Z</time>
<speed>1.4</speed>
</trkpt>
<trkpt lat="47.373654" lon="7.853729">
<ele>708.1</ele>
<time>2003-02-20T12:32:42Z</time>
<speed>1.8</speed>
</trkpt>
<trkpt lat="47.373634" lon="7.853846">
<ele>708.9</ele>
<time>2003-02-20T12:32:47Z</time>
<speed>1.6</speed>
</trkpt>
<trkpt lat="47.373620" lon="7.853951">
<ele>708.9</ele>
<time>2003-02-20T12:32:52Z</time>
<speed>1.1</speed>
</trkpt>
<trkpt lat="47.373635" lon="7.854020">
<ele>708.8</ele>
<time>2003-02-20T12:32:57Z</time>
<speed>1.4</speed>
</trkpt>
<trkpt lat="47.373641" lon="7.854113">
<ele>709.5</ele>
<time>2003-02-20T12:33:02Z</time>
<speed>1.3</speed>
</trkpt>
<trkpt lat="47.373655" lon="7.854196">
<ele>709.4</ele>
<time>2003-02-20T12:33:07Z</time>
<speed>1.4</speed>
</trkpt>
<trkpt lat="47.373655" lon="7.854289">
<ele>709.4</ele>
<time>2003-02-20T12:33:12Z</time>
<speed>1.6</speed>
</trkpt>
<trkpt lat="47.373648" lon="7.854396">
<ele>708.7</ele>
<time>2003-02-20T12:33:17Z</time>
<speed>1.4</speed>
</trkpt>
<trkpt lat="47.373649" lon="7.854490">
<ele>708.7</ele>
<time>2003-02-20T12:33:22Z</time>
<speed>1.4</speed>
</trkpt>
<trkpt lat="47.373649" lon="7.854583">
<ele>708.7</ele>
<time>2003-02-20T12:33:27Z</time>
<speed>1.6</speed>
</trkpt>
<trkpt lat="47.373648" lon="7.854690">
<ele>708.8</ele>
<time>2003-02-20T12:33:32Z</time>
<speed>2.3</speed>
</trkpt>
<trkpt lat="47.373613" lon="7.854832">
<ele>708.2</ele>
<time>2003-02-20T12:33:37Z</time>
<speed>1.1</speed>
</trkpt>
<trkpt lat="47.373642" lon="7.854890">
<ele>708.1</ele>
<time>2003-02-20T12:33:42Z</time>
<speed>1.3</speed>
</trkpt>
<trkpt lat="47.373662" lon="7.854973">
<ele>708.8</ele>
<time>2003-02-20T12:33:47Z</time>
<speed>1.2</speed>
</trkpt>
<trkpt lat="47.373689" lon="7.855044">
<ele>708.7</ele>
<time>2003-02-20T12:33:52Z</time>
<speed>1.3</speed>
</trkpt>
<trkpt lat="47.373744" lon="7.855079">
<ele>708.5</ele>
<time>2003-02-20T12:33:57Z</time>
<speed>0.6</speed>
</trkpt>
<trkpt lat="47.373769" lon="7.855096">
<ele>708.7</ele>
<time>2003-02-20T12:34:02Z</time>
<speed>0.9</speed>
</trkpt>
<trkpt lat="47.373735" lon="7.855131">
<ele>708.1</ele>
<time>2003-02-20T12:34:07Z</time>
<speed>0.9</speed>
</trkpt>
<trkpt lat="47.373696" lon="7.855139">
<ele>708.0</ele>
<time>2003-02-20T12:34:12Z</time>
<speed>0.8</speed>
</trkpt>
<trkpt lat="47.373658" lon="7.855134">
<ele>707.8</ele>
<time>2003-02-20T12:34:17Z</time>
<speed>0.7</speed>
</trkpt>
<trkpt lat="47.373653" lon="7.855091">
<ele>709.6</ele>
<time>2003-02-20T12:34:22Z</time>
<speed>0.5</speed>
</trkpt>
<trkpt lat="47.373639" lon="7.855115">
<ele>709.7</ele>
<time>2003-02-20T12:34:27Z</time>
<speed>4.4</speed>
</trkpt>
<trkpt lat="47.373492" lon="7.855307">
<ele>709.8</ele>
<time>2003-02-20T12:34:32Z</time>
<speed>1.2</speed>
</trkpt>
<trkpt lat="47.373456" lon="7.855369">
<ele>709.4</ele>
<time>2003-02-20T12:34:37Z</time>
<speed>0.0</speed>
</trkpt>
<trkpt lat="47.373456" lon="7.855369">
<ele>709.4</ele>
<time>2003-02-20T12:34:42Z</time>
<speed>0.5</speed>
</trkpt>
<trkpt lat="47.373441" lon="7.855391">
<ele>710.9</ele>
<time>2003-02-20T12:34:47Z</time>
<speed>0.1</speed>
</trkpt>
<trkpt lat="47.373435" lon="7.855391">
<ele>710.2</ele>
<time>2003-02-20T12:34:52Z</time>
<speed>0.1</speed>
</trkpt>
</trkseg>
</trk>
</gpx>
